<?xml version='1.0' encoding='UTF-8'?><gpx version="1.1" creator="JPX - https://github.com/jenetics/jpx" xmlns="http://www.topografix.com/GPX/1/1"><trk><trkseg><trkpt lat="45.8828625" lon="4.5620881"><ele>363.0</ele><time>2026-04-23T13:01:21.942Z</time></trkpt><trkpt lat="45.8828798" lon="4.5621768"><ele>363.0</ele><time>2026-04-23T13:01:29.941Z</time></trkpt><trkpt lat="45.8829391" lon="4.5622333"><ele>363.0</ele><time>2026-04-23T13:01:57.942Z</time></trkpt><trkpt lat="45.883" lon="4.562294"><ele>363.0</ele><time>2026-04-23T13:01:58.941Z</time></trkpt><trkpt lat="45.8830892" lon="4.562354"><ele>363.0</ele><time>2026-04-23T13:01:59.942Z</time></trkpt><trkpt lat="45.8832069" lon="4.5624133"><ele>363.0</ele><time>2026-04-23T13:02:00.942Z</time></trkpt><trkpt lat="45.8833195" lon="4.562465"><ele>363.0</ele><time>2026-04-23T13:02:01.942Z</time></trkpt><trkpt lat="45.8834148" lon="4.5625026"><ele>363.0</ele><time>2026-04-23T13:02:02.941Z</time></trkpt><trkpt lat="45.8834997" lon="4.5625362"><ele>363.0</ele><time>2026-04-23T13:02:03.942Z</time></trkpt><trkpt lat="45.8835815" lon="4.5625735"><ele>363.0</ele><time>2026-04-23T13:02:04.942Z</time></trkpt><trkpt lat="45.8836489" lon="4.5626254"><ele>363.0</ele><time>2026-04-23T13:02:05.942Z</time></trkpt><trkpt lat="45.8837107" lon="4.5626891"><ele>363.0</ele><time>2026-04-23T13:02:06.941Z</time></trkpt><trkpt lat="45.8837578" lon="4.5627602"><ele>361.5</ele><time>2026-04-23T13:02:07.941Z</time></trkpt><trkpt lat="45.8837982" lon="4.5628805"><ele>360.0</ele><time>2026-04-23T13:02:09.942Z</time></trkpt><trkpt lat="45.8838435" lon="4.5630551"><ele>358.5</ele><time>2026-04-23T13:02:11.942Z</time></trkpt><trkpt lat="45.8838799" lon="4.563197"><ele>357.0</ele><time>2026-04-23T13:02:12.941Z</time></trkpt><trkpt lat="45.8839099" lon="4.5633755"><ele>357.0</ele><time>2026-04-23T13:02:13.941Z</time></trkpt><trkpt lat="45.8839377" lon="4.5635632"><ele>357.0</ele><time>2026-04-23T13:02:14.942Z</time></trkpt><trkpt lat="45.8839669" lon="4.5637383"><ele>357.0</ele><time>2026-04-23T13:02:15.942Z</time></trkpt><trkpt lat="45.8839981" lon="4.5638993"><ele>357.0</ele><time>2026-04-23T13:02:16.941Z</time></trkpt><trkpt lat="45.8840332" lon="4.5640625"><ele>355.5</ele><time>2026-04-23T13:02:17.942Z</time></trkpt><trkpt lat="45.8840705" lon="4.5642386"><ele>354.0</ele><time>2026-04-23T13:02:18.941Z</time></trkpt><trkpt lat="45.8841153" lon="4.5644189"><ele>352.5</ele><time>2026-04-23T13:02:19.941Z</time></trkpt><trkpt lat="45.8841495" lon="4.5645806"><ele>351.0</ele><time>2026-04-23T13:02:20.942Z</time></trkpt><trkpt lat="45.8841848" lon="4.5647264"><ele>351.0</ele><time>2026-04-23T13:02:21.942Z</time></trkpt><trkpt lat="45.8842166" lon="4.5648541"><ele>351.0</ele><time>2026-04-23T13:02:22.941Z</time></trkpt><trkpt lat="45.884249" lon="4.5649617"><ele>351.0</ele><time>2026-04-23T13:02:23.941Z</time></trkpt><trkpt lat="45.8842814" lon="4.5650548"><ele>351.0</ele><time>2026-04-23T13:02:24.942Z</time></trkpt><trkpt lat="45.8843017" lon="4.5651498"><ele>351.0</ele><time>2026-04-23T13:02:25.942Z</time></trkpt><trkpt lat="45.8843024" lon="4.5652472"><ele>351.0</ele><time>2026-04-23T13:02:26.941Z</time></trkpt><trkpt lat="45.884283" lon="4.5653424"><ele>350.8333333333333</ele><time>2026-04-23T13:02:27.941Z</time></trkpt><trkpt lat="45.8842488" lon="4.565427"><ele>350.6666666666667</ele><time>2026-04-23T13:02:28.942Z</time></trkpt><trkpt lat="45.8842026" lon="4.5654965"><ele>350.5</ele><time>2026-04-23T13:02:29.941Z</time></trkpt><trkpt lat="45.8841011" lon="4.565582"><ele>350.33333333333337</ele><time>2026-04-23T13:02:31.941Z</time></trkpt><trkpt lat="45.8840322" lon="4.565595"><ele>350.1666666666667</ele><time>2026-04-23T13:02:32.942Z</time></trkpt><trkpt lat="45.8839513" lon="4.5655789"><ele>350.0</ele><time>2026-04-23T13:02:33.941Z</time></trkpt><trkpt lat="45.8838468" lon="4.5655425"><ele>350.0</ele><time>2026-04-23T13:02:34.942Z</time></trkpt><trkpt lat="45.8837241" lon="4.5655004"><ele>350.0</ele><time>2026-04-23T13:02:35.941Z</time></trkpt><trkpt lat="45.8836077" lon="4.5654601"><ele>350.0</ele><time>2026-04-23T13:02:36.942Z</time></trkpt><trkpt lat="45.8834974" lon="4.5654246"><ele>350.0</ele><time>2026-04-23T13:02:37.941Z</time></trkpt><trkpt lat="45.8833996" lon="4.5653991"><ele>349.83333333333337</ele><time>2026-04-23T13:02:38.942Z</time></trkpt><trkpt lat="45.8833127" lon="4.5653716"><ele>349.6666666666667</ele><time>2026-04-23T13:02:39.941Z</time></trkpt><trkpt lat="45.883237" lon="4.5653453"><ele>349.5</ele><time>2026-04-23T13:02:40.942Z</time></trkpt><trkpt lat="45.8831744" lon="4.5653207"><ele>349.3333333333333</ele><time>2026-04-23T13:02:41.941Z</time></trkpt><trkpt lat="45.8830671" lon="4.5653048"><ele>349.16666666666663</ele><time>2026-04-23T13:02:43.941Z</time></trkpt><trkpt lat="45.882988" lon="4.5653898"><ele>349.0</ele><time>2026-04-23T13:02:45.942Z</time></trkpt><trkpt lat="45.8829596" lon="4.5655013"><ele>347.5</ele><time>2026-04-23T13:02:46.942Z</time></trkpt><trkpt lat="45.8829357" lon="4.5656466"><ele>346.0</ele><time>2026-04-23T13:02:47.942Z</time></trkpt><trkpt lat="45.882896" lon="4.5658005"><ele>344.5</ele><time>2026-04-23T13:02:48.942Z</time></trkpt><trkpt lat="45.8828368" lon="4.5659458"><ele>343.0</ele><time>2026-04-23T13:02:49.941Z</time></trkpt><trkpt lat="45.8827577" lon="4.5660842"><ele>341.79999999999995</ele><time>2026-04-23T13:02:50.941Z</time></trkpt><trkpt lat="45.8826755" lon="4.5662053"><ele>340.6</ele><time>2026-04-23T13:02:51.942Z</time></trkpt><trkpt lat="45.8825952" lon="4.5663036"><ele>339.4</ele><time>2026-04-23T13:02:52.941Z</time></trkpt><trkpt lat="45.882519" lon="4.5663925"><ele>338.20000000000005</ele><time>2026-04-23T13:02:53.942Z</time></trkpt><trkpt lat="45.8824465" lon="4.5664598"><ele>337.0</ele><time>2026-04-23T13:02:54.941Z</time></trkpt><trkpt lat="45.8823789" lon="4.5665225"><ele>337.0</ele><time>2026-04-23T13:02:55.941Z</time></trkpt><trkpt lat="45.8823171" lon="4.566577"><ele>337.0</ele><time>2026-04-23T13:02:56.942Z</time></trkpt><trkpt lat="45.8822649" lon="4.5666592"><ele>337.0</ele><time>2026-04-23T13:02:57.941Z</time></trkpt><trkpt lat="45.8822214" lon="4.5667648"><ele>337.0</ele><time>2026-04-23T13:02:58.941Z</time></trkpt><trkpt lat="45.8821847" lon="4.566889"><ele>337.0</ele><time>2026-04-23T13:02:59.942Z</time></trkpt><trkpt lat="45.8821594" lon="4.5670578"><ele>337.0</ele><time>2026-04-23T13:03:00.942Z</time></trkpt><trkpt lat="45.8821358" lon="4.5672382"><ele>336.6</ele><time>2026-04-23T13:03:01.942Z</time></trkpt><trkpt lat="45.8821197" lon="4.5674019"><ele>336.20000000000005</ele><time>2026-04-23T13:03:02.941Z</time></trkpt><trkpt lat="45.8820972" lon="4.567544"><ele>335.8</ele><time>2026-04-23T13:03:03.942Z</time></trkpt><trkpt lat="45.8820646" lon="4.5676703"><ele>335.4</ele><time>2026-04-23T13:03:04.941Z</time></trkpt><trkpt lat="45.8820362" lon="4.5677856"><ele>335.0</ele><time>2026-04-23T13:03:05.941Z</time></trkpt><trkpt lat="45.8820191" lon="4.5678946"><ele>335.0</ele><time>2026-04-23T13:03:06.941Z</time></trkpt><trkpt lat="45.8820184" lon="4.5680096"><ele>335.0</ele><time>2026-04-23T13:03:07.941Z</time></trkpt><trkpt lat="45.8820352" lon="4.5681292"><ele>335.0</ele><time>2026-04-23T13:03:08.941Z</time></trkpt><trkpt lat="45.8820685" lon="4.5682507"><ele>335.0</ele><time>2026-04-23T13:03:09.942Z</time></trkpt><trkpt lat="45.8821201" lon="4.5683748"><ele>335.0</ele><time>2026-04-23T13:03:10.941Z</time></trkpt><trkpt lat="45.8821854" lon="4.5685103"><ele>335.0</ele><time>2026-04-23T13:03:11.941Z</time></trkpt><trkpt lat="45.8822606" lon="4.5686565"><ele>335.0</ele><time>2026-04-23T13:03:12.942Z</time></trkpt><trkpt lat="45.8823395" lon="4.5687982"><ele>335.0</ele><time>2026-04-23T13:03:13.941Z</time></trkpt><trkpt lat="45.8824187" lon="4.5689353"><ele>335.0</ele><time>2026-04-23T13:03:14.942Z</time></trkpt><trkpt lat="45.8824862" lon="4.5690555"><ele>334.5</ele><time>2026-04-23T13:03:15.941Z</time></trkpt><trkpt lat="45.8825471" lon="4.5691652"><ele>334.0</ele><time>2026-04-23T13:03:16.942Z</time></trkpt><trkpt lat="45.8826112" lon="4.5692651"><ele>333.5</ele><time>2026-04-23T13:03:17.942Z</time></trkpt><trkpt lat="45.8826762" lon="4.5693522"><ele>333.0</ele><time>2026-04-23T13:03:18.941Z</time></trkpt><trkpt lat="45.8827378" lon="4.5694317"><ele>332.5</ele><time>2026-04-23T13:03:19.942Z</time></trkpt><trkpt lat="45.8828006" lon="4.5695107"><ele>332.0</ele><time>2026-04-23T13:03:20.941Z</time></trkpt><trkpt lat="45.8828667" lon="4.5696033"><ele>333.20000000000005</ele><time>2026-04-23T13:03:21.942Z</time></trkpt><trkpt lat="45.8829433" lon="4.5697083"><ele>334.4</ele><time>2026-04-23T13:03:22.942Z</time></trkpt><trkpt lat="45.883025" lon="4.5698217"><ele>335.6</ele><time>2026-04-23T13:03:23.941Z</time></trkpt><trkpt lat="45.8831017" lon="4.5699283"><ele>336.79999999999995</ele><time>2026-04-23T13:03:24.941Z</time></trkpt><trkpt lat="45.8831767" lon="4.570025"><ele>338.0</ele><time>2026-04-23T13:03:25.941Z</time></trkpt><trkpt lat="45.8832483" lon="4.5701283"><ele>338.0</ele><time>2026-04-23T13:03:26.942Z</time></trkpt><trkpt lat="45.8833183" lon="4.570225"><ele>338.0</ele><time>2026-04-23T13:03:27.941Z</time></trkpt><trkpt lat="45.8833883" lon="4.57033"><ele>338.0</ele><time>2026-04-23T13:03:28.942Z</time></trkpt><trkpt lat="45.8834683" lon="4.5704317"><ele>338.0</ele><time>2026-04-23T13:03:29.942Z</time></trkpt><trkpt lat="45.8835383" lon="4.5705433"><ele>338.0</ele><time>2026-04-23T13:03:30.942Z</time></trkpt><trkpt lat="45.8836067" lon="4.57065"><ele>337.0</ele><time>2026-04-23T13:03:31.942Z</time></trkpt><trkpt lat="45.8836783" lon="4.5707817"><ele>336.0</ele><time>2026-04-23T13:03:32.942Z</time></trkpt><trkpt lat="45.883735" lon="4.5709083"><ele>335.0</ele><time>2026-04-23T13:03:33.941Z</time></trkpt><trkpt lat="45.88379" lon="4.571015"><ele>334.0</ele><time>2026-04-23T13:03:34.942Z</time></trkpt><trkpt lat="45.8838433" lon="4.571115"><ele>333.0</ele><time>2026-04-23T13:03:35.941Z</time></trkpt><trkpt lat="45.8839017" lon="4.5712183"><ele>333.0</ele><time>2026-04-23T13:03:36.942Z</time></trkpt><trkpt lat="45.8839633" lon="4.5713383"><ele>333.0</ele><time>2026-04-23T13:03:37.941Z</time></trkpt><trkpt lat="45.88402" lon="4.571445"><ele>333.0</ele><time>2026-04-23T13:03:38.941Z</time></trkpt><trkpt lat="45.8840683" lon="4.5715533"><ele>333.0</ele><time>2026-04-23T13:03:39.941Z</time></trkpt><trkpt lat="45.8841183" lon="4.5716733"><ele>333.0</ele><time>2026-04-23T13:03:40.941Z</time></trkpt><trkpt lat="45.8841667" lon="4.5717917"><ele>333.0</ele><time>2026-04-23T13:03:41.941Z</time></trkpt><trkpt lat="45.8842083" lon="4.5719217"><ele>333.0</ele><time>2026-04-23T13:03:42.941Z</time></trkpt><trkpt lat="45.884245" lon="4.5720617"><ele>333.0</ele><time>2026-04-23T13:03:43.942Z</time></trkpt><trkpt lat="45.8842783" lon="4.5722133"><ele>333.0</ele><time>2026-04-23T13:03:44.942Z</time></trkpt><trkpt lat="45.8843117" lon="4.5723617"><ele>333.0</ele><time>2026-04-23T13:03:45.942Z</time></trkpt><trkpt lat="45.8843367" lon="4.5725067"><ele>332.0</ele><time>2026-04-23T13:03:46.942Z</time></trkpt><trkpt lat="45.8843667" lon="4.5726367"><ele>331.0</ele><time>2026-04-23T13:03:47.941Z</time></trkpt><trkpt lat="45.88439" lon="4.5727683"><ele>330.0</ele><time>2026-04-23T13:03:48.942Z</time></trkpt><trkpt lat="45.8844083" lon="4.5728933"><ele>329.0</ele><time>2026-04-23T13:03:49.942Z</time></trkpt><trkpt lat="45.8844233" lon="4.5730117"><ele>328.0</ele><time>2026-04-23T13:03:50.941Z</time></trkpt><trkpt lat="45.884445" lon="4.573125"><ele>327.0</ele><time>2026-04-23T13:03:51.942Z</time></trkpt><trkpt lat="45.88447" lon="4.5732267"><ele>325.8333333333333</ele><time>2026-04-23T13:03:52.941Z</time></trkpt><trkpt lat="45.884505" lon="4.573325"><ele>324.6666666666667</ele><time>2026-04-23T13:03:53.941Z</time></trkpt><trkpt lat="45.8845517" lon="4.57343"><ele>323.5</ele><time>2026-04-23T13:03:54.941Z</time></trkpt><trkpt lat="45.884605" lon="4.57353"><ele>322.33333333333337</ele><time>2026-04-23T13:03:55.942Z</time></trkpt><trkpt lat="45.8846583" lon="4.57363"><ele>321.1666666666667</ele><time>2026-04-23T13:03:56.941Z</time></trkpt><trkpt lat="45.8847117" lon="4.573725"><ele>320.0</ele><time>2026-04-23T13:03:57.942Z</time></trkpt><trkpt lat="45.884765" lon="4.5738217"><ele>319.1666666666667</ele><time>2026-04-23T13:03:58.941Z</time></trkpt><trkpt lat="45.8848233" lon="4.5739217"><ele>318.33333333333337</ele><time>2026-04-23T13:03:59.941Z</time></trkpt><trkpt lat="45.8848783" lon="4.574015"><ele>317.5</ele><time>2026-04-23T13:04:00.942Z</time></trkpt><trkpt lat="45.8849383" lon="4.5741133"><ele>316.6666666666667</ele><time>2026-04-23T13:04:01.942Z</time></trkpt><trkpt lat="45.884995" lon="4.574205"><ele>315.8333333333333</ele><time>2026-04-23T13:04:02.941Z</time></trkpt><trkpt lat="45.8850517" lon="4.5742917"><ele>315.0</ele><time>2026-04-23T13:04:03.942Z</time></trkpt><trkpt lat="45.885115" lon="4.574385"><ele>314.2</ele><time>2026-04-23T13:04:04.942Z</time></trkpt><trkpt lat="45.88518" lon="4.574495"><ele>313.4</ele><time>2026-04-23T13:04:05.942Z</time></trkpt><trkpt lat="45.8852483" lon="4.5746067"><ele>312.6</ele><time>2026-04-23T13:04:06.941Z</time></trkpt><trkpt lat="45.885315" lon="4.5747133"><ele>311.8</ele><time>2026-04-23T13:04:07.941Z</time></trkpt><trkpt lat="45.8853817" lon="4.574815"><ele>311.0</ele><time>2026-04-23T13:04:08.941Z</time></trkpt><trkpt lat="45.885445" lon="4.574915"><ele>309.5</ele><time>2026-04-23T13:04:09.941Z</time></trkpt><trkpt lat="45.8855017" lon="4.5750133"><ele>308.0</ele><time>2026-04-23T13:04:10.942Z</time></trkpt><trkpt lat="45.8855583" lon="4.575105"><ele>306.5</ele><time>2026-04-23T13:04:11.941Z</time></trkpt><trkpt lat="45.8856133" lon="4.57519"><ele>305.0</ele><time>2026-04-23T13:04:12.942Z</time></trkpt><trkpt lat="45.885665" lon="4.5752767"><ele>303.5</ele><time>2026-04-23T13:04:13.941Z</time></trkpt><trkpt lat="45.88572" lon="4.575355"><ele>302.0</ele><time>2026-04-23T13:04:14.942Z</time></trkpt><trkpt lat="45.8857683" lon="4.57543"><ele>302.2</ele><time>2026-04-23T13:04:15.941Z</time></trkpt><trkpt lat="45.8858117" lon="4.5755017"><ele>302.4</ele><time>2026-04-23T13:04:16.941Z</time></trkpt><trkpt lat="45.8858917" lon="4.575625"><ele>302.6</ele><time>2026-04-23T13:04:18.941Z</time></trkpt><trkpt lat="45.8859783" lon="4.575735"><ele>302.8</ele><time>2026-04-23T13:04:20.941Z</time></trkpt><trkpt lat="45.886075" lon="4.5758517"><ele>303.0</ele><time>2026-04-23T13:04:22.942Z</time></trkpt><trkpt lat="45.8861367" lon="4.5759217"><ele>303.0</ele><time>2026-04-23T13:04:23.941Z</time></trkpt><trkpt lat="45.8862" lon="4.5759967"><ele>303.0</ele><time>2026-04-23T13:04:24.941Z</time></trkpt><trkpt lat="45.8862617" lon="4.57606"><ele>303.0</ele><time>2026-04-23T13:04:25.941Z</time></trkpt><trkpt lat="45.8863183" lon="4.5761133"><ele>303.0</ele><time>2026-04-23T13:04:26.941Z</time></trkpt><trkpt lat="45.8863967" lon="4.5762133"><ele>303.0</ele><time>2026-04-23T13:04:28.941Z</time></trkpt><trkpt lat="45.88644" lon="4.5762883"><ele>303.0</ele><time>2026-04-23T13:04:29.941Z</time></trkpt><trkpt lat="45.8865133" lon="4.576425"><ele>302.1666666666667</ele><time>2026-04-23T13:04:31.942Z</time></trkpt><trkpt lat="45.886595" lon="4.57653"><ele>301.3333333333333</ele><time>2026-04-23T13:04:33.941Z</time></trkpt><trkpt lat="45.8866983" lon="4.576625"><ele>300.5</ele><time>2026-04-23T13:04:35.941Z</time></trkpt><trkpt lat="45.8867583" lon="4.5766783"><ele>299.66666666666663</ele><time>2026-04-23T13:04:36.942Z</time></trkpt><trkpt lat="45.8868183" lon="4.5767317"><ele>298.8333333333333</ele><time>2026-04-23T13:04:37.941Z</time></trkpt><trkpt lat="45.8868767" lon="4.576775"><ele>298.0</ele><time>2026-04-23T13:04:38.942Z</time></trkpt><trkpt lat="45.8869917" lon="4.5768667"><ele>298.0</ele><time>2026-04-23T13:04:40.941Z</time></trkpt><trkpt lat="45.8870533" lon="4.5769217"><ele>298.0</ele><time>2026-04-23T13:04:41.942Z</time></trkpt><trkpt lat="45.8871117" lon="4.5769633"><ele>298.0</ele><time>2026-04-23T13:04:42.942Z</time></trkpt><trkpt lat="45.8872217" lon="4.5770417"><ele>298.0</ele><time>2026-04-23T13:04:44.941Z</time></trkpt><trkpt lat="45.8873233" lon="4.5771317"><ele>298.0</ele><time>2026-04-23T13:04:46.942Z</time></trkpt><trkpt lat="45.887375" lon="4.5771883"><ele>298.0</ele><time>2026-04-23T13:04:47.941Z</time></trkpt><trkpt lat="45.8874333" lon="4.5772417"><ele>297.2857142857143</ele><time>2026-04-23T13:04:48.942Z</time></trkpt><trkpt lat="45.88749" lon="4.5773"><ele>296.57142857142856</ele><time>2026-04-23T13:04:49.942Z</time></trkpt><trkpt lat="45.8875383" lon="4.577365"><ele>295.85714285714283</ele><time>2026-04-23T13:04:50.941Z</time></trkpt><trkpt lat="45.8875883" lon="4.5774367"><ele>295.1428571428571</ele><time>2026-04-23T13:04:51.941Z</time></trkpt><trkpt lat="45.8876267" lon="4.5775167"><ele>294.42857142857144</ele><time>2026-04-23T13:04:52.941Z</time></trkpt><trkpt lat="45.8876717" lon="4.577595"><ele>293.71428571428567</ele><time>2026-04-23T13:04:53.941Z</time></trkpt><trkpt lat="45.8877183" lon="4.5776717"><ele>293.0</ele><time>2026-04-23T13:04:54.942Z</time></trkpt><trkpt lat="45.8877583" lon="4.5777433"><ele>292.6666666666667</ele><time>2026-04-23T13:04:55.941Z</time></trkpt><trkpt lat="45.8878567" lon="4.5778583"><ele>292.33333333333337</ele><time>2026-04-23T13:04:57.942Z</time></trkpt><trkpt lat="45.8879217" lon="4.577915"><ele>292.0</ele><time>2026-04-23T13:04:58.941Z</time></trkpt><trkpt lat="45.88798" lon="4.5779883"><ele>291.6666666666667</ele><time>2026-04-23T13:04:59.941Z</time></trkpt><trkpt lat="45.888035" lon="4.5780517"><ele>291.3333333333333</ele><time>2026-04-23T13:05:00.941Z</time></trkpt><trkpt lat="45.888085" lon="4.5781117"><ele>291.0</ele><time>2026-04-23T13:05:01.942Z</time></trkpt><trkpt lat="45.8881367" lon="4.5781683"><ele>291.0</ele><time>2026-04-23T13:05:02.942Z</time></trkpt><trkpt lat="45.88819" lon="4.5782317"><ele>291.0</ele><time>2026-04-23T13:05:03.941Z</time></trkpt><trkpt lat="45.888245" lon="4.5783117"><ele>291.0</ele><time>2026-04-23T13:05:04.941Z</time></trkpt><trkpt lat="45.8882967" lon="4.57838"><ele>291.0</ele><time>2026-04-23T13:05:05.941Z</time></trkpt><trkpt lat="45.8883467" lon="4.5784533"><ele>291.0</ele><time>2026-04-23T13:05:06.941Z</time></trkpt><trkpt lat="45.8884233" lon="4.5785833"><ele>291.0</ele><time>2026-04-23T13:05:08.941Z</time></trkpt><trkpt lat="45.8884783" lon="4.5787067"><ele>290.8333333333333</ele><time>2026-04-23T13:05:10.941Z</time></trkpt><trkpt lat="45.88855" lon="4.5788233"><ele>290.6666666666667</ele><time>2026-04-23T13:05:12.942Z</time></trkpt><trkpt lat="45.88858" lon="4.5789233"><ele>290.5</ele><time>2026-04-23T13:05:14.942Z</time></trkpt><trkpt lat="45.88855" lon="4.5790083"><ele>290.33333333333337</ele><time>2026-04-23T13:05:16.942Z</time></trkpt><trkpt lat="45.888495" lon="4.5790617"><ele>290.1666666666667</ele><time>2026-04-23T13:05:17.941Z</time></trkpt><trkpt lat="45.888435" lon="4.5791233"><ele>290.0</ele><time>2026-04-23T13:05:18.941Z</time></trkpt><trkpt lat="45.88838" lon="4.579185"><ele>289.83333333333337</ele><time>2026-04-23T13:05:19.942Z</time></trkpt><trkpt lat="45.8883267" lon="4.5793017"><ele>289.6666666666667</ele><time>2026-04-23T13:05:21.942Z</time></trkpt><trkpt lat="45.8883367" lon="4.57942"><ele>289.5</ele><time>2026-04-23T13:05:23.942Z</time></trkpt><trkpt lat="45.8883717" lon="4.5795017"><ele>289.3333333333333</ele><time>2026-04-23T13:05:24.942Z</time></trkpt><trkpt lat="45.8884183" lon="4.57959"><ele>289.16666666666663</ele><time>2026-04-23T13:05:25.942Z</time></trkpt><trkpt lat="45.888475" lon="4.579675"><ele>289.0</ele><time>2026-04-23T13:05:26.942Z</time></trkpt><trkpt lat="45.8885333" lon="4.5797517"><ele>289.0</ele><time>2026-04-23T13:05:27.942Z</time></trkpt><trkpt lat="45.8885767" lon="4.57982"><ele>289.0</ele><time>2026-04-23T13:05:28.941Z</time></trkpt><trkpt lat="45.8886333" lon="4.5799017"><ele>289.0</ele><time>2026-04-23T13:05:30.941Z</time></trkpt><trkpt lat="45.888695" lon="4.5799983"><ele>289.0</ele><time>2026-04-23T13:05:32.941Z</time></trkpt><trkpt lat="45.888765" lon="4.5800667"><ele>289.0</ele><time>2026-04-23T13:05:34.942Z</time></trkpt><trkpt lat="45.8888283" lon="4.5801283"><ele>289.0</ele><time>2026-04-23T13:05:36.942Z</time></trkpt><trkpt lat="45.8889767" lon="4.580255"><ele>289.0</ele><time>2026-04-23T13:06:19.941Z</time></trkpt><trkpt lat="45.889075" lon="4.5803367"><ele>289.0</ele><time>2026-04-23T13:06:21.942Z</time></trkpt><trkpt lat="45.889175" lon="4.5804167"><ele>289.0</ele><time>2026-04-23T13:06:23.941Z</time></trkpt><trkpt lat="45.8892833" lon="4.5804967"><ele>289.0</ele><time>2026-04-23T13:06:25.941Z</time></trkpt><trkpt lat="45.8893433" lon="4.5805283"><ele>289.0</ele><time>2026-04-23T13:06:26.942Z</time></trkpt><trkpt lat="45.8894133" lon="4.5805717"><ele>288.2</ele><time>2026-04-23T13:06:27.941Z</time></trkpt><trkpt lat="45.88948" lon="4.5806017"><ele>287.4</ele><time>2026-04-23T13:06:28.941Z</time></trkpt><trkpt lat="45.8895983" lon="4.580685"><ele>286.6</ele><time>2026-04-23T13:06:30.941Z</time></trkpt><trkpt lat="45.8897" lon="4.5807783"><ele>285.8</ele><time>2026-04-23T13:06:32.942Z</time></trkpt><trkpt lat="45.8897517" lon="4.58083"><ele>285.0</ele><time>2026-04-23T13:06:33.941Z</time></trkpt><trkpt lat="45.8898067" lon="4.5808833"><ele>285.0</ele><time>2026-04-23T13:06:34.942Z</time></trkpt><trkpt lat="45.88986" lon="4.5809333"><ele>285.0</ele><time>2026-04-23T13:06:35.941Z</time></trkpt><trkpt lat="45.8899767" lon="4.5810383"><ele>285.0</ele><time>2026-04-23T13:06:37.941Z</time></trkpt><trkpt lat="45.8900517" lon="4.5811067"><ele>285.0</ele><time>2026-04-23T13:06:38.942Z</time></trkpt><trkpt lat="45.890125" lon="4.5811667"><ele>285.0</ele><time>2026-04-23T13:06:39.941Z</time></trkpt><trkpt lat="45.8901867" lon="4.581225"><ele>285.0</ele><time>2026-04-23T13:06:40.941Z</time></trkpt><trkpt lat="45.89024" lon="4.5812817"><ele>284.85714285714283</ele><time>2026-04-23T13:06:41.942Z</time></trkpt><trkpt lat="45.8902983" lon="4.5813317"><ele>284.7142857142857</ele><time>2026-04-23T13:06:42.942Z</time></trkpt><trkpt lat="45.8903533" lon="4.581385"><ele>284.57142857142856</ele><time>2026-04-23T13:06:43.942Z</time></trkpt><trkpt lat="45.8904167" lon="4.5814433"><ele>284.42857142857144</ele><time>2026-04-23T13:06:44.942Z</time></trkpt><trkpt lat="45.8904833" lon="4.5814967"><ele>284.2857142857143</ele><time>2026-04-23T13:06:45.942Z</time></trkpt><trkpt lat="45.8905433" lon="4.5815567"><ele>284.1428571428571</ele><time>2026-04-23T13:06:46.942Z</time></trkpt><trkpt lat="45.8905967" lon="4.5816183"><ele>284.0</ele><time>2026-04-23T13:06:47.941Z</time></trkpt><trkpt lat="45.8906567" lon="4.5816817"><ele>284.0</ele><time>2026-04-23T13:06:48.941Z</time></trkpt><trkpt lat="45.89071" lon="4.5817367"><ele>284.0</ele><time>2026-04-23T13:06:49.942Z</time></trkpt><trkpt lat="45.890815" lon="4.58185"><ele>284.0</ele><time>2026-04-23T13:06:51.941Z</time></trkpt><trkpt lat="45.8908767" lon="4.5819167"><ele>284.0</ele><time>2026-04-23T13:06:52.942Z</time></trkpt><trkpt lat="45.89094" lon="4.5819833"><ele>284.0</ele><time>2026-04-23T13:06:53.941Z</time></trkpt><trkpt lat="45.8910083" lon="4.5820583"><ele>284.0</ele><time>2026-04-23T13:06:54.941Z</time></trkpt><trkpt lat="45.891065" lon="4.582125"><ele>283.8</ele><time>2026-04-23T13:06:55.941Z</time></trkpt><trkpt lat="45.8911517" lon="4.58223"><ele>283.59999999999997</ele><time>2026-04-23T13:06:57.942Z</time></trkpt><trkpt lat="45.891235" lon="4.5823283"><ele>283.4</ele><time>2026-04-23T13:06:59.942Z</time></trkpt><trkpt lat="45.891325" lon="4.5824367"><ele>283.2</ele><time>2026-04-23T13:07:01.942Z</time></trkpt><trkpt lat="45.8914067" lon="4.5825183"><ele>283.0</ele><time>2026-04-23T13:07:03.941Z</time></trkpt><trkpt lat="45.89151" lon="4.5826183"><ele>283.0</ele><time>2026-04-23T13:07:05.942Z</time></trkpt><trkpt lat="45.8915717" lon="4.5826867"><ele>283.0</ele><time>2026-04-23T13:07:06.941Z</time></trkpt><trkpt lat="45.8916283" lon="4.58275"><ele>283.0</ele><time>2026-04-23T13:07:07.942Z</time></trkpt><trkpt lat="45.8916933" lon="4.5828067"><ele>283.0</ele><time>2026-04-23T13:07:08.942Z</time></trkpt><trkpt lat="45.891755" lon="4.5828733"><ele>283.0</ele><time>2026-04-23T13:07:09.941Z</time></trkpt><trkpt lat="45.891815" lon="4.5829317"><ele>283.0</ele><time>2026-04-23T13:07:10.941Z</time></trkpt><trkpt lat="45.89187" lon="4.5829817"><ele>283.0</ele><time>2026-04-23T13:07:11.942Z</time></trkpt><trkpt lat="45.8919233" lon="4.58304"><ele>282.66666666666663</ele><time>2026-04-23T13:07:12.941Z</time></trkpt><trkpt lat="45.8919733" lon="4.5830983"><ele>282.3333333333333</ele><time>2026-04-23T13:07:13.942Z</time></trkpt><trkpt lat="45.8920333" lon="4.583145"><ele>282.0</ele><time>2026-04-23T13:07:14.941Z</time></trkpt><trkpt lat="45.8920983" lon="4.5831967"><ele>281.6666666666667</ele><time>2026-04-23T13:07:15.941Z</time></trkpt><trkpt lat="45.892165" lon="4.5832467"><ele>281.33333333333337</ele><time>2026-04-23T13:07:16.942Z</time></trkpt><trkpt lat="45.89223" lon="4.5833183"><ele>281.0</ele><time>2026-04-23T13:07:17.942Z</time></trkpt><trkpt lat="45.8923017" lon="4.58342"><ele>281.0</ele><time>2026-04-23T13:07:18.941Z</time></trkpt><trkpt lat="45.8923733" lon="4.5835367"><ele>281.0</ele><time>2026-04-23T13:07:19.941Z</time></trkpt><trkpt lat="45.8924417" lon="4.5836617"><ele>281.0</ele><time>2026-04-23T13:07:20.942Z</time></trkpt><trkpt lat="45.8924983" lon="4.583785"><ele>281.0</ele><time>2026-04-23T13:07:21.941Z</time></trkpt><trkpt lat="45.892555" lon="4.5839"><ele>281.0</ele><time>2026-04-23T13:07:22.942Z</time></trkpt><trkpt lat="45.89261" lon="4.584025"><ele>279.6</ele><time>2026-04-23T13:07:23.941Z</time></trkpt><trkpt lat="45.8926633" lon="4.5841517"><ele>278.20000000000005</ele><time>2026-04-23T13:07:24.942Z</time></trkpt><trkpt lat="45.8927017" lon="4.5842717"><ele>276.79999999999995</ele><time>2026-04-23T13:07:25.941Z</time></trkpt><trkpt lat="45.892735" lon="4.584385"><ele>275.4</ele><time>2026-04-23T13:07:26.941Z</time></trkpt><trkpt lat="45.8927767" lon="4.5844967"><ele>274.0</ele><time>2026-04-23T13:07:27.941Z</time></trkpt><trkpt lat="45.8928333" lon="4.5846067"><ele>273.2</ele><time>2026-04-23T13:07:28.941Z</time></trkpt><trkpt lat="45.8928967" lon="4.5847133"><ele>272.4</ele><time>2026-04-23T13:07:29.941Z</time></trkpt><trkpt lat="45.89297" lon="4.5848217"><ele>271.6</ele><time>2026-04-23T13:07:30.942Z</time></trkpt><trkpt lat="45.8930367" lon="4.584925"><ele>270.8</ele><time>2026-04-23T13:07:31.942Z</time></trkpt><trkpt lat="45.8931233" lon="4.5850267"><ele>270.0</ele><time>2026-04-23T13:07:32.942Z</time></trkpt><trkpt lat="45.8932017" lon="4.5851217"><ele>270.0</ele><time>2026-04-23T13:07:33.942Z</time></trkpt><trkpt lat="45.8932767" lon="4.5851967"><ele>270.0</ele><time>2026-04-23T13:07:34.941Z</time></trkpt><trkpt lat="45.8933467" lon="4.5852583"><ele>270.0</ele><time>2026-04-23T13:07:35.941Z</time></trkpt><trkpt lat="45.8934433" lon="4.585355"><ele>270.0</ele><time>2026-04-23T13:07:37.941Z</time></trkpt><trkpt lat="45.8935217" lon="4.5854417"><ele>270.0</ele><time>2026-04-23T13:07:39.942Z</time></trkpt><trkpt lat="45.8936233" lon="4.5855717"><ele>267.6666666666667</ele><time>2026-04-23T13:07:41.941Z</time></trkpt><trkpt lat="45.8936683" lon="4.585635"><ele>265.3333333333333</ele><time>2026-04-23T13:07:42.941Z</time></trkpt><trkpt lat="45.8937433" lon="4.5856967"><ele>263.0</ele><time>2026-04-23T13:07:44.941Z</time></trkpt><trkpt lat="45.893835" lon="4.58565"><ele>260.66666666666663</ele><time>2026-04-23T13:07:46.942Z</time></trkpt><trkpt lat="45.8938933" lon="4.58557"><ele>258.3333333333333</ele><time>2026-04-23T13:07:47.942Z</time></trkpt><trkpt lat="45.893945" lon="4.5855"><ele>256.0</ele><time>2026-04-23T13:07:48.941Z</time></trkpt><trkpt lat="45.8940467" lon="4.58545"><ele>255.99999999999997</ele><time>2026-04-23T13:07:50.942Z</time></trkpt><trkpt lat="45.8941317" lon="4.5855667"><ele>256.0</ele><time>2026-04-23T13:07:52.941Z</time></trkpt><trkpt lat="45.8941767" lon="4.585665"><ele>256.0</ele><time>2026-04-23T13:07:53.942Z</time></trkpt><trkpt lat="45.8942183" lon="4.5857617"><ele>256.0</ele><time>2026-04-23T13:07:54.941Z</time></trkpt><trkpt lat="45.8942583" lon="4.5858483"><ele>255.99999999999997</ele><time>2026-04-23T13:07:55.941Z</time></trkpt><trkpt lat="45.8942983" lon="4.5859233"><ele>256.0</ele><time>2026-04-23T13:07:56.941Z</time></trkpt><trkpt lat="45.8944017" lon="4.5860233"><ele>254.33333333333331</ele><time>2026-04-23T13:07:58.942Z</time></trkpt><trkpt lat="45.894475" lon="4.5860683"><ele>252.66666666666666</ele><time>2026-04-23T13:08:00.941Z</time></trkpt><trkpt lat="45.89455" lon="4.586155"><ele>251.0</ele><time>2026-04-23T13:08:03.942Z</time></trkpt><trkpt lat="45.89457" lon="4.5862617"><ele>249.33333333333331</ele><time>2026-04-23T13:08:04.941Z</time></trkpt><trkpt lat="45.8945883" lon="4.5863867"><ele>247.66666666666666</ele><time>2026-04-23T13:08:05.941Z</time></trkpt><trkpt lat="45.89462" lon="4.5865133"><ele>246.0</ele><time>2026-04-23T13:08:06.942Z</time></trkpt><trkpt lat="45.8946467" lon="4.5866467"><ele>245.66666666666666</ele><time>2026-04-23T13:08:07.942Z</time></trkpt><trkpt lat="45.8946683" lon="4.5867783"><ele>245.33333333333331</ele><time>2026-04-23T13:08:08.942Z</time></trkpt><trkpt lat="45.8946967" lon="4.5868917"><ele>245.0</ele><time>2026-04-23T13:08:09.941Z</time></trkpt><trkpt lat="45.89472" lon="4.5869933"><ele>244.66666666666666</ele><time>2026-04-23T13:08:10.942Z</time></trkpt><trkpt lat="45.8947383" lon="4.5870933"><ele>244.33333333333331</ele><time>2026-04-23T13:08:11.941Z</time></trkpt><trkpt lat="45.8947533" lon="4.5871983"><ele>244.0</ele><time>2026-04-23T13:08:12.941Z</time></trkpt><trkpt lat="45.8947683" lon="4.5873017"><ele>243.33333333333331</ele><time>2026-04-23T13:08:13.941Z</time></trkpt><trkpt lat="45.8947817" lon="4.5874217"><ele>242.66666666666666</ele><time>2026-04-23T13:08:14.942Z</time></trkpt><trkpt lat="45.89479" lon="4.5875367"><ele>242.0</ele><time>2026-04-23T13:08:15.942Z</time></trkpt><trkpt lat="45.894785" lon="4.587645"><ele>241.33333333333331</ele><time>2026-04-23T13:08:16.941Z</time></trkpt><trkpt lat="45.8947617" lon="4.5877533"><ele>240.66666666666666</ele><time>2026-04-23T13:08:17.942Z</time></trkpt><trkpt lat="45.8947233" lon="4.587845"><ele>240.0</ele><time>2026-04-23T13:08:18.942Z</time></trkpt><trkpt lat="45.894685" lon="4.5879217"><ele>239.33333333333334</ele><time>2026-04-23T13:08:19.942Z</time></trkpt><trkpt lat="45.894635" lon="4.5880183"><ele>238.66666666666669</ele><time>2026-04-23T13:08:20.942Z</time></trkpt><trkpt lat="45.89458" lon="4.5881133"><ele>238.0</ele><time>2026-04-23T13:08:21.941Z</time></trkpt><trkpt lat="45.8945317" lon="4.58819"><ele>237.33333333333334</ele><time>2026-04-23T13:08:22.941Z</time></trkpt><trkpt lat="45.894475" lon="4.5882733"><ele>236.66666666666669</ele><time>2026-04-23T13:08:23.941Z</time></trkpt><trkpt lat="45.8944217" lon="4.588355"><ele>236.0</ele><time>2026-04-23T13:08:24.942Z</time></trkpt><trkpt lat="45.8943817" lon="4.5884267"><ele>236.0</ele><time>2026-04-23T13:08:25.941Z</time></trkpt><trkpt lat="45.894325" lon="4.5885567"><ele>236.00000000000003</ele><time>2026-04-23T13:08:27.942Z</time></trkpt><trkpt lat="45.8943333" lon="4.5887567"><ele>236.00000000000003</ele><time>2026-04-23T13:08:29.941Z</time></trkpt><trkpt lat="45.8943667" lon="4.5888767"><ele>236.0</ele><time>2026-04-23T13:08:30.942Z</time></trkpt><trkpt lat="45.89441" lon="4.5890067"><ele>236.0</ele><time>2026-04-23T13:08:31.941Z</time></trkpt><trkpt lat="45.8944583" lon="4.58914"><ele>235.60000000000002</ele><time>2026-04-23T13:08:32.942Z</time></trkpt><trkpt lat="45.894505" lon="4.58927"><ele>235.20000000000002</ele><time>2026-04-23T13:08:33.941Z</time></trkpt><trkpt lat="45.89455" lon="4.5894083"><ele>234.79999999999998</ele><time>2026-04-23T13:08:34.941Z</time></trkpt><trkpt lat="45.8945983" lon="4.58955"><ele>234.39999999999998</ele><time>2026-04-23T13:08:35.941Z</time></trkpt><trkpt lat="45.89464" lon="4.5896867"><ele>234.0</ele><time>2026-04-23T13:08:36.941Z</time></trkpt><trkpt lat="45.89468" lon="4.58981"><ele>234.0</ele><time>2026-04-23T13:08:37.941Z</time></trkpt><trkpt lat="45.8947217" lon="4.58992"><ele>233.99999999999997</ele><time>2026-04-23T13:08:38.941Z</time></trkpt><trkpt lat="45.8947667" lon="4.59004"><ele>233.99999999999997</ele><time>2026-04-23T13:08:39.942Z</time></trkpt><trkpt lat="45.894815" lon="4.5901717"><ele>234.0</ele><time>2026-04-23T13:08:40.941Z</time></trkpt><trkpt lat="45.894865" lon="4.5902883"><ele>234.0</ele><time>2026-04-23T13:08:41.942Z</time></trkpt><trkpt lat="45.894915" lon="4.590405"><ele>233.85714285714286</ele><time>2026-04-23T13:08:42.942Z</time></trkpt><trkpt lat="45.8949633" lon="4.590515"><ele>233.71428571428572</ele><time>2026-04-23T13:08:43.941Z</time></trkpt><trkpt lat="45.895005" lon="4.59061"><ele>233.57142857142858</ele><time>2026-04-23T13:08:44.941Z</time></trkpt><trkpt lat="45.895045" lon="4.5907"><ele>233.42857142857144</ele><time>2026-04-23T13:08:45.942Z</time></trkpt><trkpt lat="45.8950783" lon="4.59078"><ele>233.28571428571428</ele><time>2026-04-23T13:08:46.941Z</time></trkpt><trkpt lat="45.8951117" lon="4.5908683"><ele>233.14285714285717</ele><time>2026-04-23T13:08:47.942Z</time></trkpt><trkpt lat="45.8951517" lon="4.59095"><ele>233.0</ele><time>2026-04-23T13:08:48.942Z</time></trkpt><trkpt lat="45.8952067" lon="4.591035"><ele>232.83333333333334</ele><time>2026-04-23T13:08:49.941Z</time></trkpt><trkpt lat="45.8952583" lon="4.591115"><ele>232.66666666666669</ele><time>2026-04-23T13:08:50.942Z</time></trkpt><trkpt lat="45.8953217" lon="4.5911883"><ele>232.5</ele><time>2026-04-23T13:08:51.941Z</time></trkpt><trkpt lat="45.8953933" lon="4.59124"><ele>232.33333333333331</ele><time>2026-04-23T13:08:52.941Z</time></trkpt><trkpt lat="45.8954733" lon="4.5912833"><ele>232.16666666666666</ele><time>2026-04-23T13:08:53.941Z</time></trkpt><trkpt lat="45.8955717" lon="4.5913133"><ele>232.0</ele><time>2026-04-23T13:08:54.941Z</time></trkpt><trkpt lat="45.89568" lon="4.5913233"><ele>232.16666666666666</ele><time>2026-04-23T13:08:55.941Z</time></trkpt><trkpt lat="45.8957817" lon="4.5913183"><ele>232.33333333333331</ele><time>2026-04-23T13:08:56.941Z</time></trkpt><trkpt lat="45.8958733" lon="4.5913317"><ele>232.5</ele><time>2026-04-23T13:08:57.942Z</time></trkpt><trkpt lat="45.8959517" lon="4.5913717"><ele>232.66666666666669</ele><time>2026-04-23T13:08:58.942Z</time></trkpt><trkpt lat="45.896015" lon="4.5914133"><ele>232.83333333333334</ele><time>2026-04-23T13:08:59.941Z</time></trkpt><trkpt lat="45.8960733" lon="4.591455"><ele>233.0</ele><time>2026-04-23T13:09:00.941Z</time></trkpt><trkpt lat="45.8961683" lon="4.591525"><ele>233.0</ele><time>2026-04-23T13:09:02.942Z</time></trkpt><trkpt lat="45.8962583" lon="4.5915367"><ele>233.0</ele><time>2026-04-23T13:09:04.941Z</time></trkpt><trkpt lat="45.8963317" lon="4.5914417"><ele>233.0</ele><time>2026-04-23T13:09:06.941Z</time></trkpt><trkpt lat="45.8963983" lon="4.5914033"><ele>233.0</ele><time>2026-04-23T13:09:08.941Z</time></trkpt><trkpt lat="45.8964933" lon="4.5914217"><ele>233.0</ele><time>2026-04-23T13:09:13.942Z</time></trkpt><trkpt lat="45.89661" lon="4.5913217"><ele>233.0</ele><time>2026-04-23T13:09:15.941Z</time></trkpt><trkpt lat="45.8966933" lon="4.5912"><ele>233.0</ele><time>2026-04-23T13:09:16.941Z</time></trkpt><trkpt lat="45.8967767" lon="4.59107"><ele>233.0</ele><time>2026-04-23T13:09:17.942Z</time></trkpt><trkpt lat="45.8968467" lon="4.5909533"><ele>233.0</ele><time>2026-04-23T13:09:18.941Z</time></trkpt><trkpt lat="45.89691" lon="4.5908433"><ele>233.0</ele><time>2026-04-23T13:09:19.942Z</time></trkpt><trkpt lat="45.8969783" lon="4.5907183"><ele>233.0</ele><time>2026-04-23T13:09:20.941Z</time></trkpt><trkpt lat="45.8970533" lon="4.5905833"><ele>233.0</ele><time>2026-04-23T13:09:21.941Z</time></trkpt><trkpt lat="45.89713" lon="4.5904617"><ele>233.0</ele><time>2026-04-23T13:09:22.942Z</time></trkpt><trkpt lat="45.897205" lon="4.590335"><ele>233.0</ele><time>2026-04-23T13:09:23.941Z</time></trkpt><trkpt lat="45.8972767" lon="4.5902117"><ele>233.0</ele><time>2026-04-23T13:09:24.941Z</time></trkpt><trkpt lat="45.8973417" lon="4.5901033"><ele>233.0</ele><time>2026-04-23T13:09:25.942Z</time></trkpt><trkpt lat="45.8974017" lon="4.5899967"><ele>233.0</ele><time>2026-04-23T13:09:26.941Z</time></trkpt><trkpt lat="45.897455" lon="4.5898983"><ele>233.0</ele><time>2026-04-23T13:09:27.942Z</time></trkpt><trkpt lat="45.89751" lon="4.5898033"><ele>233.0</ele><time>2026-04-23T13:09:28.941Z</time></trkpt><trkpt lat="45.8975783" lon="4.589695"><ele>234.4</ele><time>2026-04-23T13:09:29.942Z</time></trkpt><trkpt lat="45.89764" lon="4.5895917"><ele>235.8</ele><time>2026-04-23T13:09:30.942Z</time></trkpt><trkpt lat="45.8977017" lon="4.5895033"><ele>237.2</ele><time>2026-04-23T13:09:31.941Z</time></trkpt><trkpt lat="45.89776" lon="4.58944"><ele>238.6</ele><time>2026-04-23T13:09:32.942Z</time></trkpt><trkpt lat="45.897895" lon="4.589395"><ele>240.0</ele><time>2026-04-23T13:09:34.941Z</time></trkpt><trkpt lat="45.897975" lon="4.5893933"><ele>240.0</ele><time>2026-04-23T13:09:35.942Z</time></trkpt><trkpt lat="45.8980517" lon="4.589395"><ele>240.0</ele><time>2026-04-23T13:09:36.942Z</time></trkpt><trkpt lat="45.8981317" lon="4.5893883"><ele>240.0</ele><time>2026-04-23T13:09:37.941Z</time></trkpt><trkpt lat="45.8982033" lon="4.5893883"><ele>240.0</ele><time>2026-04-23T13:09:38.942Z</time></trkpt><trkpt lat="45.898335" lon="4.5894083"><ele>240.0</ele><time>2026-04-23T13:09:40.941Z</time></trkpt><trkpt lat="45.89842" lon="4.5894183"><ele>240.0</ele><time>2026-04-23T13:09:41.942Z</time></trkpt><trkpt lat="45.8985067" lon="4.5894267"><ele>241.83333333333334</ele><time>2026-04-23T13:09:42.942Z</time></trkpt><trkpt lat="45.8985833" lon="4.58944"><ele>243.66666666666669</ele><time>2026-04-23T13:09:43.942Z</time></trkpt><trkpt lat="45.89865" lon="4.58945"><ele>245.5</ele><time>2026-04-23T13:09:44.942Z</time></trkpt><trkpt lat="45.8987133" lon="4.5894483"><ele>247.33333333333334</ele><time>2026-04-23T13:09:45.942Z</time></trkpt><trkpt lat="45.8988067" lon="4.5894033"><ele>249.16666666666669</ele><time>2026-04-23T13:09:47.941Z</time></trkpt><trkpt lat="45.8989133" lon="4.589345"><ele>251.0</ele><time>2026-04-23T13:09:49.942Z</time></trkpt><trkpt lat="45.8989717" lon="4.5892867"><ele>251.0</ele><time>2026-04-23T13:09:50.941Z</time></trkpt><trkpt lat="45.8990767" lon="4.5892033"><ele>251.00000000000003</ele><time>2026-04-23T13:09:52.941Z</time></trkpt><trkpt lat="45.8991717" lon="4.58916"><ele>251.00000000000003</ele><time>2026-04-23T13:09:54.941Z</time></trkpt><trkpt lat="45.899225" lon="4.5890967"><ele>251.0</ele><time>2026-04-23T13:09:56.941Z</time></trkpt><trkpt lat="45.899295" lon="4.5890383"><ele>251.0</ele><time>2026-04-23T13:09:58.941Z</time></trkpt><trkpt lat="45.899385" lon="4.5889417"><ele>252.0</ele><time>2026-04-23T13:10:00.942Z</time></trkpt><trkpt lat="45.8994567" lon="4.588865"><ele>253.00000000000003</ele><time>2026-04-23T13:10:02.942Z</time></trkpt><trkpt lat="45.8995183" lon="4.5888067"><ele>254.00000000000003</ele><time>2026-04-23T13:10:04.941Z</time></trkpt><trkpt lat="45.899605" lon="4.58872"><ele>255.0</ele><time>2026-04-23T13:10:06.942Z</time></trkpt><trkpt lat="45.8997067" lon="4.5886117"><ele>256.0</ele><time>2026-04-23T13:10:08.941Z</time></trkpt><trkpt lat="45.8997883" lon="4.5885367"><ele>256.0</ele><time>2026-04-23T13:10:10.941Z</time></trkpt><trkpt lat="45.8998717" lon="4.5884567"><ele>256.0</ele><time>2026-04-23T13:10:12.941Z</time></trkpt><trkpt lat="45.899995" lon="4.588405"><ele>256.0</ele><time>2026-04-23T13:10:14.941Z</time></trkpt><trkpt lat="45.9000683" lon="4.58839"><ele>256.0</ele><time>2026-04-23T13:10:15.941Z</time></trkpt><trkpt lat="45.90014" lon="4.5883817"><ele>256.0</ele><time>2026-04-23T13:10:16.941Z</time></trkpt><trkpt lat="45.9002567" lon="4.588375"><ele>258.0</ele><time>2026-04-23T13:10:18.942Z</time></trkpt><trkpt lat="45.9003567" lon="4.5883633"><ele>260.0</ele><time>2026-04-23T13:10:20.942Z</time></trkpt><trkpt lat="45.9004433" lon="4.5883833"><ele>262.0</ele><time>2026-04-23T13:10:22.942Z</time></trkpt><trkpt lat="45.9005183" lon="4.5883933"><ele>264.0</ele><time>2026-04-23T13:10:24.942Z</time></trkpt><trkpt lat="45.9005967" lon="4.588405"><ele>266.0</ele><time>2026-04-23T13:10:26.941Z</time></trkpt><trkpt lat="45.90067" lon="4.5884333"><ele>268.0</ele><time>2026-04-23T13:10:28.941Z</time></trkpt><trkpt lat="45.900775" lon="4.5884817"><ele>268.0</ele><time>2026-04-23T13:10:30.941Z</time></trkpt><trkpt lat="45.9008617" lon="4.5885533"><ele>268.0</ele><time>2026-04-23T13:10:32.941Z</time></trkpt><trkpt lat="45.9009533" lon="4.5886333"><ele>268.0</ele><time>2026-04-23T13:10:34.941Z</time></trkpt><trkpt lat="45.9010417" lon="4.58874"><ele>268.0</ele><time>2026-04-23T13:10:36.941Z</time></trkpt><trkpt lat="45.901135" lon="4.588865"><ele>269.8571428571429</ele><time>2026-04-23T13:10:38.941Z</time></trkpt><trkpt lat="45.9011867" lon="4.5889333"><ele>271.7142857142857</ele><time>2026-04-23T13:10:39.941Z</time></trkpt><trkpt lat="45.90124" lon="4.589005"><ele>273.57142857142856</ele><time>2026-04-23T13:10:40.941Z</time></trkpt><trkpt lat="45.90129" lon="4.58909"><ele>275.42857142857144</ele><time>2026-04-23T13:10:41.941Z</time></trkpt><trkpt lat="45.901335" lon="4.5891683"><ele>277.2857142857143</ele><time>2026-04-23T13:10:42.941Z</time></trkpt><trkpt lat="45.9013817" lon="4.58924"><ele>279.14285714285717</ele><time>2026-04-23T13:10:43.942Z</time></trkpt><trkpt lat="45.9014333" lon="4.5893133"><ele>281.0</ele><time>2026-04-23T13:10:44.941Z</time></trkpt><trkpt lat="45.9014967" lon="4.589395"><ele>281.0</ele><time>2026-04-23T13:10:45.941Z</time></trkpt><trkpt lat="45.9015583" lon="4.5894767"><ele>281.0</ele><time>2026-04-23T13:10:46.942Z</time></trkpt><trkpt lat="45.9016133" lon="4.58955"><ele>281.0</ele><time>2026-04-23T13:10:47.942Z</time></trkpt><trkpt lat="45.9016617" lon="4.5896233"><ele>281.0</ele><time>2026-04-23T13:10:48.941Z</time></trkpt><trkpt lat="45.9017167" lon="4.58971"><ele>281.0</ele><time>2026-04-23T13:10:49.942Z</time></trkpt><trkpt lat="45.9017617" lon="4.58979"><ele>281.0</ele><time>2026-04-23T13:10:50.941Z</time></trkpt><trkpt lat="45.90183" lon="4.58993"><ele>283.0</ele><time>2026-04-23T13:10:52.941Z</time></trkpt><trkpt lat="45.90191" lon="4.5900583"><ele>285.0</ele><time>2026-04-23T13:10:54.941Z</time></trkpt><trkpt lat="45.90198" lon="4.590185"><ele>287.0</ele><time>2026-04-23T13:10:56.941Z</time></trkpt><trkpt lat="45.9020567" lon="4.5903083"><ele>289.0</ele><time>2026-04-23T13:10:58.941Z</time></trkpt><trkpt lat="45.90213" lon="4.5904283"><ele>290.0</ele><time>2026-04-23T13:11:00.942Z</time></trkpt><trkpt lat="45.9022017" lon="4.5905467"><ele>291.0</ele><time>2026-04-23T13:11:02.941Z</time></trkpt><trkpt lat="45.9022583" lon="4.5906567"><ele>292.0</ele><time>2026-04-23T13:11:04.942Z</time></trkpt><trkpt lat="45.902315" lon="4.59076"><ele>293.0</ele><time>2026-04-23T13:11:06.941Z</time></trkpt><trkpt lat="45.902345" lon="4.5908517"><ele>294.0</ele><time>2026-04-23T13:11:09.941Z</time></trkpt><trkpt lat="45.9024133" lon="4.590855"><ele>295.0</ele><time>2026-04-23T13:11:19.941Z</time></trkpt><trkpt lat="45.9024617" lon="4.5909367"><ele>295.0</ele><time>2026-04-23T13:11:21.942Z</time></trkpt><trkpt lat="45.9025517" lon="4.5910733"><ele>295.0</ele><time>2026-04-23T13:11:23.941Z</time></trkpt><trkpt lat="45.9026017" lon="4.591135"><ele>295.0</ele><time>2026-04-23T13:11:24.942Z</time></trkpt><trkpt lat="45.9026483" lon="4.5912183"><ele>295.0</ele><time>2026-04-23T13:11:26.942Z</time></trkpt><trkpt lat="45.902705" lon="4.5912767"><ele>295.0</ele><time>2026-04-23T13:11:29.942Z</time></trkpt><trkpt lat="45.9026517" lon="4.5912067"><ele>295.0</ele><time>2026-04-23T13:11:47.942Z</time></trkpt><trkpt lat="45.9025983" lon="4.5911233"><ele>295.0</ele><time>2026-04-23T13:11:49.941Z</time></trkpt><trkpt lat="45.9025133" lon="4.591005"><ele>295.0</ele><time>2026-04-23T13:11:51.942Z</time></trkpt><trkpt lat="45.9024483" lon="4.590905"><ele>295.0</ele><time>2026-04-23T13:11:53.941Z</time></trkpt><trkpt lat="45.9023983" lon="4.5908317"><ele>295.0</ele><time>2026-04-23T13:11:56.942Z</time></trkpt><trkpt lat="45.9023667" lon="4.590935"><ele>295.0</ele><time>2026-04-23T13:12:01.942Z</time></trkpt><trkpt lat="45.9024183" lon="4.5910233"><ele>295.0</ele><time>2026-04-23T13:12:24.941Z</time></trkpt><trkpt lat="45.9024917" lon="4.59113"><ele>295.8</ele><time>2026-04-23T13:12:26.942Z</time></trkpt><trkpt lat="45.9025667" lon="4.5912233"><ele>296.6</ele><time>2026-04-23T13:12:28.941Z</time></trkpt><trkpt lat="45.9026183" lon="4.591315"><ele>297.4</ele><time>2026-04-23T13:12:30.942Z</time></trkpt><trkpt lat="45.9026717" lon="4.5914283"><ele>298.2</ele><time>2026-04-23T13:12:32.941Z</time></trkpt><trkpt lat="45.9027333" lon="4.5915683"><ele>299.0</ele><time>2026-04-23T13:12:34.941Z</time></trkpt><trkpt lat="45.9027633" lon="4.5916533"><ele>300.33333333333337</ele><time>2026-04-23T13:12:35.941Z</time></trkpt><trkpt lat="45.902795" lon="4.591745"><ele>301.6666666666667</ele><time>2026-04-23T13:12:36.941Z</time></trkpt><trkpt lat="45.9028217" lon="4.5918317"><ele>303.0</ele><time>2026-04-23T13:12:37.941Z</time></trkpt><trkpt lat="45.9028717" lon="4.591945"><ele>304.3333333333333</ele><time>2026-04-23T13:12:39.942Z</time></trkpt><trkpt lat="45.9029083" lon="4.5920467"><ele>305.66666666666663</ele><time>2026-04-23T13:12:41.941Z</time></trkpt><trkpt lat="45.9029433" lon="4.5921283"><ele>307.0</ele><time>2026-04-23T13:12:44.941Z</time></trkpt><trkpt lat="45.90303" lon="4.5922233"><ele>308.0</ele><time>2026-04-23T13:12:46.942Z</time></trkpt><trkpt lat="45.9031233" lon="4.5923283"><ele>309.0</ele><time>2026-04-23T13:12:48.941Z</time></trkpt><trkpt lat="45.9031767" lon="4.5923967"><ele>310.0</ele><time>2026-04-23T13:12:50.941Z</time></trkpt><trkpt lat="45.9032717" lon="4.5924433"><ele>311.0</ele><time>2026-04-23T13:12:53.942Z</time></trkpt><trkpt lat="45.9033567" lon="4.59245"><ele>312.0</ele><time>2026-04-23T13:12:56.942Z</time></trkpt><trkpt lat="45.9034067" lon="4.59255"><ele>313.4</ele><time>2026-04-23T13:12:58.942Z</time></trkpt><trkpt lat="45.9034617" lon="4.5926883"><ele>314.79999999999995</ele><time>2026-04-23T13:13:00.941Z</time></trkpt><trkpt lat="45.90353" lon="4.592835"><ele>316.2</ele><time>2026-04-23T13:13:02.941Z</time></trkpt><trkpt lat="45.9035733" lon="4.5929133"><ele>317.59999999999997</ele><time>2026-04-23T13:13:03.942Z</time></trkpt><trkpt lat="45.903635" lon="4.5930367"><ele>319.0</ele><time>2026-04-23T13:13:05.941Z</time></trkpt><trkpt lat="45.9037083" lon="4.5931733"><ele>320.0</ele><time>2026-04-23T13:13:07.942Z</time></trkpt><trkpt lat="45.90378" lon="4.5933317"><ele>321.0</ele><time>2026-04-23T13:13:09.941Z</time></trkpt><trkpt lat="45.90382" lon="4.59342"><ele>322.0</ele><time>2026-04-23T13:13:10.941Z</time></trkpt><trkpt lat="45.903865" lon="4.5935033"><ele>323.0</ele><time>2026-04-23T13:13:11.941Z</time></trkpt><trkpt lat="45.9039117" lon="4.59359"><ele>324.0</ele><time>2026-04-23T13:13:12.941Z</time></trkpt><trkpt lat="45.9039533" lon="4.5936717"><ele>325.0</ele><time>2026-04-23T13:13:13.942Z</time></trkpt><trkpt lat="45.9040117" lon="4.5937733"><ele>325.8</ele><time>2026-04-23T13:13:15.941Z</time></trkpt><trkpt lat="45.90407" lon="4.59386"><ele>326.6</ele><time>2026-04-23T13:13:17.941Z</time></trkpt><trkpt lat="45.9041217" lon="4.59397"><ele>327.4</ele><time>2026-04-23T13:13:19.942Z</time></trkpt><trkpt lat="45.90417" lon="4.5940833"><ele>328.2</ele><time>2026-04-23T13:13:21.941Z</time></trkpt><trkpt lat="45.9042333" lon="4.5942217"><ele>329.0</ele><time>2026-04-23T13:13:23.941Z</time></trkpt><trkpt lat="45.9042783" lon="4.5943167"><ele>331.0</ele><time>2026-04-23T13:13:25.942Z</time></trkpt><trkpt lat="45.904345" lon="4.5944617"><ele>333.0</ele><time>2026-04-23T13:13:27.941Z</time></trkpt><trkpt lat="45.9044017" lon="4.5945833"><ele>335.0</ele><time>2026-04-23T13:13:29.941Z</time></trkpt><trkpt lat="45.9044583" lon="4.5947433"><ele>337.0</ele><time>2026-04-23T13:13:31.941Z</time></trkpt><trkpt lat="45.9045017" lon="4.5948833"><ele>338.16666666666663</ele><time>2026-04-23T13:13:33.941Z</time></trkpt><trkpt lat="45.904535" lon="4.5950067"><ele>339.3333333333333</ele><time>2026-04-23T13:13:35.941Z</time></trkpt><trkpt lat="45.9045483" lon="4.5951133"><ele>340.5</ele><time>2026-04-23T13:13:37.942Z</time></trkpt><trkpt lat="45.90457" lon="4.5952333"><ele>341.6666666666667</ele><time>2026-04-23T13:13:39.941Z</time></trkpt><trkpt lat="45.9045867" lon="4.5953233"><ele>342.83333333333337</ele><time>2026-04-23T13:13:40.941Z</time></trkpt><trkpt lat="45.90459" lon="4.5954267"><ele>344.0</ele><time>2026-04-23T13:13:41.941Z</time></trkpt><trkpt lat="45.9046" lon="4.5955267"><ele>344.6666666666667</ele><time>2026-04-23T13:13:42.942Z</time></trkpt><trkpt lat="45.9046517" lon="4.5956867"><ele>345.33333333333337</ele><time>2026-04-23T13:13:44.941Z</time></trkpt><trkpt lat="45.904695" lon="4.5957833"><ele>346.0</ele><time>2026-04-23T13:13:45.942Z</time></trkpt><trkpt lat="45.9047317" lon="4.5958583"><ele>346.6666666666667</ele><time>2026-04-23T13:13:46.942Z</time></trkpt><trkpt lat="45.9047817" lon="4.595935"><ele>347.3333333333333</ele><time>2026-04-23T13:13:48.941Z</time></trkpt><trkpt lat="45.9048217" lon="4.596005"><ele>348.0</ele><time>2026-04-23T13:13:50.942Z</time></trkpt><trkpt lat="45.904885" lon="4.5961117"><ele>346.5</ele><time>2026-04-23T13:14:17.941Z</time></trkpt><trkpt lat="45.9049117" lon="4.5962217"><ele>345.0</ele><time>2026-04-23T13:14:19.942Z</time></trkpt><trkpt lat="45.9049417" lon="4.5963283"><ele>343.5</ele><time>2026-04-23T13:14:21.941Z</time></trkpt><trkpt lat="45.9049733" lon="4.596445"><ele>342.0</ele><time>2026-04-23T13:14:23.941Z</time></trkpt><trkpt lat="45.9049983" lon="4.5965533"><ele>340.5</ele><time>2026-04-23T13:14:25.941Z</time></trkpt><trkpt lat="45.905035" lon="4.5966717"><ele>339.0</ele><time>2026-04-23T13:14:28.941Z</time></trkpt><trkpt lat="45.9050417" lon="4.59677"><ele>339.0</ele><time>2026-04-23T13:14:31.941Z</time></trkpt><trkpt lat="45.9050567" lon="4.5968633"><ele>339.0</ele><time>2026-04-23T13:14:37.94Z</time></trkpt><trkpt lat="45.9050933" lon="4.596975"><ele>339.0</ele><time>2026-04-23T13:14:39.94Z</time></trkpt><trkpt lat="45.9051367" lon="4.59708"><ele>339.0</ele><time>2026-04-23T13:14:42.94Z</time></trkpt><trkpt lat="45.9052167" lon="4.5971583"><ele>339.0</ele><time>2026-04-23T13:14:46.94Z</time></trkpt><trkpt lat="45.9052933" lon="4.5971867"><ele>339.0</ele><time>2026-04-23T13:14:47.941Z</time></trkpt><trkpt lat="45.90539" lon="4.5972233"><ele>336.4</ele><time>2026-04-23T13:14:48.94Z</time></trkpt><trkpt lat="45.90549" lon="4.59726"><ele>333.79999999999995</ele><time>2026-04-23T13:14:49.94Z</time></trkpt><trkpt lat="45.9055783" lon="4.5973033"><ele>331.20000000000005</ele><time>2026-04-23T13:14:50.94Z</time></trkpt><trkpt lat="45.9056533" lon="4.5973483"><ele>328.6</ele><time>2026-04-23T13:14:51.941Z</time></trkpt><trkpt lat="45.9057267" lon="4.5973933"><ele>326.0</ele><time>2026-04-23T13:14:52.94Z</time></trkpt><trkpt lat="45.905815" lon="4.59746"><ele>326.0</ele><time>2026-04-23T13:14:53.941Z</time></trkpt><trkpt lat="45.90592" lon="4.5975533"><ele>326.0</ele><time>2026-04-23T13:14:54.94Z</time></trkpt><trkpt lat="45.9060283" lon="4.5976567"><ele>326.0</ele><time>2026-04-23T13:14:55.94Z</time></trkpt><trkpt lat="45.906125" lon="4.5977567"><ele>326.0</ele><time>2026-04-23T13:14:56.941Z</time></trkpt><trkpt lat="45.906205" lon="4.5978467"><ele>324.83333333333337</ele><time>2026-04-23T13:14:57.941Z</time></trkpt><trkpt lat="45.90628" lon="4.5979317"><ele>323.6666666666667</ele><time>2026-04-23T13:14:58.941Z</time></trkpt><trkpt lat="45.9063517" lon="4.5979967"><ele>322.5</ele><time>2026-04-23T13:14:59.94Z</time></trkpt><trkpt lat="45.90642" lon="4.5980683"><ele>321.3333333333333</ele><time>2026-04-23T13:15:00.94Z</time></trkpt><trkpt lat="45.90649" lon="4.5981517"><ele>320.16666666666663</ele><time>2026-04-23T13:15:01.94Z</time></trkpt><trkpt lat="45.9065533" lon="4.5982417"><ele>319.0</ele><time>2026-04-23T13:15:02.941Z</time></trkpt><trkpt lat="45.90661" lon="4.5983367"><ele>319.0</ele><time>2026-04-23T13:15:03.94Z</time></trkpt><trkpt lat="45.9066683" lon="4.5984517"><ele>319.0</ele><time>2026-04-23T13:15:04.94Z</time></trkpt><trkpt lat="45.906725" lon="4.5985717"><ele>319.0</ele><time>2026-04-23T13:15:05.94Z</time></trkpt><trkpt lat="45.90678" lon="4.5986783"><ele>319.0</ele><time>2026-04-23T13:15:06.94Z</time></trkpt><trkpt lat="45.9068283" lon="4.5987733"><ele>319.0</ele><time>2026-04-23T13:15:07.94Z</time></trkpt><trkpt lat="45.90687" lon="4.5988583"><ele>319.0</ele><time>2026-04-23T13:15:08.941Z</time></trkpt><trkpt lat="45.9069083" lon="4.5989333"><ele>319.0</ele><time>2026-04-23T13:15:09.941Z</time></trkpt><trkpt lat="45.9069683" lon="4.5990517"><ele>319.0</ele><time>2026-04-23T13:15:11.94Z</time></trkpt><trkpt lat="45.9070167" lon="4.5991483"><ele>319.0</ele><time>2026-04-23T13:15:13.941Z</time></trkpt><trkpt lat="45.90704" lon="4.5992333"><ele>319.0</ele><time>2026-04-23T13:15:15.94Z</time></trkpt><trkpt lat="45.90707" lon="4.5993183"><ele>319.0</ele><time>2026-04-23T13:15:17.94Z</time></trkpt><trkpt lat="45.9071183" lon="4.59941"><ele>319.0</ele><time>2026-04-23T13:15:19.94Z</time></trkpt><trkpt lat="45.9072133" lon="4.5995283"><ele>319.0</ele><time>2026-04-23T13:15:21.941Z</time></trkpt><trkpt lat="45.9072783" lon="4.5996017"><ele>319.0</ele><time>2026-04-23T13:15:22.94Z</time></trkpt><trkpt lat="45.9073683" lon="4.5996867"><ele>319.0</ele><time>2026-04-23T13:15:23.941Z</time></trkpt><trkpt lat="45.907455" lon="4.59976"><ele>319.0</ele><time>2026-04-23T13:15:24.94Z</time></trkpt><trkpt lat="45.9075383" lon="4.59983"><ele>319.0</ele><time>2026-04-23T13:15:25.94Z</time></trkpt><trkpt lat="45.9076383" lon="4.5999067"><ele>320.0</ele><time>2026-04-23T13:15:26.94Z</time></trkpt><trkpt lat="45.9077367" lon="4.5999833"><ele>321.0</ele><time>2026-04-23T13:15:27.94Z</time></trkpt><trkpt lat="45.9078267" lon="4.6000483"><ele>322.0</ele><time>2026-04-23T13:15:28.941Z</time></trkpt><trkpt lat="45.9078983" lon="4.6001017"><ele>323.0</ele><time>2026-04-23T13:15:29.94Z</time></trkpt><trkpt lat="45.90796" lon="4.6001483"><ele>324.0</ele><time>2026-04-23T13:15:30.94Z</time></trkpt><trkpt lat="45.9080617" lon="4.600255"><ele>323.8333333333333</ele><time>2026-04-23T13:15:32.941Z</time></trkpt><trkpt lat="45.9081567" lon="4.6003367"><ele>323.6666666666667</ele><time>2026-04-23T13:15:34.941Z</time></trkpt><trkpt lat="45.9082383" lon="4.6004067"><ele>323.5</ele><time>2026-04-23T13:15:36.941Z</time></trkpt><trkpt lat="45.9082717" lon="4.6005317"><ele>323.33333333333337</ele><time>2026-04-23T13:15:39.94Z</time></trkpt><trkpt lat="45.9082567" lon="4.60062"><ele>323.1666666666667</ele><time>2026-04-23T13:15:40.941Z</time></trkpt><trkpt lat="45.908245" lon="4.6007167"><ele>323.0</ele><time>2026-04-23T13:15:41.94Z</time></trkpt><trkpt lat="45.9082483" lon="4.6008167"><ele>323.0</ele><time>2026-04-23T13:15:42.94Z</time></trkpt><trkpt lat="45.9082767" lon="4.60093"><ele>323.0</ele><time>2026-04-23T13:15:43.941Z</time></trkpt><trkpt lat="45.9083133" lon="4.6010383"><ele>323.0</ele><time>2026-04-23T13:15:44.941Z</time></trkpt><trkpt lat="45.9083567" lon="4.6011383"><ele>323.0</ele><time>2026-04-23T13:15:45.94Z</time></trkpt><trkpt lat="45.9083983" lon="4.60125"><ele>323.0</ele><time>2026-04-23T13:15:46.941Z</time></trkpt><trkpt lat="45.9084433" lon="4.6013733"><ele>323.0</ele><time>2026-04-23T13:15:47.94Z</time></trkpt><trkpt lat="45.9084967" lon="4.6014983"><ele>324.0</ele><time>2026-04-23T13:15:48.941Z</time></trkpt><trkpt lat="45.908555" lon="4.6016133"><ele>325.0</ele><time>2026-04-23T13:15:49.94Z</time></trkpt><trkpt lat="45.9086183" lon="4.60173"><ele>326.0</ele><time>2026-04-23T13:15:50.94Z</time></trkpt><trkpt lat="45.9086667" lon="4.6018367"><ele>327.0</ele><time>2026-04-23T13:15:51.941Z</time></trkpt><trkpt lat="45.9087117" lon="4.6019383"><ele>328.0</ele><time>2026-04-23T13:15:52.94Z</time></trkpt><trkpt lat="45.9087583" lon="4.6020383"><ele>328.5</ele><time>2026-04-23T13:15:53.94Z</time></trkpt><trkpt lat="45.9088067" lon="4.6021317"><ele>329.0</ele><time>2026-04-23T13:15:54.941Z</time></trkpt><trkpt lat="45.9088517" lon="4.6022133"><ele>329.5</ele><time>2026-04-23T13:15:55.941Z</time></trkpt><trkpt lat="45.9089133" lon="4.6023633"><ele>330.0</ele><time>2026-04-23T13:15:57.94Z</time></trkpt><trkpt lat="45.9089633" lon="4.6024517"><ele>330.5</ele><time>2026-04-23T13:15:58.941Z</time></trkpt><trkpt lat="45.90902" lon="4.602545"><ele>331.0</ele><time>2026-04-23T13:15:59.94Z</time></trkpt><trkpt lat="45.90907" lon="4.6026183"><ele>331.0</ele><time>2026-04-23T13:16:00.94Z</time></trkpt><trkpt lat="45.9091283" lon="4.6027333"><ele>331.0</ele><time>2026-04-23T13:16:02.94Z</time></trkpt><trkpt lat="45.9091933" lon="4.6028317"><ele>331.0</ele><time>2026-04-23T13:16:04.94Z</time></trkpt><trkpt lat="45.90931" lon="4.6029883"><ele>331.0</ele><time>2026-04-23T13:18:28.939Z</time></trkpt><trkpt lat="45.909365" lon="4.6030617"><ele>331.0</ele><time>2026-04-23T13:18:30.94Z</time></trkpt><trkpt lat="45.90941" lon="4.6031333"><ele>332.4</ele><time>2026-04-23T13:18:32.939Z</time></trkpt><trkpt lat="45.90945" lon="4.6032117"><ele>333.8</ele><time>2026-04-23T13:18:34.94Z</time></trkpt><trkpt lat="45.9095033" lon="4.6033033"><ele>335.2</ele><time>2026-04-23T13:18:36.939Z</time></trkpt><trkpt lat="45.9095633" lon="4.6034083"><ele>336.59999999999997</ele><time>2026-04-23T13:18:38.939Z</time></trkpt><trkpt lat="45.9096283" lon="4.60355"><ele>338.0</ele><time>2026-04-23T13:18:40.94Z</time></trkpt><trkpt lat="45.9097033" lon="4.603655"><ele>339.79999999999995</ele><time>2026-04-23T13:18:42.939Z</time></trkpt><trkpt lat="45.909755" lon="4.6037383"><ele>341.6</ele><time>2026-04-23T13:18:44.939Z</time></trkpt><trkpt lat="45.9098283" lon="4.60384"><ele>343.4</ele><time>2026-04-23T13:18:46.939Z</time></trkpt><trkpt lat="45.9099067" lon="4.60394"><ele>345.20000000000005</ele><time>2026-04-23T13:18:48.939Z</time></trkpt><trkpt lat="45.9099833" lon="4.6040567"><ele>347.0</ele><time>2026-04-23T13:18:50.939Z</time></trkpt><trkpt lat="45.910065" lon="4.6041717"><ele>346.8571428571429</ele><time>2026-04-23T13:18:52.94Z</time></trkpt><trkpt lat="45.9101083" lon="4.6042417"><ele>346.71428571428567</ele><time>2026-04-23T13:18:53.94Z</time></trkpt><trkpt lat="45.9101583" lon="4.6043217"><ele>346.57142857142856</ele><time>2026-04-23T13:18:54.94Z</time></trkpt><trkpt lat="45.910205" lon="4.6043917"><ele>346.42857142857144</ele><time>2026-04-23T13:18:55.94Z</time></trkpt><trkpt lat="45.9102517" lon="4.6044617"><ele>346.28571428571433</ele><time>2026-04-23T13:18:56.94Z</time></trkpt><trkpt lat="45.910295" lon="4.6045333"><ele>346.1428571428571</ele><time>2026-04-23T13:18:57.939Z</time></trkpt><trkpt lat="45.9103433" lon="4.60461"><ele>346.0</ele><time>2026-04-23T13:18:58.94Z</time></trkpt><trkpt lat="45.910395" lon="4.604685"><ele>347.0</ele><time>2026-04-23T13:18:59.94Z</time></trkpt><trkpt lat="45.9104617" lon="4.6047883"><ele>348.0</ele><time>2026-04-23T13:19:01.939Z</time></trkpt><trkpt lat="45.9105517" lon="4.60491"><ele>349.0</ele><time>2026-04-23T13:19:03.939Z</time></trkpt><trkpt lat="45.910605" lon="4.6049917"><ele>350.0</ele><time>2026-04-23T13:19:04.939Z</time></trkpt><trkpt lat="45.9106517" lon="4.605055"><ele>351.0</ele><time>2026-04-23T13:19:05.939Z</time></trkpt><trkpt lat="45.910725" lon="4.6051533"><ele>351.0</ele><time>2026-04-23T13:19:07.939Z</time></trkpt><trkpt lat="45.9107783" lon="4.60523"><ele>351.0</ele><time>2026-04-23T13:19:09.939Z</time></trkpt><trkpt lat="45.9108333" lon="4.6053067"><ele>351.0</ele><time>2026-04-23T13:19:11.94Z</time></trkpt><trkpt lat="45.9109083" lon="4.6054167"><ele>351.0</ele><time>2026-04-23T13:19:13.94Z</time></trkpt><trkpt lat="45.910965" lon="4.6054967"><ele>351.0</ele><time>2026-04-23T13:19:14.939Z</time></trkpt><trkpt lat="45.9110133" lon="4.6055683"><ele>351.0</ele><time>2026-04-23T13:19:15.94Z</time></trkpt><trkpt lat="45.91108" lon="4.6056383"><ele>351.5714285714286</ele><time>2026-04-23T13:19:16.939Z</time></trkpt><trkpt lat="45.911135" lon="4.6057117"><ele>352.14285714285717</ele><time>2026-04-23T13:19:17.939Z</time></trkpt><trkpt lat="45.9111967" lon="4.6057867"><ele>352.7142857142857</ele><time>2026-04-23T13:19:19.939Z</time></trkpt><trkpt lat="45.9112567" lon="4.60586"><ele>353.28571428571433</ele><time>2026-04-23T13:19:21.94Z</time></trkpt><trkpt lat="45.911295" lon="4.6059567"><ele>353.8571428571429</ele><time>2026-04-23T13:19:24.939Z</time></trkpt><trkpt lat="45.911255" lon="4.6060267"><ele>354.42857142857144</ele><time>2026-04-23T13:19:27.939Z</time></trkpt><trkpt lat="45.911185" lon="4.606055"><ele>355.0</ele><time>2026-04-23T13:19:29.939Z</time></trkpt><trkpt lat="45.9110783" lon="4.6060867"><ele>355.0</ele><time>2026-04-23T13:19:31.939Z</time></trkpt><trkpt lat="45.91098" lon="4.606125"><ele>355.0</ele><time>2026-04-23T13:19:33.939Z</time></trkpt><trkpt lat="45.9109" lon="4.6061567"><ele>355.0</ele><time>2026-04-23T13:19:35.94Z</time></trkpt><trkpt lat="45.91084" lon="4.606235"><ele>355.0</ele><time>2026-04-23T13:19:38.939Z</time></trkpt><trkpt lat="45.9108117" lon="4.6063333"><ele>355.0</ele><time>2026-04-23T13:19:41.94Z</time></trkpt><trkpt lat="45.9107167" lon="4.6062933"><ele>355.0</ele><time>2026-04-23T13:19:59.939Z</time></trkpt><trkpt lat="45.910645" lon="4.606315"><ele>355.0</ele><time>2026-04-23T13:20:00.94Z</time></trkpt><trkpt lat="45.9105633" lon="4.6063417"><ele>355.0</ele><time>2026-04-23T13:20:01.939Z</time></trkpt><trkpt lat="45.9104917" lon="4.6063633"><ele>355.0</ele><time>2026-04-23T13:20:02.94Z</time></trkpt><trkpt lat="45.9104217" lon="4.6063867"><ele>355.0</ele><time>2026-04-23T13:20:03.939Z</time></trkpt><trkpt lat="45.910345" lon="4.6064117"><ele>355.0</ele><time>2026-04-23T13:20:04.939Z</time></trkpt><trkpt lat="45.91027" lon="4.6064533"><ele>355.0</ele><time>2026-04-23T13:20:05.939Z</time></trkpt><trkpt lat="45.9102083" lon="4.6064883"><ele>355.0</ele><time>2026-04-23T13:20:06.94Z</time></trkpt><trkpt lat="45.91015" lon="4.60653"><ele>355.0</ele><time>2026-04-23T13:20:07.939Z</time></trkpt><trkpt lat="45.9100917" lon="4.6065667"><ele>355.0</ele><time>2026-04-23T13:20:08.94Z</time></trkpt><trkpt lat="45.910015" lon="4.6066083"><ele>355.0</ele><time>2026-04-23T13:20:09.939Z</time></trkpt><trkpt lat="45.9099317" lon="4.606655"><ele>355.0</ele><time>2026-04-23T13:20:10.939Z</time></trkpt><trkpt lat="45.9098417" lon="4.6067"><ele>355.0</ele><time>2026-04-23T13:20:11.94Z</time></trkpt><trkpt lat="45.9097567" lon="4.60674"><ele>355.0</ele><time>2026-04-23T13:20:12.939Z</time></trkpt><trkpt lat="45.9096683" lon="4.6067817"><ele>355.0</ele><time>2026-04-23T13:20:13.94Z</time></trkpt><trkpt lat="45.9095817" lon="4.6068167"><ele>355.0</ele><time>2026-04-23T13:20:14.94Z</time></trkpt><trkpt lat="45.9094867" lon="4.6068533"><ele>355.0</ele><time>2026-04-23T13:20:15.94Z</time></trkpt><trkpt lat="45.9093983" lon="4.6068867"><ele>355.0</ele><time>2026-04-23T13:20:16.94Z</time></trkpt><trkpt lat="45.9093133" lon="4.60692"><ele>354.3333333333333</ele><time>2026-04-23T13:20:17.939Z</time></trkpt><trkpt lat="45.9092283" lon="4.606945"><ele>353.66666666666663</ele><time>2026-04-23T13:20:18.939Z</time></trkpt><trkpt lat="45.909135" lon="4.6069783"><ele>353.0</ele><time>2026-04-23T13:20:19.939Z</time></trkpt><trkpt lat="45.9090533" lon="4.6070133"><ele>352.3333333333333</ele><time>2026-04-23T13:20:20.939Z</time></trkpt><trkpt lat="45.90898" lon="4.6070367"><ele>351.6666666666667</ele><time>2026-04-23T13:20:21.939Z</time></trkpt><trkpt lat="45.9089083" lon="4.607065"><ele>351.0</ele><time>2026-04-23T13:20:22.94Z</time></trkpt><trkpt lat="45.908835" lon="4.607095"><ele>350.8333333333333</ele><time>2026-04-23T13:20:23.939Z</time></trkpt><trkpt lat="45.9087667" lon="4.607125"><ele>350.6666666666667</ele><time>2026-04-23T13:20:24.939Z</time></trkpt><trkpt lat="45.9086933" lon="4.6071517"><ele>350.5</ele><time>2026-04-23T13:20:25.939Z</time></trkpt><trkpt lat="45.9086183" lon="4.6071717"><ele>350.33333333333337</ele><time>2026-04-23T13:20:26.94Z</time></trkpt><trkpt lat="45.9085267" lon="4.6072033"><ele>350.1666666666667</ele><time>2026-04-23T13:20:27.94Z</time></trkpt><trkpt lat="45.9084467" lon="4.6072333"><ele>350.0</ele><time>2026-04-23T13:20:28.939Z</time></trkpt><trkpt lat="45.9083817" lon="4.6072533"><ele>348.8</ele><time>2026-04-23T13:20:29.94Z</time></trkpt><trkpt lat="45.908255" lon="4.6073"><ele>347.6</ele><time>2026-04-23T13:20:31.94Z</time></trkpt><trkpt lat="45.9081833" lon="4.6073233"><ele>346.4</ele><time>2026-04-23T13:20:32.939Z</time></trkpt><trkpt lat="45.908115" lon="4.6073483"><ele>345.2</ele><time>2026-04-23T13:20:33.939Z</time></trkpt><trkpt lat="45.90805" lon="4.6073767"><ele>344.0</ele><time>2026-04-23T13:20:34.939Z</time></trkpt><trkpt lat="45.9079433" lon="4.6074017"><ele>344.00000000000006</ele><time>2026-04-23T13:20:36.939Z</time></trkpt><trkpt lat="45.9078983" lon="4.6074783"><ele>344.0</ele><time>2026-04-23T13:20:38.94Z</time></trkpt><trkpt lat="45.907885" lon="4.6075767"><ele>344.0</ele><time>2026-04-23T13:20:39.94Z</time></trkpt><trkpt lat="45.907895" lon="4.6076767"><ele>344.0</ele><time>2026-04-23T13:20:40.939Z</time></trkpt><trkpt lat="45.907915" lon="4.6077733"><ele>344.0</ele><time>2026-04-23T13:20:41.939Z</time></trkpt><trkpt lat="45.9079333" lon="4.60786"><ele>344.00000000000006</ele><time>2026-04-23T13:20:42.939Z</time></trkpt><trkpt lat="45.90796" lon="4.6079467"><ele>344.0</ele><time>2026-04-23T13:20:43.939Z</time></trkpt><trkpt lat="45.90799" lon="4.6080367"><ele>343.5</ele><time>2026-04-23T13:20:44.939Z</time></trkpt><trkpt lat="45.9080083" lon="4.6081817"><ele>343.0</ele><time>2026-04-23T13:20:46.94Z</time></trkpt><trkpt lat="45.9079917" lon="4.6082817"><ele>342.5</ele><time>2026-04-23T13:20:48.94Z</time></trkpt><trkpt lat="45.9080217" lon="4.608175"><ele>342.0</ele><time>2026-04-23T13:20:53.94Z</time></trkpt><trkpt lat="45.908005" lon="4.60806"><ele>341.5</ele><time>2026-04-23T13:20:54.939Z</time></trkpt><trkpt lat="45.9079667" lon="4.6079483"><ele>341.0</ele><time>2026-04-23T13:20:55.939Z</time></trkpt><trkpt lat="45.9079317" lon="4.6078367"><ele>341.5</ele><time>2026-04-23T13:20:56.94Z</time></trkpt><trkpt lat="45.90791" lon="4.60774"><ele>342.0</ele><time>2026-04-23T13:20:57.939Z</time></trkpt><trkpt lat="45.9078867" lon="4.6076117"><ele>342.5</ele><time>2026-04-23T13:20:59.94Z</time></trkpt><trkpt lat="45.90788" lon="4.60751"><ele>343.0</ele><time>2026-04-23T13:21:02.94Z</time></trkpt><trkpt lat="45.90782" lon="4.607455"><ele>343.5</ele><time>2026-04-23T13:21:05.939Z</time></trkpt><trkpt lat="45.9077083" lon="4.6074917"><ele>344.0</ele><time>2026-04-23T13:21:07.94Z</time></trkpt><trkpt lat="45.9076233" lon="4.6075267"><ele>344.0</ele><time>2026-04-23T13:21:09.939Z</time></trkpt><trkpt lat="45.9075833" lon="4.6076083"><ele>344.0</ele><time>2026-04-23T13:21:12.939Z</time></trkpt><trkpt lat="45.9075833" lon="4.607745"><ele>344.0</ele><time>2026-04-23T13:21:14.94Z</time></trkpt><trkpt lat="45.90758" lon="4.607855"><ele>344.0</ele><time>2026-04-23T13:21:15.939Z</time></trkpt><trkpt lat="45.9075717" lon="4.6079833"><ele>344.0</ele><time>2026-04-23T13:21:16.939Z</time></trkpt><trkpt lat="45.9075633" lon="4.6080917"><ele>344.0</ele><time>2026-04-23T13:21:17.94Z</time></trkpt><trkpt lat="45.90756" lon="4.6082217"><ele>343.28571428571433</ele><time>2026-04-23T13:21:18.94Z</time></trkpt><trkpt lat="45.9075533" lon="4.6083417"><ele>342.57142857142856</ele><time>2026-04-23T13:21:19.939Z</time></trkpt><trkpt lat="45.9075467" lon="4.6084417"><ele>341.8571428571429</ele><time>2026-04-23T13:21:20.939Z</time></trkpt><trkpt lat="45.9075467" lon="4.6085417"><ele>341.14285714285717</ele><time>2026-04-23T13:21:21.939Z</time></trkpt><trkpt lat="45.9075433" lon="4.6086467"><ele>340.42857142857144</ele><time>2026-04-23T13:21:22.939Z</time></trkpt><trkpt lat="45.9075367" lon="4.6087433"><ele>339.7142857142857</ele><time>2026-04-23T13:21:23.939Z</time></trkpt><trkpt lat="45.9075267" lon="4.60884"><ele>339.0</ele><time>2026-04-23T13:21:24.939Z</time></trkpt><trkpt lat="45.9075167" lon="4.608935"><ele>338.7142857142857</ele><time>2026-04-23T13:21:25.94Z</time></trkpt><trkpt lat="45.907505" lon="4.6090367"><ele>338.42857142857144</ele><time>2026-04-23T13:21:26.94Z</time></trkpt><trkpt lat="45.9075017" lon="4.6091433"><ele>338.14285714285717</ele><time>2026-04-23T13:21:27.94Z</time></trkpt><trkpt lat="45.9074917" lon="4.6092483"><ele>337.8571428571429</ele><time>2026-04-23T13:21:28.94Z</time></trkpt><trkpt lat="45.9074933" lon="4.6093483"><ele>337.57142857142856</ele><time>2026-04-23T13:21:29.94Z</time></trkpt><trkpt lat="45.9074917" lon="4.609455"><ele>337.28571428571433</ele><time>2026-04-23T13:21:30.939Z</time></trkpt><trkpt lat="45.9074883" lon="4.6095767"><ele>337.0</ele><time>2026-04-23T13:21:31.939Z</time></trkpt><trkpt lat="45.9074783" lon="4.6096883"><ele>336.6</ele><time>2026-04-23T13:21:32.939Z</time></trkpt><trkpt lat="45.9074717" lon="4.60981"><ele>336.20000000000005</ele><time>2026-04-23T13:21:33.939Z</time></trkpt><trkpt lat="45.9074617" lon="4.6099233"><ele>335.8</ele><time>2026-04-23T13:21:34.939Z</time></trkpt><trkpt lat="45.9074533" lon="4.6100233"><ele>335.4</ele><time>2026-04-23T13:21:35.939Z</time></trkpt><trkpt lat="45.9074583" lon="4.610195"><ele>335.0</ele><time>2026-04-23T13:21:37.94Z</time></trkpt><trkpt lat="45.90746" lon="4.6103633"><ele>334.33333333333337</ele><time>2026-04-23T13:21:39.94Z</time></trkpt><trkpt lat="45.9074767" lon="4.6104983"><ele>333.6666666666667</ele><time>2026-04-23T13:21:41.94Z</time></trkpt><trkpt lat="45.9074833" lon="4.610645"><ele>333.0</ele><time>2026-04-23T13:21:43.939Z</time></trkpt><trkpt lat="45.9074883" lon="4.6107433"><ele>332.3333333333333</ele><time>2026-04-23T13:21:45.94Z</time></trkpt><trkpt lat="45.90742" lon="4.6108083"><ele>331.66666666666663</ele><time>2026-04-23T13:21:48.939Z</time></trkpt><trkpt lat="45.907345" lon="4.61081"><ele>331.0</ele><time>2026-04-23T13:21:50.94Z</time></trkpt><trkpt lat="45.9072233" lon="4.61081"><ele>331.0</ele><time>2026-04-23T13:21:52.939Z</time></trkpt><trkpt lat="45.90716" lon="4.610805"><ele>331.0</ele><time>2026-04-23T13:21:53.939Z</time></trkpt><trkpt lat="45.9070883" lon="4.6107983"><ele>331.0</ele><time>2026-04-23T13:21:54.939Z</time></trkpt><trkpt lat="45.90701" lon="4.610795"><ele>331.0</ele><time>2026-04-23T13:21:55.94Z</time></trkpt><trkpt lat="45.906935" lon="4.6107917"><ele>331.0</ele><time>2026-04-23T13:21:56.94Z</time></trkpt><trkpt lat="45.9068583" lon="4.61079"><ele>331.0</ele><time>2026-04-23T13:21:57.939Z</time></trkpt><trkpt lat="45.90677" lon="4.6108033"><ele>331.4</ele><time>2026-04-23T13:21:58.939Z</time></trkpt><trkpt lat="45.906695" lon="4.61081"><ele>331.8</ele><time>2026-04-23T13:21:59.94Z</time></trkpt><trkpt lat="45.906585" lon="4.6108267"><ele>332.2</ele><time>2026-04-23T13:22:01.939Z</time></trkpt><trkpt lat="45.9064833" lon="4.6108267"><ele>332.59999999999997</ele><time>2026-04-23T13:22:03.94Z</time></trkpt><trkpt lat="45.906375" lon="4.61083"><ele>333.0</ele><time>2026-04-23T13:22:05.94Z</time></trkpt><trkpt lat="45.9062617" lon="4.61083"><ele>333.0</ele><time>2026-04-23T13:22:07.939Z</time></trkpt><trkpt lat="45.9061933" lon="4.6108383"><ele>333.0</ele><time>2026-04-23T13:22:08.939Z</time></trkpt><trkpt lat="45.9061017" lon="4.6108467"><ele>333.0</ele><time>2026-04-23T13:22:10.939Z</time></trkpt><trkpt lat="45.9060033" lon="4.610835"><ele>333.0</ele><time>2026-04-23T13:22:12.939Z</time></trkpt><trkpt lat="45.9059117" lon="4.6108383"><ele>333.0</ele><time>2026-04-23T13:22:14.94Z</time></trkpt><trkpt lat="45.9058083" lon="4.6108367"><ele>332.3333333333333</ele><time>2026-04-23T13:22:16.94Z</time></trkpt><trkpt lat="45.9057333" lon="4.6108333"><ele>331.6666666666667</ele><time>2026-04-23T13:22:17.94Z</time></trkpt><trkpt lat="45.9056583" lon="4.6108367"><ele>331.0</ele><time>2026-04-23T13:22:18.94Z</time></trkpt><trkpt lat="45.9055633" lon="4.6108483"><ele>330.33333333333337</ele><time>2026-04-23T13:22:20.94Z</time></trkpt><trkpt lat="45.90549" lon="4.6108933"><ele>329.6666666666667</ele><time>2026-04-23T13:22:22.939Z</time></trkpt><trkpt lat="45.9053883" lon="4.610935"><ele>329.0</ele><time>2026-04-23T13:22:24.939Z</time></trkpt><trkpt lat="45.9052633" lon="4.6109817"><ele>329.0</ele><time>2026-04-23T13:22:26.939Z</time></trkpt><trkpt lat="45.9052" lon="4.610995"><ele>329.0</ele><time>2026-04-23T13:22:27.94Z</time></trkpt><trkpt lat="45.9050983" lon="4.6110233"><ele>329.0</ele><time>2026-04-23T13:22:29.94Z</time></trkpt><trkpt lat="45.9049983" lon="4.61106"><ele>329.0</ele><time>2026-04-23T13:22:31.939Z</time></trkpt><trkpt lat="45.9049033" lon="4.6110917"><ele>329.0</ele><time>2026-04-23T13:22:33.939Z</time></trkpt><trkpt lat="45.9048067" lon="4.6111317"><ele>328.0</ele><time>2026-04-23T13:22:36.939Z</time></trkpt><trkpt lat="45.9047333" lon="4.6111567"><ele>327.0</ele><time>2026-04-23T13:22:38.94Z</time></trkpt><trkpt lat="45.9046617" lon="4.611175"><ele>326.0</ele><time>2026-04-23T13:22:40.94Z</time></trkpt><trkpt lat="45.9045717" lon="4.611195"><ele>325.0</ele><time>2026-04-23T13:22:43.94Z</time></trkpt><trkpt lat="45.9045017" lon="4.61122"><ele>324.0</ele><time>2026-04-23T13:22:45.939Z</time></trkpt><trkpt lat="45.9044367" lon="4.6112467"><ele>323.0</ele><time>2026-04-23T13:22:47.94Z</time></trkpt><trkpt lat="45.9043867" lon="4.6113083"><ele>322.0</ele><time>2026-04-23T13:22:50.939Z</time></trkpt><trkpt lat="45.9043683" lon="4.6113967"><ele>321.5</ele><time>2026-04-23T13:22:52.94Z</time></trkpt><trkpt lat="45.90433" lon="4.6114867"><ele>321.0</ele><time>2026-04-23T13:22:58.94Z</time></trkpt><trkpt lat="45.90428" lon="4.6115767"><ele>320.5</ele><time>2026-04-23T13:23:01.94Z</time></trkpt><trkpt lat="45.904265" lon="4.611675"><ele>320.0</ele><time>2026-04-23T13:23:02.94Z</time></trkpt><trkpt lat="45.9042433" lon="4.6118217"><ele>319.5</ele><time>2026-04-23T13:23:03.94Z</time></trkpt><trkpt lat="45.9042183" lon="4.6119817"><ele>319.0</ele><time>2026-04-23T13:23:04.94Z</time></trkpt><trkpt lat="45.9041967" lon="4.61213"><ele>318.0</ele><time>2026-04-23T13:23:05.939Z</time></trkpt><trkpt lat="45.904175" lon="4.6122717"><ele>317.0</ele><time>2026-04-23T13:23:06.94Z</time></trkpt><trkpt lat="45.9041633" lon="4.6123783"><ele>316.0</ele><time>2026-04-23T13:23:07.94Z</time></trkpt><trkpt lat="45.9041567" lon="4.6124717"><ele>315.0</ele><time>2026-04-23T13:23:08.939Z</time></trkpt><trkpt lat="45.904135" lon="4.6125883"><ele>314.0</ele><time>2026-04-23T13:23:09.939Z</time></trkpt><trkpt lat="45.9041183" lon="4.61271"><ele>313.0</ele><time>2026-04-23T13:23:10.94Z</time></trkpt><trkpt lat="45.9041067" lon="4.6128117"><ele>312.3333333333333</ele><time>2026-04-23T13:23:11.939Z</time></trkpt><trkpt lat="45.904095" lon="4.6129067"><ele>311.66666666666663</ele><time>2026-04-23T13:23:12.94Z</time></trkpt><trkpt lat="45.90408" lon="4.6130683"><ele>311.0</ele><time>2026-04-23T13:23:14.939Z</time></trkpt><trkpt lat="45.904075" lon="4.613195"><ele>310.3333333333333</ele><time>2026-04-23T13:23:16.939Z</time></trkpt><trkpt lat="45.9040817" lon="4.6132917"><ele>309.6666666666667</ele><time>2026-04-23T13:23:18.94Z</time></trkpt><trkpt lat="45.9040917" lon="4.6133817"><ele>309.0</ele><time>2026-04-23T13:23:20.939Z</time></trkpt><trkpt lat="45.9041167" lon="4.6134733"><ele>309.00000000000006</ele><time>2026-04-23T13:23:22.94Z</time></trkpt><trkpt lat="45.90415" lon="4.6135533"><ele>309.0</ele><time>2026-04-23T13:23:23.94Z</time></trkpt><trkpt lat="45.90419" lon="4.6136467"><ele>309.0</ele><time>2026-04-23T13:23:24.94Z</time></trkpt><trkpt lat="45.9042333" lon="4.6137417"><ele>309.0</ele><time>2026-04-23T13:23:25.939Z</time></trkpt><trkpt lat="45.9042733" lon="4.61383"><ele>309.0</ele><time>2026-04-23T13:23:26.94Z</time></trkpt><trkpt lat="45.9043117" lon="4.6139133"><ele>309.00000000000006</ele><time>2026-04-23T13:23:27.94Z</time></trkpt><trkpt lat="45.90434" lon="4.6140033"><ele>309.0</ele><time>2026-04-23T13:23:28.94Z</time></trkpt><trkpt lat="45.9043867" lon="4.6141583"><ele>308.5</ele><time>2026-04-23T13:23:30.94Z</time></trkpt><trkpt lat="45.904405" lon="4.614245"><ele>308.0</ele><time>2026-04-23T13:23:31.939Z</time></trkpt><trkpt lat="45.9044183" lon="4.6143517"><ele>307.5</ele><time>2026-04-23T13:23:32.939Z</time></trkpt><trkpt lat="45.9044317" lon="4.6144583"><ele>307.0</ele><time>2026-04-23T13:23:33.939Z</time></trkpt><trkpt lat="45.9044333" lon="4.614555"><ele>306.5</ele><time>2026-04-23T13:23:34.939Z</time></trkpt><trkpt lat="45.904455" lon="4.6147217"><ele>306.0</ele><time>2026-04-23T13:23:36.94Z</time></trkpt><trkpt lat="45.9044733" lon="4.6148117"><ele>304.6</ele><time>2026-04-23T13:23:37.939Z</time></trkpt><trkpt lat="45.9045217" lon="4.6149683"><ele>303.20000000000005</ele><time>2026-04-23T13:23:39.939Z</time></trkpt><trkpt lat="45.90459" lon="4.6150933"><ele>301.79999999999995</ele><time>2026-04-23T13:23:41.94Z</time></trkpt><trkpt lat="45.9046733" lon="4.61519"><ele>300.4</ele><time>2026-04-23T13:23:43.94Z</time></trkpt><trkpt lat="45.904775" lon="4.6152433"><ele>299.0</ele><time>2026-04-23T13:23:56.939Z</time></trkpt><trkpt lat="45.9048967" lon="4.6152833"><ele>299.0</ele><time>2026-04-23T13:23:58.94Z</time></trkpt><trkpt lat="45.9049983" lon="4.6153167"><ele>299.0</ele><time>2026-04-23T13:24:00.94Z</time></trkpt><trkpt lat="45.9050717" lon="4.61536"><ele>299.0</ele><time>2026-04-23T13:24:02.94Z</time></trkpt><trkpt lat="45.9051367" lon="4.615415"><ele>299.0</ele><time>2026-04-23T13:24:05.939Z</time></trkpt><trkpt lat="45.905205" lon="4.6154333"><ele>299.0</ele><time>2026-04-23T13:24:08.939Z</time></trkpt><trkpt lat="45.9053" lon="4.6153683"><ele>299.0</ele><time>2026-04-23T13:30:00.944Z</time></trkpt><trkpt lat="45.9053867" lon="4.6153433"><ele>298.5</ele><time>2026-04-23T13:30:03.945Z</time></trkpt><trkpt lat="45.9054483" lon="4.6153183"><ele>298.0</ele><time>2026-04-23T13:30:05.945Z</time></trkpt><trkpt lat="45.905515" lon="4.6153017"><ele>297.5</ele><time>2026-04-23T13:30:07.944Z</time></trkpt><trkpt lat="45.9055967" lon="4.6152567"><ele>297.0</ele><time>2026-04-23T13:30:09.944Z</time></trkpt><trkpt lat="45.9057017" lon="4.6152167"><ele>296.5</ele><time>2026-04-23T13:30:11.944Z</time></trkpt><trkpt lat="45.9058" lon="4.6151733"><ele>296.0</ele><time>2026-04-23T13:30:13.943Z</time></trkpt><trkpt lat="45.90588" lon="4.6151433"><ele>296.0</ele><time>2026-04-23T13:30:14.943Z</time></trkpt><trkpt lat="45.9059467" lon="4.615115"><ele>296.0</ele><time>2026-04-23T13:30:15.943Z</time></trkpt><trkpt lat="45.9060083" lon="4.6150917"><ele>296.0</ele><time>2026-04-23T13:30:16.943Z</time></trkpt><trkpt lat="45.9060767" lon="4.6150667"><ele>296.0</ele><time>2026-04-23T13:30:17.944Z</time></trkpt><trkpt lat="45.9062" lon="4.61501"><ele>296.0</ele><time>2026-04-23T13:30:19.944Z</time></trkpt><trkpt lat="45.9062617" lon="4.6149767"><ele>296.0</ele><time>2026-04-23T13:30:20.944Z</time></trkpt><trkpt lat="45.9063233" lon="4.614935"><ele>296.0</ele><time>2026-04-23T13:30:21.944Z</time></trkpt><trkpt lat="45.90639" lon="4.6149"><ele>296.0</ele><time>2026-04-23T13:30:22.943Z</time></trkpt><trkpt lat="45.9065" lon="4.6148417"><ele>296.0</ele><time>2026-04-23T13:30:24.944Z</time></trkpt><trkpt lat="45.90662" lon="4.6147833"><ele>296.0</ele><time>2026-04-23T13:30:26.943Z</time></trkpt><trkpt lat="45.9066833" lon="4.61476"><ele>296.0</ele><time>2026-04-23T13:30:27.943Z</time></trkpt><trkpt lat="45.9067483" lon="4.6147333"><ele>296.0</ele><time>2026-04-23T13:30:28.943Z</time></trkpt><trkpt lat="45.906815" lon="4.61471"><ele>297.0</ele><time>2026-04-23T13:30:29.944Z</time></trkpt><trkpt lat="45.9068833" lon="4.6146767"><ele>298.0</ele><time>2026-04-23T13:30:30.943Z</time></trkpt><trkpt lat="45.906945" lon="4.614645"><ele>299.0</ele><time>2026-04-23T13:30:31.943Z</time></trkpt><trkpt lat="45.9070067" lon="4.6146083"><ele>300.0</ele><time>2026-04-23T13:30:32.943Z</time></trkpt><trkpt lat="45.9071033" lon="4.6145567"><ele>301.0</ele><time>2026-04-23T13:30:34.943Z</time></trkpt><trkpt lat="45.9072217" lon="4.6145017"><ele>302.0</ele><time>2026-04-23T13:30:36.944Z</time></trkpt><trkpt lat="45.907295" lon="4.6144517"><ele>302.0</ele><time>2026-04-23T13:30:37.944Z</time></trkpt><trkpt lat="45.907365" lon="4.6144167"><ele>302.0</ele><time>2026-04-23T13:30:38.943Z</time></trkpt><trkpt lat="45.9074517" lon="4.6143567"><ele>302.0</ele><time>2026-04-23T13:30:40.943Z</time></trkpt><trkpt lat="45.9075" lon="4.6142733"><ele>302.0</ele><time>2026-04-23T13:30:43.944Z</time></trkpt><trkpt lat="45.9075683" lon="4.6142017"><ele>302.0</ele><time>2026-04-23T13:30:46.943Z</time></trkpt><trkpt lat="45.9076233" lon="4.6141517"><ele>302.0</ele><time>2026-04-23T13:30:48.943Z</time></trkpt><trkpt lat="45.90769" lon="4.6141"><ele>302.0</ele><time>2026-04-23T13:30:51.943Z</time></trkpt><trkpt lat="45.9077633" lon="4.6140633"><ele>302.0</ele><time>2026-04-23T13:30:53.944Z</time></trkpt><trkpt lat="45.90783" lon="4.61404"><ele>302.0</ele><time>2026-04-23T13:30:56.944Z</time></trkpt><trkpt lat="45.9079017" lon="4.6139983"><ele>302.0</ele><time>2026-04-23T13:30:59.944Z</time></trkpt><trkpt lat="45.9079733" lon="4.61397"><ele>302.0</ele><time>2026-04-23T13:31:02.944Z</time></trkpt><trkpt lat="45.9080917" lon="4.61393"><ele>302.0</ele><time>2026-04-23T13:31:23.943Z</time></trkpt><trkpt lat="45.908155" lon="4.6139017"><ele>302.0</ele><time>2026-04-23T13:31:26.944Z</time></trkpt><trkpt lat="45.9082183" lon="4.613885"><ele>302.0</ele><time>2026-04-23T13:31:31.943Z</time></trkpt><trkpt lat="45.90829" lon="4.6138517"><ele>302.0</ele><time>2026-04-23T13:31:34.944Z</time></trkpt><trkpt lat="45.9084317" lon="4.6137817"><ele>302.0</ele><time>2026-04-23T13:32:14.944Z</time></trkpt><trkpt lat="45.908505" lon="4.6137433"><ele>302.0</ele><time>2026-04-23T13:32:18.943Z</time></trkpt><trkpt lat="45.908565" lon="4.613675"><ele>302.0</ele><time>2026-04-23T13:32:24.944Z</time></trkpt><trkpt lat="45.9086317" lon="4.613615"><ele>304.5</ele><time>2026-04-23T13:32:27.943Z</time></trkpt><trkpt lat="45.9087" lon="4.6135283"><ele>307.0</ele><time>2026-04-23T13:32:29.944Z</time></trkpt><trkpt lat="45.9087683" lon="4.6134583"><ele>309.5</ele><time>2026-04-23T13:32:31.943Z</time></trkpt><trkpt lat="45.9088317" lon="4.613385"><ele>312.0</ele><time>2026-04-23T13:32:35.944Z</time></trkpt><trkpt lat="45.9088767" lon="4.6133183"><ele>314.5</ele><time>2026-04-23T13:32:37.943Z</time></trkpt><trkpt lat="45.90892" lon="4.6132517"><ele>317.0</ele><time>2026-04-23T13:32:39.944Z</time></trkpt><trkpt lat="45.908955" lon="4.6131683"><ele>317.0</ele><time>2026-04-23T13:32:41.944Z</time></trkpt><trkpt lat="45.9089817" lon="4.6130783"><ele>317.0</ele><time>2026-04-23T13:32:44.943Z</time></trkpt><trkpt lat="45.909045" lon="4.6130067"><ele>317.0</ele><time>2026-04-23T13:32:47.943Z</time></trkpt><trkpt lat="45.909155" lon="4.6130083"><ele>317.0</ele><time>2026-04-23T13:33:00.943Z</time></trkpt><trkpt lat="45.9092333" lon="4.613015"><ele>317.0</ele><time>2026-04-23T13:33:02.944Z</time></trkpt><trkpt lat="45.9092933" lon="4.613045"><ele>317.0</ele><time>2026-04-23T13:33:04.943Z</time></trkpt><trkpt lat="45.9093617" lon="4.6130667"><ele>317.83333333333337</ele><time>2026-04-23T13:33:06.943Z</time></trkpt><trkpt lat="45.9094417" lon="4.6130217"><ele>318.6666666666667</ele><time>2026-04-23T13:33:09.943Z</time></trkpt><trkpt lat="45.9095183" lon="4.6129517"><ele>319.5</ele><time>2026-04-23T13:33:12.943Z</time></trkpt><trkpt lat="45.9095833" lon="4.6128833"><ele>320.3333333333333</ele><time>2026-04-23T13:33:14.943Z</time></trkpt><trkpt lat="45.9096533" lon="4.6128033"><ele>321.16666666666663</ele><time>2026-04-23T13:33:16.944Z</time></trkpt><trkpt lat="45.90972" lon="4.6127683"><ele>322.0</ele><time>2026-04-23T13:33:18.943Z</time></trkpt><trkpt lat="45.9097967" lon="4.6128433"><ele>322.0</ele><time>2026-04-23T13:33:21.944Z</time></trkpt><trkpt lat="45.9098283" lon="4.6130017"><ele>322.0</ele><time>2026-04-23T13:33:23.943Z</time></trkpt><trkpt lat="45.9098383" lon="4.613155"><ele>322.0</ele><time>2026-04-23T13:33:25.943Z</time></trkpt><trkpt lat="45.9098017" lon="4.61329"><ele>322.0</ele><time>2026-04-23T13:33:27.944Z</time></trkpt><trkpt lat="45.9097533" lon="4.61339"><ele>322.0</ele><time>2026-04-23T13:33:29.943Z</time></trkpt><trkpt lat="45.9097" lon="4.6135317"><ele>322.0</ele><time>2026-04-23T13:33:31.943Z</time></trkpt><trkpt lat="45.9096717" lon="4.6136183"><ele>322.0</ele><time>2026-04-23T13:33:32.944Z</time></trkpt><trkpt lat="45.9096183" lon="4.6137783"><ele>322.0</ele><time>2026-04-23T13:33:34.943Z</time></trkpt><trkpt lat="45.90958" lon="4.6138933"><ele>322.0</ele><time>2026-04-23T13:33:36.943Z</time></trkpt><trkpt lat="45.90956" lon="4.614"><ele>322.0</ele><time>2026-04-23T13:33:38.944Z</time></trkpt><trkpt lat="45.9095183" lon="4.6141067"><ele>322.0</ele><time>2026-04-23T13:33:40.944Z</time></trkpt><trkpt lat="45.909475" lon="4.6142167"><ele>321.66666666666663</ele><time>2026-04-23T13:33:42.944Z</time></trkpt><trkpt lat="45.90942" lon="4.6143117"><ele>321.3333333333333</ele><time>2026-04-23T13:33:45.944Z</time></trkpt><trkpt lat="45.9093767" lon="4.6143867"><ele>321.0</ele><time>2026-04-23T13:33:47.943Z</time></trkpt><trkpt lat="45.909345" lon="4.61449"><ele>320.6666666666667</ele><time>2026-04-23T13:33:49.943Z</time></trkpt><trkpt lat="45.90931" lon="4.6145883"><ele>320.33333333333337</ele><time>2026-04-23T13:33:51.944Z</time></trkpt><trkpt lat="45.9092817" lon="4.6146933"><ele>320.0</ele><time>2026-04-23T13:33:53.944Z</time></trkpt><trkpt lat="45.9092683" lon="4.6148033"><ele>319.6</ele><time>2026-04-23T13:33:55.944Z</time></trkpt><trkpt lat="45.9092567" lon="4.6149117"><ele>319.2</ele><time>2026-04-23T13:33:57.944Z</time></trkpt><trkpt lat="45.9092483" lon="4.615005"><ele>318.8</ele><time>2026-04-23T13:33:59.944Z</time></trkpt><trkpt lat="45.9092333" lon="4.6151417"><ele>318.4</ele><time>2026-04-23T13:34:02.943Z</time></trkpt><trkpt lat="45.9092167" lon="4.615285"><ele>318.0</ele><time>2026-04-23T13:34:04.944Z</time></trkpt><trkpt lat="45.90919" lon="4.61544"><ele>316.4</ele><time>2026-04-23T13:34:06.943Z</time></trkpt><trkpt lat="45.9091683" lon="4.6156167"><ele>314.8</ele><time>2026-04-23T13:34:08.943Z</time></trkpt><trkpt lat="45.9091617" lon="4.6157817"><ele>313.2</ele><time>2026-04-23T13:34:10.943Z</time></trkpt><trkpt lat="45.90915" lon="4.6158717"><ele>311.6</ele><time>2026-04-23T13:34:11.943Z</time></trkpt><trkpt lat="45.9091317" lon="4.6160183"><ele>310.0</ele><time>2026-04-23T13:34:13.943Z</time></trkpt><trkpt lat="45.9091117" lon="4.6161283"><ele>311.3333333333333</ele><time>2026-04-23T13:34:15.944Z</time></trkpt><trkpt lat="45.9090917" lon="4.6162183"><ele>312.66666666666663</ele><time>2026-04-23T13:34:17.943Z</time></trkpt><trkpt lat="45.909045" lon="4.6162833"><ele>314.0</ele><time>2026-04-23T13:34:19.943Z</time></trkpt><trkpt lat="45.908955" lon="4.61631"><ele>315.3333333333333</ele><time>2026-04-23T13:34:21.943Z</time></trkpt><trkpt lat="45.9088517" lon="4.6163067"><ele>316.6666666666667</ele><time>2026-04-23T13:34:23.944Z</time></trkpt><trkpt lat="45.9087467" lon="4.6163267"><ele>318.0</ele><time>2026-04-23T13:34:25.943Z</time></trkpt><trkpt lat="45.90865" lon="4.6163783"><ele>318.0</ele><time>2026-04-23T13:34:27.944Z</time></trkpt><trkpt lat="45.9085817" lon="4.6164717"><ele>318.0</ele><time>2026-04-23T13:34:29.943Z</time></trkpt><trkpt lat="45.9085333" lon="4.6166533"><ele>318.0</ele><time>2026-04-23T13:34:31.943Z</time></trkpt><trkpt lat="45.908515" lon="4.6167917"><ele>318.0</ele><time>2026-04-23T13:34:32.943Z</time></trkpt><trkpt lat="45.9084983" lon="4.6169267"><ele>318.0</ele><time>2026-04-23T13:34:33.944Z</time></trkpt><trkpt lat="45.90849" lon="4.61703"><ele>319.1428571428571</ele><time>2026-04-23T13:34:34.943Z</time></trkpt><trkpt lat="45.9084783" lon="4.617125"><ele>320.28571428571433</ele><time>2026-04-23T13:34:35.943Z</time></trkpt><trkpt lat="45.9084667" lon="4.6172167"><ele>321.42857142857144</ele><time>2026-04-23T13:34:36.943Z</time></trkpt><trkpt lat="45.9084533" lon="4.6173383"><ele>322.57142857142856</ele><time>2026-04-23T13:34:38.943Z</time></trkpt><trkpt lat="45.90845" lon="4.6174517"><ele>323.71428571428567</ele><time>2026-04-23T13:34:40.943Z</time></trkpt><trkpt lat="45.9084383" lon="4.6175433"><ele>324.8571428571429</ele><time>2026-04-23T13:34:41.944Z</time></trkpt><trkpt lat="45.908425" lon="4.6176417"><ele>326.0</ele><time>2026-04-23T13:34:42.943Z</time></trkpt><trkpt lat="45.9084167" lon="4.6177783"><ele>326.20000000000005</ele><time>2026-04-23T13:34:44.944Z</time></trkpt><trkpt lat="45.908415" lon="4.6179233"><ele>326.40000000000003</ele><time>2026-04-23T13:34:47.943Z</time></trkpt><trkpt lat="45.9083933" lon="4.6181"><ele>326.6</ele><time>2026-04-23T13:34:49.944Z</time></trkpt><trkpt lat="45.9083683" lon="4.6182217"><ele>326.8</ele><time>2026-04-23T13:34:50.944Z</time></trkpt><trkpt lat="45.9083533" lon="4.6183283"><ele>327.0</ele><time>2026-04-23T13:34:51.944Z</time></trkpt><trkpt lat="45.9083317" lon="4.6184267"><ele>326.5</ele><time>2026-04-23T13:34:52.944Z</time></trkpt><trkpt lat="45.90831" lon="4.61853"><ele>326.0</ele><time>2026-04-23T13:34:53.943Z</time></trkpt><trkpt lat="45.9082783" lon="4.618625"><ele>325.5</ele><time>2026-04-23T13:34:54.943Z</time></trkpt><trkpt lat="45.908245" lon="4.6187433"><ele>325.0</ele><time>2026-04-23T13:34:56.943Z</time></trkpt><trkpt lat="45.9082267" lon="4.6188333"><ele>324.5</ele><time>2026-04-23T13:34:58.943Z</time></trkpt><trkpt lat="45.9082267" lon="4.6189917"><ele>324.0</ele><time>2026-04-23T13:35:00.943Z</time></trkpt><trkpt lat="45.9082267" lon="4.6191067"><ele>324.0</ele><time>2026-04-23T13:35:01.943Z</time></trkpt><trkpt lat="45.90822" lon="4.6192317"><ele>324.0</ele><time>2026-04-23T13:35:02.944Z</time></trkpt><trkpt lat="45.90822" lon="4.6193583"><ele>324.0</ele><time>2026-04-23T13:35:03.944Z</time></trkpt><trkpt lat="45.9082333" lon="4.6194867"><ele>324.0</ele><time>2026-04-23T13:35:04.943Z</time></trkpt><trkpt lat="45.9082417" lon="4.6195983"><ele>324.0</ele><time>2026-04-23T13:35:05.943Z</time></trkpt><trkpt lat="45.9082533" lon="4.6196933"><ele>324.0</ele><time>2026-04-23T13:35:06.943Z</time></trkpt><trkpt lat="45.9082717" lon="4.61987"><ele>324.5</ele><time>2026-04-23T13:35:08.943Z</time></trkpt><trkpt lat="45.9082767" lon="4.6199667"><ele>325.0</ele><time>2026-04-23T13:35:09.944Z</time></trkpt><trkpt lat="45.90828" lon="4.62008"><ele>325.5</ele><time>2026-04-23T13:35:10.944Z</time></trkpt><trkpt lat="45.9082833" lon="4.6202067"><ele>326.0</ele><time>2026-04-23T13:35:11.943Z</time></trkpt><trkpt lat="45.9082917" lon="4.6203283"><ele>326.5</ele><time>2026-04-23T13:35:12.943Z</time></trkpt><trkpt lat="45.9082967" lon="4.6204567"><ele>327.0</ele><time>2026-04-23T13:35:13.944Z</time></trkpt><trkpt lat="45.9083017" lon="4.620575"><ele>327.0</ele><time>2026-04-23T13:35:14.943Z</time></trkpt><trkpt lat="45.9083117" lon="4.62068"><ele>327.0</ele><time>2026-04-23T13:35:15.944Z</time></trkpt><trkpt lat="45.9083133" lon="4.6207733"><ele>327.0</ele><time>2026-04-23T13:35:16.943Z</time></trkpt><trkpt lat="45.908325" lon="4.62093"><ele>327.0</ele><time>2026-04-23T13:35:18.943Z</time></trkpt><trkpt lat="45.9083417" lon="4.6210583"><ele>327.0</ele><time>2026-04-23T13:35:20.943Z</time></trkpt><trkpt lat="45.9083417" lon="4.6211617"><ele>327.0</ele><time>2026-04-23T13:35:22.944Z</time></trkpt><trkpt lat="45.9084033" lon="4.62127"><ele>326.8</ele><time>2026-04-23T13:35:29.944Z</time></trkpt><trkpt lat="45.9085033" lon="4.62123"><ele>326.6</ele><time>2026-04-23T13:35:31.944Z</time></trkpt><trkpt lat="45.9085783" lon="4.6211767"><ele>326.40000000000003</ele><time>2026-04-23T13:35:32.944Z</time></trkpt><trkpt lat="45.9086667" lon="4.6211167"><ele>326.20000000000005</ele><time>2026-04-23T13:35:33.943Z</time></trkpt><trkpt lat="45.9087633" lon="4.6210683"><ele>326.0</ele><time>2026-04-23T13:35:34.943Z</time></trkpt><trkpt lat="45.908855" lon="4.62103"><ele>326.0</ele><time>2026-04-23T13:35:35.943Z</time></trkpt><trkpt lat="45.908935" lon="4.6209933"><ele>326.0</ele><time>2026-04-23T13:35:36.944Z</time></trkpt><trkpt lat="45.90901" lon="4.62096"><ele>326.0</ele><time>2026-04-23T13:35:37.943Z</time></trkpt><trkpt lat="45.90908" lon="4.620935"><ele>326.0</ele><time>2026-04-23T13:35:38.944Z</time></trkpt><trkpt lat="45.9091467" lon="4.6209067"><ele>326.0</ele><time>2026-04-23T13:35:39.944Z</time></trkpt><trkpt lat="45.909215" lon="4.6208867"><ele>326.0</ele><time>2026-04-23T13:35:40.944Z</time></trkpt><trkpt lat="45.9093317" lon="4.62086"><ele>326.0</ele><time>2026-04-23T13:35:42.943Z</time></trkpt><trkpt lat="45.9094217" lon="4.6208267"><ele>326.0</ele><time>2026-04-23T13:35:44.943Z</time></trkpt><trkpt lat="45.9095117" lon="4.62083"><ele>326.0</ele><time>2026-04-23T13:35:46.943Z</time></trkpt><trkpt lat="45.9096" lon="4.6209033"><ele>326.0</ele><time>2026-04-23T13:35:48.943Z</time></trkpt><trkpt lat="45.90968" lon="4.6210283"><ele>326.0</ele><time>2026-04-23T13:35:50.943Z</time></trkpt><trkpt lat="45.9097333" lon="4.62112"><ele>325.83333333333337</ele><time>2026-04-23T13:35:51.943Z</time></trkpt><trkpt lat="45.909795" lon="4.6212133"><ele>325.6666666666667</ele><time>2026-04-23T13:35:52.943Z</time></trkpt><trkpt lat="45.9098483" lon="4.6213083"><ele>325.5</ele><time>2026-04-23T13:35:53.943Z</time></trkpt><trkpt lat="45.90991" lon="4.62139"><ele>325.3333333333333</ele><time>2026-04-23T13:35:54.943Z</time></trkpt><trkpt lat="45.909955" lon="4.6214767"><ele>325.16666666666663</ele><time>2026-04-23T13:35:55.944Z</time></trkpt><trkpt lat="45.9100033" lon="4.62155"><ele>325.0</ele><time>2026-04-23T13:35:56.943Z</time></trkpt><trkpt lat="45.9100533" lon="4.62162"><ele>325.0</ele><time>2026-04-23T13:35:57.943Z</time></trkpt><trkpt lat="45.9101017" lon="4.6216967"><ele>325.0</ele><time>2026-04-23T13:35:58.944Z</time></trkpt><trkpt lat="45.9101483" lon="4.6217783"><ele>325.0</ele><time>2026-04-23T13:35:59.944Z</time></trkpt><trkpt lat="45.9101983" lon="4.6218533"><ele>325.0</ele><time>2026-04-23T13:36:00.943Z</time></trkpt><trkpt lat="45.91024" lon="4.6219267"><ele>325.0</ele><time>2026-04-23T13:36:01.943Z</time></trkpt><trkpt lat="45.91028" lon="4.6219967"><ele>325.0</ele><time>2026-04-23T13:36:02.943Z</time></trkpt><trkpt lat="45.9103233" lon="4.622075"><ele>325.0</ele><time>2026-04-23T13:36:03.943Z</time></trkpt><trkpt lat="45.9103683" lon="4.6221583"><ele>325.16666666666663</ele><time>2026-04-23T13:36:04.944Z</time></trkpt><trkpt lat="45.9104133" lon="4.62223"><ele>325.3333333333333</ele><time>2026-04-23T13:36:05.944Z</time></trkpt><trkpt lat="45.9104567" lon="4.6223067"><ele>325.5</ele><time>2026-04-23T13:36:06.943Z</time></trkpt><trkpt lat="45.910535" lon="4.6224283"><ele>325.6666666666667</ele><time>2026-04-23T13:36:08.944Z</time></trkpt><trkpt lat="45.910605" lon="4.6225417"><ele>325.83333333333337</ele><time>2026-04-23T13:36:10.943Z</time></trkpt><trkpt lat="45.910655" lon="4.622635"><ele>326.0</ele><time>2026-04-23T13:36:12.944Z</time></trkpt><trkpt lat="45.9107233" lon="4.6227317"><ele>325.8</ele><time>2026-04-23T13:36:14.943Z</time></trkpt><trkpt lat="45.9108017" lon="4.62283"><ele>325.6</ele><time>2026-04-23T13:36:16.943Z</time></trkpt><trkpt lat="45.9109067" lon="4.6229117"><ele>325.4</ele><time>2026-04-23T13:36:18.944Z</time></trkpt><trkpt lat="45.91101" lon="4.6229983"><ele>325.2</ele><time>2026-04-23T13:36:20.944Z</time></trkpt><trkpt lat="45.911065" lon="4.6230533"><ele>325.0</ele><time>2026-04-23T13:36:21.943Z</time></trkpt><trkpt lat="45.9111517" lon="4.6231383"><ele>325.6</ele><time>2026-04-23T13:36:23.944Z</time></trkpt><trkpt lat="45.911215" lon="4.6232283"><ele>326.2</ele><time>2026-04-23T13:36:25.943Z</time></trkpt><trkpt lat="45.911285" lon="4.6233283"><ele>326.79999999999995</ele><time>2026-04-23T13:36:27.944Z</time></trkpt><trkpt lat="45.9113667" lon="4.6234283"><ele>327.4</ele><time>2026-04-23T13:36:29.944Z</time></trkpt><trkpt lat="45.9114433" lon="4.6235633"><ele>328.0</ele><time>2026-04-23T13:36:31.944Z</time></trkpt><trkpt lat="45.911475" lon="4.6236417"><ele>328.1428571428571</ele><time>2026-04-23T13:36:32.943Z</time></trkpt><trkpt lat="45.9115133" lon="4.6237217"><ele>328.2857142857143</ele><time>2026-04-23T13:36:33.943Z</time></trkpt><trkpt lat="45.91156" lon="4.6238067"><ele>328.42857142857144</ele><time>2026-04-23T13:36:34.944Z</time></trkpt><trkpt lat="45.9116033" lon="4.623895"><ele>328.57142857142856</ele><time>2026-04-23T13:36:35.944Z</time></trkpt><trkpt lat="45.9116517" lon="4.62398"><ele>328.7142857142857</ele><time>2026-04-23T13:36:36.943Z</time></trkpt><trkpt lat="45.9116983" lon="4.6240533"><ele>328.85714285714283</ele><time>2026-04-23T13:36:37.943Z</time></trkpt><trkpt lat="45.9117333" lon="4.62413"><ele>329.0</ele><time>2026-04-23T13:36:38.943Z</time></trkpt><trkpt lat="45.9118" lon="4.6242533"><ele>330.0</ele><time>2026-04-23T13:36:40.943Z</time></trkpt><trkpt lat="45.9118783" lon="4.6243233"><ele>331.0</ele><time>2026-04-23T13:36:42.943Z</time></trkpt><trkpt lat="45.9119583" lon="4.62434"><ele>332.0</ele><time>2026-04-23T13:36:44.943Z</time></trkpt><trkpt lat="45.9120417" lon="4.62432"><ele>333.0</ele><time>2026-04-23T13:36:46.943Z</time></trkpt><trkpt lat="45.9121383" lon="4.6243017"><ele>334.0</ele><time>2026-04-23T13:36:48.943Z</time></trkpt><trkpt lat="45.912245" lon="4.624265"><ele>334.0</ele><time>2026-04-23T13:36:50.942Z</time></trkpt><trkpt lat="45.9123083" lon="4.6242333"><ele>334.0</ele><time>2026-04-23T13:36:51.943Z</time></trkpt><trkpt lat="45.91238" lon="4.6242"><ele>334.0</ele><time>2026-04-23T13:36:52.942Z</time></trkpt><trkpt lat="45.91245" lon="4.6241767"><ele>334.0</ele><time>2026-04-23T13:36:54.943Z</time></trkpt><trkpt lat="45.9125183" lon="4.6241567"><ele>334.0</ele><time>2026-04-23T13:36:56.942Z</time></trkpt><trkpt lat="45.9125933" lon="4.624175"><ele>334.0</ele><time>2026-04-23T13:36:59.942Z</time></trkpt><trkpt lat="45.9126267" lon="4.6242583"><ele>334.0</ele><time>2026-04-23T13:37:01.942Z</time></trkpt><trkpt lat="45.9126683" lon="4.624395"><ele>333.75</ele><time>2026-04-23T13:37:03.943Z</time></trkpt><trkpt lat="45.9127133" lon="4.6245417"><ele>333.5</ele><time>2026-04-23T13:37:05.942Z</time></trkpt><trkpt lat="45.9127733" lon="4.6246883"><ele>333.25</ele><time>2026-04-23T13:37:07.942Z</time></trkpt><trkpt lat="45.91282" lon="4.6248533"><ele>333.0</ele><time>2026-04-23T13:37:09.942Z</time></trkpt><trkpt lat="45.91288" lon="4.6250067"><ele>333.0</ele><time>2026-04-23T13:37:11.942Z</time></trkpt><trkpt lat="45.912945" lon="4.6251433"><ele>333.0</ele><time>2026-04-23T13:37:13.943Z</time></trkpt><trkpt lat="45.9129883" lon="4.6252167"><ele>333.0</ele><time>2026-04-23T13:37:14.942Z</time></trkpt><trkpt lat="45.91304" lon="4.6253483"><ele>333.0</ele><time>2026-04-23T13:37:16.942Z</time></trkpt><trkpt lat="45.9130567" lon="4.6254433"><ele>333.0</ele><time>2026-04-23T13:37:18.942Z</time></trkpt><trkpt lat="45.9130333" lon="4.6255783"><ele>332.3333333333333</ele><time>2026-04-23T13:37:20.943Z</time></trkpt><trkpt lat="45.91301" lon="4.6257567"><ele>331.6666666666667</ele><time>2026-04-23T13:37:22.942Z</time></trkpt><trkpt lat="45.9129967" lon="4.6258533"><ele>331.0</ele><time>2026-04-23T13:37:23.943Z</time></trkpt><trkpt lat="45.9129817" lon="4.62595"><ele>330.33333333333337</ele><time>2026-04-23T13:37:24.943Z</time></trkpt><trkpt lat="45.9129733" lon="4.6260517"><ele>329.6666666666667</ele><time>2026-04-23T13:37:25.943Z</time></trkpt><trkpt lat="45.9129717" lon="4.6261433"><ele>329.0</ele><time>2026-04-23T13:37:26.943Z</time></trkpt><trkpt lat="45.9129683" lon="4.62626"><ele>328.6</ele><time>2026-04-23T13:37:27.942Z</time></trkpt><trkpt lat="45.912965" lon="4.6263667"><ele>328.2</ele><time>2026-04-23T13:37:28.943Z</time></trkpt><trkpt lat="45.9129667" lon="4.62646"><ele>327.8</ele><time>2026-04-23T13:37:29.942Z</time></trkpt><trkpt lat="45.9129633" lon="4.62663"><ele>327.40000000000003</ele><time>2026-04-23T13:37:31.942Z</time></trkpt><trkpt lat="45.9129617" lon="4.6267717"><ele>327.0</ele><time>2026-04-23T13:37:33.943Z</time></trkpt><trkpt lat="45.912965" lon="4.6269083"><ele>326.6</ele><time>2026-04-23T13:37:35.943Z</time></trkpt><trkpt lat="45.912955" lon="4.6270683"><ele>326.20000000000005</ele><time>2026-04-23T13:37:37.942Z</time></trkpt><trkpt lat="45.9129283" lon="4.6272333"><ele>325.8</ele><time>2026-04-23T13:37:39.943Z</time></trkpt><trkpt lat="45.912915" lon="4.6273417"><ele>325.4</ele><time>2026-04-23T13:37:40.942Z</time></trkpt><trkpt lat="45.9129067" lon="4.6274533"><ele>325.0</ele><time>2026-04-23T13:37:41.942Z</time></trkpt><trkpt lat="45.912895" lon="4.6275517"><ele>325.0</ele><time>2026-04-23T13:37:42.943Z</time></trkpt><trkpt lat="45.9128833" lon="4.6276483"><ele>325.0</ele><time>2026-04-23T13:37:43.943Z</time></trkpt><trkpt lat="45.912875" lon="4.6277983"><ele>325.0</ele><time>2026-04-23T13:37:45.942Z</time></trkpt><trkpt lat="45.9128667" lon="4.627915"><ele>325.0</ele><time>2026-04-23T13:37:47.943Z</time></trkpt><trkpt lat="45.912865" lon="4.6280483"><ele>325.0</ele><time>2026-04-23T13:37:49.942Z</time></trkpt><trkpt lat="45.91286" lon="4.6282183"><ele>324.8</ele><time>2026-04-23T13:37:51.942Z</time></trkpt><trkpt lat="45.9128633" lon="4.6283867"><ele>324.6</ele><time>2026-04-23T13:37:53.942Z</time></trkpt><trkpt lat="45.9128567" lon="4.628545"><ele>324.4</ele><time>2026-04-23T13:37:55.943Z</time></trkpt><trkpt lat="45.9128483" lon="4.6287267"><ele>324.2</ele><time>2026-04-23T13:37:57.942Z</time></trkpt><trkpt lat="45.9128417" lon="4.6288367"><ele>324.0</ele><time>2026-04-23T13:37:58.943Z</time></trkpt><trkpt lat="45.9128367" lon="4.6289483"><ele>323.57142857142856</ele><time>2026-04-23T13:37:59.943Z</time></trkpt><trkpt lat="45.9128433" lon="4.6290567"><ele>323.1428571428571</ele><time>2026-04-23T13:38:00.942Z</time></trkpt><trkpt lat="45.9128417" lon="4.62917"><ele>322.71428571428567</ele><time>2026-04-23T13:38:01.942Z</time></trkpt><trkpt lat="45.9128467" lon="4.6292867"><ele>322.2857142857143</ele><time>2026-04-23T13:38:02.942Z</time></trkpt><trkpt lat="45.9128517" lon="4.6294017"><ele>321.85714285714283</ele><time>2026-04-23T13:38:03.943Z</time></trkpt><trkpt lat="45.912855" lon="4.629495"><ele>321.4285714285714</ele><time>2026-04-23T13:38:04.943Z</time></trkpt><trkpt lat="45.912865" lon="4.6295917"><ele>321.0</ele><time>2026-04-23T13:38:05.943Z</time></trkpt><trkpt lat="45.91288" lon="4.6296867"><ele>320.6666666666667</ele><time>2026-04-23T13:38:06.942Z</time></trkpt><trkpt lat="45.9128933" lon="4.62979"><ele>320.3333333333333</ele><time>2026-04-23T13:38:07.942Z</time></trkpt><trkpt lat="45.9129067" lon="4.6298867"><ele>320.0</ele><time>2026-04-23T13:38:08.942Z</time></trkpt><trkpt lat="45.9129267" lon="4.630045"><ele>319.66666666666663</ele><time>2026-04-23T13:38:10.942Z</time></trkpt><trkpt lat="45.9129483" lon="4.6302167"><ele>319.3333333333333</ele><time>2026-04-23T13:38:12.942Z</time></trkpt><trkpt lat="45.91296" lon="4.6303117"><ele>319.0</ele><time>2026-04-23T13:38:13.942Z</time></trkpt><trkpt lat="45.91297" lon="4.6304833"><ele>318.59999999999997</ele><time>2026-04-23T13:38:15.943Z</time></trkpt><trkpt lat="45.9129817" lon="4.6305883"><ele>318.2</ele><time>2026-04-23T13:38:16.942Z</time></trkpt><trkpt lat="45.9129933" lon="4.6306867"><ele>317.79999999999995</ele><time>2026-04-23T13:38:17.943Z</time></trkpt><trkpt lat="45.9130117" lon="4.630835"><ele>317.4</ele><time>2026-04-23T13:38:19.943Z</time></trkpt><trkpt lat="45.9130233" lon="4.6310017"><ele>317.0</ele><time>2026-04-23T13:38:21.943Z</time></trkpt><trkpt lat="45.9130433" lon="4.6311567"><ele>316.33333333333337</ele><time>2026-04-23T13:38:23.942Z</time></trkpt><trkpt lat="45.9130417" lon="4.6313367"><ele>315.6666666666667</ele><time>2026-04-23T13:38:25.943Z</time></trkpt><trkpt lat="45.9130433" lon="4.63143"><ele>315.0</ele><time>2026-04-23T13:38:26.942Z</time></trkpt><trkpt lat="45.91304" lon="4.6315233"><ele>314.3333333333333</ele><time>2026-04-23T13:38:27.943Z</time></trkpt><trkpt lat="45.9130383" lon="4.6316183"><ele>313.66666666666663</ele><time>2026-04-23T13:38:28.943Z</time></trkpt><trkpt lat="45.9130367" lon="4.6317783"><ele>313.0</ele><time>2026-04-23T13:38:30.943Z</time></trkpt><trkpt lat="45.9130317" lon="4.631875"><ele>312.8</ele><time>2026-04-23T13:38:31.943Z</time></trkpt><trkpt lat="45.9130167" lon="4.6320383"><ele>312.6</ele><time>2026-04-23T13:38:33.943Z</time></trkpt><trkpt lat="45.9130083" lon="4.632165"><ele>312.4</ele><time>2026-04-23T13:38:35.943Z</time></trkpt><trkpt lat="45.9130033" lon="4.6323167"><ele>312.2</ele><time>2026-04-23T13:38:37.942Z</time></trkpt><trkpt lat="45.912995" lon="4.6324683"><ele>312.0</ele><time>2026-04-23T13:38:39.943Z</time></trkpt><trkpt lat="45.9129817" lon="4.6325833"><ele>312.0</ele><time>2026-04-23T13:38:41.942Z</time></trkpt><trkpt lat="45.9129717" lon="4.6327117"><ele>312.0</ele><time>2026-04-23T13:38:44.942Z</time></trkpt><trkpt lat="45.91295" lon="4.632825"><ele>312.0</ele><time>2026-04-23T13:38:46.942Z</time></trkpt><trkpt lat="45.9129333" lon="4.6329467"><ele>312.0</ele><time>2026-04-23T13:38:48.943Z</time></trkpt><trkpt lat="45.9128933" lon="4.6330817"><ele>312.0</ele><time>2026-04-23T13:38:50.942Z</time></trkpt><trkpt lat="45.9128533" lon="4.6332333"><ele>312.0</ele><time>2026-04-23T13:38:52.943Z</time></trkpt><trkpt lat="45.9128483" lon="4.6333633"><ele>312.0</ele><time>2026-04-23T13:38:54.942Z</time></trkpt><trkpt lat="45.9128717" lon="4.63353"><ele>312.0</ele><time>2026-04-23T13:38:56.942Z</time></trkpt><trkpt lat="45.912895" lon="4.6336233"><ele>312.0</ele><time>2026-04-23T13:38:57.942Z</time></trkpt><trkpt lat="45.9129233" lon="4.6337333"><ele>312.0</ele><time>2026-04-23T13:38:58.942Z</time></trkpt><trkpt lat="45.912965" lon="4.633885"><ele>312.0</ele><time>2026-04-23T13:39:00.942Z</time></trkpt><trkpt lat="45.9129917" lon="4.633985"><ele>312.0</ele><time>2026-04-23T13:39:02.943Z</time></trkpt><trkpt lat="45.9129967" lon="4.6341083"><ele>312.0</ele><time>2026-04-23T13:39:04.943Z</time></trkpt><trkpt lat="45.9129467" lon="4.6342733"><ele>312.0</ele><time>2026-04-23T13:39:06.942Z</time></trkpt><trkpt lat="45.9128967" lon="4.6343733"><ele>312.0</ele><time>2026-04-23T13:39:07.942Z</time></trkpt><trkpt lat="45.9128367" lon="4.6344867"><ele>312.2</ele><time>2026-04-23T13:39:08.942Z</time></trkpt><trkpt lat="45.9127733" lon="4.6346033"><ele>312.4</ele><time>2026-04-23T13:39:09.943Z</time></trkpt><trkpt lat="45.9127167" lon="4.6347317"><ele>312.6</ele><time>2026-04-23T13:39:10.943Z</time></trkpt><trkpt lat="45.9126767" lon="4.634865"><ele>312.8</ele><time>2026-04-23T13:39:11.942Z</time></trkpt><trkpt lat="45.9126517" lon="4.63502"><ele>313.0</ele><time>2026-04-23T13:39:12.942Z</time></trkpt><trkpt lat="45.9126283" lon="4.635175"><ele>313.0</ele><time>2026-04-23T13:39:13.942Z</time></trkpt><trkpt lat="45.9126117" lon="4.6353067"><ele>313.0</ele><time>2026-04-23T13:39:14.943Z</time></trkpt><trkpt lat="45.9125917" lon="4.635445"><ele>313.0</ele><time>2026-04-23T13:39:15.943Z</time></trkpt><trkpt lat="45.91258" lon="4.6355867"><ele>313.0</ele><time>2026-04-23T13:39:16.943Z</time></trkpt><trkpt lat="45.9125667" lon="4.6357033"><ele>313.0</ele><time>2026-04-23T13:39:17.943Z</time></trkpt><trkpt lat="45.9125667" lon="4.6358617"><ele>313.2</ele><time>2026-04-23T13:39:19.942Z</time></trkpt><trkpt lat="45.9126033" lon="4.6359917"><ele>313.4</ele><time>2026-04-23T13:39:21.942Z</time></trkpt><trkpt lat="45.9126683" lon="4.6361183"><ele>313.59999999999997</ele><time>2026-04-23T13:39:23.943Z</time></trkpt><trkpt lat="45.91273" lon="4.636185"><ele>313.8</ele><time>2026-04-23T13:39:24.942Z</time></trkpt><trkpt lat="45.9128067" lon="4.636245"><ele>314.0</ele><time>2026-04-23T13:39:25.942Z</time></trkpt><trkpt lat="45.9129083" lon="4.6362883"><ele>314.0</ele><time>2026-04-23T13:39:26.943Z</time></trkpt><trkpt lat="45.913035" lon="4.6363283"><ele>314.0</ele><time>2026-04-23T13:39:27.943Z</time></trkpt><trkpt lat="45.9131833" lon="4.636365"><ele>314.0</ele><time>2026-04-23T13:39:28.942Z</time></trkpt><trkpt lat="45.9133267" lon="4.6364033"><ele>314.0</ele><time>2026-04-23T13:39:29.943Z</time></trkpt><trkpt lat="45.9134417" lon="4.6364317"><ele>313.75</ele><time>2026-04-23T13:39:30.942Z</time></trkpt><trkpt lat="45.9135467" lon="4.6364683"><ele>313.5</ele><time>2026-04-23T13:39:31.943Z</time></trkpt><trkpt lat="45.9136567" lon="4.6364967"><ele>313.25</ele><time>2026-04-23T13:39:32.943Z</time></trkpt><trkpt lat="45.9137767" lon="4.6365233"><ele>313.0</ele><time>2026-04-23T13:39:33.942Z</time></trkpt><trkpt lat="45.913905" lon="4.6365467"><ele>313.0</ele><time>2026-04-23T13:39:34.942Z</time></trkpt><trkpt lat="45.9140283" lon="4.6365783"><ele>313.0</ele><time>2026-04-23T13:39:35.942Z</time></trkpt><trkpt lat="45.914145" lon="4.636605"><ele>313.0</ele><time>2026-04-23T13:39:36.942Z</time></trkpt><trkpt lat="45.914245" lon="4.6366267"><ele>313.0</ele><time>2026-04-23T13:39:37.943Z</time></trkpt><trkpt lat="45.91435" lon="4.6366483"><ele>313.0</ele><time>2026-04-23T13:39:38.942Z</time></trkpt><trkpt lat="45.914455" lon="4.6366683"><ele>313.0</ele><time>2026-04-23T13:39:39.942Z</time></trkpt><trkpt lat="45.914555" lon="4.63669"><ele>313.0</ele><time>2026-04-23T13:39:40.942Z</time></trkpt><trkpt lat="45.9146467" lon="4.6367133"><ele>313.0</ele><time>2026-04-23T13:39:41.942Z</time></trkpt><trkpt lat="45.9147167" lon="4.6367233"><ele>313.0</ele><time>2026-04-23T13:39:42.943Z</time></trkpt><trkpt lat="45.914785" lon="4.6367383"><ele>313.0</ele><time>2026-04-23T13:39:43.942Z</time></trkpt><trkpt lat="45.9149033" lon="4.636785"><ele>313.0</ele><time>2026-04-23T13:39:45.942Z</time></trkpt><trkpt lat="45.91496" lon="4.6368383"><ele>313.0</ele><time>2026-04-23T13:39:46.942Z</time></trkpt><trkpt lat="45.915025" lon="4.6369317"><ele>313.0</ele><time>2026-04-23T13:39:47.942Z</time></trkpt><trkpt lat="45.9150883" lon="4.6370567"><ele>313.0</ele><time>2026-04-23T13:39:48.942Z</time></trkpt><trkpt lat="45.915145" lon="4.6371817"><ele>313.0</ele><time>2026-04-23T13:39:49.943Z</time></trkpt><trkpt lat="45.9151933" lon="4.6372883"><ele>313.6</ele><time>2026-04-23T13:39:50.942Z</time></trkpt><trkpt lat="45.9152367" lon="4.637385"><ele>314.20000000000005</ele><time>2026-04-23T13:39:51.942Z</time></trkpt><trkpt lat="45.9152767" lon="4.63747"><ele>314.8</ele><time>2026-04-23T13:39:52.943Z</time></trkpt><trkpt lat="45.9153333" lon="4.6376"><ele>315.40000000000003</ele><time>2026-04-23T13:39:54.943Z</time></trkpt><trkpt lat="45.9153733" lon="4.63773"><ele>316.0</ele><time>2026-04-23T13:39:56.942Z</time></trkpt><trkpt lat="45.9154367" lon="4.63787"><ele>316.0</ele><time>2026-04-23T13:39:58.942Z</time></trkpt><trkpt lat="45.9154783" lon="4.6380433"><ele>316.0</ele><time>2026-04-23T13:40:00.943Z</time></trkpt><trkpt lat="45.915495" lon="4.6381467"><ele>316.0</ele><time>2026-04-23T13:40:01.942Z</time></trkpt><trkpt lat="45.915505" lon="4.6382517"><ele>316.0</ele><time>2026-04-23T13:40:02.942Z</time></trkpt><trkpt lat="45.9155083" lon="4.6383633"><ele>316.0</ele><time>2026-04-23T13:40:03.942Z</time></trkpt><trkpt lat="45.9155117" lon="4.6384767"><ele>316.0</ele><time>2026-04-23T13:40:04.943Z</time></trkpt><trkpt lat="45.9155133" lon="4.6385883"><ele>316.0</ele><time>2026-04-23T13:40:05.942Z</time></trkpt><trkpt lat="45.9155183" lon="4.6387017"><ele>316.0</ele><time>2026-04-23T13:40:06.943Z</time></trkpt><trkpt lat="45.915525" lon="4.6387917"><ele>316.0</ele><time>2026-04-23T13:40:07.942Z</time></trkpt><trkpt lat="45.91553" lon="4.638885"><ele>316.0</ele><time>2026-04-23T13:40:08.942Z</time></trkpt><trkpt lat="45.9155333" lon="4.6389783"><ele>316.0</ele><time>2026-04-23T13:40:09.943Z</time></trkpt><trkpt lat="45.91556" lon="4.639145"><ele>316.0</ele><time>2026-04-23T13:40:11.943Z</time></trkpt><trkpt lat="45.91558" lon="4.639235"><ele>316.0</ele><time>2026-04-23T13:40:12.943Z</time></trkpt><trkpt lat="45.9156117" lon="4.63932"><ele>316.0</ele><time>2026-04-23T13:40:13.943Z</time></trkpt><trkpt lat="45.915635" lon="4.639405"><ele>316.0</ele><time>2026-04-23T13:40:14.943Z</time></trkpt><trkpt lat="45.9156917" lon="4.6395567"><ele>316.0</ele><time>2026-04-23T13:40:16.943Z</time></trkpt><trkpt lat="45.915745" lon="4.6396667"><ele>316.0</ele><time>2026-04-23T13:40:18.942Z</time></trkpt><trkpt lat="45.9157833" lon="4.639765"><ele>316.0</ele><time>2026-04-23T13:40:27.943Z</time></trkpt><trkpt lat="45.9157567" lon="4.6399033"><ele>315.8</ele><time>2026-04-23T13:40:30.943Z</time></trkpt><trkpt lat="45.9157167" lon="4.6400483"><ele>315.6</ele><time>2026-04-23T13:40:32.942Z</time></trkpt><trkpt lat="45.91568" lon="4.6401583"><ele>315.4</ele><time>2026-04-23T13:40:34.942Z</time></trkpt><trkpt lat="45.9156333" lon="4.6402967"><ele>315.2</ele><time>2026-04-23T13:40:36.943Z</time></trkpt><trkpt lat="45.9155933" lon="4.6404283"><ele>315.0</ele><time>2026-04-23T13:40:38.942Z</time></trkpt><trkpt lat="45.9155667" lon="4.6405117"><ele>315.2</ele><time>2026-04-23T13:40:39.943Z</time></trkpt><trkpt lat="45.915525" lon="4.64064"><ele>315.4</ele><time>2026-04-23T13:40:41.943Z</time></trkpt><trkpt lat="45.9154817" lon="4.6407867"><ele>315.6</ele><time>2026-04-23T13:40:43.942Z</time></trkpt><trkpt lat="45.915445" lon="4.6408883"><ele>315.8</ele><time>2026-04-23T13:40:45.942Z</time></trkpt><trkpt lat="45.9154083" lon="4.6410117"><ele>316.0</ele><time>2026-04-23T13:40:47.943Z</time></trkpt><trkpt lat="45.91537" lon="4.6411533"><ele>316.0</ele><time>2026-04-23T13:40:49.942Z</time></trkpt><trkpt lat="45.915325" lon="4.6413"><ele>316.0</ele><time>2026-04-23T13:40:51.943Z</time></trkpt><trkpt lat="45.915295" lon="4.6413817"><ele>316.0</ele><time>2026-04-23T13:40:52.942Z</time></trkpt><trkpt lat="45.915245" lon="4.64153"><ele>316.0</ele><time>2026-04-23T13:40:54.942Z</time></trkpt><trkpt lat="45.9151983" lon="4.6416617"><ele>316.0</ele><time>2026-04-23T13:40:56.942Z</time></trkpt><trkpt lat="45.9151583" lon="4.6417733"><ele>316.0</ele><time>2026-04-23T13:40:58.942Z</time></trkpt><trkpt lat="45.9151233" lon="4.6419117"><ele>316.0</ele><time>2026-04-23T13:41:00.943Z</time></trkpt><trkpt lat="45.9150933" lon="4.6420367"><ele>316.0</ele><time>2026-04-23T13:41:02.942Z</time></trkpt><trkpt lat="45.9150683" lon="4.642155"><ele>316.0</ele><time>2026-04-23T13:41:04.942Z</time></trkpt><trkpt lat="45.9150367" lon="4.6422717"><ele>316.0</ele><time>2026-04-23T13:41:06.942Z</time></trkpt><trkpt lat="45.914995" lon="4.642405"><ele>315.66666666666663</ele><time>2026-04-23T13:41:08.942Z</time></trkpt><trkpt lat="45.9149683" lon="4.6424967"><ele>315.3333333333333</ele><time>2026-04-23T13:41:09.942Z</time></trkpt><trkpt lat="45.914945" lon="4.6425917"><ele>315.0</ele><time>2026-04-23T13:41:10.942Z</time></trkpt><trkpt lat="45.9149267" lon="4.6426833"><ele>314.6666666666667</ele><time>2026-04-23T13:41:11.942Z</time></trkpt><trkpt lat="45.9148933" lon="4.642775"><ele>314.33333333333337</ele><time>2026-04-23T13:41:12.942Z</time></trkpt><trkpt lat="45.9148483" lon="4.6428983"><ele>314.0</ele><time>2026-04-23T13:41:14.943Z</time></trkpt><trkpt lat="45.9148083" lon="4.64303"><ele>313.8</ele><time>2026-04-23T13:41:16.942Z</time></trkpt><trkpt lat="45.9147783" lon="4.6431367"><ele>313.59999999999997</ele><time>2026-04-23T13:41:18.942Z</time></trkpt><trkpt lat="45.914745" lon="4.64323"><ele>313.4</ele><time>2026-04-23T13:41:20.943Z</time></trkpt><trkpt lat="45.9146933" lon="4.64339"><ele>313.2</ele><time>2026-04-23T13:41:22.942Z</time></trkpt><trkpt lat="45.9146583" lon="4.6435267"><ele>313.0</ele><time>2026-04-23T13:41:23.943Z</time></trkpt><trkpt lat="45.9146183" lon="4.643685"><ele>312.5</ele><time>2026-04-23T13:41:24.943Z</time></trkpt><trkpt lat="45.914575" lon="4.64384"><ele>312.0</ele><time>2026-04-23T13:41:25.942Z</time></trkpt><trkpt lat="45.91453" lon="4.644015"><ele>311.5</ele><time>2026-04-23T13:41:26.942Z</time></trkpt><trkpt lat="45.914485" lon="4.6441883"><ele>311.0</ele><time>2026-04-23T13:41:27.943Z</time></trkpt><trkpt lat="45.9144517" lon="4.6443383"><ele>310.6</ele><time>2026-04-23T13:41:28.942Z</time></trkpt><trkpt lat="45.9144117" lon="4.6444717"><ele>310.20000000000005</ele><time>2026-04-23T13:41:29.943Z</time></trkpt><trkpt lat="45.9143783" lon="4.6445967"><ele>309.79999999999995</ele><time>2026-04-23T13:41:30.943Z</time></trkpt><trkpt lat="45.9143483" lon="4.644705"><ele>309.4</ele><time>2026-04-23T13:41:31.942Z</time></trkpt><trkpt lat="45.9143067" lon="4.6448183"><ele>309.0</ele><time>2026-04-23T13:41:32.943Z</time></trkpt><trkpt lat="45.9142717" lon="4.6449367"><ele>309.0</ele><time>2026-04-23T13:41:33.943Z</time></trkpt><trkpt lat="45.9142467" lon="4.64506"><ele>309.0</ele><time>2026-04-23T13:41:34.942Z</time></trkpt><trkpt lat="45.9142133" lon="4.6451783"><ele>309.0</ele><time>2026-04-23T13:41:35.942Z</time></trkpt><trkpt lat="45.9141783" lon="4.6452917"><ele>309.0</ele><time>2026-04-23T13:41:36.942Z</time></trkpt><trkpt lat="45.91415" lon="4.6453917"><ele>309.0</ele><time>2026-04-23T13:41:37.942Z</time></trkpt><trkpt lat="45.9141233" lon="4.6454767"><ele>309.0</ele><time>2026-04-23T13:41:38.943Z</time></trkpt><trkpt lat="45.9140983" lon="4.6455617"><ele>307.8</ele><time>2026-04-23T13:41:39.943Z</time></trkpt><trkpt lat="45.9140517" lon="4.6457183"><ele>306.59999999999997</ele><time>2026-04-23T13:41:41.943Z</time></trkpt><trkpt lat="45.9140017" lon="4.6458517"><ele>305.4</ele><time>2026-04-23T13:41:43.942Z</time></trkpt><trkpt lat="45.914005" lon="4.6459533"><ele>304.2</ele><time>2026-04-23T13:41:45.943Z</time></trkpt><trkpt lat="45.9141067" lon="4.646035"><ele>303.0</ele><time>2026-04-23T13:41:48.942Z</time></trkpt><trkpt lat="45.91419" lon="4.6460867"><ele>303.3333333333333</ele><time>2026-04-23T13:41:49.942Z</time></trkpt><trkpt lat="45.9142917" lon="4.6461417"><ele>303.6666666666667</ele><time>2026-04-23T13:41:50.943Z</time></trkpt><trkpt lat="45.9143833" lon="4.6461933"><ele>304.0</ele><time>2026-04-23T13:41:51.942Z</time></trkpt><trkpt lat="45.9144583" lon="4.6462467"><ele>304.33333333333337</ele><time>2026-04-23T13:41:52.942Z</time></trkpt><trkpt lat="45.91453" lon="4.646285"><ele>304.6666666666667</ele><time>2026-04-23T13:41:53.942Z</time></trkpt><trkpt lat="45.9145917" lon="4.6463183"><ele>305.0</ele><time>2026-04-23T13:41:54.943Z</time></trkpt><trkpt lat="45.9146817" lon="4.646405"><ele>305.0</ele><time>2026-04-23T13:41:56.943Z</time></trkpt><trkpt lat="45.9147517" lon="4.6465217"><ele>305.0</ele><time>2026-04-23T13:41:58.943Z</time></trkpt><trkpt lat="45.9148083" lon="4.646675"><ele>305.0</ele><time>2026-04-23T13:42:00.942Z</time></trkpt><trkpt lat="45.9148067" lon="4.6468533"><ele>305.0</ele><time>2026-04-23T13:42:02.942Z</time></trkpt><trkpt lat="45.91478" lon="4.6469733"><ele>305.0</ele><time>2026-04-23T13:42:03.942Z</time></trkpt><trkpt lat="45.91475" lon="4.647095"><ele>304.4</ele><time>2026-04-23T13:42:04.942Z</time></trkpt><trkpt lat="45.9147217" lon="4.6472067"><ele>303.8</ele><time>2026-04-23T13:42:05.943Z</time></trkpt><trkpt lat="45.914695" lon="4.6473267"><ele>303.2</ele><time>2026-04-23T13:42:06.943Z</time></trkpt><trkpt lat="45.9146583" lon="4.6474583"><ele>302.6</ele><time>2026-04-23T13:42:07.942Z</time></trkpt><trkpt lat="45.9146233" lon="4.647605"><ele>302.0</ele><time>2026-04-23T13:42:08.942Z</time></trkpt><trkpt lat="45.9145933" lon="4.6477417"><ele>301.0</ele><time>2026-04-23T13:42:09.942Z</time></trkpt><trkpt lat="45.9145633" lon="4.64787"><ele>300.0</ele><time>2026-04-23T13:42:10.942Z</time></trkpt><trkpt lat="45.9145367" lon="4.647995"><ele>299.0</ele><time>2026-04-23T13:42:11.943Z</time></trkpt><trkpt lat="45.9145117" lon="4.6481233"><ele>298.0</ele><time>2026-04-23T13:42:12.943Z</time></trkpt><trkpt lat="45.9144833" lon="4.6482483"><ele>297.0</ele><time>2026-04-23T13:42:13.942Z</time></trkpt><trkpt lat="45.9144567" lon="4.6483667"><ele>297.0</ele><time>2026-04-23T13:42:14.942Z</time></trkpt><trkpt lat="45.91443" lon="4.6484817"><ele>297.0</ele><time>2026-04-23T13:42:15.942Z</time></trkpt><trkpt lat="45.91441" lon="4.6485717"><ele>297.0</ele><time>2026-04-23T13:42:16.943Z</time></trkpt><trkpt lat="45.91439" lon="4.6486783"><ele>297.0</ele><time>2026-04-23T13:42:18.943Z</time></trkpt><trkpt lat="45.914365" lon="4.6487667"><ele>297.0</ele><time>2026-04-23T13:42:19.942Z</time></trkpt><trkpt lat="45.9143383" lon="4.6488683"><ele>297.0</ele><time>2026-04-23T13:42:20.943Z</time></trkpt><trkpt lat="45.914315" lon="4.64897"><ele>297.0</ele><time>2026-04-23T13:42:21.943Z</time></trkpt><trkpt lat="45.9142933" lon="4.64907"><ele>296.5</ele><time>2026-04-23T13:42:22.942Z</time></trkpt><trkpt lat="45.9142717" lon="4.6491667"><ele>296.0</ele><time>2026-04-23T13:42:23.943Z</time></trkpt><trkpt lat="45.9142433" lon="4.6492667"><ele>295.5</ele><time>2026-04-23T13:42:24.943Z</time></trkpt><trkpt lat="45.9142117" lon="4.6493717"><ele>295.0</ele><time>2026-04-23T13:42:25.942Z</time></trkpt><trkpt lat="45.9141833" lon="4.6494683"><ele>294.5</ele><time>2026-04-23T13:42:26.942Z</time></trkpt><trkpt lat="45.91416" lon="4.6495533"><ele>294.0</ele><time>2026-04-23T13:42:27.943Z</time></trkpt><trkpt lat="45.91412" lon="4.6496983"><ele>293.2</ele><time>2026-04-23T13:42:29.942Z</time></trkpt><trkpt lat="45.9140917" lon="4.6498267"><ele>292.4</ele><time>2026-04-23T13:42:31.943Z</time></trkpt><trkpt lat="45.9140933" lon="4.6499883"><ele>291.6</ele><time>2026-04-23T13:42:33.943Z</time></trkpt><trkpt lat="45.9141183" lon="4.6501433"><ele>290.8</ele><time>2026-04-23T13:42:35.943Z</time></trkpt><trkpt lat="45.91415" lon="4.65029"><ele>290.0</ele><time>2026-04-23T13:42:37.942Z</time></trkpt><trkpt lat="45.9142033" lon="4.6504633"><ele>288.33333333333337</ele><time>2026-04-23T13:42:39.942Z</time></trkpt><trkpt lat="45.9142417" lon="4.6505533"><ele>286.6666666666667</ele><time>2026-04-23T13:42:40.942Z</time></trkpt><trkpt lat="45.9142733" lon="4.6506333"><ele>285.0</ele><time>2026-04-23T13:42:41.943Z</time></trkpt><trkpt lat="45.91432" lon="4.6507667"><ele>283.3333333333333</ele><time>2026-04-23T13:42:43.942Z</time></trkpt><trkpt lat="45.9143367" lon="4.6508883"><ele>281.66666666666663</ele><time>2026-04-23T13:42:45.943Z</time></trkpt><trkpt lat="45.914335" lon="4.6509917"><ele>280.0</ele><time>2026-04-23T13:42:47.943Z</time></trkpt><trkpt lat="45.9142817" lon="4.6510867"><ele>279.42857142857144</ele><time>2026-04-23T13:42:49.943Z</time></trkpt><trkpt lat="45.9142383" lon="4.6511533"><ele>278.8571428571429</ele><time>2026-04-23T13:42:50.942Z</time></trkpt><trkpt lat="45.9141867" lon="4.65124"><ele>278.2857142857143</ele><time>2026-04-23T13:42:51.942Z</time></trkpt><trkpt lat="45.9141367" lon="4.6513133"><ele>277.7142857142857</ele><time>2026-04-23T13:42:52.942Z</time></trkpt><trkpt lat="45.9140917" lon="4.6513933"><ele>277.14285714285717</ele><time>2026-04-23T13:42:53.942Z</time></trkpt><trkpt lat="45.914055" lon="4.65147"><ele>276.57142857142856</ele><time>2026-04-23T13:42:54.943Z</time></trkpt><trkpt lat="45.9140033" lon="4.6515483"><ele>276.0</ele><time>2026-04-23T13:42:55.943Z</time></trkpt><trkpt lat="45.913945" lon="4.651645"><ele>275.3333333333333</ele><time>2026-04-23T13:42:56.942Z</time></trkpt><trkpt lat="45.9138817" lon="4.6517417"><ele>274.6666666666667</ele><time>2026-04-23T13:42:57.943Z</time></trkpt><trkpt lat="45.9138267" lon="4.6518383"><ele>274.0</ele><time>2026-04-23T13:42:58.942Z</time></trkpt><trkpt lat="45.91378" lon="4.6519233"><ele>273.33333333333337</ele><time>2026-04-23T13:42:59.943Z</time></trkpt><trkpt lat="45.9137367" lon="4.6519967"><ele>272.6666666666667</ele><time>2026-04-23T13:43:00.943Z</time></trkpt><trkpt lat="45.9136767" lon="4.6521533"><ele>272.0</ele><time>2026-04-23T13:43:02.942Z</time></trkpt><trkpt lat="45.91364" lon="4.652235"><ele>271.83333333333337</ele><time>2026-04-23T13:43:03.942Z</time></trkpt><trkpt lat="45.9136167" lon="4.65233"><ele>271.6666666666667</ele><time>2026-04-23T13:43:04.943Z</time></trkpt><trkpt lat="45.9135933" lon="4.6524733"><ele>271.5</ele><time>2026-04-23T13:43:06.942Z</time></trkpt><trkpt lat="45.9136317" lon="4.652565"><ele>271.3333333333333</ele><time>2026-04-23T13:43:08.942Z</time></trkpt><trkpt lat="45.9137167" lon="4.6526"><ele>271.16666666666663</ele><time>2026-04-23T13:43:10.943Z</time></trkpt><trkpt lat="45.913795" lon="4.652605"><ele>271.0</ele><time>2026-04-23T13:43:11.942Z</time></trkpt><trkpt lat="45.913895" lon="4.6526167"><ele>271.0</ele><time>2026-04-23T13:43:12.943Z</time></trkpt><trkpt lat="45.9140133" lon="4.6526467"><ele>271.0</ele><time>2026-04-23T13:43:13.942Z</time></trkpt><trkpt lat="45.9141433" lon="4.6527"><ele>271.0</ele><time>2026-04-23T13:43:14.943Z</time></trkpt><trkpt lat="45.91429" lon="4.6527583"><ele>271.0</ele><time>2026-04-23T13:43:15.943Z</time></trkpt><trkpt lat="45.9144233" lon="4.6528133"><ele>272.3333333333333</ele><time>2026-04-23T13:43:16.943Z</time></trkpt><trkpt lat="45.914535" lon="4.6528567"><ele>273.66666666666663</ele><time>2026-04-23T13:43:17.943Z</time></trkpt><trkpt lat="45.9146233" lon="4.6528883"><ele>275.0</ele><time>2026-04-23T13:43:18.943Z</time></trkpt><trkpt lat="45.9147033" lon="4.6529267"><ele>276.3333333333333</ele><time>2026-04-23T13:43:19.943Z</time></trkpt><trkpt lat="45.914775" lon="4.6529583"><ele>277.6666666666667</ele><time>2026-04-23T13:43:20.943Z</time></trkpt><trkpt lat="45.9148433" lon="4.652985"><ele>279.0</ele><time>2026-04-23T13:43:21.943Z</time></trkpt><trkpt lat="45.9149533" lon="4.6530083"><ele>279.0</ele><time>2026-04-23T13:43:23.942Z</time></trkpt><trkpt lat="45.9150517" lon="4.6529533"><ele>279.0</ele><time>2026-04-23T13:43:25.942Z</time></trkpt><trkpt lat="45.91512" lon="4.65291"><ele>279.0</ele><time>2026-04-23T13:43:26.942Z</time></trkpt><trkpt lat="45.9151933" lon="4.6528767"><ele>279.0</ele><time>2026-04-23T13:43:27.942Z</time></trkpt><trkpt lat="45.9152633" lon="4.6528117"><ele>279.0</ele><time>2026-04-23T13:43:28.942Z</time></trkpt><trkpt lat="45.9153233" lon="4.6527283"><ele>279.0</ele><time>2026-04-23T13:43:29.942Z</time></trkpt><trkpt lat="45.9153717" lon="4.6526417"><ele>278.6666666666667</ele><time>2026-04-23T13:43:30.943Z</time></trkpt><trkpt lat="45.9154117" lon="4.65255"><ele>278.3333333333333</ele><time>2026-04-23T13:43:31.942Z</time></trkpt><trkpt lat="45.9154533" lon="4.6524383"><ele>278.0</ele><time>2026-04-23T13:43:32.942Z</time></trkpt><trkpt lat="45.9154967" lon="4.65234"><ele>277.66666666666663</ele><time>2026-04-23T13:43:33.943Z</time></trkpt><trkpt lat="45.9155367" lon="4.6522483"><ele>277.3333333333333</ele><time>2026-04-23T13:43:34.942Z</time></trkpt><trkpt lat="45.9155833" lon="4.6521783"><ele>277.0</ele><time>2026-04-23T13:43:35.942Z</time></trkpt><trkpt lat="45.915695" lon="4.65211"><ele>277.0</ele><time>2026-04-23T13:43:37.943Z</time></trkpt><trkpt lat="45.915765" lon="4.6521117"><ele>277.0</ele><time>2026-04-23T13:43:38.942Z</time></trkpt><trkpt lat="45.91585" lon="4.652135"><ele>277.0</ele><time>2026-04-23T13:43:39.942Z</time></trkpt><trkpt lat="45.915935" lon="4.6521517"><ele>277.0</ele><time>2026-04-23T13:43:40.942Z</time></trkpt><trkpt lat="45.916025" lon="4.6521567"><ele>277.0</ele><time>2026-04-23T13:43:41.943Z</time></trkpt><trkpt lat="45.91611" lon="4.652155"><ele>277.0</ele><time>2026-04-23T13:43:42.943Z</time></trkpt><trkpt lat="45.9161867" lon="4.6521483"><ele>278.2</ele><time>2026-04-23T13:43:43.943Z</time></trkpt><trkpt lat="45.9162667" lon="4.6521317"><ele>279.4</ele><time>2026-04-23T13:43:44.942Z</time></trkpt><trkpt lat="45.9163367" lon="4.6521267"><ele>280.6</ele><time>2026-04-23T13:43:45.942Z</time></trkpt><trkpt lat="45.9164467" lon="4.6521167"><ele>281.8</ele><time>2026-04-23T13:43:47.942Z</time></trkpt><trkpt lat="45.9165683" lon="4.65207"><ele>283.0</ele><time>2026-04-23T13:43:49.942Z</time></trkpt><trkpt lat="45.9166467" lon="4.6520083"><ele>284.6</ele><time>2026-04-23T13:43:50.942Z</time></trkpt><trkpt lat="45.916735" lon="4.651925"><ele>286.20000000000005</ele><time>2026-04-23T13:43:51.943Z</time></trkpt><trkpt lat="45.916815" lon="4.651835"><ele>287.8</ele><time>2026-04-23T13:43:52.942Z</time></trkpt><trkpt lat="45.916885" lon="4.6517583"><ele>289.40000000000003</ele><time>2026-04-23T13:43:53.942Z</time></trkpt><trkpt lat="45.91695" lon="4.65169"><ele>291.0</ele><time>2026-04-23T13:43:54.942Z</time></trkpt><trkpt lat="45.9170167" lon="4.6516333"><ele>291.3333333333333</ele><time>2026-04-23T13:43:55.943Z</time></trkpt><trkpt lat="45.9170817" lon="4.65159"><ele>291.6666666666667</ele><time>2026-04-23T13:43:56.943Z</time></trkpt><trkpt lat="45.917145" lon="4.6515483"><ele>292.0</ele><time>2026-04-23T13:43:57.942Z</time></trkpt><trkpt lat="45.9172533" lon="4.65148"><ele>292.33333333333337</ele><time>2026-04-23T13:43:59.942Z</time></trkpt><trkpt lat="45.9173383" lon="4.651465"><ele>292.6666666666667</ele><time>2026-04-23T13:44:01.943Z</time></trkpt><trkpt lat="45.9174033" lon="4.6514667"><ele>293.0</ele><time>2026-04-23T13:44:02.942Z</time></trkpt><trkpt lat="45.91748" lon="4.6514667"><ele>293.0</ele><time>2026-04-23T13:44:03.942Z</time></trkpt><trkpt lat="45.91756" lon="4.6514633"><ele>293.0</ele><time>2026-04-23T13:44:04.943Z</time></trkpt><trkpt lat="45.9176367" lon="4.6514667"><ele>293.0</ele><time>2026-04-23T13:44:05.942Z</time></trkpt><trkpt lat="45.9177133" lon="4.6514717"><ele>293.0</ele><time>2026-04-23T13:44:06.943Z</time></trkpt><trkpt lat="45.9177817" lon="4.651485"><ele>293.0</ele><time>2026-04-23T13:44:07.942Z</time></trkpt><trkpt lat="45.917855" lon="4.6515083"><ele>293.0</ele><time>2026-04-23T13:44:08.943Z</time></trkpt><trkpt lat="45.9179317" lon="4.6515333"><ele>292.83333333333337</ele><time>2026-04-23T13:44:09.942Z</time></trkpt><trkpt lat="45.9179983" lon="4.6515583"><ele>292.6666666666667</ele><time>2026-04-23T13:44:10.942Z</time></trkpt><trkpt lat="45.9180633" lon="4.65158"><ele>292.5</ele><time>2026-04-23T13:44:11.942Z</time></trkpt><trkpt lat="45.918135" lon="4.651605"><ele>292.3333333333333</ele><time>2026-04-23T13:44:12.943Z</time></trkpt><trkpt lat="45.91822" lon="4.65163"><ele>292.16666666666663</ele><time>2026-04-23T13:44:13.942Z</time></trkpt><trkpt lat="45.9183017" lon="4.6516517"><ele>292.0</ele><time>2026-04-23T13:44:14.943Z</time></trkpt><trkpt lat="45.9183767" lon="4.65167"><ele>292.66666666666663</ele><time>2026-04-23T13:44:15.942Z</time></trkpt><trkpt lat="45.9184567" lon="4.6516933"><ele>293.3333333333333</ele><time>2026-04-23T13:44:16.942Z</time></trkpt><trkpt lat="45.9185467" lon="4.6517217"><ele>294.0</ele><time>2026-04-23T13:44:17.943Z</time></trkpt><trkpt lat="45.9186333" lon="4.651745"><ele>294.6666666666667</ele><time>2026-04-23T13:44:18.942Z</time></trkpt><trkpt lat="45.9187133" lon="4.6517733"><ele>295.33333333333337</ele><time>2026-04-23T13:44:19.942Z</time></trkpt><trkpt lat="45.9188067" lon="4.651805"><ele>296.0</ele><time>2026-04-23T13:44:20.942Z</time></trkpt><trkpt lat="45.9189017" lon="4.6518333"><ele>296.0</ele><time>2026-04-23T13:44:21.942Z</time></trkpt><trkpt lat="45.9189917" lon="4.6518583"><ele>296.0</ele><time>2026-04-23T13:44:22.942Z</time></trkpt><trkpt lat="45.91908" lon="4.6518867"><ele>296.0</ele><time>2026-04-23T13:44:23.942Z</time></trkpt><trkpt lat="45.91917" lon="4.6519117"><ele>296.0</ele><time>2026-04-23T13:44:24.942Z</time></trkpt><trkpt lat="45.91926" lon="4.65194"><ele>296.0</ele><time>2026-04-23T13:44:25.942Z</time></trkpt><trkpt lat="45.9193583" lon="4.651965"><ele>296.2</ele><time>2026-04-23T13:44:26.943Z</time></trkpt><trkpt lat="45.9194533" lon="4.651995"><ele>296.40000000000003</ele><time>2026-04-23T13:44:27.943Z</time></trkpt><trkpt lat="45.9195367" lon="4.6520233"><ele>296.6</ele><time>2026-04-23T13:44:28.943Z</time></trkpt><trkpt lat="45.9196217" lon="4.6520567"><ele>296.8</ele><time>2026-04-23T13:44:29.942Z</time></trkpt><trkpt lat="45.91972" lon="4.65209"><ele>297.0</ele><time>2026-04-23T13:44:30.942Z</time></trkpt><trkpt lat="45.919815" lon="4.6521167"><ele>297.0</ele><time>2026-04-23T13:44:31.942Z</time></trkpt><trkpt lat="45.9199033" lon="4.6521333"><ele>297.0</ele><time>2026-04-23T13:44:32.943Z</time></trkpt><trkpt lat="45.919975" lon="4.652155"><ele>297.0</ele><time>2026-04-23T13:44:33.943Z</time></trkpt><trkpt lat="45.9200433" lon="4.6521683"><ele>297.0</ele><time>2026-04-23T13:44:34.942Z</time></trkpt><trkpt lat="45.9201617" lon="4.6522117"><ele>297.0</ele><time>2026-04-23T13:44:36.942Z</time></trkpt><trkpt lat="45.9202283" lon="4.6522517"><ele>297.0</ele><time>2026-04-23T13:44:37.942Z</time></trkpt><trkpt lat="45.9202933" lon="4.6522917"><ele>297.2</ele><time>2026-04-23T13:44:38.943Z</time></trkpt><trkpt lat="45.9204133" lon="4.6523733"><ele>297.4</ele><time>2026-04-23T13:44:40.942Z</time></trkpt><trkpt lat="45.920485" lon="4.6524217"><ele>297.6</ele><time>2026-04-23T13:44:41.943Z</time></trkpt><trkpt lat="45.920555" lon="4.6524733"><ele>297.8</ele><time>2026-04-23T13:44:42.942Z</time></trkpt><trkpt lat="45.9206283" lon="4.6525217"><ele>298.0</ele><time>2026-04-23T13:44:43.942Z</time></trkpt><trkpt lat="45.9207067" lon="4.6525633"><ele>298.0</ele><time>2026-04-23T13:44:44.943Z</time></trkpt><trkpt lat="45.9208" lon="4.652595"><ele>298.0</ele><time>2026-04-23T13:44:45.943Z</time></trkpt><trkpt lat="45.9208967" lon="4.652625"><ele>298.0</ele><time>2026-04-23T13:44:46.942Z</time></trkpt><trkpt lat="45.9209817" lon="4.6526583"><ele>298.0</ele><time>2026-04-23T13:44:47.942Z</time></trkpt><trkpt lat="45.92107" lon="4.6526933"><ele>298.0</ele><time>2026-04-23T13:44:48.942Z</time></trkpt><trkpt lat="45.92116" lon="4.6527233"><ele>298.0</ele><time>2026-04-23T13:44:49.942Z</time></trkpt><trkpt lat="45.9212367" lon="4.65275"><ele>298.0</ele><time>2026-04-23T13:44:50.943Z</time></trkpt><trkpt lat="45.9212983" lon="4.6527817"><ele>298.0</ele><time>2026-04-23T13:44:51.943Z</time></trkpt><trkpt lat="45.9213733" lon="4.6528033"><ele>298.0</ele><time>2026-04-23T13:44:52.943Z</time></trkpt><trkpt lat="45.9214633" lon="4.6528167"><ele>298.0</ele><time>2026-04-23T13:44:53.942Z</time></trkpt><trkpt lat="45.9215417" lon="4.6528417"><ele>298.0</ele><time>2026-04-23T13:44:54.942Z</time></trkpt><trkpt lat="45.92163" lon="4.6528633"><ele>298.0</ele><time>2026-04-23T13:44:55.943Z</time></trkpt><trkpt lat="45.9216967" lon="4.6528783"><ele>298.0</ele><time>2026-04-23T13:44:56.942Z</time></trkpt><trkpt lat="45.9218117" lon="4.6529"><ele>298.0</ele><time>2026-04-23T13:44:58.942Z</time></trkpt><trkpt lat="45.9218833" lon="4.6529217"><ele>298.0</ele><time>2026-04-23T13:44:59.942Z</time></trkpt><trkpt lat="45.921975" lon="4.6529417"><ele>298.0</ele><time>2026-04-23T13:45:00.943Z</time></trkpt><trkpt lat="45.9220667" lon="4.6529583"><ele>298.0</ele><time>2026-04-23T13:45:01.942Z</time></trkpt><trkpt lat="45.9221483" lon="4.652965"><ele>298.16666666666663</ele><time>2026-04-23T13:45:02.942Z</time></trkpt><trkpt lat="45.9222217" lon="4.65298"><ele>298.3333333333333</ele><time>2026-04-23T13:45:03.943Z</time></trkpt><trkpt lat="45.922285" lon="4.6529933"><ele>298.5</ele><time>2026-04-23T13:45:04.942Z</time></trkpt><trkpt lat="45.922355" lon="4.653025"><ele>298.6666666666667</ele><time>2026-04-23T13:45:05.943Z</time></trkpt><trkpt lat="45.9224517" lon="4.6531017"><ele>298.83333333333337</ele><time>2026-04-23T13:45:07.942Z</time></trkpt><trkpt lat="45.9225133" lon="4.6531367"><ele>299.0</ele><time>2026-04-23T13:45:08.943Z</time></trkpt><trkpt lat="45.9225883" lon="4.6531767"><ele>299.33333333333337</ele><time>2026-04-23T13:45:09.942Z</time></trkpt><trkpt lat="45.92266" lon="4.6532083"><ele>299.6666666666667</ele><time>2026-04-23T13:45:10.942Z</time></trkpt><trkpt lat="45.9227267" lon="4.6532317"><ele>300.0</ele><time>2026-04-23T13:45:11.942Z</time></trkpt><trkpt lat="45.9228183" lon="4.653245"><ele>300.3333333333333</ele><time>2026-04-23T13:45:12.942Z</time></trkpt><trkpt lat="45.922885" lon="4.6532467"><ele>300.66666666666663</ele><time>2026-04-23T13:45:13.943Z</time></trkpt><trkpt lat="45.9229783" lon="4.6532433"><ele>301.0</ele><time>2026-04-23T13:45:14.943Z</time></trkpt><trkpt lat="45.92307" lon="4.6532383"><ele>301.0</ele><time>2026-04-23T13:45:15.943Z</time></trkpt><trkpt lat="45.923165" lon="4.6532367"><ele>301.0</ele><time>2026-04-23T13:45:16.943Z</time></trkpt><trkpt lat="45.92325" lon="4.6532333"><ele>301.0</ele><time>2026-04-23T13:45:17.943Z</time></trkpt><trkpt lat="45.9233367" lon="4.6531983"><ele>301.0</ele><time>2026-04-23T13:45:19.943Z</time></trkpt><trkpt lat="45.923465" lon="4.6531417"><ele>301.0</ele><time>2026-04-23T13:45:21.942Z</time></trkpt><trkpt lat="45.9235433" lon="4.6531133"><ele>301.16666666666663</ele><time>2026-04-23T13:45:22.942Z</time></trkpt><trkpt lat="45.9236283" lon="4.6530867"><ele>301.3333333333333</ele><time>2026-04-23T13:45:23.942Z</time></trkpt><trkpt lat="45.9237083" lon="4.6530533"><ele>301.5</ele><time>2026-04-23T13:45:24.942Z</time></trkpt><trkpt lat="45.923775" lon="4.65303"><ele>301.6666666666667</ele><time>2026-04-23T13:45:25.943Z</time></trkpt><trkpt lat="45.9238467" lon="4.6530017"><ele>301.83333333333337</ele><time>2026-04-23T13:45:26.942Z</time></trkpt><trkpt lat="45.9239167" lon="4.652985"><ele>302.0</ele><time>2026-04-23T13:45:27.943Z</time></trkpt><trkpt lat="45.92399" lon="4.6529767"><ele>302.0</ele><time>2026-04-23T13:45:28.942Z</time></trkpt><trkpt lat="45.9240667" lon="4.652975"><ele>302.0</ele><time>2026-04-23T13:45:29.943Z</time></trkpt><trkpt lat="45.924145" lon="4.6529717"><ele>302.0</ele><time>2026-04-23T13:45:30.942Z</time></trkpt><trkpt lat="45.92423" lon="4.65297"><ele>302.0</ele><time>2026-04-23T13:45:31.943Z</time></trkpt><trkpt lat="45.9243067" lon="4.6529767"><ele>302.0</ele><time>2026-04-23T13:45:32.943Z</time></trkpt><trkpt lat="45.9243833" lon="4.652975"><ele>302.0</ele><time>2026-04-23T13:45:33.942Z</time></trkpt><trkpt lat="45.92447" lon="4.6529733"><ele>302.00000000000006</ele><time>2026-04-23T13:45:34.943Z</time></trkpt><trkpt lat="45.9245417" lon="4.6529767"><ele>302.0</ele><time>2026-04-23T13:45:35.942Z</time></trkpt><trkpt lat="45.9246067" lon="4.652985"><ele>302.0</ele><time>2026-04-23T13:45:36.942Z</time></trkpt><trkpt lat="45.9246783" lon="4.653005"><ele>302.0</ele><time>2026-04-23T13:45:37.943Z</time></trkpt><trkpt lat="45.9247417" lon="4.653025"><ele>302.0</ele><time>2026-04-23T13:45:38.942Z</time></trkpt><trkpt lat="45.92481" lon="4.6530333"><ele>302.00000000000006</ele><time>2026-04-23T13:45:39.943Z</time></trkpt><trkpt lat="45.92488" lon="4.653035"><ele>302.0</ele><time>2026-04-23T13:45:40.942Z</time></trkpt><trkpt lat="45.92501" lon="4.6530517"><ele>302.6666666666667</ele><time>2026-04-23T13:45:42.943Z</time></trkpt><trkpt lat="45.9251133" lon="4.6530267"><ele>303.33333333333337</ele><time>2026-04-23T13:45:44.942Z</time></trkpt><trkpt lat="45.9252283" lon="4.6529817"><ele>304.0</ele><time>2026-04-23T13:45:46.943Z</time></trkpt><trkpt lat="45.9253017" lon="4.652955"><ele>304.6666666666667</ele><time>2026-04-23T13:45:47.942Z</time></trkpt><trkpt lat="45.9253733" lon="4.6529333"><ele>305.3333333333333</ele><time>2026-04-23T13:45:48.943Z</time></trkpt><trkpt lat="45.9254383" lon="4.6529033"><ele>306.0</ele><time>2026-04-23T13:45:49.943Z</time></trkpt><trkpt lat="45.9255167" lon="4.65288"><ele>306.0</ele><time>2026-04-23T13:45:50.943Z</time></trkpt><trkpt lat="45.9256" lon="4.652855"><ele>306.0</ele><time>2026-04-23T13:45:51.943Z</time></trkpt><trkpt lat="45.9256767" lon="4.6528367"><ele>306.0</ele><time>2026-04-23T13:45:52.942Z</time></trkpt><trkpt lat="45.9258033" lon="4.65282"><ele>306.0</ele><time>2026-04-23T13:45:54.943Z</time></trkpt><trkpt lat="45.9258817" lon="4.6528167"><ele>306.0</ele><time>2026-04-23T13:45:55.942Z</time></trkpt><trkpt lat="45.9259683" lon="4.6527983"><ele>306.1666666666667</ele><time>2026-04-23T13:45:56.942Z</time></trkpt><trkpt lat="45.926065" lon="4.652785"><ele>306.3333333333333</ele><time>2026-04-23T13:45:58.942Z</time></trkpt><trkpt lat="45.9261333" lon="4.6527733"><ele>306.5</ele><time>2026-04-23T13:45:59.943Z</time></trkpt><trkpt lat="45.9262083" lon="4.6527783"><ele>306.66666666666663</ele><time>2026-04-23T13:46:00.942Z</time></trkpt><trkpt lat="45.92629" lon="4.65278"><ele>306.8333333333333</ele><time>2026-04-23T13:46:01.942Z</time></trkpt><trkpt lat="45.9263917" lon="4.652765"><ele>307.0</ele><time>2026-04-23T13:46:02.943Z</time></trkpt><trkpt lat="45.9264933" lon="4.6527467"><ele>307.0</ele><time>2026-04-23T13:46:03.942Z</time></trkpt><trkpt lat="45.9265883" lon="4.6527217"><ele>307.0</ele><time>2026-04-23T13:46:04.943Z</time></trkpt><trkpt lat="45.926675" lon="4.652715"><ele>307.0</ele><time>2026-04-23T13:46:05.943Z</time></trkpt><trkpt lat="45.9267683" lon="4.6527017"><ele>307.0</ele><time>2026-04-23T13:46:06.943Z</time></trkpt><trkpt lat="45.9268683" lon="4.6526867"><ele>307.0</ele><time>2026-04-23T13:46:07.942Z</time></trkpt><trkpt lat="45.9269617" lon="4.6526733"><ele>307.0</ele><time>2026-04-23T13:46:08.942Z</time></trkpt><trkpt lat="45.927055" lon="4.6526583"><ele>307.0</ele><time>2026-04-23T13:46:09.942Z</time></trkpt><trkpt lat="45.9271383" lon="4.6526417"><ele>307.0</ele><time>2026-04-23T13:46:10.942Z</time></trkpt><trkpt lat="45.9272117" lon="4.6526233"><ele>307.0</ele><time>2026-04-23T13:46:11.943Z</time></trkpt><trkpt lat="45.9273117" lon="4.6525867"><ele>307.0</ele><time>2026-04-23T13:46:13.943Z</time></trkpt><trkpt lat="45.9273817" lon="4.6525633"><ele>307.0</ele><time>2026-04-23T13:46:15.942Z</time></trkpt><trkpt lat="45.9274533" lon="4.6525483"><ele>307.0</ele><time>2026-04-23T13:46:20.943Z</time></trkpt><trkpt lat="45.9275767" lon="4.6525167"><ele>307.0</ele><time>2026-04-23T13:46:22.942Z</time></trkpt><trkpt lat="45.9276467" lon="4.652505"><ele>307.0</ele><time>2026-04-23T13:46:23.943Z</time></trkpt><trkpt lat="45.927735" lon="4.65249"><ele>307.0</ele><time>2026-04-23T13:46:24.943Z</time></trkpt><trkpt lat="45.9278433" lon="4.6524567"><ele>307.0</ele><time>2026-04-23T13:46:25.943Z</time></trkpt><trkpt lat="45.9279633" lon="4.6523933"><ele>307.0</ele><time>2026-04-23T13:46:26.942Z</time></trkpt><trkpt lat="45.9280717" lon="4.6523267"><ele>307.0</ele><time>2026-04-23T13:46:27.942Z</time></trkpt><trkpt lat="45.928165" lon="4.6522583"><ele>307.0</ele><time>2026-04-23T13:46:28.943Z</time></trkpt><trkpt lat="45.9282567" lon="4.6521933"><ele>307.0</ele><time>2026-04-23T13:46:29.942Z</time></trkpt><trkpt lat="45.928345" lon="4.652125"><ele>307.0</ele><time>2026-04-23T13:46:30.942Z</time></trkpt><trkpt lat="45.9284383" lon="4.6520567"><ele>307.6</ele><time>2026-04-23T13:46:31.943Z</time></trkpt><trkpt lat="45.9285367" lon="4.651985"><ele>308.2</ele><time>2026-04-23T13:46:32.942Z</time></trkpt><trkpt lat="45.92864" lon="4.6519183"><ele>308.8</ele><time>2026-04-23T13:46:33.943Z</time></trkpt><trkpt lat="45.9287367" lon="4.6518617"><ele>309.4</ele><time>2026-04-23T13:46:34.943Z</time></trkpt><trkpt lat="45.9288217" lon="4.65181"><ele>310.0</ele><time>2026-04-23T13:46:35.943Z</time></trkpt><trkpt lat="45.9289" lon="4.6517733"><ele>310.16666666666663</ele><time>2026-04-23T13:46:36.942Z</time></trkpt><trkpt lat="45.92898" lon="4.651735"><ele>310.3333333333333</ele><time>2026-04-23T13:46:37.942Z</time></trkpt><trkpt lat="45.9290517" lon="4.6517083"><ele>310.5</ele><time>2026-04-23T13:46:38.942Z</time></trkpt><trkpt lat="45.9291333" lon="4.6516883"><ele>310.6666666666667</ele><time>2026-04-23T13:46:39.942Z</time></trkpt><trkpt lat="45.9292133" lon="4.6516817"><ele>310.83333333333337</ele><time>2026-04-23T13:46:40.942Z</time></trkpt><trkpt lat="45.92929" lon="4.6516783"><ele>311.0</ele><time>2026-04-23T13:46:41.943Z</time></trkpt><trkpt lat="45.929365" lon="4.6516783"><ele>311.1666666666667</ele><time>2026-04-23T13:46:42.942Z</time></trkpt><trkpt lat="45.9294467" lon="4.6516817"><ele>311.33333333333337</ele><time>2026-04-23T13:46:43.943Z</time></trkpt><trkpt lat="45.9295267" lon="4.6517"><ele>311.5</ele><time>2026-04-23T13:46:44.942Z</time></trkpt><trkpt lat="45.9296033" lon="4.6517267"><ele>311.6666666666667</ele><time>2026-04-23T13:46:45.942Z</time></trkpt><trkpt lat="45.92968" lon="4.6517567"><ele>311.8333333333333</ele><time>2026-04-23T13:46:46.942Z</time></trkpt><trkpt lat="45.9297433" lon="4.6518"><ele>312.0</ele><time>2026-04-23T13:46:47.943Z</time></trkpt><trkpt lat="45.9298167" lon="4.651845"><ele>312.0</ele><time>2026-04-23T13:46:48.943Z</time></trkpt><trkpt lat="45.9298833" lon="4.65188"><ele>312.0</ele><time>2026-04-23T13:46:49.943Z</time></trkpt><trkpt lat="45.9299517" lon="4.6519233"><ele>312.0</ele><time>2026-04-23T13:46:50.942Z</time></trkpt><trkpt lat="45.9300117" lon="4.6519617"><ele>312.0</ele><time>2026-04-23T13:46:51.943Z</time></trkpt><trkpt lat="45.9300733" lon="4.652"><ele>312.0</ele><time>2026-04-23T13:46:52.942Z</time></trkpt><trkpt lat="45.9301783" lon="4.6520583"><ele>312.0</ele><time>2026-04-23T13:46:54.942Z</time></trkpt><trkpt lat="45.9302417" lon="4.652095"><ele>312.0</ele><time>2026-04-23T13:46:55.942Z</time></trkpt><trkpt lat="45.9303033" lon="4.6521333"><ele>312.0</ele><time>2026-04-23T13:46:56.942Z</time></trkpt><trkpt lat="45.930365" lon="4.6521717"><ele>312.0</ele><time>2026-04-23T13:46:57.943Z</time></trkpt><trkpt lat="45.930475" lon="4.6522167"><ele>312.0</ele><time>2026-04-23T13:46:59.942Z</time></trkpt><trkpt lat="45.930575" lon="4.6522483"><ele>312.0</ele><time>2026-04-23T13:47:01.943Z</time></trkpt><trkpt lat="45.9306367" lon="4.6523083"><ele>312.0</ele><time>2026-04-23T13:47:03.943Z</time></trkpt><trkpt lat="45.9307133" lon="4.6524017"><ele>312.0</ele><time>2026-04-23T13:47:05.943Z</time></trkpt><trkpt lat="45.9308317" lon="4.652485"><ele>312.0</ele><time>2026-04-23T13:47:07.942Z</time></trkpt><trkpt lat="45.9308917" lon="4.6525283"><ele>312.0</ele><time>2026-04-23T13:47:08.942Z</time></trkpt><trkpt lat="45.9309517" lon="4.6525633"><ele>312.0</ele><time>2026-04-23T13:47:09.943Z</time></trkpt><trkpt lat="45.9310267" lon="4.6525967"><ele>312.0</ele><time>2026-04-23T13:47:10.942Z</time></trkpt><trkpt lat="45.9310983" lon="4.6526233"><ele>312.0</ele><time>2026-04-23T13:47:11.943Z</time></trkpt><trkpt lat="45.9311683" lon="4.6526517"><ele>311.8571428571429</ele><time>2026-04-23T13:47:12.942Z</time></trkpt><trkpt lat="45.9312333" lon="4.6526717"><ele>311.71428571428567</ele><time>2026-04-23T13:47:13.942Z</time></trkpt><trkpt lat="45.9313083" lon="4.652695"><ele>311.57142857142856</ele><time>2026-04-23T13:47:14.942Z</time></trkpt><trkpt lat="45.931375" lon="4.6527217"><ele>311.42857142857144</ele><time>2026-04-23T13:47:15.942Z</time></trkpt><trkpt lat="45.9314433" lon="4.6527417"><ele>311.28571428571433</ele><time>2026-04-23T13:47:16.942Z</time></trkpt><trkpt lat="45.931515" lon="4.6527567"><ele>311.1428571428571</ele><time>2026-04-23T13:47:17.943Z</time></trkpt><trkpt lat="45.931595" lon="4.6527683"><ele>311.0</ele><time>2026-04-23T13:47:18.943Z</time></trkpt><trkpt lat="45.9316817" lon="4.65279"><ele>310.0</ele><time>2026-04-23T13:47:19.942Z</time></trkpt><trkpt lat="45.9317667" lon="4.6528083"><ele>309.0</ele><time>2026-04-23T13:47:20.942Z</time></trkpt><trkpt lat="45.9318483" lon="4.6528283"><ele>308.0</ele><time>2026-04-23T13:47:21.943Z</time></trkpt><trkpt lat="45.9319167" lon="4.6528383"><ele>307.0</ele><time>2026-04-23T13:47:22.942Z</time></trkpt><trkpt lat="45.9320267" lon="4.6528633"><ele>306.0</ele><time>2026-04-23T13:47:24.942Z</time></trkpt><trkpt lat="45.93213" lon="4.6528933"><ele>306.0</ele><time>2026-04-23T13:47:26.942Z</time></trkpt><trkpt lat="45.9321983" lon="4.6529167"><ele>306.0</ele><time>2026-04-23T13:47:27.942Z</time></trkpt><trkpt lat="45.9322717" lon="4.6529417"><ele>306.0</ele><time>2026-04-23T13:47:28.943Z</time></trkpt><trkpt lat="45.9323817" lon="4.6529617"><ele>306.0</ele><time>2026-04-23T13:47:30.942Z</time></trkpt><trkpt lat="45.9324533" lon="4.65298"><ele>306.0</ele><time>2026-04-23T13:47:31.942Z</time></trkpt><trkpt lat="45.9325717" lon="4.6530117"><ele>306.6</ele><time>2026-04-23T13:47:33.942Z</time></trkpt><trkpt lat="45.93264" lon="4.65304"><ele>307.20000000000005</ele><time>2026-04-23T13:47:34.942Z</time></trkpt><trkpt lat="45.932705" lon="4.6530683"><ele>307.79999999999995</ele><time>2026-04-23T13:47:35.942Z</time></trkpt><trkpt lat="45.9328333" lon="4.653155"><ele>308.4</ele><time>2026-04-23T13:47:37.942Z</time></trkpt><trkpt lat="45.9329167" lon="4.6532067"><ele>309.0</ele><time>2026-04-23T13:47:38.943Z</time></trkpt><trkpt lat="45.9329967" lon="4.6532583"><ele>309.0</ele><time>2026-04-23T13:47:39.942Z</time></trkpt><trkpt lat="45.9330633" lon="4.6533033"><ele>309.0</ele><time>2026-04-23T13:47:40.943Z</time></trkpt><trkpt lat="45.9331833" lon="4.653365"><ele>309.0</ele><time>2026-04-23T13:47:42.943Z</time></trkpt><trkpt lat="45.9332533" lon="4.65341"><ele>309.0</ele><time>2026-04-23T13:47:43.942Z</time></trkpt><trkpt lat="45.9333233" lon="4.6534483"><ele>309.0</ele><time>2026-04-23T13:47:44.942Z</time></trkpt><trkpt lat="45.9333917" lon="4.653485"><ele>309.0</ele><time>2026-04-23T13:47:45.942Z</time></trkpt><trkpt lat="45.93346" lon="4.6535283"><ele>308.8333333333333</ele><time>2026-04-23T13:47:46.942Z</time></trkpt><trkpt lat="45.9335367" lon="4.6535683"><ele>308.6666666666667</ele><time>2026-04-23T13:47:48.943Z</time></trkpt><trkpt lat="45.933605" lon="4.6536117"><ele>308.5</ele><time>2026-04-23T13:47:50.942Z</time></trkpt><trkpt lat="45.933705" lon="4.6536767"><ele>308.33333333333337</ele><time>2026-04-23T13:47:52.942Z</time></trkpt><trkpt lat="45.9337767" lon="4.6537183"><ele>308.1666666666667</ele><time>2026-04-23T13:47:53.943Z</time></trkpt><trkpt lat="45.9338483" lon="4.6537567"><ele>308.0</ele><time>2026-04-23T13:47:54.942Z</time></trkpt><trkpt lat="45.933915" lon="4.6537917"><ele>307.6666666666667</ele><time>2026-04-23T13:47:55.942Z</time></trkpt><trkpt lat="45.9339817" lon="4.6538317"><ele>307.33333333333337</ele><time>2026-04-23T13:47:56.942Z</time></trkpt><trkpt lat="45.9340767" lon="4.6538967"><ele>307.0</ele><time>2026-04-23T13:47:58.942Z</time></trkpt><trkpt lat="45.934155" lon="4.6539433"><ele>306.6666666666667</ele><time>2026-04-23T13:48:00.943Z</time></trkpt><trkpt lat="45.9342067" lon="4.6540033"><ele>306.3333333333333</ele><time>2026-04-23T13:48:02.942Z</time></trkpt><trkpt lat="45.9342267" lon="4.6541567"><ele>306.0</ele><time>2026-04-23T13:48:04.942Z</time></trkpt><trkpt lat="45.9342233" lon="4.6542517"><ele>305.8</ele><time>2026-04-23T13:48:05.943Z</time></trkpt><trkpt lat="45.9342217" lon="4.6544217"><ele>305.6</ele><time>2026-04-23T13:48:07.942Z</time></trkpt><trkpt lat="45.93421" lon="4.65457"><ele>305.4</ele><time>2026-04-23T13:48:09.943Z</time></trkpt><trkpt lat="45.9342267" lon="4.6546617"><ele>305.2</ele><time>2026-04-23T13:48:11.942Z</time></trkpt><trkpt lat="45.9343117" lon="4.6547283"><ele>305.0</ele><time>2026-04-23T13:48:13.943Z</time></trkpt><trkpt lat="45.93439" lon="4.6547767"><ele>305.4</ele><time>2026-04-23T13:48:14.943Z</time></trkpt><trkpt lat="45.9344783" lon="4.6548317"><ele>305.8</ele><time>2026-04-23T13:48:15.943Z</time></trkpt><trkpt lat="45.9345567" lon="4.6548717"><ele>306.2</ele><time>2026-04-23T13:48:16.942Z</time></trkpt><trkpt lat="45.93462" lon="4.6548933"><ele>306.6</ele><time>2026-04-23T13:48:17.943Z</time></trkpt><trkpt lat="45.934715" lon="4.6549767"><ele>307.0</ele><time>2026-04-23T13:48:19.942Z</time></trkpt><trkpt lat="45.9347767" lon="4.6551217"><ele>307.0</ele><time>2026-04-23T13:48:21.942Z</time></trkpt><trkpt lat="45.9347933" lon="4.6552333"><ele>307.0</ele><time>2026-04-23T13:48:22.941Z</time></trkpt><trkpt lat="45.93481" lon="4.6553467"><ele>307.0</ele><time>2026-04-23T13:48:23.942Z</time></trkpt><trkpt lat="45.9348117" lon="4.65545"><ele>307.0</ele><time>2026-04-23T13:48:24.941Z</time></trkpt><trkpt lat="45.9348067" lon="4.655615"><ele>307.0</ele><time>2026-04-23T13:48:26.941Z</time></trkpt><trkpt lat="45.9348133" lon="4.65574"><ele>307.0</ele><time>2026-04-23T13:48:28.941Z</time></trkpt><trkpt lat="45.9348183" lon="4.6558467"><ele>307.2</ele><time>2026-04-23T13:48:30.942Z</time></trkpt><trkpt lat="45.9348467" lon="4.6560283"><ele>307.4</ele><time>2026-04-23T13:48:41.941Z</time></trkpt><trkpt lat="45.934845" lon="4.6561717"><ele>307.6</ele><time>2026-04-23T13:48:43.942Z</time></trkpt><trkpt lat="45.9348217" lon="4.6563417"><ele>307.8</ele><time>2026-04-23T13:48:45.942Z</time></trkpt><trkpt lat="45.934795" lon="4.656455"><ele>308.0</ele><time>2026-04-23T13:48:47.941Z</time></trkpt><trkpt lat="45.9347683" lon="4.6565683"><ele>308.0</ele><time>2026-04-23T13:48:49.941Z</time></trkpt><trkpt lat="45.9347317" lon="4.6566817"><ele>308.0</ele><time>2026-04-23T13:48:51.941Z</time></trkpt><trkpt lat="45.93471" lon="4.6568317"><ele>308.0</ele><time>2026-04-23T13:48:53.941Z</time></trkpt><trkpt lat="45.9346983" lon="4.65693"><ele>308.0</ele><time>2026-04-23T13:48:54.941Z</time></trkpt><trkpt lat="45.9346817" lon="4.6570233"><ele>308.0</ele><time>2026-04-23T13:48:55.942Z</time></trkpt><trkpt lat="45.9346717" lon="4.6571167"><ele>308.0</ele><time>2026-04-23T13:48:56.942Z</time></trkpt><trkpt lat="45.9346517" lon="4.6573117"><ele>307.83333333333337</ele><time>2026-04-23T13:48:58.942Z</time></trkpt><trkpt lat="45.93464" lon="4.657415"><ele>307.6666666666667</ele><time>2026-04-23T13:48:59.941Z</time></trkpt><trkpt lat="45.9346333" lon="4.6575117"><ele>307.5</ele><time>2026-04-23T13:49:00.942Z</time></trkpt><trkpt lat="45.9346217" lon="4.6576533"><ele>307.3333333333333</ele><time>2026-04-23T13:49:02.942Z</time></trkpt><trkpt lat="45.9346233" lon="4.6577983"><ele>307.16666666666663</ele><time>2026-04-23T13:49:04.941Z</time></trkpt><trkpt lat="45.934625" lon="4.6579083"><ele>307.0</ele><time>2026-04-23T13:49:06.941Z</time></trkpt><trkpt lat="45.934625" lon="4.6580267"><ele>306.8333333333333</ele><time>2026-04-23T13:49:08.942Z</time></trkpt><trkpt lat="45.934615" lon="4.6581683"><ele>306.66666666666663</ele><time>2026-04-23T13:49:10.941Z</time></trkpt><trkpt lat="45.934605" lon="4.6582733"><ele>306.5</ele><time>2026-04-23T13:49:12.942Z</time></trkpt><trkpt lat="45.93459" lon="4.6583817"><ele>306.3333333333333</ele><time>2026-04-23T13:49:14.942Z</time></trkpt><trkpt lat="45.9345867" lon="4.6584783"><ele>306.1666666666667</ele><time>2026-04-23T13:49:16.941Z</time></trkpt><trkpt lat="45.9345783" lon="4.6585883"><ele>306.0</ele><time>2026-04-23T13:49:18.941Z</time></trkpt><trkpt lat="45.9345617" lon="4.6587083"><ele>305.5</ele><time>2026-04-23T13:49:20.942Z</time></trkpt><trkpt lat="45.93456" lon="4.6588117"><ele>305.0</ele><time>2026-04-23T13:49:22.941Z</time></trkpt><trkpt lat="45.9345733" lon="4.6589467"><ele>304.5</ele><time>2026-04-23T13:49:24.941Z</time></trkpt><trkpt lat="45.934585" lon="4.6590967"><ele>304.0</ele><time>2026-04-23T13:49:26.941Z</time></trkpt><trkpt lat="45.9346" lon="4.6592467"><ele>303.5</ele><time>2026-04-23T13:49:28.942Z</time></trkpt><trkpt lat="45.9346017" lon="4.6593433"><ele>303.0</ele><time>2026-04-23T13:49:29.941Z</time></trkpt><trkpt lat="45.934605" lon="4.659435"><ele>302.6</ele><time>2026-04-23T13:49:30.942Z</time></trkpt><trkpt lat="45.9346133" lon="4.659525"><ele>302.20000000000005</ele><time>2026-04-23T13:49:31.941Z</time></trkpt><trkpt lat="45.93463" lon="4.659665"><ele>301.8</ele><time>2026-04-23T13:49:33.941Z</time></trkpt><trkpt lat="45.93467" lon="4.6597883"><ele>301.40000000000003</ele><time>2026-04-23T13:49:35.942Z</time></trkpt><trkpt lat="45.93472" lon="4.659925"><ele>301.0</ele><time>2026-04-23T13:49:37.941Z</time></trkpt><trkpt lat="45.934775" lon="4.66005"><ele>301.0</ele><time>2026-04-23T13:49:39.941Z</time></trkpt><trkpt lat="45.9348183" lon="4.660135"><ele>301.0</ele><time>2026-04-23T13:49:41.942Z</time></trkpt><trkpt lat="45.93484" lon="4.66026"><ele>301.0</ele><time>2026-04-23T13:49:44.941Z</time></trkpt><trkpt lat="45.9348467" lon="4.660375"><ele>301.0</ele><time>2026-04-23T13:49:46.942Z</time></trkpt><trkpt lat="45.934865" lon="4.6605"><ele>301.0</ele><time>2026-04-23T13:49:48.941Z</time></trkpt><trkpt lat="45.9349017" lon="4.6606333"><ele>301.0</ele><time>2026-04-23T13:49:50.942Z</time></trkpt><trkpt lat="45.934945" lon="4.6607833"><ele>302.0</ele><time>2026-04-23T13:49:52.941Z</time></trkpt><trkpt lat="45.9349917" lon="4.660895"><ele>303.0</ele><time>2026-04-23T13:49:54.941Z</time></trkpt><trkpt lat="45.9350267" lon="4.6609867"><ele>304.0</ele><time>2026-04-23T13:49:56.941Z</time></trkpt><trkpt lat="45.935075" lon="4.6611033"><ele>305.0</ele><time>2026-04-23T13:49:58.941Z</time></trkpt><trkpt lat="45.935125" lon="4.6612233"><ele>306.0</ele><time>2026-04-23T13:50:00.941Z</time></trkpt><trkpt lat="45.9351717" lon="4.6613567"><ele>306.40000000000003</ele><time>2026-04-23T13:50:02.942Z</time></trkpt><trkpt lat="45.9352183" lon="4.6614967"><ele>306.8</ele><time>2026-04-23T13:50:04.942Z</time></trkpt><trkpt lat="45.9352633" lon="4.6616217"><ele>307.20000000000005</ele><time>2026-04-23T13:50:06.941Z</time></trkpt><trkpt lat="45.9353217" lon="4.6617483"><ele>307.6</ele><time>2026-04-23T13:50:08.942Z</time></trkpt><trkpt lat="45.93537" lon="4.661885"><ele>308.0</ele><time>2026-04-23T13:50:10.942Z</time></trkpt><trkpt lat="45.93539" lon="4.6619767"><ele>308.2</ele><time>2026-04-23T13:50:11.942Z</time></trkpt><trkpt lat="45.935415" lon="4.6620817"><ele>308.4</ele><time>2026-04-23T13:50:12.942Z</time></trkpt><trkpt lat="45.93544" lon="4.6621783"><ele>308.59999999999997</ele><time>2026-04-23T13:50:13.942Z</time></trkpt><trkpt lat="45.935465" lon="4.6622617"><ele>308.8</ele><time>2026-04-23T13:50:14.941Z</time></trkpt><trkpt lat="45.9355033" lon="4.6624283"><ele>309.0</ele><time>2026-04-23T13:50:16.941Z</time></trkpt><trkpt lat="45.93555" lon="4.6625817"><ele>309.00000000000006</ele><time>2026-04-23T13:50:18.941Z</time></trkpt><trkpt lat="45.93558" lon="4.6626733"><ele>309.0</ele><time>2026-04-23T13:50:19.942Z</time></trkpt><trkpt lat="45.9356133" lon="4.6627667"><ele>309.0</ele><time>2026-04-23T13:50:20.941Z</time></trkpt><trkpt lat="45.9356417" lon="4.6628517"><ele>309.0</ele><time>2026-04-23T13:50:21.941Z</time></trkpt><trkpt lat="45.9356717" lon="4.6629317"><ele>309.0</ele><time>2026-04-23T13:50:22.941Z</time></trkpt><trkpt lat="45.9357033" lon="4.663075"><ele>309.00000000000006</ele><time>2026-04-23T13:50:24.941Z</time></trkpt><trkpt lat="45.9357267" lon="4.6631667"><ele>309.0</ele><time>2026-04-23T13:50:26.941Z</time></trkpt><trkpt lat="45.935785" lon="4.6632017"><ele>309.5</ele><time>2026-04-23T13:50:29.942Z</time></trkpt><trkpt lat="45.935845" lon="4.6631667"><ele>310.0</ele><time>2026-04-23T13:50:31.941Z</time></trkpt><trkpt lat="45.9359183" lon="4.6631233"><ele>310.5</ele><time>2026-04-23T13:50:33.942Z</time></trkpt><trkpt lat="45.9359917" lon="4.6631283"><ele>311.0</ele><time>2026-04-23T13:50:35.941Z</time></trkpt><trkpt lat="45.9360967" lon="4.6631783"><ele>311.5</ele><time>2026-04-23T13:50:37.942Z</time></trkpt><trkpt lat="45.93618" lon="4.66321"><ele>312.0</ele><time>2026-04-23T13:50:39.942Z</time></trkpt><trkpt lat="45.93627" lon="4.6631967"><ele>312.0</ele><time>2026-04-23T13:50:41.941Z</time></trkpt><trkpt lat="45.93637" lon="4.6631483"><ele>312.0</ele><time>2026-04-23T13:50:43.942Z</time></trkpt><trkpt lat="45.9364383" lon="4.6631167"><ele>312.0</ele><time>2026-04-23T13:50:44.941Z</time></trkpt><trkpt lat="45.9365083" lon="4.6630767"><ele>312.0</ele><time>2026-04-23T13:50:45.941Z</time></trkpt><trkpt lat="45.9365683" lon="4.6630317"><ele>312.0</ele><time>2026-04-23T13:50:46.941Z</time></trkpt><trkpt lat="45.9366267" lon="4.6629867"><ele>312.0</ele><time>2026-04-23T13:50:47.941Z</time></trkpt><trkpt lat="45.9366817" lon="4.662935"><ele>311.6666666666667</ele><time>2026-04-23T13:50:48.941Z</time></trkpt><trkpt lat="45.9367333" lon="4.6628733"><ele>311.3333333333333</ele><time>2026-04-23T13:50:49.941Z</time></trkpt><trkpt lat="45.9367833" lon="4.6628167"><ele>311.0</ele><time>2026-04-23T13:50:50.942Z</time></trkpt><trkpt lat="45.936835" lon="4.6627483"><ele>310.66666666666663</ele><time>2026-04-23T13:50:51.942Z</time></trkpt><trkpt lat="45.9368917" lon="4.662685"><ele>310.3333333333333</ele><time>2026-04-23T13:50:52.941Z</time></trkpt><trkpt lat="45.9369833" lon="4.6625617"><ele>310.0</ele><time>2026-04-23T13:50:54.941Z</time></trkpt><trkpt lat="45.9370567" lon="4.662455"><ele>310.0</ele><time>2026-04-23T13:50:56.942Z</time></trkpt><trkpt lat="45.937125" lon="4.6623867"><ele>310.0</ele><time>2026-04-23T13:50:58.941Z</time></trkpt><trkpt lat="45.9372067" lon="4.6623233"><ele>310.0</ele><time>2026-04-23T13:51:00.941Z</time></trkpt><trkpt lat="45.9373117" lon="4.6622967"><ele>310.0</ele><time>2026-04-23T13:51:02.942Z</time></trkpt><trkpt lat="45.9373767" lon="4.6622917"><ele>310.0</ele><time>2026-04-23T13:51:03.941Z</time></trkpt><trkpt lat="45.93747" lon="4.6622917"><ele>310.0</ele><time>2026-04-23T13:51:04.941Z</time></trkpt><trkpt lat="45.9375533" lon="4.6622933"><ele>309.3333333333333</ele><time>2026-04-23T13:51:05.941Z</time></trkpt><trkpt lat="45.937635" lon="4.66231"><ele>308.66666666666663</ele><time>2026-04-23T13:51:06.941Z</time></trkpt><trkpt lat="45.9377117" lon="4.6623283"><ele>308.0</ele><time>2026-04-23T13:51:07.941Z</time></trkpt><trkpt lat="45.93778" lon="4.6623367"><ele>307.3333333333333</ele><time>2026-04-23T13:51:08.941Z</time></trkpt><trkpt lat="45.9379017" lon="4.662315"><ele>306.6666666666667</ele><time>2026-04-23T13:51:10.942Z</time></trkpt><trkpt lat="45.9379733" lon="4.6623"><ele>306.0</ele><time>2026-04-23T13:51:11.942Z</time></trkpt><trkpt lat="45.9380483" lon="4.662285"><ele>306.0</ele><time>2026-04-23T13:51:12.941Z</time></trkpt><trkpt lat="45.9381467" lon="4.6622667"><ele>306.0</ele><time>2026-04-23T13:51:13.941Z</time></trkpt><trkpt lat="45.9382283" lon="4.6622433"><ele>306.0</ele><time>2026-04-23T13:51:14.941Z</time></trkpt><trkpt lat="45.938315" lon="4.662225"><ele>306.0</ele><time>2026-04-23T13:51:15.942Z</time></trkpt><trkpt lat="45.9383967" lon="4.6622133"><ele>306.0</ele><time>2026-04-23T13:51:16.941Z</time></trkpt><trkpt lat="45.9384683" lon="4.66221"><ele>306.0</ele><time>2026-04-23T13:51:17.941Z</time></trkpt><trkpt lat="45.9385383" lon="4.662205"><ele>305.0</ele><time>2026-04-23T13:51:18.941Z</time></trkpt><trkpt lat="45.9386633" lon="4.66222"><ele>304.0</ele><time>2026-04-23T13:51:20.942Z</time></trkpt><trkpt lat="45.938785" lon="4.6622467"><ele>303.0</ele><time>2026-04-23T13:51:22.942Z</time></trkpt><trkpt lat="45.9388483" lon="4.6622517"><ele>302.0</ele><time>2026-04-23T13:51:23.942Z</time></trkpt><trkpt lat="45.9389117" lon="4.6622467"><ele>301.0</ele><time>2026-04-23T13:51:24.941Z</time></trkpt><trkpt lat="45.939025" lon="4.6622617"><ele>301.0</ele><time>2026-04-23T13:51:26.941Z</time></trkpt><trkpt lat="45.9391317" lon="4.662245"><ele>301.0</ele><time>2026-04-23T13:51:28.941Z</time></trkpt><trkpt lat="45.93924" lon="4.6622133"><ele>301.0</ele><time>2026-04-23T13:51:30.942Z</time></trkpt><trkpt lat="45.9393033" lon="4.6622"><ele>301.0</ele><time>2026-04-23T13:51:31.941Z</time></trkpt><trkpt lat="45.93942" lon="4.6622183"><ele>301.0</ele><time>2026-04-23T13:51:33.942Z</time></trkpt><trkpt lat="45.9395317" lon="4.6622183"><ele>299.40000000000003</ele><time>2026-04-23T13:51:35.941Z</time></trkpt><trkpt lat="45.939595" lon="4.66222"><ele>297.8</ele><time>2026-04-23T13:51:36.942Z</time></trkpt><trkpt lat="45.9397183" lon="4.6622133"><ele>296.20000000000005</ele><time>2026-04-23T13:51:38.942Z</time></trkpt><trkpt lat="45.93982" lon="4.6621983"><ele>294.6</ele><time>2026-04-23T13:51:40.941Z</time></trkpt><trkpt lat="45.9399317" lon="4.66218"><ele>293.0</ele><time>2026-04-23T13:51:42.942Z</time></trkpt><trkpt lat="45.9400317" lon="4.662175"><ele>292.6</ele><time>2026-04-23T13:51:44.941Z</time></trkpt><trkpt lat="45.9401133" lon="4.66216"><ele>292.20000000000005</ele><time>2026-04-23T13:51:46.941Z</time></trkpt><trkpt lat="45.94023" lon="4.6621267"><ele>291.8</ele><time>2026-04-23T13:51:48.942Z</time></trkpt><trkpt lat="45.94032" lon="4.6621083"><ele>291.40000000000003</ele><time>2026-04-23T13:51:50.941Z</time></trkpt><trkpt lat="45.940385" lon="4.6620867"><ele>291.0</ele><time>2026-04-23T13:51:52.941Z</time></trkpt><trkpt lat="45.94048" lon="4.6620783"><ele>291.0</ele><time>2026-04-23T13:51:54.941Z</time></trkpt><trkpt lat="45.940595" lon="4.6620767"><ele>291.0</ele><time>2026-04-23T13:51:56.942Z</time></trkpt><trkpt lat="45.9407067" lon="4.66206"><ele>291.0</ele><time>2026-04-23T13:51:58.941Z</time></trkpt><trkpt lat="45.9407933" lon="4.6620333"><ele>291.0</ele><time>2026-04-23T13:52:00.941Z</time></trkpt><trkpt lat="45.9408733" lon="4.66199"><ele>291.0</ele><time>2026-04-23T13:52:02.941Z</time></trkpt><trkpt lat="45.940945" lon="4.661955"><ele>290.2</ele><time>2026-04-23T13:52:04.942Z</time></trkpt><trkpt lat="45.9410267" lon="4.6619217"><ele>289.40000000000003</ele><time>2026-04-23T13:52:07.941Z</time></trkpt><trkpt lat="45.9410917" lon="4.661885"><ele>288.6</ele><time>2026-04-23T13:52:09.942Z</time></trkpt><trkpt lat="45.941185" lon="4.6618483"><ele>287.8</ele><time>2026-04-23T13:52:11.941Z</time></trkpt><trkpt lat="45.9412883" lon="4.6618367"><ele>287.0</ele><time>2026-04-23T13:52:13.941Z</time></trkpt><trkpt lat="45.9414117" lon="4.66186"><ele>287.0</ele><time>2026-04-23T13:52:15.941Z</time></trkpt><trkpt lat="45.9415017" lon="4.6618833"><ele>287.0</ele><time>2026-04-23T13:52:17.942Z</time></trkpt><trkpt lat="45.9415867" lon="4.661905"><ele>287.0</ele><time>2026-04-23T13:52:19.941Z</time></trkpt><trkpt lat="45.941665" lon="4.6618817"><ele>287.0</ele><time>2026-04-23T13:52:21.941Z</time></trkpt><trkpt lat="45.9417417" lon="4.6618467"><ele>287.0</ele><time>2026-04-23T13:52:23.942Z</time></trkpt><trkpt lat="45.94183" lon="4.6618017"><ele>287.0</ele><time>2026-04-23T13:52:25.941Z</time></trkpt><trkpt lat="45.9419383" lon="4.6617533"><ele>285.6</ele><time>2026-04-23T13:52:27.942Z</time></trkpt><trkpt lat="45.942045" lon="4.66171"><ele>284.2</ele><time>2026-04-23T13:52:29.942Z</time></trkpt><trkpt lat="45.9421583" lon="4.661715"><ele>282.8</ele><time>2026-04-23T13:52:31.941Z</time></trkpt><trkpt lat="45.9422633" lon="4.6617517"><ele>281.4</ele><time>2026-04-23T13:52:33.941Z</time></trkpt><trkpt lat="45.9423267" lon="4.6617617"><ele>280.0</ele><time>2026-04-23T13:52:34.941Z</time></trkpt><trkpt lat="45.942405" lon="4.6617733"><ele>280.0</ele><time>2026-04-23T13:52:36.942Z</time></trkpt><trkpt lat="45.9424683" lon="4.6617783"><ele>280.0</ele><time>2026-04-23T13:52:38.942Z</time></trkpt><trkpt lat="45.9425483" lon="4.6617617"><ele>280.0</ele><time>2026-04-23T13:52:40.942Z</time></trkpt><trkpt lat="45.942615" lon="4.6617483"><ele>280.0</ele><time>2026-04-23T13:52:42.942Z</time></trkpt><trkpt lat="45.9426817" lon="4.6617333"><ele>280.0</ele><time>2026-04-23T13:52:44.941Z</time></trkpt><trkpt lat="45.9427583" lon="4.6617167"><ele>280.0</ele><time>2026-04-23T13:52:46.942Z</time></trkpt><trkpt lat="45.9428283" lon="4.6617033"><ele>280.0</ele><time>2026-04-23T13:52:48.941Z</time></trkpt><trkpt lat="45.9429183" lon="4.661675"><ele>278.0</ele><time>2026-04-23T13:52:50.941Z</time></trkpt><trkpt lat="45.9430267" lon="4.6616317"><ele>276.0</ele><time>2026-04-23T13:52:52.941Z</time></trkpt><trkpt lat="45.9431467" lon="4.66159"><ele>274.0</ele><time>2026-04-23T13:52:54.942Z</time></trkpt><trkpt lat="45.9432683" lon="4.6615833"><ele>272.0</ele><time>2026-04-23T13:52:56.942Z</time></trkpt><trkpt lat="45.9433317" lon="4.6616033"><ele>270.0</ele><time>2026-04-23T13:52:57.941Z</time></trkpt><trkpt lat="45.9434" lon="4.6616217"><ele>268.0</ele><time>2026-04-23T13:52:58.941Z</time></trkpt><trkpt lat="45.9435033" lon="4.66168"><ele>266.0</ele><time>2026-04-23T13:53:00.942Z</time></trkpt><trkpt lat="45.9436117" lon="4.6617533"><ele>264.0</ele><time>2026-04-23T13:53:02.941Z</time></trkpt><trkpt lat="45.9437067" lon="4.6618117"><ele>262.0</ele><time>2026-04-23T13:53:04.941Z</time></trkpt><trkpt lat="45.9438183" lon="4.6618717"><ele>262.0</ele><time>2026-04-23T13:53:06.941Z</time></trkpt><trkpt lat="45.9439417" lon="4.6619233"><ele>262.0</ele><time>2026-04-23T13:53:08.941Z</time></trkpt><trkpt lat="45.9440667" lon="4.6619883"><ele>262.0</ele><time>2026-04-23T13:53:10.941Z</time></trkpt><trkpt lat="45.94413" lon="4.662015"><ele>262.0</ele><time>2026-04-23T13:53:11.941Z</time></trkpt><trkpt lat="45.94419" lon="4.6620433"><ele>262.0</ele><time>2026-04-23T13:53:12.942Z</time></trkpt><trkpt lat="45.94429" lon="4.6621167"><ele>261.8</ele><time>2026-04-23T13:53:14.941Z</time></trkpt><trkpt lat="45.9443767" lon="4.6621967"><ele>261.6</ele><time>2026-04-23T13:53:16.942Z</time></trkpt><trkpt lat="45.9444533" lon="4.6622867"><ele>261.40000000000003</ele><time>2026-04-23T13:53:18.941Z</time></trkpt><trkpt lat="45.9445383" lon="4.662375"><ele>261.2</ele><time>2026-04-23T13:53:20.941Z</time></trkpt><trkpt lat="45.9446217" lon="4.662445"><ele>261.0</ele><time>2026-04-23T13:53:22.942Z</time></trkpt><trkpt lat="45.9447117" lon="4.6624917"><ele>261.0</ele><time>2026-04-23T13:53:24.942Z</time></trkpt><trkpt lat="45.9448233" lon="4.662545"><ele>261.0</ele><time>2026-04-23T13:53:26.941Z</time></trkpt><trkpt lat="45.944895" lon="4.6625717"><ele>261.0</ele><time>2026-04-23T13:53:27.941Z</time></trkpt><trkpt lat="45.9449667" lon="4.6626083"><ele>261.0</ele><time>2026-04-23T13:53:28.942Z</time></trkpt><trkpt lat="45.9450517" lon="4.662655"><ele>261.0</ele><time>2026-04-23T13:53:29.942Z</time></trkpt><trkpt lat="45.9451317" lon="4.6627033"><ele>261.0</ele><time>2026-04-23T13:53:30.942Z</time></trkpt><trkpt lat="45.94521" lon="4.6627467"><ele>261.1666666666667</ele><time>2026-04-23T13:53:31.941Z</time></trkpt><trkpt lat="45.945275" lon="4.6627883"><ele>261.3333333333333</ele><time>2026-04-23T13:53:32.941Z</time></trkpt><trkpt lat="45.9453883" lon="4.6628517"><ele>261.5</ele><time>2026-04-23T13:53:34.941Z</time></trkpt><trkpt lat="45.9454533" lon="4.6628767"><ele>261.66666666666663</ele><time>2026-04-23T13:53:35.941Z</time></trkpt><trkpt lat="45.945525" lon="4.6629067"><ele>261.8333333333333</ele><time>2026-04-23T13:53:36.942Z</time></trkpt><trkpt lat="45.945595" lon="4.6629383"><ele>262.0</ele><time>2026-04-23T13:53:37.941Z</time></trkpt><trkpt lat="45.9456667" lon="4.6629717"><ele>262.0</ele><time>2026-04-23T13:53:38.941Z</time></trkpt><trkpt lat="45.9457333" lon="4.6630183"><ele>262.0</ele><time>2026-04-23T13:53:39.941Z</time></trkpt><trkpt lat="45.9458017" lon="4.6630733"><ele>262.0</ele><time>2026-04-23T13:53:40.941Z</time></trkpt><trkpt lat="45.9458667" lon="4.6631217"><ele>262.0</ele><time>2026-04-23T13:53:41.942Z</time></trkpt><trkpt lat="45.94598" lon="4.663195"><ele>262.0</ele><time>2026-04-23T13:53:43.942Z</time></trkpt><trkpt lat="45.9460517" lon="4.6632317"><ele>262.0</ele><time>2026-04-23T13:53:44.941Z</time></trkpt><trkpt lat="45.946135" lon="4.66327"><ele>261.4</ele><time>2026-04-23T13:53:45.942Z</time></trkpt><trkpt lat="45.9462017" lon="4.6633067"><ele>260.79999999999995</ele><time>2026-04-23T13:53:46.942Z</time></trkpt><trkpt lat="45.9462717" lon="4.6633367"><ele>260.2</ele><time>2026-04-23T13:53:47.941Z</time></trkpt><trkpt lat="45.9463433" lon="4.6633567"><ele>259.59999999999997</ele><time>2026-04-23T13:53:48.941Z</time></trkpt><trkpt lat="45.9464933" lon="4.6633717"><ele>259.0</ele><time>2026-04-23T13:53:50.942Z</time></trkpt><trkpt lat="45.9465783" lon="4.6633783"><ele>259.0</ele><time>2026-04-23T13:53:51.941Z</time></trkpt><trkpt lat="45.946665" lon="4.6633817"><ele>259.0</ele><time>2026-04-23T13:53:52.941Z</time></trkpt><trkpt lat="45.94675" lon="4.66339"><ele>259.0</ele><time>2026-04-23T13:53:53.941Z</time></trkpt><trkpt lat="45.9468317" lon="4.6634033"><ele>259.0</ele><time>2026-04-23T13:53:54.941Z</time></trkpt><trkpt lat="45.9469283" lon="4.6634217"><ele>259.0</ele><time>2026-04-23T13:53:55.941Z</time></trkpt><trkpt lat="45.947025" lon="4.66344"><ele>259.0</ele><time>2026-04-23T13:53:56.941Z</time></trkpt><trkpt lat="45.9471283" lon="4.6634583"><ele>257.8</ele><time>2026-04-23T13:53:57.941Z</time></trkpt><trkpt lat="45.9472283" lon="4.6634717"><ele>256.59999999999997</ele><time>2026-04-23T13:53:58.942Z</time></trkpt><trkpt lat="45.9473267" lon="4.66348"><ele>255.4</ele><time>2026-04-23T13:53:59.942Z</time></trkpt><trkpt lat="45.9474117" lon="4.6634867"><ele>254.2</ele><time>2026-04-23T13:54:00.941Z</time></trkpt><trkpt lat="45.947505" lon="4.663485"><ele>253.0</ele><time>2026-04-23T13:54:01.941Z</time></trkpt><trkpt lat="45.9475967" lon="4.6634867"><ele>252.49999999999997</ele><time>2026-04-23T13:54:02.941Z</time></trkpt><trkpt lat="45.94769" lon="4.6634867"><ele>252.0</ele><time>2026-04-23T13:54:03.941Z</time></trkpt><trkpt lat="45.9477783" lon="4.6634917"><ele>251.5</ele><time>2026-04-23T13:54:04.942Z</time></trkpt><trkpt lat="45.9478633" lon="4.6634933"><ele>251.0</ele><time>2026-04-23T13:54:05.942Z</time></trkpt><trkpt lat="45.9479433" lon="4.6635017"><ele>250.49999999999997</ele><time>2026-04-23T13:54:06.941Z</time></trkpt><trkpt lat="45.9480183" lon="4.663515"><ele>250.0</ele><time>2026-04-23T13:54:07.942Z</time></trkpt><trkpt lat="45.9480867" lon="4.6635217"><ele>250.0</ele><time>2026-04-23T13:54:08.941Z</time></trkpt><trkpt lat="45.9481867" lon="4.6635367"><ele>250.0</ele><time>2026-04-23T13:54:10.942Z</time></trkpt><trkpt lat="45.9482617" lon="4.6635433"><ele>250.0</ele><time>2026-04-23T13:54:12.941Z</time></trkpt><trkpt lat="45.9482483" lon="4.663645"><ele>250.0</ele><time>2026-04-23T13:54:18.942Z</time></trkpt><trkpt lat="45.9481617" lon="4.663745"><ele>250.0</ele><time>2026-04-23T13:54:20.941Z</time></trkpt><trkpt lat="45.9480717" lon="4.6638667"><ele>251.0</ele><time>2026-04-23T13:54:22.941Z</time></trkpt><trkpt lat="45.9479817" lon="4.66396"><ele>252.0</ele><time>2026-04-23T13:54:24.941Z</time></trkpt><trkpt lat="45.947895" lon="4.66405"><ele>253.0</ele><time>2026-04-23T13:54:26.941Z</time></trkpt><trkpt lat="45.9478483" lon="4.6641133"><ele>254.0</ele><time>2026-04-23T13:54:27.941Z</time></trkpt><trkpt lat="45.9477917" lon="4.6641883"><ele>255.0</ele><time>2026-04-23T13:54:28.942Z</time></trkpt><trkpt lat="45.9477317" lon="4.6642867"><ele>255.0</ele><time>2026-04-23T13:54:29.941Z</time></trkpt><trkpt lat="45.9476667" lon="4.66439"><ele>255.0</ele><time>2026-04-23T13:54:30.941Z</time></trkpt><trkpt lat="45.9475967" lon="4.6645033"><ele>255.0</ele><time>2026-04-23T13:54:31.942Z</time></trkpt><trkpt lat="45.9475433" lon="4.6645983"><ele>255.0</ele><time>2026-04-23T13:54:32.941Z</time></trkpt><trkpt lat="45.947495" lon="4.6646833"><ele>255.0</ele><time>2026-04-23T13:54:33.941Z</time></trkpt><trkpt lat="45.9474517" lon="4.6647717"><ele>255.0</ele><time>2026-04-23T13:54:34.941Z</time></trkpt><trkpt lat="45.94741" lon="4.664845"><ele>257.0</ele><time>2026-04-23T13:54:35.941Z</time></trkpt><trkpt lat="45.9473367" lon="4.6649583"><ele>259.0</ele><time>2026-04-23T13:54:37.941Z</time></trkpt><trkpt lat="45.9472733" lon="4.6650567"><ele>261.0</ele><time>2026-04-23T13:54:39.942Z</time></trkpt><trkpt lat="45.947225" lon="4.6651233"><ele>263.0</ele><time>2026-04-23T13:54:40.941Z</time></trkpt><trkpt lat="45.94717" lon="4.665205"><ele>265.0</ele><time>2026-04-23T13:54:41.941Z</time></trkpt><trkpt lat="45.9471133" lon="4.6652683"><ele>267.0</ele><time>2026-04-23T13:54:42.942Z</time></trkpt><trkpt lat="45.94703" lon="4.6653683"><ele>267.5</ele><time>2026-04-23T13:54:44.942Z</time></trkpt><trkpt lat="45.94695" lon="4.6654967"><ele>268.0</ele><time>2026-04-23T13:54:46.941Z</time></trkpt><trkpt lat="45.9469067" lon="4.6655633"><ele>268.5</ele><time>2026-04-23T13:54:47.942Z</time></trkpt><trkpt lat="45.9468583" lon="4.6656267"><ele>269.0</ele><time>2026-04-23T13:54:48.941Z</time></trkpt><trkpt lat="45.946815" lon="4.6657067"><ele>269.5</ele><time>2026-04-23T13:54:49.942Z</time></trkpt><trkpt lat="45.9467483" lon="4.6658533"><ele>270.0</ele><time>2026-04-23T13:54:51.942Z</time></trkpt><trkpt lat="45.9467133" lon="4.6659967"><ele>271.0</ele><time>2026-04-23T13:54:53.941Z</time></trkpt><trkpt lat="45.9466933" lon="4.6660917"><ele>272.0</ele><time>2026-04-23T13:54:54.941Z</time></trkpt><trkpt lat="45.9466667" lon="4.666205"><ele>273.0</ele><time>2026-04-23T13:54:55.941Z</time></trkpt><trkpt lat="45.9466383" lon="4.6663133"><ele>274.0</ele><time>2026-04-23T13:54:56.942Z</time></trkpt><trkpt lat="45.946605" lon="4.6664267"><ele>275.0</ele><time>2026-04-23T13:54:57.942Z</time></trkpt><trkpt lat="45.9465733" lon="4.6665283"><ele>276.0</ele><time>2026-04-23T13:54:58.942Z</time></trkpt><trkpt lat="45.9465467" lon="4.6666367"><ele>276.1666666666667</ele><time>2026-04-23T13:54:59.942Z</time></trkpt><trkpt lat="45.94652" lon="4.666755"><ele>276.3333333333333</ele><time>2026-04-23T13:55:00.941Z</time></trkpt><trkpt lat="45.94649" lon="4.6668667"><ele>276.5</ele><time>2026-04-23T13:55:01.942Z</time></trkpt><trkpt lat="45.9464617" lon="4.6669667"><ele>276.66666666666663</ele><time>2026-04-23T13:55:02.941Z</time></trkpt><trkpt lat="45.9464283" lon="4.6670767"><ele>276.8333333333333</ele><time>2026-04-23T13:55:03.942Z</time></trkpt><trkpt lat="45.9463967" lon="4.66717"><ele>277.0</ele><time>2026-04-23T13:55:04.942Z</time></trkpt><trkpt lat="45.9463483" lon="4.667325"><ele>277.4</ele><time>2026-04-23T13:55:06.942Z</time></trkpt><trkpt lat="45.946285" lon="4.6675017"><ele>277.79999999999995</ele><time>2026-04-23T13:55:08.941Z</time></trkpt><trkpt lat="45.9462467" lon="4.66762"><ele>278.2</ele><time>2026-04-23T13:55:09.942Z</time></trkpt><trkpt lat="45.9462067" lon="4.6677267"><ele>278.59999999999997</ele><time>2026-04-23T13:55:10.941Z</time></trkpt><trkpt lat="45.9461767" lon="4.6678133"><ele>279.0</ele><time>2026-04-23T13:55:11.942Z</time></trkpt><trkpt lat="45.9461067" lon="4.6679383"><ele>279.6666666666667</ele><time>2026-04-23T13:55:13.942Z</time></trkpt><trkpt lat="45.94604" lon="4.6679817"><ele>280.3333333333333</ele><time>2026-04-23T13:55:14.942Z</time></trkpt><trkpt lat="45.9459483" lon="4.6680183"><ele>281.0</ele><time>2026-04-23T13:55:15.942Z</time></trkpt><trkpt lat="45.9458433" lon="4.6680617"><ele>281.66666666666663</ele><time>2026-04-23T13:55:16.941Z</time></trkpt><trkpt lat="45.9457683" lon="4.6680933"><ele>282.3333333333333</ele><time>2026-04-23T13:55:17.942Z</time></trkpt><trkpt lat="45.9456983" lon="4.6681283"><ele>283.0</ele><time>2026-04-23T13:55:19.942Z</time></trkpt><trkpt lat="45.94563" lon="4.668215"><ele>283.2</ele><time>2026-04-23T13:55:21.942Z</time></trkpt><trkpt lat="45.945575" lon="4.6683117"><ele>283.4</ele><time>2026-04-23T13:55:22.941Z</time></trkpt><trkpt lat="45.9455067" lon="4.6684283"><ele>283.59999999999997</ele><time>2026-04-23T13:55:23.941Z</time></trkpt><trkpt lat="45.945445" lon="4.668545"><ele>283.8</ele><time>2026-04-23T13:55:24.942Z</time></trkpt><trkpt lat="45.9453867" lon="4.668645"><ele>284.0</ele><time>2026-04-23T13:55:25.942Z</time></trkpt><trkpt lat="45.9453333" lon="4.6687383"><ele>285.0</ele><time>2026-04-23T13:55:26.941Z</time></trkpt><trkpt lat="45.9452867" lon="4.66882"><ele>286.0</ele><time>2026-04-23T13:55:27.942Z</time></trkpt><trkpt lat="45.945245" lon="4.668915"><ele>287.0</ele><time>2026-04-23T13:55:28.941Z</time></trkpt><trkpt lat="45.9451817" lon="4.6690667"><ele>288.0</ele><time>2026-04-23T13:55:30.941Z</time></trkpt><trkpt lat="45.9451617" lon="4.66922"><ele>289.0</ele><time>2026-04-23T13:55:32.941Z</time></trkpt><trkpt lat="45.945145" lon="4.66935"><ele>289.0</ele><time>2026-04-23T13:55:34.942Z</time></trkpt><trkpt lat="45.9450967" lon="4.66944"><ele>289.0</ele><time>2026-04-23T13:55:36.941Z</time></trkpt><trkpt lat="45.944995" lon="4.6695483"><ele>289.0</ele><time>2026-04-23T13:55:38.941Z</time></trkpt><trkpt lat="45.944935" lon="4.6695817"><ele>289.0</ele><time>2026-04-23T13:55:39.942Z</time></trkpt><trkpt lat="45.944835" lon="4.669645"><ele>289.0</ele><time>2026-04-23T13:55:41.942Z</time></trkpt><trkpt lat="45.9447733" lon="4.6696783"><ele>289.0</ele><time>2026-04-23T13:55:42.941Z</time></trkpt><trkpt lat="45.9446633" lon="4.6697267"><ele>290.4</ele><time>2026-04-23T13:55:44.941Z</time></trkpt><trkpt lat="45.944565" lon="4.6697833"><ele>291.79999999999995</ele><time>2026-04-23T13:55:46.942Z</time></trkpt><trkpt lat="45.9444533" lon="4.66987"><ele>293.20000000000005</ele><time>2026-04-23T13:55:48.942Z</time></trkpt><trkpt lat="45.9443983" lon="4.66993"><ele>294.6</ele><time>2026-04-23T13:55:49.941Z</time></trkpt><trkpt lat="45.9443417" lon="4.6699883"><ele>296.0</ele><time>2026-04-23T13:55:50.941Z</time></trkpt><trkpt lat="45.9442433" lon="4.6701083"><ele>297.33333333333337</ele><time>2026-04-23T13:55:52.941Z</time></trkpt><trkpt lat="45.9442" lon="4.67018"><ele>298.6666666666667</ele><time>2026-04-23T13:55:53.941Z</time></trkpt><trkpt lat="45.9441417" lon="4.6702933"><ele>300.0</ele><time>2026-04-23T13:55:55.942Z</time></trkpt><trkpt lat="45.9440833" lon="4.6703967"><ele>301.3333333333333</ele><time>2026-04-23T13:55:57.941Z</time></trkpt><trkpt lat="45.9440117" lon="4.67052"><ele>302.66666666666663</ele><time>2026-04-23T13:55:59.942Z</time></trkpt><trkpt lat="45.94396" lon="4.670605"><ele>304.0</ele><time>2026-04-23T13:56:00.941Z</time></trkpt><trkpt lat="45.943885" lon="4.6707033"><ele>304.16666666666663</ele><time>2026-04-23T13:56:01.942Z</time></trkpt><trkpt lat="45.9438183" lon="4.6708017"><ele>304.3333333333333</ele><time>2026-04-23T13:56:02.941Z</time></trkpt><trkpt lat="45.9437717" lon="4.6708717"><ele>304.5</ele><time>2026-04-23T13:56:03.942Z</time></trkpt><trkpt lat="45.9436983" lon="4.6709967"><ele>304.6666666666667</ele><time>2026-04-23T13:56:05.942Z</time></trkpt><trkpt lat="45.9436517" lon="4.671065"><ele>304.83333333333337</ele><time>2026-04-23T13:56:06.941Z</time></trkpt><trkpt lat="45.9435967" lon="4.6711367"><ele>305.0</ele><time>2026-04-23T13:56:07.942Z</time></trkpt><trkpt lat="45.9435317" lon="4.6712067"><ele>304.1666666666667</ele><time>2026-04-23T13:56:08.941Z</time></trkpt><trkpt lat="45.9434767" lon="4.6712783"><ele>303.33333333333337</ele><time>2026-04-23T13:56:09.942Z</time></trkpt><trkpt lat="45.943425" lon="4.6713433"><ele>302.5</ele><time>2026-04-23T13:56:10.941Z</time></trkpt><trkpt lat="45.94338" lon="4.67142"><ele>301.6666666666667</ele><time>2026-04-23T13:56:11.941Z</time></trkpt><trkpt lat="45.9433433" lon="4.671515"><ele>300.8333333333333</ele><time>2026-04-23T13:56:12.941Z</time></trkpt><trkpt lat="45.9433117" lon="4.6716317"><ele>300.0</ele><time>2026-04-23T13:56:13.941Z</time></trkpt><trkpt lat="45.94327" lon="4.6717333"><ele>299.8333333333333</ele><time>2026-04-23T13:56:14.941Z</time></trkpt><trkpt lat="45.9432283" lon="4.6718233"><ele>299.6666666666667</ele><time>2026-04-23T13:56:15.942Z</time></trkpt><trkpt lat="45.9431583" lon="4.671955"><ele>299.5</ele><time>2026-04-23T13:56:17.942Z</time></trkpt><trkpt lat="45.9431117" lon="4.672035"><ele>299.33333333333337</ele><time>2026-04-23T13:56:18.942Z</time></trkpt><trkpt lat="45.9430517" lon="4.6721167"><ele>299.1666666666667</ele><time>2026-04-23T13:56:19.941Z</time></trkpt><trkpt lat="45.94299" lon="4.6721917"><ele>299.0</ele><time>2026-04-23T13:56:20.941Z</time></trkpt><trkpt lat="45.942935" lon="4.672255"><ele>297.8</ele><time>2026-04-23T13:56:21.941Z</time></trkpt><trkpt lat="45.9428617" lon="4.6723617"><ele>296.59999999999997</ele><time>2026-04-23T13:56:23.941Z</time></trkpt><trkpt lat="45.94279" lon="4.6724667"><ele>295.4</ele><time>2026-04-23T13:56:25.941Z</time></trkpt><trkpt lat="45.9427133" lon="4.672625"><ele>294.2</ele><time>2026-04-23T13:56:27.941Z</time></trkpt><trkpt lat="45.942675" lon="4.6727067"><ele>293.0</ele><time>2026-04-23T13:56:28.941Z</time></trkpt><trkpt lat="45.9426317" lon="4.6728"><ele>292.5</ele><time>2026-04-23T13:56:29.942Z</time></trkpt><trkpt lat="45.94259" lon="4.6728783"><ele>292.0</ele><time>2026-04-23T13:56:30.942Z</time></trkpt><trkpt lat="45.9425467" lon="4.6729483"><ele>291.5</ele><time>2026-04-23T13:56:31.941Z</time></trkpt><trkpt lat="45.9425033" lon="4.6730217"><ele>291.0</ele><time>2026-04-23T13:56:32.942Z</time></trkpt><trkpt lat="45.9424317" lon="4.67316"><ele>290.5</ele><time>2026-04-23T13:56:34.941Z</time></trkpt><trkpt lat="45.9423933" lon="4.6732367"><ele>290.0</ele><time>2026-04-23T13:56:35.942Z</time></trkpt><trkpt lat="45.9423583" lon="4.6733133"><ele>288.8</ele><time>2026-04-23T13:56:36.942Z</time></trkpt><trkpt lat="45.94229" lon="4.6734683"><ele>287.6</ele><time>2026-04-23T13:56:38.941Z</time></trkpt><trkpt lat="45.942235" lon="4.673605"><ele>286.4</ele><time>2026-04-23T13:56:40.941Z</time></trkpt><trkpt lat="45.9421567" lon="4.6736917"><ele>285.2</ele><time>2026-04-23T13:56:42.941Z</time></trkpt><trkpt lat="45.9420983" lon="4.67373"><ele>284.0</ele><time>2026-04-23T13:56:43.941Z</time></trkpt><trkpt lat="45.9420133" lon="4.6738183"><ele>283.6666666666667</ele><time>2026-04-23T13:56:45.941Z</time></trkpt><trkpt lat="45.9419667" lon="4.673885"><ele>283.33333333333337</ele><time>2026-04-23T13:56:46.942Z</time></trkpt><trkpt lat="45.941915" lon="4.6739683"><ele>283.0</ele><time>2026-04-23T13:56:47.941Z</time></trkpt><trkpt lat="45.94187" lon="4.6740483"><ele>282.6666666666667</ele><time>2026-04-23T13:56:48.941Z</time></trkpt><trkpt lat="45.941835" lon="4.6741367"><ele>282.3333333333333</ele><time>2026-04-23T13:56:49.941Z</time></trkpt><trkpt lat="45.94179" lon="4.6742383"><ele>282.0</ele><time>2026-04-23T13:56:50.941Z</time></trkpt><trkpt lat="45.9417517" lon="4.67434"><ele>282.0</ele><time>2026-04-23T13:56:51.942Z</time></trkpt><trkpt lat="45.9417233" lon="4.6744317"><ele>282.0</ele><time>2026-04-23T13:56:52.941Z</time></trkpt><trkpt lat="45.9416883" lon="4.6745317"><ele>282.0</ele><time>2026-04-23T13:56:53.941Z</time></trkpt><trkpt lat="45.94165" lon="4.6746467"><ele>282.0</ele><time>2026-04-23T13:56:54.941Z</time></trkpt><trkpt lat="45.9416067" lon="4.6747583"><ele>282.0</ele><time>2026-04-23T13:56:55.942Z</time></trkpt><trkpt lat="45.9415717" lon="4.6748517"><ele>282.0</ele><time>2026-04-23T13:56:56.942Z</time></trkpt><trkpt lat="45.94154" lon="4.6749317"><ele>283.0</ele><time>2026-04-23T13:56:57.942Z</time></trkpt><trkpt lat="45.9415083" lon="4.6750183"><ele>284.0</ele><time>2026-04-23T13:56:58.941Z</time></trkpt><trkpt lat="45.9414767" lon="4.6751167"><ele>285.0</ele><time>2026-04-23T13:56:59.941Z</time></trkpt><trkpt lat="45.9414533" lon="4.675205"><ele>286.0</ele><time>2026-04-23T13:57:00.942Z</time></trkpt><trkpt lat="45.94143" lon="4.6752983"><ele>287.0</ele><time>2026-04-23T13:57:01.942Z</time></trkpt><trkpt lat="45.9414083" lon="4.67539"><ele>288.0</ele><time>2026-04-23T13:57:02.941Z</time></trkpt><trkpt lat="45.94137" lon="4.6755383"><ele>288.0</ele><time>2026-04-23T13:57:04.941Z</time></trkpt><trkpt lat="45.941305" lon="4.6756483"><ele>288.0</ele><time>2026-04-23T13:57:06.941Z</time></trkpt><trkpt lat="45.9411933" lon="4.675775"><ele>288.0</ele><time>2026-04-23T13:57:08.941Z</time></trkpt><trkpt lat="45.9411267" lon="4.6758433"><ele>288.0</ele><time>2026-04-23T13:57:09.942Z</time></trkpt><trkpt lat="45.9410633" lon="4.6759033"><ele>288.0</ele><time>2026-04-23T13:57:10.942Z</time></trkpt><trkpt lat="45.9409933" lon="4.6759533"><ele>288.0</ele><time>2026-04-23T13:57:11.941Z</time></trkpt><trkpt lat="45.940905" lon="4.6760033"><ele>288.0</ele><time>2026-04-23T13:57:12.941Z</time></trkpt><trkpt lat="45.9408167" lon="4.6760417"><ele>288.0</ele><time>2026-04-23T13:57:13.941Z</time></trkpt><trkpt lat="45.940735" lon="4.6760667"><ele>288.0</ele><time>2026-04-23T13:57:14.941Z</time></trkpt><trkpt lat="45.940655" lon="4.6761"><ele>288.0</ele><time>2026-04-23T13:57:15.941Z</time></trkpt><trkpt lat="45.9405833" lon="4.6761267"><ele>288.0</ele><time>2026-04-23T13:57:16.941Z</time></trkpt><trkpt lat="45.94044" lon="4.676185"><ele>288.4</ele><time>2026-04-23T13:57:18.941Z</time></trkpt><trkpt lat="45.9403517" lon="4.6762133"><ele>288.8</ele><time>2026-04-23T13:57:19.941Z</time></trkpt><trkpt lat="45.9402583" lon="4.676245"><ele>289.2</ele><time>2026-04-23T13:57:20.942Z</time></trkpt><trkpt lat="45.9401783" lon="4.676275"><ele>289.6</ele><time>2026-04-23T13:57:22.942Z</time></trkpt><trkpt lat="45.940115" lon="4.6762867"><ele>290.0</ele><time>2026-04-23T13:57:29.942Z</time></trkpt><trkpt lat="45.939995" lon="4.6762967"><ele>289.14285714285717</ele><time>2026-04-23T13:57:31.942Z</time></trkpt><trkpt lat="45.9399283" lon="4.6763083"><ele>288.28571428571433</ele><time>2026-04-23T13:57:32.941Z</time></trkpt><trkpt lat="45.9398567" lon="4.6763133"><ele>287.42857142857144</ele><time>2026-04-23T13:57:33.941Z</time></trkpt><trkpt lat="45.9397867" lon="4.6763267"><ele>286.57142857142856</ele><time>2026-04-23T13:57:34.942Z</time></trkpt><trkpt lat="45.9397133" lon="4.6763383"><ele>285.71428571428567</ele><time>2026-04-23T13:57:35.941Z</time></trkpt><trkpt lat="45.939635" lon="4.6763533"><ele>284.85714285714283</ele><time>2026-04-23T13:57:36.941Z</time></trkpt><trkpt lat="45.93955" lon="4.6763667"><ele>284.0</ele><time>2026-04-23T13:57:37.941Z</time></trkpt><trkpt lat="45.939465" lon="4.6763883"><ele>284.0</ele><time>2026-04-23T13:57:38.942Z</time></trkpt><trkpt lat="45.9393833" lon="4.6764083"><ele>284.0</ele><time>2026-04-23T13:57:39.941Z</time></trkpt><trkpt lat="45.939305" lon="4.6764267"><ele>284.0</ele><time>2026-04-23T13:57:40.941Z</time></trkpt><trkpt lat="45.9392233" lon="4.6764367"><ele>284.0</ele><time>2026-04-23T13:57:41.942Z</time></trkpt><trkpt lat="45.9391467" lon="4.6764483"><ele>284.0</ele><time>2026-04-23T13:57:42.941Z</time></trkpt><trkpt lat="45.93907" lon="4.6764583"><ele>284.0</ele><time>2026-04-23T13:57:43.942Z</time></trkpt><trkpt lat="45.9389983" lon="4.6764633"><ele>284.6666666666667</ele><time>2026-04-23T13:57:44.941Z</time></trkpt><trkpt lat="45.9389233" lon="4.6764783"><ele>285.33333333333337</ele><time>2026-04-23T13:57:45.941Z</time></trkpt><trkpt lat="45.9388483" lon="4.6764933"><ele>286.0</ele><time>2026-04-23T13:57:46.941Z</time></trkpt><trkpt lat="45.93877" lon="4.6765017"><ele>286.6666666666667</ele><time>2026-04-23T13:57:47.941Z</time></trkpt><trkpt lat="45.9386917" lon="4.6765133"><ele>287.3333333333333</ele><time>2026-04-23T13:57:48.941Z</time></trkpt><trkpt lat="45.9386117" lon="4.6765333"><ele>288.0</ele><time>2026-04-23T13:57:49.942Z</time></trkpt><trkpt lat="45.9385383" lon="4.6765517"><ele>288.0</ele><time>2026-04-23T13:57:50.942Z</time></trkpt><trkpt lat="45.938475" lon="4.676565"><ele>288.0</ele><time>2026-04-23T13:57:51.942Z</time></trkpt><trkpt lat="45.938395" lon="4.6766067"><ele>288.0</ele><time>2026-04-23T13:57:52.941Z</time></trkpt><trkpt lat="45.9383133" lon="4.6766483"><ele>288.0</ele><time>2026-04-23T13:57:53.942Z</time></trkpt><trkpt lat="45.93823" lon="4.6766817"><ele>288.0</ele><time>2026-04-23T13:57:54.942Z</time></trkpt><trkpt lat="45.93815" lon="4.6767233"><ele>288.0</ele><time>2026-04-23T13:57:55.941Z</time></trkpt><trkpt lat="45.938085" lon="4.6767533"><ele>288.1666666666667</ele><time>2026-04-23T13:57:56.942Z</time></trkpt><trkpt lat="45.9379717" lon="4.676775"><ele>288.3333333333333</ele><time>2026-04-23T13:57:58.942Z</time></trkpt><trkpt lat="45.9379033" lon="4.6767833"><ele>288.5</ele><time>2026-04-23T13:57:59.941Z</time></trkpt><trkpt lat="45.9378333" lon="4.6767933"><ele>288.66666666666663</ele><time>2026-04-23T13:58:00.942Z</time></trkpt><trkpt lat="45.9377683" lon="4.6768083"><ele>288.8333333333333</ele><time>2026-04-23T13:58:01.942Z</time></trkpt><trkpt lat="45.9377033" lon="4.6768367"><ele>289.0</ele><time>2026-04-23T13:58:02.941Z</time></trkpt><trkpt lat="45.937635" lon="4.6768633"><ele>289.0</ele><time>2026-04-23T13:58:03.942Z</time></trkpt><trkpt lat="45.9375717" lon="4.676895"><ele>289.0</ele><time>2026-04-23T13:58:04.941Z</time></trkpt><trkpt lat="45.937495" lon="4.6769317"><ele>289.0</ele><time>2026-04-23T13:58:05.941Z</time></trkpt><trkpt lat="45.937415" lon="4.676965"><ele>289.0</ele><time>2026-04-23T13:58:06.942Z</time></trkpt><trkpt lat="45.9373367" lon="4.6770117"><ele>289.0</ele><time>2026-04-23T13:58:07.941Z</time></trkpt><trkpt lat="45.937265" lon="4.67706"><ele>289.0</ele><time>2026-04-23T13:58:08.942Z</time></trkpt><trkpt lat="45.9372017" lon="4.6771033"><ele>286.5</ele><time>2026-04-23T13:58:09.942Z</time></trkpt><trkpt lat="45.9370983" lon="4.6771767"><ele>284.0</ele><time>2026-04-23T13:58:11.941Z</time></trkpt><trkpt lat="45.93704" lon="4.67722"><ele>281.5</ele><time>2026-04-23T13:58:12.941Z</time></trkpt><trkpt lat="45.936965" lon="4.6772767"><ele>279.0</ele><time>2026-04-23T13:58:13.941Z</time></trkpt><trkpt lat="45.93689" lon="4.6773267"><ele>276.5</ele><time>2026-04-23T13:58:14.942Z</time></trkpt><trkpt lat="45.936805" lon="4.6773733"><ele>274.0</ele><time>2026-04-23T13:58:15.941Z</time></trkpt><trkpt lat="45.936725" lon="4.6774217"><ele>274.2</ele><time>2026-04-23T13:58:16.941Z</time></trkpt><trkpt lat="45.9366233" lon="4.67748"><ele>274.4</ele><time>2026-04-23T13:58:18.942Z</time></trkpt><trkpt lat="45.9365433" lon="4.6775033"><ele>274.6</ele><time>2026-04-23T13:58:20.942Z</time></trkpt><trkpt lat="45.9364767" lon="4.67745"><ele>274.8</ele><time>2026-04-23T13:58:23.942Z</time></trkpt><trkpt lat="45.9364283" lon="4.67734"><ele>275.0</ele><time>2026-04-23T13:58:33.941Z</time></trkpt><trkpt lat="45.9363267" lon="4.6772633"><ele>275.0</ele><time>2026-04-23T13:58:36.941Z</time></trkpt><trkpt lat="45.9362" lon="4.67721"><ele>275.0</ele><time>2026-04-23T13:58:38.942Z</time></trkpt><trkpt lat="45.9361233" lon="4.6772083"><ele>275.0</ele><time>2026-04-23T13:58:39.941Z</time></trkpt><trkpt lat="45.936055" lon="4.67721"><ele>275.0</ele><time>2026-04-23T13:58:40.941Z</time></trkpt><trkpt lat="45.9359883" lon="4.6772067"><ele>275.0</ele><time>2026-04-23T13:58:41.941Z</time></trkpt><trkpt lat="45.935925" lon="4.6771967"><ele>275.0</ele><time>2026-04-23T13:58:42.942Z</time></trkpt><trkpt lat="45.9358567" lon="4.6771933"><ele>275.33333333333337</ele><time>2026-04-23T13:58:43.942Z</time></trkpt><trkpt lat="45.9357867" lon="4.6771817"><ele>275.6666666666667</ele><time>2026-04-23T13:58:44.941Z</time></trkpt><trkpt lat="45.9357183" lon="4.6771633"><ele>276.0</ele><time>2026-04-23T13:58:45.942Z</time></trkpt><trkpt lat="45.93565" lon="4.6771417"><ele>276.3333333333333</ele><time>2026-04-23T13:58:46.942Z</time></trkpt><trkpt lat="45.935555" lon="4.6771"><ele>276.66666666666663</ele><time>2026-04-23T13:58:48.941Z</time></trkpt><trkpt lat="45.93549" lon="4.67706"><ele>277.0</ele><time>2026-04-23T13:58:50.941Z</time></trkpt><trkpt lat="45.9354067" lon="4.677015"><ele>277.0</ele><time>2026-04-23T13:58:53.941Z</time></trkpt><trkpt lat="45.9353417" lon="4.6769817"><ele>277.0</ele><time>2026-04-23T13:58:55.942Z</time></trkpt><trkpt lat="45.9352433" lon="4.6769183"><ele>277.0</ele><time>2026-04-23T13:58:57.942Z</time></trkpt><trkpt lat="45.93513" lon="4.6768583"><ele>277.0</ele><time>2026-04-23T13:58:59.941Z</time></trkpt><trkpt lat="45.9350667" lon="4.6768267"><ele>277.0</ele><time>2026-04-23T13:59:00.941Z</time></trkpt><trkpt lat="45.9349533" lon="4.6767433"><ele>277.57142857142856</ele><time>2026-04-23T13:59:02.942Z</time></trkpt><trkpt lat="45.9348917" lon="4.67671"><ele>278.1428571428571</ele><time>2026-04-23T13:59:03.941Z</time></trkpt><trkpt lat="45.9348233" lon="4.67667"><ele>278.7142857142857</ele><time>2026-04-23T13:59:04.941Z</time></trkpt><trkpt lat="45.9347517" lon="4.6766367"><ele>279.2857142857143</ele><time>2026-04-23T13:59:05.941Z</time></trkpt><trkpt lat="45.9346883" lon="4.6765967"><ele>279.8571428571429</ele><time>2026-04-23T13:59:06.941Z</time></trkpt><trkpt lat="45.9346133" lon="4.6765683"><ele>280.42857142857144</ele><time>2026-04-23T13:59:07.941Z</time></trkpt><trkpt lat="45.93454" lon="4.676535"><ele>281.0</ele><time>2026-04-23T13:59:08.941Z</time></trkpt><trkpt lat="45.9344617" lon="4.6764917"><ele>281.0</ele><time>2026-04-23T13:59:09.941Z</time></trkpt><trkpt lat="45.9343867" lon="4.6764583"><ele>281.0</ele><time>2026-04-23T13:59:10.942Z</time></trkpt><trkpt lat="45.9343233" lon="4.6764317"><ele>281.0</ele><time>2026-04-23T13:59:11.941Z</time></trkpt><trkpt lat="45.9342083" lon="4.6763733"><ele>281.0</ele><time>2026-04-23T13:59:13.941Z</time></trkpt><trkpt lat="45.9341233" lon="4.6763283"><ele>281.0</ele><time>2026-04-23T13:59:14.942Z</time></trkpt><trkpt lat="45.9340567" lon="4.67629"><ele>281.0</ele><time>2026-04-23T13:59:15.942Z</time></trkpt><trkpt lat="45.9339582" lon="4.6762199"><ele>280.40000000000003</ele><time>2026-04-23T13:59:17.942Z</time></trkpt><trkpt lat="45.9338753" lon="4.6761361"><ele>279.8</ele><time>2026-04-23T13:59:19.942Z</time></trkpt><trkpt lat="45.933779" lon="4.6760129"><ele>279.20000000000005</ele><time>2026-04-23T13:59:21.942Z</time></trkpt><trkpt lat="45.9337286" lon="4.6759524"><ele>278.6</ele><time>2026-04-23T13:59:22.941Z</time></trkpt><trkpt lat="45.9336299" lon="4.6758594"><ele>278.0</ele><time>2026-04-23T13:59:24.941Z</time></trkpt><trkpt lat="45.9335347" lon="4.6757934"><ele>279.4</ele><time>2026-04-23T13:59:26.941Z</time></trkpt><trkpt lat="45.9334446" lon="4.67575"><ele>280.8</ele><time>2026-04-23T13:59:28.941Z</time></trkpt><trkpt lat="45.9333517" lon="4.6757183"><ele>282.2</ele><time>2026-04-23T13:59:30.941Z</time></trkpt><trkpt lat="45.9332817" lon="4.6756933"><ele>283.6</ele><time>2026-04-23T13:59:32.942Z</time></trkpt><trkpt lat="45.933215" lon="4.6756667"><ele>285.0</ele><time>2026-04-23T13:59:34.942Z</time></trkpt><trkpt lat="45.9330433" lon="4.6755883"><ele>285.0</ele><time>2026-04-23T13:59:37.941Z</time></trkpt><trkpt lat="45.9329333" lon="4.6755383"><ele>285.0</ele><time>2026-04-23T13:59:39.941Z</time></trkpt><trkpt lat="45.9328717" lon="4.6755083"><ele>285.0</ele><time>2026-04-23T13:59:40.941Z</time></trkpt><trkpt lat="45.9328083" lon="4.6754733"><ele>285.0</ele><time>2026-04-23T13:59:41.942Z</time></trkpt><trkpt lat="45.932745" lon="4.67544"><ele>285.0</ele><time>2026-04-23T13:59:42.941Z</time></trkpt><trkpt lat="45.93264" lon="4.6753683"><ele>285.0</ele><time>2026-04-23T13:59:44.941Z</time></trkpt><trkpt lat="45.9325767" lon="4.6753383"><ele>284.8333333333333</ele><time>2026-04-23T13:59:45.941Z</time></trkpt><trkpt lat="45.9325" lon="4.6753"><ele>284.6666666666667</ele><time>2026-04-23T13:59:46.941Z</time></trkpt><trkpt lat="45.9324217" lon="4.675265"><ele>284.5</ele><time>2026-04-23T13:59:47.941Z</time></trkpt><trkpt lat="45.9323533" lon="4.6752333"><ele>284.33333333333337</ele><time>2026-04-23T13:59:48.942Z</time></trkpt><trkpt lat="45.93228" lon="4.675195"><ele>284.1666666666667</ele><time>2026-04-23T13:59:49.942Z</time></trkpt><trkpt lat="45.9321933" lon="4.67515"><ele>284.0</ele><time>2026-04-23T13:59:50.942Z</time></trkpt><trkpt lat="45.9321067" lon="4.6751"><ele>284.83333333333337</ele><time>2026-04-23T13:59:51.941Z</time></trkpt><trkpt lat="45.932035" lon="4.675065"><ele>285.6666666666667</ele><time>2026-04-23T13:59:52.941Z</time></trkpt><trkpt lat="45.9319467" lon="4.6750367"><ele>286.5</ele><time>2026-04-23T13:59:53.942Z</time></trkpt><trkpt lat="45.931875" lon="4.6750133"><ele>287.3333333333333</ele><time>2026-04-23T13:59:54.941Z</time></trkpt><trkpt lat="45.931795" lon="4.67499"><ele>288.16666666666663</ele><time>2026-04-23T13:59:55.941Z</time></trkpt><trkpt lat="45.9317283" lon="4.6749667"><ele>289.0</ele><time>2026-04-23T13:59:56.942Z</time></trkpt><trkpt lat="45.931655" lon="4.67495"><ele>289.0</ele><time>2026-04-23T13:59:57.941Z</time></trkpt><trkpt lat="45.9315667" lon="4.674915"><ele>289.0</ele><time>2026-04-23T13:59:59.941Z</time></trkpt><trkpt lat="45.93149" lon="4.67491"><ele>289.0</ele><time>2026-04-23T14:00:01.941Z</time></trkpt><trkpt lat="45.9313833" lon="4.6749167"><ele>289.0</ele><time>2026-04-23T14:00:09.941Z</time></trkpt><trkpt lat="45.931315" lon="4.6749183"><ele>289.0</ele><time>2026-04-23T14:00:11.941Z</time></trkpt><trkpt lat="45.9312367" lon="4.6748883"><ele>289.0</ele><time>2026-04-23T14:00:13.942Z</time></trkpt><trkpt lat="45.9311867" lon="4.6748267"><ele>289.0</ele><time>2026-04-23T14:00:15.942Z</time></trkpt><trkpt lat="45.9311683" lon="4.674715"><ele>289.0</ele><time>2026-04-23T14:00:28.942Z</time></trkpt><trkpt lat="45.9311883" lon="4.6745483"><ele>289.0</ele><time>2026-04-23T14:00:30.942Z</time></trkpt><trkpt lat="45.9312" lon="4.6744533"><ele>289.0</ele><time>2026-04-23T14:00:31.942Z</time></trkpt><trkpt lat="45.9312067" lon="4.67435"><ele>289.0</ele><time>2026-04-23T14:00:32.941Z</time></trkpt><trkpt lat="45.9312133" lon="4.6742517"><ele>289.0</ele><time>2026-04-23T14:00:33.941Z</time></trkpt><trkpt lat="45.9312183" lon="4.6741567"><ele>290.3333333333333</ele><time>2026-04-23T14:00:34.941Z</time></trkpt><trkpt lat="45.9312333" lon="4.6740567"><ele>291.66666666666663</ele><time>2026-04-23T14:00:35.941Z</time></trkpt><trkpt lat="45.9312367" lon="4.6739583"><ele>293.0</ele><time>2026-04-23T14:00:36.941Z</time></trkpt><trkpt lat="45.9312367" lon="4.6738633"><ele>294.3333333333333</ele><time>2026-04-23T14:00:37.941Z</time></trkpt><trkpt lat="45.93124" lon="4.6737717"><ele>295.6666666666667</ele><time>2026-04-23T14:00:38.941Z</time></trkpt><trkpt lat="45.9312567" lon="4.6735967"><ele>297.0</ele><time>2026-04-23T14:00:40.941Z</time></trkpt><trkpt lat="45.9312783" lon="4.6734217"><ele>298.5</ele><time>2026-04-23T14:00:42.941Z</time></trkpt><trkpt lat="45.9313067" lon="4.6732483"><ele>300.0</ele><time>2026-04-23T14:00:44.941Z</time></trkpt><trkpt lat="45.9313283" lon="4.6731567"><ele>301.5</ele><time>2026-04-23T14:00:45.942Z</time></trkpt><trkpt lat="45.931355" lon="4.673065"><ele>303.0</ele><time>2026-04-23T14:00:46.941Z</time></trkpt><trkpt lat="45.93138" lon="4.67297"><ele>304.5</ele><time>2026-04-23T14:00:47.942Z</time></trkpt><trkpt lat="45.9313983" lon="4.6728817"><ele>306.0</ele><time>2026-04-23T14:00:48.942Z</time></trkpt><trkpt lat="45.9314183" lon="4.672745"><ele>307.0</ele><time>2026-04-23T14:00:50.941Z</time></trkpt><trkpt lat="45.9314333" lon="4.672605"><ele>308.0</ele><time>2026-04-23T14:00:52.942Z</time></trkpt><trkpt lat="45.931435" lon="4.6724333"><ele>309.0</ele><time>2026-04-23T14:00:54.942Z</time></trkpt><trkpt lat="45.9314417" lon="4.6723383"><ele>310.0</ele><time>2026-04-23T14:00:55.942Z</time></trkpt><trkpt lat="45.931445" lon="4.6722367"><ele>311.0</ele><time>2026-04-23T14:00:56.941Z</time></trkpt><trkpt lat="45.9314483" lon="4.67213"><ele>312.0</ele><time>2026-04-23T14:00:57.942Z</time></trkpt><trkpt lat="45.9314583" lon="4.6720217"><ele>312.8</ele><time>2026-04-23T14:00:58.941Z</time></trkpt><trkpt lat="45.93147" lon="4.6719217"><ele>313.6</ele><time>2026-04-23T14:00:59.942Z</time></trkpt><trkpt lat="45.9315083" lon="4.671735"><ele>314.40000000000003</ele><time>2026-04-23T14:01:01.942Z</time></trkpt><trkpt lat="45.9315483" lon="4.671625"><ele>315.2</ele><time>2026-04-23T14:01:02.941Z</time></trkpt><trkpt lat="45.9315883" lon="4.6715033"><ele>316.0</ele><time>2026-04-23T14:01:03.942Z</time></trkpt><trkpt lat="45.9316233" lon="4.6713883"><ele>316.0</ele><time>2026-04-23T14:01:04.941Z</time></trkpt><trkpt lat="45.9316483" lon="4.67128"><ele>316.0</ele><time>2026-04-23T14:01:05.941Z</time></trkpt><trkpt lat="45.9316767" lon="4.6711833"><ele>316.0</ele><time>2026-04-23T14:01:06.941Z</time></trkpt><trkpt lat="45.9317217" lon="4.67102"><ele>316.0</ele><time>2026-04-23T14:01:08.942Z</time></trkpt><trkpt lat="45.9317467" lon="4.6708867"><ele>316.0</ele><time>2026-04-23T14:01:10.942Z</time></trkpt><trkpt lat="45.931745" lon="4.6707283"><ele>315.8</ele><time>2026-04-23T14:01:12.941Z</time></trkpt><trkpt lat="45.931735" lon="4.6705417"><ele>315.6</ele><time>2026-04-23T14:01:14.941Z</time></trkpt><trkpt lat="45.931725" lon="4.6704467"><ele>315.4</ele><time>2026-04-23T14:01:15.942Z</time></trkpt><trkpt lat="45.9317067" lon="4.67031"><ele>315.2</ele><time>2026-04-23T14:01:17.941Z</time></trkpt><trkpt lat="45.9316517" lon="4.6702183"><ele>315.0</ele><time>2026-04-23T14:01:19.941Z</time></trkpt><trkpt lat="45.9315767" lon="4.67019"><ele>316.0</ele><time>2026-04-23T14:01:22.942Z</time></trkpt><trkpt lat="45.9314967" lon="4.670145"><ele>317.0</ele><time>2026-04-23T14:01:24.942Z</time></trkpt><trkpt lat="45.9314267" lon="4.6701117"><ele>318.0</ele><time>2026-04-23T14:01:25.942Z</time></trkpt><trkpt lat="45.93134" lon="4.67007"><ele>319.0</ele><time>2026-04-23T14:01:26.941Z</time></trkpt><trkpt lat="45.93125" lon="4.6700367"><ele>320.0</ele><time>2026-04-23T14:01:27.942Z</time></trkpt><trkpt lat="45.9311733" lon="4.670005"><ele>321.0</ele><time>2026-04-23T14:01:28.942Z</time></trkpt><trkpt lat="45.9311017" lon="4.669975"><ele>321.0</ele><time>2026-04-23T14:01:29.941Z</time></trkpt><trkpt lat="45.930975" lon="4.6699217"><ele>321.0</ele><time>2026-04-23T14:01:31.941Z</time></trkpt><trkpt lat="45.9308967" lon="4.669885"><ele>321.0</ele><time>2026-04-23T14:01:32.942Z</time></trkpt><trkpt lat="45.9308233" lon="4.6698533"><ele>321.0</ele><time>2026-04-23T14:01:33.941Z</time></trkpt><trkpt lat="45.9307533" lon="4.6698533"><ele>321.0</ele><time>2026-04-23T14:01:34.941Z</time></trkpt><trkpt lat="45.9306783" lon="4.66986"><ele>321.0</ele><time>2026-04-23T14:01:35.941Z</time></trkpt><trkpt lat="45.9305967" lon="4.6698683"><ele>321.5</ele><time>2026-04-23T14:01:36.941Z</time></trkpt><trkpt lat="45.9305233" lon="4.6698767"><ele>322.0</ele><time>2026-04-23T14:01:37.942Z</time></trkpt><trkpt lat="45.9303983" lon="4.669885"><ele>322.5</ele><time>2026-04-23T14:01:39.942Z</time></trkpt><trkpt lat="45.9303333" lon="4.66989"><ele>323.0</ele><time>2026-04-23T14:01:40.941Z</time></trkpt><trkpt lat="45.93026" lon="4.6698833"><ele>323.5</ele><time>2026-04-23T14:01:41.941Z</time></trkpt><trkpt lat="45.93017" lon="4.6699083"><ele>324.0</ele><time>2026-04-23T14:01:43.942Z</time></trkpt><trkpt lat="45.930065" lon="4.6699167"><ele>325.0</ele><time>2026-04-23T14:01:47.941Z</time></trkpt><trkpt lat="45.92994" lon="4.669945"><ele>326.0</ele><time>2026-04-23T14:01:49.942Z</time></trkpt><trkpt lat="45.929845" lon="4.6699783"><ele>327.0</ele><time>2026-04-23T14:01:51.941Z</time></trkpt><trkpt lat="45.92976" lon="4.6699817"><ele>328.0</ele><time>2026-04-23T14:01:53.942Z</time></trkpt><trkpt lat="45.9296883" lon="4.669955"><ele>329.0</ele><time>2026-04-23T14:01:55.941Z</time></trkpt><trkpt lat="45.9296283" lon="4.6699233"><ele>330.0</ele><time>2026-04-23T14:01:57.941Z</time></trkpt><trkpt lat="45.9295667" lon="4.6698617"><ele>330.0</ele><time>2026-04-23T14:02:00.942Z</time></trkpt><trkpt lat="45.9295383" lon="4.6697567"><ele>330.0</ele><time>2026-04-23T14:06:21.942Z</time></trkpt><trkpt lat="45.9295033" lon="4.66964"><ele>330.0</ele><time>2026-04-23T14:06:24.942Z</time></trkpt><trkpt lat="45.9294483" lon="4.66952"><ele>330.0</ele><time>2026-04-23T14:06:27.941Z</time></trkpt><trkpt lat="45.9293833" lon="4.6693883"><ele>330.0</ele><time>2026-04-23T14:06:45.941Z</time></trkpt><trkpt lat="45.9293433" lon="4.6692617"><ele>330.8</ele><time>2026-04-23T14:06:47.942Z</time></trkpt><trkpt lat="45.92928" lon="4.6691183"><ele>331.6</ele><time>2026-04-23T14:06:49.941Z</time></trkpt><trkpt lat="45.929225" lon="4.6689983"><ele>332.4</ele><time>2026-04-23T14:06:51.941Z</time></trkpt><trkpt lat="45.9291783" lon="4.6688767"><ele>333.2</ele><time>2026-04-23T14:06:53.942Z</time></trkpt><trkpt lat="45.9291267" lon="4.6687583"><ele>334.0</ele><time>2026-04-23T14:06:55.941Z</time></trkpt><trkpt lat="45.9290617" lon="4.6686233"><ele>334.0</ele><time>2026-04-23T14:06:57.941Z</time></trkpt><trkpt lat="45.9289867" lon="4.6684917"><ele>334.0</ele><time>2026-04-23T14:06:59.941Z</time></trkpt><trkpt lat="45.9289083" lon="4.6683783"><ele>334.0</ele><time>2026-04-23T14:07:01.942Z</time></trkpt><trkpt lat="45.92885" lon="4.6683167"><ele>334.0</ele><time>2026-04-23T14:07:02.942Z</time></trkpt><trkpt lat="45.928775" lon="4.6682533"><ele>334.0</ele><time>2026-04-23T14:07:03.942Z</time></trkpt><trkpt lat="45.9287117" lon="4.6682017"><ele>334.0</ele><time>2026-04-23T14:07:04.942Z</time></trkpt><trkpt lat="45.928645" lon="4.6681517"><ele>334.0</ele><time>2026-04-23T14:07:05.942Z</time></trkpt><trkpt lat="45.92858" lon="4.6681017"><ele>334.0</ele><time>2026-04-23T14:07:06.942Z</time></trkpt><trkpt lat="45.9284717" lon="4.66802"><ele>334.0</ele><time>2026-04-23T14:07:08.942Z</time></trkpt><trkpt lat="45.9283683" lon="4.667945"><ele>334.0</ele><time>2026-04-23T14:07:10.941Z</time></trkpt><trkpt lat="45.9282733" lon="4.6678733"><ele>334.5</ele><time>2026-04-23T14:07:12.941Z</time></trkpt><trkpt lat="45.928175" lon="4.6677933"><ele>335.0</ele><time>2026-04-23T14:07:14.942Z</time></trkpt><trkpt lat="45.928125" lon="4.6677383"><ele>335.5</ele><time>2026-04-23T14:07:15.941Z</time></trkpt><trkpt lat="45.928075" lon="4.6676733"><ele>336.0</ele><time>2026-04-23T14:07:16.941Z</time></trkpt><trkpt lat="45.9280183" lon="4.6676017"><ele>336.5</ele><time>2026-04-23T14:07:17.941Z</time></trkpt><trkpt lat="45.9279633" lon="4.6675317"><ele>337.0</ele><time>2026-04-23T14:07:18.942Z</time></trkpt><trkpt lat="45.927915" lon="4.6674717"><ele>337.0</ele><time>2026-04-23T14:07:19.942Z</time></trkpt><trkpt lat="45.9278133" lon="4.66737"><ele>337.0</ele><time>2026-04-23T14:07:21.941Z</time></trkpt><trkpt lat="45.927755" lon="4.667325"><ele>337.0</ele><time>2026-04-23T14:07:22.941Z</time></trkpt><trkpt lat="45.92769" lon="4.6672867"><ele>337.0</ele><time>2026-04-23T14:07:23.941Z</time></trkpt><trkpt lat="45.92763" lon="4.6672567"><ele>337.0</ele><time>2026-04-23T14:07:24.941Z</time></trkpt><trkpt lat="45.9275683" lon="4.6672333"><ele>337.0</ele><time>2026-04-23T14:07:25.941Z</time></trkpt><trkpt lat="45.9274983" lon="4.667215"><ele>337.0</ele><time>2026-04-23T14:07:26.942Z</time></trkpt><trkpt lat="45.9274233" lon="4.6671983"><ele>337.0</ele><time>2026-04-23T14:07:27.941Z</time></trkpt><trkpt lat="45.9273583" lon="4.667185"><ele>337.0</ele><time>2026-04-23T14:07:28.941Z</time></trkpt><trkpt lat="45.9272333" lon="4.6671633"><ele>337.0</ele><time>2026-04-23T14:07:30.941Z</time></trkpt><trkpt lat="45.9271667" lon="4.6671567"><ele>337.0</ele><time>2026-04-23T14:07:31.942Z</time></trkpt><trkpt lat="45.9270933" lon="4.6671467"><ele>337.0</ele><time>2026-04-23T14:07:32.941Z</time></trkpt><trkpt lat="45.927025" lon="4.6671417"><ele>337.0</ele><time>2026-04-23T14:07:33.941Z</time></trkpt><trkpt lat="45.9269617" lon="4.6671467"><ele>337.0</ele><time>2026-04-23T14:07:34.942Z</time></trkpt><trkpt lat="45.92687" lon="4.6671817"><ele>337.0</ele><time>2026-04-23T14:07:36.941Z</time></trkpt><trkpt lat="45.92676" lon="4.66723"><ele>337.0</ele><time>2026-04-23T14:07:38.942Z</time></trkpt><trkpt lat="45.9266633" lon="4.6672883"><ele>337.0</ele><time>2026-04-23T14:07:40.941Z</time></trkpt><trkpt lat="45.9266033" lon="4.6673483"><ele>337.0</ele><time>2026-04-23T14:07:42.942Z</time></trkpt><trkpt lat="45.92654" lon="4.6673133"><ele>337.0</ele><time>2026-04-23T14:07:45.941Z</time></trkpt><trkpt lat="45.9264667" lon="4.6672467"><ele>337.0</ele><time>2026-04-23T14:07:55.942Z</time></trkpt><trkpt lat="45.92646" lon="4.6670883"><ele>337.0</ele><time>2026-04-23T14:07:57.941Z</time></trkpt><trkpt lat="45.9264583" lon="4.6669867"><ele>337.0</ele><time>2026-04-23T14:07:58.942Z</time></trkpt><trkpt lat="45.9264567" lon="4.6668733"><ele>337.0</ele><time>2026-04-23T14:07:59.941Z</time></trkpt><trkpt lat="45.926455" lon="4.6667567"><ele>337.8333333333333</ele><time>2026-04-23T14:08:00.941Z</time></trkpt><trkpt lat="45.9264467" lon="4.6666417"><ele>338.66666666666663</ele><time>2026-04-23T14:08:01.942Z</time></trkpt><trkpt lat="45.9264317" lon="4.6665133"><ele>339.5</ele><time>2026-04-23T14:08:02.941Z</time></trkpt><trkpt lat="45.92644" lon="4.666395"><ele>340.3333333333333</ele><time>2026-04-23T14:08:03.941Z</time></trkpt><trkpt lat="45.9264367" lon="4.6662717"><ele>341.1666666666667</ele><time>2026-04-23T14:08:04.942Z</time></trkpt><trkpt lat="45.9264383" lon="4.66616"><ele>342.0</ele><time>2026-04-23T14:08:05.941Z</time></trkpt><trkpt lat="45.926445" lon="4.6660667"><ele>342.3333333333333</ele><time>2026-04-23T14:08:06.942Z</time></trkpt><trkpt lat="45.9264467" lon="4.665965"><ele>342.6666666666667</ele><time>2026-04-23T14:08:07.941Z</time></trkpt><trkpt lat="45.926445" lon="4.6658517"><ele>343.0</ele><time>2026-04-23T14:08:08.942Z</time></trkpt><trkpt lat="45.9264517" lon="4.66576"><ele>343.33333333333337</ele><time>2026-04-23T14:08:09.941Z</time></trkpt><trkpt lat="45.92646" lon="4.6655983"><ele>343.6666666666667</ele><time>2026-04-23T14:08:11.942Z</time></trkpt><trkpt lat="45.9264433" lon="4.6654467"><ele>344.0</ele><time>2026-04-23T14:08:13.941Z</time></trkpt><trkpt lat="45.9264017" lon="4.6652967"><ele>342.4</ele><time>2026-04-23T14:08:15.942Z</time></trkpt><trkpt lat="45.9263767" lon="4.665145"><ele>340.79999999999995</ele><time>2026-04-23T14:08:17.941Z</time></trkpt><trkpt lat="45.926345" lon="4.6650667"><ele>339.20000000000005</ele><time>2026-04-23T14:08:18.941Z</time></trkpt><trkpt lat="45.9262667" lon="4.66495"><ele>337.6</ele><time>2026-04-23T14:08:20.941Z</time></trkpt><trkpt lat="45.9261883" lon="4.6648767"><ele>336.0</ele><time>2026-04-23T14:08:22.942Z</time></trkpt><trkpt lat="45.9261133" lon="4.66482"><ele>336.0</ele><time>2026-04-23T14:08:24.941Z</time></trkpt><trkpt lat="45.925995" lon="4.664735"><ele>336.0</ele><time>2026-04-23T14:08:26.941Z</time></trkpt><trkpt lat="45.9259267" lon="4.664675"><ele>336.0</ele><time>2026-04-23T14:08:27.941Z</time></trkpt><trkpt lat="45.9258567" lon="4.6646117"><ele>336.0</ele><time>2026-04-23T14:08:28.941Z</time></trkpt><trkpt lat="45.9257867" lon="4.6645533"><ele>336.0</ele><time>2026-04-23T14:08:29.941Z</time></trkpt><trkpt lat="45.92572" lon="4.664505"><ele>335.6666666666667</ele><time>2026-04-23T14:08:30.942Z</time></trkpt><trkpt lat="45.925645" lon="4.66446"><ele>335.3333333333333</ele><time>2026-04-23T14:08:31.941Z</time></trkpt><trkpt lat="45.92558" lon="4.6644317"><ele>335.0</ele><time>2026-04-23T14:08:32.941Z</time></trkpt><trkpt lat="45.92552" lon="4.664395"><ele>334.66666666666663</ele><time>2026-04-23T14:08:33.941Z</time></trkpt><trkpt lat="45.9254133" lon="4.6643167"><ele>334.3333333333333</ele><time>2026-04-23T14:08:35.941Z</time></trkpt><trkpt lat="45.9253183" lon="4.6642433"><ele>334.0</ele><time>2026-04-23T14:08:56.941Z</time></trkpt><trkpt lat="45.92522" lon="4.6641517"><ele>334.0</ele><time>2026-04-23T14:08:58.941Z</time></trkpt><trkpt lat="45.925165" lon="4.6641067"><ele>334.0</ele><time>2026-04-23T14:08:59.941Z</time></trkpt><trkpt lat="45.925105" lon="4.664065"><ele>334.0</ele><time>2026-04-23T14:09:00.941Z</time></trkpt><trkpt lat="45.9250417" lon="4.6640233"><ele>334.0</ele><time>2026-04-23T14:09:01.942Z</time></trkpt><trkpt lat="45.9249817" lon="4.6639767"><ele>334.0</ele><time>2026-04-23T14:09:02.942Z</time></trkpt><trkpt lat="45.9249133" lon="4.66393"><ele>334.0</ele><time>2026-04-23T14:09:03.941Z</time></trkpt><trkpt lat="45.9248517" lon="4.6638867"><ele>334.0</ele><time>2026-04-23T14:09:04.941Z</time></trkpt><trkpt lat="45.924785" lon="4.66385"><ele>334.16666666666663</ele><time>2026-04-23T14:09:05.942Z</time></trkpt><trkpt lat="45.9247217" lon="4.6638167"><ele>334.3333333333333</ele><time>2026-04-23T14:09:06.941Z</time></trkpt><trkpt lat="45.9246283" lon="4.6637617"><ele>334.5</ele><time>2026-04-23T14:09:08.942Z</time></trkpt><trkpt lat="45.924525" lon="4.6636867"><ele>334.6666666666667</ele><time>2026-04-23T14:09:10.942Z</time></trkpt><trkpt lat="45.92446" lon="4.6636417"><ele>334.83333333333337</ele><time>2026-04-23T14:09:11.942Z</time></trkpt><trkpt lat="45.924385" lon="4.6635883"><ele>335.0</ele><time>2026-04-23T14:09:12.942Z</time></trkpt><trkpt lat="45.9243083" lon="4.66353"><ele>334.33333333333337</ele><time>2026-04-23T14:09:13.941Z</time></trkpt><trkpt lat="45.92423" lon="4.6634733"><ele>333.6666666666667</ele><time>2026-04-23T14:09:14.942Z</time></trkpt><trkpt lat="45.924155" lon="4.663425"><ele>333.0</ele><time>2026-04-23T14:09:15.941Z</time></trkpt><trkpt lat="45.924085" lon="4.6633767"><ele>332.3333333333333</ele><time>2026-04-23T14:09:16.941Z</time></trkpt><trkpt lat="45.9240133" lon="4.6633333"><ele>331.66666666666663</ele><time>2026-04-23T14:09:17.942Z</time></trkpt><trkpt lat="45.9239483" lon="4.663285"><ele>331.0</ele><time>2026-04-23T14:09:18.942Z</time></trkpt><trkpt lat="45.9238833" lon="4.6632333"><ele>330.16666666666663</ele><time>2026-04-23T14:09:19.941Z</time></trkpt><trkpt lat="45.923825" lon="4.66319"><ele>329.3333333333333</ele><time>2026-04-23T14:09:20.942Z</time></trkpt><trkpt lat="45.923765" lon="4.6631533"><ele>328.5</ele><time>2026-04-23T14:09:21.941Z</time></trkpt><trkpt lat="45.9237" lon="4.6631083"><ele>327.6666666666667</ele><time>2026-04-23T14:09:22.942Z</time></trkpt><trkpt lat="45.923635" lon="4.66306"><ele>326.83333333333337</ele><time>2026-04-23T14:09:23.942Z</time></trkpt><trkpt lat="45.9235767" lon="4.6630183"><ele>326.0</ele><time>2026-04-23T14:09:24.941Z</time></trkpt><trkpt lat="45.9234683" lon="4.6629467"><ele>326.0</ele><time>2026-04-23T14:09:26.941Z</time></trkpt><trkpt lat="45.923395" lon="4.6629"><ele>326.0</ele><time>2026-04-23T14:09:27.941Z</time></trkpt><trkpt lat="45.92333" lon="4.662855"><ele>326.0</ele><time>2026-04-23T14:09:28.941Z</time></trkpt><trkpt lat="45.9232717" lon="4.6628167"><ele>326.0</ele><time>2026-04-23T14:09:29.941Z</time></trkpt><trkpt lat="45.923165" lon="4.662735"><ele>326.0</ele><time>2026-04-23T14:09:31.941Z</time></trkpt><trkpt lat="45.9230833" lon="4.6626567"><ele>326.0</ele><time>2026-04-23T14:09:33.941Z</time></trkpt><trkpt lat="45.9230233" lon="4.6626067"><ele>324.8</ele><time>2026-04-23T14:09:34.941Z</time></trkpt><trkpt lat="45.92295" lon="4.6625533"><ele>323.6</ele><time>2026-04-23T14:09:35.941Z</time></trkpt><trkpt lat="45.922865" lon="4.6624967"><ele>322.4</ele><time>2026-04-23T14:09:36.941Z</time></trkpt><trkpt lat="45.9227917" lon="4.6624483"><ele>321.2</ele><time>2026-04-23T14:09:37.941Z</time></trkpt><trkpt lat="45.9227233" lon="4.6624"><ele>320.0</ele><time>2026-04-23T14:09:38.941Z</time></trkpt><trkpt lat="45.9226117" lon="4.6623317"><ele>320.6</ele><time>2026-04-23T14:09:40.942Z</time></trkpt><trkpt lat="45.9225017" lon="4.66225"><ele>321.2</ele><time>2026-04-23T14:09:42.941Z</time></trkpt><trkpt lat="45.9224017" lon="4.662185"><ele>321.79999999999995</ele><time>2026-04-23T14:09:44.941Z</time></trkpt><trkpt lat="45.9222817" lon="4.6621083"><ele>322.4</ele><time>2026-04-23T14:09:46.942Z</time></trkpt><trkpt lat="45.9222083" lon="4.6620567"><ele>323.0</ele><time>2026-04-23T14:09:47.941Z</time></trkpt><trkpt lat="45.9221233" lon="4.662"><ele>322.1666666666667</ele><time>2026-04-23T14:09:48.942Z</time></trkpt><trkpt lat="45.9220333" lon="4.6619317"><ele>321.33333333333337</ele><time>2026-04-23T14:09:49.941Z</time></trkpt><trkpt lat="45.9219433" lon="4.661865"><ele>320.5</ele><time>2026-04-23T14:09:50.941Z</time></trkpt><trkpt lat="45.9218717" lon="4.6618117"><ele>319.6666666666667</ele><time>2026-04-23T14:09:51.941Z</time></trkpt><trkpt lat="45.921815" lon="4.661765"><ele>318.8333333333333</ele><time>2026-04-23T14:09:52.941Z</time></trkpt><trkpt lat="45.9217533" lon="4.66173"><ele>318.0</ele><time>2026-04-23T14:09:53.941Z</time></trkpt><trkpt lat="45.9216917" lon="4.6616917"><ele>317.8333333333333</ele><time>2026-04-23T14:09:54.942Z</time></trkpt><trkpt lat="45.9216317" lon="4.6616417"><ele>317.6666666666667</ele><time>2026-04-23T14:09:55.941Z</time></trkpt><trkpt lat="45.9215783" lon="4.6615933"><ele>317.5</ele><time>2026-04-23T14:09:56.941Z</time></trkpt><trkpt lat="45.9215133" lon="4.6615567"><ele>317.33333333333337</ele><time>2026-04-23T14:09:57.941Z</time></trkpt><trkpt lat="45.9214517" lon="4.6615167"><ele>317.1666666666667</ele><time>2026-04-23T14:09:58.941Z</time></trkpt><trkpt lat="45.9213383" lon="4.6614383"><ele>317.0</ele><time>2026-04-23T14:10:00.941Z</time></trkpt><trkpt lat="45.921275" lon="4.66139"><ele>317.0</ele><time>2026-04-23T14:10:01.941Z</time></trkpt><trkpt lat="45.9212" lon="4.661335"><ele>317.0</ele><time>2026-04-23T14:10:02.942Z</time></trkpt><trkpt lat="45.9211233" lon="4.66128"><ele>317.0</ele><time>2026-04-23T14:10:03.942Z</time></trkpt><trkpt lat="45.921045" lon="4.6612183"><ele>317.0</ele><time>2026-04-23T14:10:04.942Z</time></trkpt><trkpt lat="45.92097" lon="4.6611667"><ele>317.0</ele><time>2026-04-23T14:10:05.941Z</time></trkpt><trkpt lat="45.9209017" lon="4.66112"><ele>317.0</ele><time>2026-04-23T14:10:06.941Z</time></trkpt><trkpt lat="45.9208333" lon="4.661075"><ele>316.7142857142857</ele><time>2026-04-23T14:10:07.942Z</time></trkpt><trkpt lat="45.9207633" lon="4.6610233"><ele>316.42857142857144</ele><time>2026-04-23T14:10:08.941Z</time></trkpt><trkpt lat="45.920695" lon="4.6609783"><ele>316.1428571428571</ele><time>2026-04-23T14:10:09.942Z</time></trkpt><trkpt lat="45.9206333" lon="4.6609283"><ele>315.8571428571429</ele><time>2026-04-23T14:10:10.941Z</time></trkpt><trkpt lat="45.9205717" lon="4.6608783"><ele>315.57142857142856</ele><time>2026-04-23T14:10:11.941Z</time></trkpt><trkpt lat="45.9205067" lon="4.6608417"><ele>315.2857142857143</ele><time>2026-04-23T14:10:12.942Z</time></trkpt><trkpt lat="45.920435" lon="4.6607917"><ele>315.0</ele><time>2026-04-23T14:10:13.942Z</time></trkpt><trkpt lat="45.92036" lon="4.6607467"><ele>315.0</ele><time>2026-04-23T14:10:14.942Z</time></trkpt><trkpt lat="45.9202833" lon="4.6607"><ele>315.0</ele><time>2026-04-23T14:10:15.941Z</time></trkpt><trkpt lat="45.9202167" lon="4.66065"><ele>315.0</ele><time>2026-04-23T14:10:16.941Z</time></trkpt><trkpt lat="45.9201433" lon="4.6605967"><ele>315.0</ele><time>2026-04-23T14:10:17.941Z</time></trkpt><trkpt lat="45.920065" lon="4.6605433"><ele>315.0</ele><time>2026-04-23T14:10:18.942Z</time></trkpt><trkpt lat="45.9199883" lon="4.6604867"><ele>315.0</ele><time>2026-04-23T14:10:19.941Z</time></trkpt><trkpt lat="45.91991" lon="4.6604217"><ele>314.6666666666667</ele><time>2026-04-23T14:10:20.941Z</time></trkpt><trkpt lat="45.91983" lon="4.66036"><ele>314.3333333333333</ele><time>2026-04-23T14:10:21.941Z</time></trkpt><trkpt lat="45.9197467" lon="4.660305"><ele>314.0</ele><time>2026-04-23T14:10:22.941Z</time></trkpt><trkpt lat="45.919675" lon="4.660255"><ele>313.66666666666663</ele><time>2026-04-23T14:10:23.942Z</time></trkpt><trkpt lat="45.919595" lon="4.6601983"><ele>313.3333333333333</ele><time>2026-04-23T14:10:24.941Z</time></trkpt><trkpt lat="45.91952" lon="4.6601483"><ele>313.0</ele><time>2026-04-23T14:10:25.941Z</time></trkpt><trkpt lat="45.9194417" lon="4.6600967"><ele>313.0</ele><time>2026-04-23T14:10:26.941Z</time></trkpt><trkpt lat="45.919375" lon="4.6600517"><ele>313.0</ele><time>2026-04-23T14:10:27.941Z</time></trkpt><trkpt lat="45.9193167" lon="4.6600017"><ele>313.0</ele><time>2026-04-23T14:10:28.941Z</time></trkpt><trkpt lat="45.9192583" lon="4.6599517"><ele>313.0</ele><time>2026-04-23T14:10:29.941Z</time></trkpt><trkpt lat="45.9191883" lon="4.6599083"><ele>313.0</ele><time>2026-04-23T14:10:30.941Z</time></trkpt><trkpt lat="45.9191017" lon="4.659845"><ele>313.0</ele><time>2026-04-23T14:10:31.941Z</time></trkpt><trkpt lat="45.9190117" lon="4.6597767"><ele>312.66666666666663</ele><time>2026-04-23T14:10:32.941Z</time></trkpt><trkpt lat="45.9189267" lon="4.6597083"><ele>312.3333333333333</ele><time>2026-04-23T14:10:33.942Z</time></trkpt><trkpt lat="45.9188533" lon="4.659655"><ele>312.0</ele><time>2026-04-23T14:10:34.942Z</time></trkpt><trkpt lat="45.91878" lon="4.6596"><ele>311.6666666666667</ele><time>2026-04-23T14:10:35.941Z</time></trkpt><trkpt lat="45.91871" lon="4.65955"><ele>311.33333333333337</ele><time>2026-04-23T14:10:36.941Z</time></trkpt><trkpt lat="45.91864" lon="4.6594983"><ele>311.0</ele><time>2026-04-23T14:10:37.941Z</time></trkpt><trkpt lat="45.9185667" lon="4.659445"><ele>310.6666666666667</ele><time>2026-04-23T14:10:38.942Z</time></trkpt><trkpt lat="45.9184833" lon="4.6593883"><ele>310.33333333333337</ele><time>2026-04-23T14:10:39.941Z</time></trkpt><trkpt lat="45.9184017" lon="4.6593317"><ele>310.0</ele><time>2026-04-23T14:10:40.942Z</time></trkpt><trkpt lat="45.9183233" lon="4.6592817"><ele>309.6666666666667</ele><time>2026-04-23T14:10:41.941Z</time></trkpt><trkpt lat="45.9182583" lon="4.6592333"><ele>309.3333333333333</ele><time>2026-04-23T14:10:42.942Z</time></trkpt><trkpt lat="45.91818" lon="4.6591817"><ele>309.0</ele><time>2026-04-23T14:10:43.941Z</time></trkpt><trkpt lat="45.918095" lon="4.6591183"><ele>310.0</ele><time>2026-04-23T14:10:44.941Z</time></trkpt><trkpt lat="45.9180033" lon="4.659045"><ele>311.0</ele><time>2026-04-23T14:10:45.941Z</time></trkpt><trkpt lat="45.91792" lon="4.65898"><ele>312.0</ele><time>2026-04-23T14:10:46.941Z</time></trkpt><trkpt lat="45.9178283" lon="4.65891"><ele>313.0</ele><time>2026-04-23T14:10:48.941Z</time></trkpt><trkpt lat="45.9177083" lon="4.6588267"><ele>314.0</ele><time>2026-04-23T14:10:50.941Z</time></trkpt><trkpt lat="45.9176283" lon="4.658765"><ele>314.2</ele><time>2026-04-23T14:10:51.941Z</time></trkpt><trkpt lat="45.9175383" lon="4.6587133"><ele>314.4</ele><time>2026-04-23T14:10:52.941Z</time></trkpt><trkpt lat="45.9174483" lon="4.658655"><ele>314.6</ele><time>2026-04-23T14:10:53.941Z</time></trkpt><trkpt lat="45.9173567" lon="4.6586033"><ele>314.8</ele><time>2026-04-23T14:10:54.941Z</time></trkpt><trkpt lat="45.9172783" lon="4.6585467"><ele>315.0</ele><time>2026-04-23T14:10:55.942Z</time></trkpt><trkpt lat="45.9172033" lon="4.6584933"><ele>315.0</ele><time>2026-04-23T14:10:56.942Z</time></trkpt><trkpt lat="45.91712" lon="4.6584433"><ele>315.0</ele><time>2026-04-23T14:10:57.942Z</time></trkpt><trkpt lat="45.9170417" lon="4.658395"><ele>315.0</ele><time>2026-04-23T14:10:58.941Z</time></trkpt><trkpt lat="45.9169717" lon="4.65835"><ele>315.0</ele><time>2026-04-23T14:10:59.941Z</time></trkpt><trkpt lat="45.916905" lon="4.6583"><ele>315.0</ele><time>2026-04-23T14:11:00.941Z</time></trkpt><trkpt lat="45.91684" lon="4.658255"><ele>315.0</ele><time>2026-04-23T14:11:01.941Z</time></trkpt><trkpt lat="45.91678" lon="4.658215"><ele>314.4</ele><time>2026-04-23T14:11:02.942Z</time></trkpt><trkpt lat="45.9166867" lon="4.658145"><ele>313.8</ele><time>2026-04-23T14:11:04.942Z</time></trkpt><trkpt lat="45.9166383" lon="4.658085"><ele>313.2</ele><time>2026-04-23T14:11:06.941Z</time></trkpt><trkpt lat="45.9165433" lon="4.6580167"><ele>312.6</ele><time>2026-04-23T14:11:08.941Z</time></trkpt><trkpt lat="45.916465" lon="4.6579717"><ele>312.0</ele><time>2026-04-23T14:11:09.941Z</time></trkpt><trkpt lat="45.9163733" lon="4.65791"><ele>312.0</ele><time>2026-04-23T14:11:10.942Z</time></trkpt><trkpt lat="45.9162783" lon="4.6578417"><ele>312.0</ele><time>2026-04-23T14:11:11.942Z</time></trkpt><trkpt lat="45.91618" lon="4.65778"><ele>312.0</ele><time>2026-04-23T14:11:12.941Z</time></trkpt><trkpt lat="45.9160867" lon="4.6577083"><ele>312.0</ele><time>2026-04-23T14:11:13.941Z</time></trkpt><trkpt lat="45.9159833" lon="4.657635"><ele>312.0</ele><time>2026-04-23T14:11:14.942Z</time></trkpt><trkpt lat="45.9158717" lon="4.6575567"><ele>311.75</ele><time>2026-04-23T14:11:15.941Z</time></trkpt><trkpt lat="45.9157617" lon="4.6574783"><ele>311.5</ele><time>2026-04-23T14:11:16.941Z</time></trkpt><trkpt lat="45.9156583" lon="4.6574033"><ele>311.25</ele><time>2026-04-23T14:11:17.941Z</time></trkpt><trkpt lat="45.915555" lon="4.65733"><ele>311.0</ele><time>2026-04-23T14:11:18.941Z</time></trkpt><trkpt lat="45.9154533" lon="4.6572617"><ele>311.0</ele><time>2026-04-23T14:11:19.942Z</time></trkpt><trkpt lat="45.9153583" lon="4.6571983"><ele>311.0</ele><time>2026-04-23T14:11:20.942Z</time></trkpt><trkpt lat="45.91527" lon="4.6571317"><ele>311.0</ele><time>2026-04-23T14:11:21.941Z</time></trkpt><trkpt lat="45.91517" lon="4.65706"><ele>311.0</ele><time>2026-04-23T14:11:22.941Z</time></trkpt><trkpt lat="45.915075" lon="4.656995"><ele>311.0</ele><time>2026-04-23T14:11:23.941Z</time></trkpt><trkpt lat="45.9149733" lon="4.6569267"><ele>310.0</ele><time>2026-04-23T14:11:24.941Z</time></trkpt><trkpt lat="45.914875" lon="4.6568567"><ele>309.0</ele><time>2026-04-23T14:11:25.942Z</time></trkpt><trkpt lat="45.9147817" lon="4.6567933"><ele>308.0</ele><time>2026-04-23T14:11:26.942Z</time></trkpt><trkpt lat="45.9146983" lon="4.6567317"><ele>307.0</ele><time>2026-04-23T14:11:27.941Z</time></trkpt><trkpt lat="45.9146183" lon="4.656665"><ele>306.0</ele><time>2026-04-23T14:11:28.942Z</time></trkpt><trkpt lat="45.9145483" lon="4.6566033"><ele>306.0</ele><time>2026-04-23T14:11:29.941Z</time></trkpt><trkpt lat="45.9144817" lon="4.6565517"><ele>306.0</ele><time>2026-04-23T14:11:30.942Z</time></trkpt><trkpt lat="45.9144133" lon="4.6565117"><ele>306.0</ele><time>2026-04-23T14:11:31.941Z</time></trkpt><trkpt lat="45.9143" lon="4.65643"><ele>306.0</ele><time>2026-04-23T14:11:33.942Z</time></trkpt><trkpt lat="45.9142317" lon="4.6563933"><ele>306.0</ele><time>2026-04-23T14:11:34.941Z</time></trkpt><trkpt lat="45.9141633" lon="4.656345"><ele>306.0</ele><time>2026-04-23T14:11:35.942Z</time></trkpt><trkpt lat="45.9140967" lon="4.6562983"><ele>306.1666666666667</ele><time>2026-04-23T14:11:36.941Z</time></trkpt><trkpt lat="45.9140383" lon="4.6562583"><ele>306.3333333333333</ele><time>2026-04-23T14:11:37.941Z</time></trkpt><trkpt lat="45.9139733" lon="4.6562117"><ele>306.5</ele><time>2026-04-23T14:11:38.942Z</time></trkpt><trkpt lat="45.9138967" lon="4.65616"><ele>306.66666666666663</ele><time>2026-04-23T14:11:39.942Z</time></trkpt><trkpt lat="45.91382" lon="4.65611"><ele>306.8333333333333</ele><time>2026-04-23T14:11:40.941Z</time></trkpt><trkpt lat="45.913745" lon="4.65606"><ele>307.0</ele><time>2026-04-23T14:11:41.941Z</time></trkpt><trkpt lat="45.9136783" lon="4.6560083"><ele>306.66666666666663</ele><time>2026-04-23T14:11:42.942Z</time></trkpt><trkpt lat="45.9136083" lon="4.6559617"><ele>306.3333333333333</ele><time>2026-04-23T14:11:43.942Z</time></trkpt><trkpt lat="45.9135417" lon="4.6559133"><ele>306.0</ele><time>2026-04-23T14:11:44.941Z</time></trkpt><trkpt lat="45.91347" lon="4.6558567"><ele>305.6666666666667</ele><time>2026-04-23T14:11:45.941Z</time></trkpt><trkpt lat="45.9134017" lon="4.6558083"><ele>305.33333333333337</ele><time>2026-04-23T14:11:46.941Z</time></trkpt><trkpt lat="45.9133333" lon="4.655755"><ele>305.0</ele><time>2026-04-23T14:11:47.942Z</time></trkpt><trkpt lat="45.9132733" lon="4.655715"><ele>305.0</ele><time>2026-04-23T14:11:48.942Z</time></trkpt><trkpt lat="45.9132167" lon="4.65567"><ele>305.0</ele><time>2026-04-23T14:11:49.941Z</time></trkpt><trkpt lat="45.9131067" lon="4.6555967"><ele>305.0</ele><time>2026-04-23T14:11:51.942Z</time></trkpt><trkpt lat="45.9130083" lon="4.6555267"><ele>305.0</ele><time>2026-04-23T14:11:53.941Z</time></trkpt><trkpt lat="45.9129117" lon="4.6554667"><ele>305.0</ele><time>2026-04-23T14:11:55.941Z</time></trkpt><trkpt lat="45.9128367" lon="4.6554117"><ele>305.0</ele><time>2026-04-23T14:11:57.941Z</time></trkpt><trkpt lat="45.9127783" lon="4.6553633"><ele>305.0</ele><time>2026-04-23T14:11:59.941Z</time></trkpt><trkpt lat="45.9127067" lon="4.6552933"><ele>305.0</ele><time>2026-04-23T14:12:02.942Z</time></trkpt><trkpt lat="45.91266" lon="4.6552283"><ele>305.0</ele><time>2026-04-23T14:12:05.941Z</time></trkpt><trkpt lat="45.9125767" lon="4.6551883"><ele>305.0</ele><time>2026-04-23T14:12:07.942Z</time></trkpt><trkpt lat="45.9125117" lon="4.6551767"><ele>305.0</ele><time>2026-04-23T14:12:08.941Z</time></trkpt><trkpt lat="45.91244" lon="4.6551717"><ele>305.0</ele><time>2026-04-23T14:12:09.942Z</time></trkpt><trkpt lat="45.9123717" lon="4.65517"><ele>304.0</ele><time>2026-04-23T14:12:10.941Z</time></trkpt><trkpt lat="45.91226" lon="4.6551733"><ele>303.0</ele><time>2026-04-23T14:12:12.942Z</time></trkpt><trkpt lat="45.91213" lon="4.6551917"><ele>302.0</ele><time>2026-04-23T14:12:14.942Z</time></trkpt><trkpt lat="45.9120217" lon="4.6552117"><ele>301.0</ele><time>2026-04-23T14:12:16.942Z</time></trkpt><trkpt lat="45.9119367" lon="4.6552167"><ele>300.0</ele><time>2026-04-23T14:12:18.941Z</time></trkpt><trkpt lat="45.9118717" lon="4.6552283"><ele>300.0</ele><time>2026-04-23T14:12:21.941Z</time></trkpt><trkpt lat="45.911795" lon="4.655255"><ele>300.0</ele><time>2026-04-23T14:12:23.941Z</time></trkpt><trkpt lat="45.9117017" lon="4.6553783"><ele>300.0</ele><time>2026-04-23T14:12:25.941Z</time></trkpt><trkpt lat="45.91166" lon="4.6555017"><ele>300.0</ele><time>2026-04-23T14:12:26.942Z</time></trkpt><trkpt lat="45.91161" lon="4.6556117"><ele>300.0</ele><time>2026-04-23T14:12:27.941Z</time></trkpt><trkpt lat="45.9115683" lon="4.6557033"><ele>301.2</ele><time>2026-04-23T14:12:28.941Z</time></trkpt><trkpt lat="45.9115" lon="4.65581"><ele>302.4</ele><time>2026-04-23T14:12:30.942Z</time></trkpt><trkpt lat="45.9114333" lon="4.65585"><ele>303.6</ele><time>2026-04-23T14:12:32.941Z</time></trkpt><trkpt lat="45.9113367" lon="4.65593"><ele>304.8</ele><time>2026-04-23T14:12:34.942Z</time></trkpt><trkpt lat="45.91122" lon="4.6559833"><ele>306.0</ele><time>2026-04-23T14:12:36.941Z</time></trkpt><trkpt lat="45.911145" lon="4.65601"><ele>306.0</ele><time>2026-04-23T14:12:37.941Z</time></trkpt><trkpt lat="45.9110783" lon="4.656035"><ele>306.0</ele><time>2026-04-23T14:12:38.941Z</time></trkpt><trkpt lat="45.9109583" lon="4.6560683"><ele>306.0</ele><time>2026-04-23T14:12:40.941Z</time></trkpt><trkpt lat="45.9108383" lon="4.6561033"><ele>306.0</ele><time>2026-04-23T14:12:42.942Z</time></trkpt><trkpt lat="45.9107717" lon="4.6561233"><ele>306.0</ele><time>2026-04-23T14:12:43.942Z</time></trkpt><trkpt lat="45.91066" lon="4.65616"><ele>307.2</ele><time>2026-04-23T14:12:45.941Z</time></trkpt><trkpt lat="45.91055" lon="4.65617"><ele>308.40000000000003</ele><time>2026-04-23T14:12:47.942Z</time></trkpt><trkpt lat="45.9104433" lon="4.6561783"><ele>309.6</ele><time>2026-04-23T14:12:49.941Z</time></trkpt><trkpt lat="45.9103733" lon="4.6561767"><ele>310.8</ele><time>2026-04-23T14:12:50.941Z</time></trkpt><trkpt lat="45.9103033" lon="4.6561833"><ele>312.0</ele><time>2026-04-23T14:12:51.941Z</time></trkpt><trkpt lat="45.9101833" lon="4.656205"><ele>312.0</ele><time>2026-04-23T14:12:53.941Z</time></trkpt><trkpt lat="45.9100783" lon="4.65622"><ele>312.0</ele><time>2026-04-23T14:12:55.942Z</time></trkpt><trkpt lat="45.909965" lon="4.6562067"><ele>312.0</ele><time>2026-04-23T14:12:57.941Z</time></trkpt><trkpt lat="45.9099" lon="4.6561717"><ele>312.0</ele><time>2026-04-23T14:12:58.942Z</time></trkpt><trkpt lat="45.909835" lon="4.6561433"><ele>312.0</ele><time>2026-04-23T14:12:59.941Z</time></trkpt><trkpt lat="45.9097717" lon="4.6560933"><ele>312.0</ele><time>2026-04-23T14:13:00.942Z</time></trkpt><trkpt lat="45.9097167" lon="4.6560483"><ele>312.5</ele><time>2026-04-23T14:13:01.941Z</time></trkpt><trkpt lat="45.909645" lon="4.6559617"><ele>313.0</ele><time>2026-04-23T14:13:03.941Z</time></trkpt><trkpt lat="45.909585" lon="4.6558583"><ele>313.5</ele><time>2026-04-23T14:13:05.942Z</time></trkpt><trkpt lat="45.9095133" lon="4.6557117"><ele>314.0</ele><time>2026-04-23T14:13:07.942Z</time></trkpt><trkpt lat="45.9094667" lon="4.6556317"><ele>314.5</ele><time>2026-04-23T14:13:08.941Z</time></trkpt><trkpt lat="45.9094267" lon="4.6555583"><ele>315.0</ele><time>2026-04-23T14:13:09.942Z</time></trkpt><trkpt lat="45.9093633" lon="4.6554617"><ele>315.0</ele><time>2026-04-23T14:13:11.942Z</time></trkpt><trkpt lat="45.9093017" lon="4.6553817"><ele>315.0</ele><time>2026-04-23T14:13:13.941Z</time></trkpt><trkpt lat="45.909255" lon="4.6552667"><ele>315.0</ele><time>2026-04-23T14:13:18.941Z</time></trkpt><trkpt lat="45.909265" lon="4.65511"><ele>315.0</ele><time>2026-04-23T14:13:20.941Z</time></trkpt><trkpt lat="45.9093017" lon="4.6549417"><ele>315.0</ele><time>2026-04-23T14:13:22.941Z</time></trkpt><trkpt lat="45.9093133" lon="4.6548483"><ele>313.5</ele><time>2026-04-23T14:13:23.941Z</time></trkpt><trkpt lat="45.9093517" lon="4.654695"><ele>312.0</ele><time>2026-04-23T14:13:25.941Z</time></trkpt><trkpt lat="45.9094" lon="4.6545333"><ele>310.5</ele><time>2026-04-23T14:13:27.942Z</time></trkpt><trkpt lat="45.909435" lon="4.654375"><ele>309.0</ele><time>2026-04-23T14:13:29.941Z</time></trkpt><trkpt lat="45.9094683" lon="4.6542033"><ele>307.0</ele><time>2026-04-23T14:13:31.941Z</time></trkpt><trkpt lat="45.9095" lon="4.6540267"><ele>305.0</ele><time>2026-04-23T14:13:33.941Z</time></trkpt><trkpt lat="45.9095217" lon="4.653935"><ele>303.0</ele><time>2026-04-23T14:13:34.941Z</time></trkpt><trkpt lat="45.9095467" lon="4.653845"><ele>301.0</ele><time>2026-04-23T14:13:35.941Z</time></trkpt><trkpt lat="45.9095733" lon="4.6537467"><ele>299.0</ele><time>2026-04-23T14:13:36.942Z</time></trkpt><trkpt lat="45.909595" lon="4.653655"><ele>297.0</ele><time>2026-04-23T14:13:37.942Z</time></trkpt><trkpt lat="45.909615" lon="4.6535533"><ele>295.5</ele><time>2026-04-23T14:13:38.941Z</time></trkpt><trkpt lat="45.9096333" lon="4.65345"><ele>294.0</ele><time>2026-04-23T14:13:39.941Z</time></trkpt><trkpt lat="45.90966" lon="4.6533583"><ele>292.5</ele><time>2026-04-23T14:13:40.941Z</time></trkpt><trkpt lat="45.9096833" lon="4.6532733"><ele>291.0</ele><time>2026-04-23T14:13:41.942Z</time></trkpt><trkpt lat="45.90971" lon="4.6531317"><ele>289.5</ele><time>2026-04-23T14:13:43.941Z</time></trkpt><trkpt lat="45.90973" lon="4.6529967"><ele>288.0</ele><time>2026-04-23T14:13:45.942Z</time></trkpt><trkpt lat="45.9097583" lon="4.6528617"><ele>286.5</ele><time>2026-04-23T14:13:47.941Z</time></trkpt><trkpt lat="45.9098017" lon="4.65273"><ele>285.0</ele><time>2026-04-23T14:13:49.942Z</time></trkpt><trkpt lat="45.9098333" lon="4.652565"><ele>283.5</ele><time>2026-04-23T14:13:51.942Z</time></trkpt><trkpt lat="45.9098683" lon="4.652405"><ele>282.0</ele><time>2026-04-23T14:13:53.941Z</time></trkpt><trkpt lat="45.9099067" lon="4.65224"><ele>282.0</ele><time>2026-04-23T14:13:55.942Z</time></trkpt><trkpt lat="45.909935" lon="4.65208"><ele>282.0</ele><time>2026-04-23T14:13:57.942Z</time></trkpt><trkpt lat="45.90996" lon="4.6519667"><ele>282.0</ele><time>2026-04-23T14:13:59.942Z</time></trkpt><trkpt lat="45.9099917" lon="4.651865"><ele>282.0</ele><time>2026-04-23T14:14:01.941Z</time></trkpt><trkpt lat="45.9100167" lon="4.6517767"><ele>282.0</ele><time>2026-04-23T14:14:03.941Z</time></trkpt><trkpt lat="45.9100517" lon="4.6516533"><ele>282.0</ele><time>2026-04-23T14:14:09.941Z</time></trkpt><trkpt lat="45.9100733" lon="4.6515217"><ele>280.0</ele><time>2026-04-23T14:14:12.941Z</time></trkpt><trkpt lat="45.9101017" lon="4.65142"><ele>278.0</ele><time>2026-04-23T14:14:14.942Z</time></trkpt><trkpt lat="45.9101367" lon="4.651305"><ele>276.0</ele><time>2026-04-23T14:14:16.941Z</time></trkpt><trkpt lat="45.9101733" lon="4.6511933"><ele>274.0</ele><time>2026-04-23T14:14:18.941Z</time></trkpt><trkpt lat="45.9101967" lon="4.65108"><ele>272.0</ele><time>2026-04-23T14:14:20.942Z</time></trkpt><trkpt lat="45.9102317" lon="4.6509717"><ele>270.0</ele><time>2026-04-23T14:14:22.941Z</time></trkpt><trkpt lat="45.910265" lon="4.65088"><ele>269.6666666666667</ele><time>2026-04-23T14:14:24.942Z</time></trkpt><trkpt lat="45.9102833" lon="4.6507717"><ele>269.3333333333333</ele><time>2026-04-23T14:14:26.942Z</time></trkpt><trkpt lat="45.9103217" lon="4.6506767"><ele>269.0</ele><time>2026-04-23T14:14:28.941Z</time></trkpt><trkpt lat="45.9103633" lon="4.6505667"><ele>268.66666666666663</ele><time>2026-04-23T14:14:30.942Z</time></trkpt><trkpt lat="45.91041" lon="4.650475"><ele>268.3333333333333</ele><time>2026-04-23T14:14:32.942Z</time></trkpt><trkpt lat="45.910455" lon="4.65036"><ele>268.0</ele><time>2026-04-23T14:14:34.941Z</time></trkpt><trkpt lat="45.9105117" lon="4.6502683"><ele>268.0</ele><time>2026-04-23T14:14:36.941Z</time></trkpt><trkpt lat="45.9105683" lon="4.6501583"><ele>268.0</ele><time>2026-04-23T14:14:38.941Z</time></trkpt><trkpt lat="45.9106267" lon="4.6500333"><ele>268.0</ele><time>2026-04-23T14:14:40.942Z</time></trkpt><trkpt lat="45.9106783" lon="4.64991"><ele>268.0</ele><time>2026-04-23T14:14:42.941Z</time></trkpt><trkpt lat="45.9107" lon="4.6497667"><ele>268.0</ele><time>2026-04-23T14:14:44.942Z</time></trkpt><trkpt lat="45.9106833" lon="4.649625"><ele>268.0</ele><time>2026-04-23T14:14:46.941Z</time></trkpt><trkpt lat="45.910615" lon="4.6494967"><ele>268.0</ele><time>2026-04-23T14:14:48.941Z</time></trkpt><trkpt lat="45.9105667" lon="4.64943"><ele>268.0</ele><time>2026-04-23T14:14:49.941Z</time></trkpt><trkpt lat="45.9105233" lon="4.6493617"><ele>268.0</ele><time>2026-04-23T14:14:50.941Z</time></trkpt><trkpt lat="45.9104283" lon="4.6492583"><ele>268.0</ele><time>2026-04-23T14:14:52.941Z</time></trkpt><trkpt lat="45.9103667" lon="4.6492067"><ele>268.0</ele><time>2026-04-23T14:14:53.942Z</time></trkpt><trkpt lat="45.9103117" lon="4.6491583"><ele>268.4</ele><time>2026-04-23T14:14:54.941Z</time></trkpt><trkpt lat="45.91023" lon="4.6490817"><ele>268.8</ele><time>2026-04-23T14:14:56.942Z</time></trkpt><trkpt lat="45.91015" lon="4.6489667"><ele>269.2</ele><time>2026-04-23T14:14:59.942Z</time></trkpt><trkpt lat="45.9100867" lon="4.6488933"><ele>269.6</ele><time>2026-04-23T14:15:01.942Z</time></trkpt><trkpt lat="45.9100267" lon="4.6488167"><ele>270.0</ele><time>2026-04-23T14:15:03.941Z</time></trkpt><trkpt lat="45.9099633" lon="4.6486933"><ele>272.2</ele><time>2026-04-23T14:15:06.941Z</time></trkpt><trkpt lat="45.909985" lon="4.648585"><ele>274.4</ele><time>2026-04-23T14:15:08.942Z</time></trkpt><trkpt lat="45.910045" lon="4.648435"><ele>276.6</ele><time>2026-04-23T14:15:10.941Z</time></trkpt><trkpt lat="45.9101083" lon="4.6483067"><ele>278.8</ele><time>2026-04-23T14:15:12.941Z</time></trkpt><trkpt lat="45.9101517" lon="4.6482383"><ele>281.0</ele><time>2026-04-23T14:15:14.942Z</time></trkpt><trkpt lat="45.9102133" lon="4.6481467"><ele>281.8</ele><time>2026-04-23T14:15:16.942Z</time></trkpt><trkpt lat="45.9102933" lon="4.648055"><ele>282.6</ele><time>2026-04-23T14:15:18.941Z</time></trkpt><trkpt lat="45.9104017" lon="4.648025"><ele>283.4</ele><time>2026-04-23T14:15:20.941Z</time></trkpt><trkpt lat="45.9104917" lon="4.6479967"><ele>284.2</ele><time>2026-04-23T14:15:22.942Z</time></trkpt><trkpt lat="45.9105933" lon="4.6479133"><ele>285.0</ele><time>2026-04-23T14:15:24.942Z</time></trkpt><trkpt lat="45.9106517" lon="4.6478533"><ele>286.4</ele><time>2026-04-23T14:15:25.941Z</time></trkpt><trkpt lat="45.9107083" lon="4.6477933"><ele>287.8</ele><time>2026-04-23T14:15:26.941Z</time></trkpt><trkpt lat="45.9107883" lon="4.6476883"><ele>289.2</ele><time>2026-04-23T14:15:28.941Z</time></trkpt><trkpt lat="45.9108567" lon="4.64755"><ele>290.6</ele><time>2026-04-23T14:15:30.942Z</time></trkpt><trkpt lat="45.91089" lon="4.6474067"><ele>292.0</ele><time>2026-04-23T14:15:32.941Z</time></trkpt><trkpt lat="45.9109367" lon="4.6472567"><ele>292.0</ele><time>2026-04-23T14:15:34.942Z</time></trkpt><trkpt lat="45.9109633" lon="4.6471717"><ele>292.0</ele><time>2026-04-23T14:15:35.941Z</time></trkpt><trkpt lat="45.9109883" lon="4.6470683"><ele>292.0</ele><time>2026-04-23T14:15:36.941Z</time></trkpt><trkpt lat="45.9110217" lon="4.64698"><ele>292.0</ele><time>2026-04-23T14:15:37.942Z</time></trkpt><trkpt lat="45.9110517" lon="4.6468867"><ele>292.0</ele><time>2026-04-23T14:15:38.941Z</time></trkpt><trkpt lat="45.9110933" lon="4.6467833"><ele>292.0</ele><time>2026-04-23T14:15:39.942Z</time></trkpt><trkpt lat="45.9111367" lon="4.6466767"><ele>293.0</ele><time>2026-04-23T14:15:40.941Z</time></trkpt><trkpt lat="45.9111867" lon="4.6465633"><ele>294.0</ele><time>2026-04-23T14:15:41.941Z</time></trkpt><trkpt lat="45.911235" lon="4.6464383"><ele>295.0</ele><time>2026-04-23T14:15:42.941Z</time></trkpt><trkpt lat="45.9112817" lon="4.6463317"><ele>296.0</ele><time>2026-04-23T14:15:43.941Z</time></trkpt><trkpt lat="45.911325" lon="4.6462283"><ele>297.0</ele><time>2026-04-23T14:15:44.942Z</time></trkpt><trkpt lat="45.9113733" lon="4.6461267"><ele>297.5</ele><time>2026-04-23T14:15:45.942Z</time></trkpt><trkpt lat="45.911415" lon="4.6460217"><ele>298.0</ele><time>2026-04-23T14:15:46.942Z</time></trkpt><trkpt lat="45.9114533" lon="4.64592"><ele>298.5</ele><time>2026-04-23T14:15:47.942Z</time></trkpt><trkpt lat="45.9115" lon="4.6458217"><ele>299.0</ele><time>2026-04-23T14:15:48.941Z</time></trkpt><trkpt lat="45.9115433" lon="4.645705"><ele>299.5</ele><time>2026-04-23T14:15:49.941Z</time></trkpt><trkpt lat="45.91159" lon="4.6455917"><ele>300.0</ele><time>2026-04-23T14:15:50.942Z</time></trkpt><trkpt lat="45.9116167" lon="4.6455033"><ele>300.0</ele><time>2026-04-23T14:15:51.941Z</time></trkpt><trkpt lat="45.9116533" lon="4.6454233"><ele>300.0</ele><time>2026-04-23T14:15:52.942Z</time></trkpt><trkpt lat="45.911695" lon="4.6453383"><ele>300.0</ele><time>2026-04-23T14:15:53.942Z</time></trkpt><trkpt lat="45.911735" lon="4.64524"><ele>300.0</ele><time>2026-04-23T14:15:54.942Z</time></trkpt><trkpt lat="45.9117767" lon="4.64515"><ele>300.0</ele><time>2026-04-23T14:15:55.941Z</time></trkpt><trkpt lat="45.911825" lon="4.6450533"><ele>300.0</ele><time>2026-04-23T14:15:56.942Z</time></trkpt><trkpt lat="45.9118767" lon="4.6449517"><ele>300.1666666666667</ele><time>2026-04-23T14:15:57.941Z</time></trkpt><trkpt lat="45.91192" lon="4.6448517"><ele>300.3333333333333</ele><time>2026-04-23T14:15:58.941Z</time></trkpt><trkpt lat="45.9119567" lon="4.6447467"><ele>300.5</ele><time>2026-04-23T14:15:59.941Z</time></trkpt><trkpt lat="45.9119967" lon="4.6446617"><ele>300.66666666666663</ele><time>2026-04-23T14:16:00.941Z</time></trkpt><trkpt lat="45.91205" lon="4.6445533"><ele>300.8333333333333</ele><time>2026-04-23T14:16:02.941Z</time></trkpt><trkpt lat="45.9121033" lon="4.6444317"><ele>301.0</ele><time>2026-04-23T14:16:04.941Z</time></trkpt><trkpt lat="45.9121483" lon="4.6443583"><ele>301.0</ele><time>2026-04-23T14:16:05.942Z</time></trkpt><trkpt lat="45.9121817" lon="4.6442783"><ele>301.0</ele><time>2026-04-23T14:16:06.941Z</time></trkpt><trkpt lat="45.9122233" lon="4.644185"><ele>301.0</ele><time>2026-04-23T14:16:07.941Z</time></trkpt><trkpt lat="45.91226" lon="4.6440983"><ele>301.0</ele><time>2026-04-23T14:16:08.941Z</time></trkpt><trkpt lat="45.9122983" lon="4.6440133"><ele>301.0</ele><time>2026-04-23T14:16:09.941Z</time></trkpt><trkpt lat="45.9123383" lon="4.64392"><ele>301.0</ele><time>2026-04-23T14:16:10.942Z</time></trkpt><trkpt lat="45.9123833" lon="4.6438217"><ele>301.0</ele><time>2026-04-23T14:16:11.942Z</time></trkpt><trkpt lat="45.91243" lon="4.6437167"><ele>301.0</ele><time>2026-04-23T14:16:12.942Z</time></trkpt><trkpt lat="45.912475" lon="4.6436083"><ele>301.0</ele><time>2026-04-23T14:16:13.942Z</time></trkpt><trkpt lat="45.91252" lon="4.6435017"><ele>301.0</ele><time>2026-04-23T14:16:14.942Z</time></trkpt><trkpt lat="45.9125617" lon="4.6434067"><ele>301.0</ele><time>2026-04-23T14:16:15.941Z</time></trkpt><trkpt lat="45.912605" lon="4.6433033"><ele>301.0</ele><time>2026-04-23T14:16:16.941Z</time></trkpt><trkpt lat="45.9126517" lon="4.64321"><ele>301.0</ele><time>2026-04-23T14:16:17.941Z</time></trkpt><trkpt lat="45.9126833" lon="4.6431317"><ele>301.66666666666663</ele><time>2026-04-23T14:16:18.942Z</time></trkpt><trkpt lat="45.9127233" lon="4.643045"><ele>302.3333333333333</ele><time>2026-04-23T14:16:19.941Z</time></trkpt><trkpt lat="45.912765" lon="4.6429483"><ele>303.0</ele><time>2026-04-23T14:16:20.942Z</time></trkpt><trkpt lat="45.9128083" lon="4.6428483"><ele>303.6666666666667</ele><time>2026-04-23T14:16:21.941Z</time></trkpt><trkpt lat="45.9128533" lon="4.642755"><ele>304.33333333333337</ele><time>2026-04-23T14:16:22.941Z</time></trkpt><trkpt lat="45.9129033" lon="4.6426367"><ele>305.0</ele><time>2026-04-23T14:16:24.941Z</time></trkpt><trkpt lat="45.9129533" lon="4.642535"><ele>305.33333333333337</ele><time>2026-04-23T14:16:26.942Z</time></trkpt><trkpt lat="45.9130267" lon="4.6423833"><ele>305.6666666666667</ele><time>2026-04-23T14:16:28.942Z</time></trkpt><trkpt lat="45.9130683" lon="4.6423067"><ele>306.0</ele><time>2026-04-23T14:16:29.942Z</time></trkpt><trkpt lat="45.9131067" lon="4.6422233"><ele>306.3333333333333</ele><time>2026-04-23T14:16:30.941Z</time></trkpt><trkpt lat="45.9131417" lon="4.6421317"><ele>306.66666666666663</ele><time>2026-04-23T14:16:31.942Z</time></trkpt><trkpt lat="45.913175" lon="4.6420367"><ele>307.0</ele><time>2026-04-23T14:16:32.941Z</time></trkpt><trkpt lat="45.9132133" lon="4.6419517"><ele>306.66666666666663</ele><time>2026-04-23T14:16:33.941Z</time></trkpt><trkpt lat="45.913245" lon="4.64187"><ele>306.3333333333333</ele><time>2026-04-23T14:16:34.942Z</time></trkpt><trkpt lat="45.9132783" lon="4.641785"><ele>306.0</ele><time>2026-04-23T14:16:35.942Z</time></trkpt><trkpt lat="45.913315" lon="4.6416817"><ele>305.6666666666667</ele><time>2026-04-23T14:16:36.941Z</time></trkpt><trkpt lat="45.9133533" lon="4.6415733"><ele>305.33333333333337</ele><time>2026-04-23T14:16:37.941Z</time></trkpt><trkpt lat="45.91339" lon="4.6414667"><ele>305.0</ele><time>2026-04-23T14:16:38.941Z</time></trkpt><trkpt lat="45.9134317" lon="4.6413517"><ele>305.0</ele><time>2026-04-23T14:16:39.941Z</time></trkpt><trkpt lat="45.91347" lon="4.64124"><ele>305.0</ele><time>2026-04-23T14:16:40.942Z</time></trkpt><trkpt lat="45.9135167" lon="4.6411183"><ele>305.0</ele><time>2026-04-23T14:16:41.941Z</time></trkpt><trkpt lat="45.9135617" lon="4.64099"><ele>305.0</ele><time>2026-04-23T14:16:42.941Z</time></trkpt><trkpt lat="45.9136017" lon="4.640855"><ele>305.0</ele><time>2026-04-23T14:16:43.941Z</time></trkpt><trkpt lat="45.9136467" lon="4.6407367"><ele>305.4</ele><time>2026-04-23T14:16:44.942Z</time></trkpt><trkpt lat="45.9136933" lon="4.64061"><ele>305.8</ele><time>2026-04-23T14:16:45.941Z</time></trkpt><trkpt lat="45.9137467" lon="4.64047"><ele>306.2</ele><time>2026-04-23T14:16:46.941Z</time></trkpt><trkpt lat="45.9138" lon="4.640325"><ele>306.6</ele><time>2026-04-23T14:16:47.941Z</time></trkpt><trkpt lat="45.91385" lon="4.64017"><ele>307.0</ele><time>2026-04-23T14:16:48.942Z</time></trkpt><trkpt lat="45.9138983" lon="4.6400367"><ele>307.0</ele><time>2026-04-23T14:16:49.942Z</time></trkpt><trkpt lat="45.913935" lon="4.6399417"><ele>307.0</ele><time>2026-04-23T14:16:50.942Z</time></trkpt><trkpt lat="45.913975" lon="4.6398367"><ele>307.0</ele><time>2026-04-23T14:16:51.942Z</time></trkpt><trkpt lat="45.9140083" lon="4.6397167"><ele>307.0</ele><time>2026-04-23T14:16:52.942Z</time></trkpt><trkpt lat="45.9140467" lon="4.6396017"><ele>307.0</ele><time>2026-04-23T14:16:53.942Z</time></trkpt><trkpt lat="45.9140833" lon="4.639505"><ele>307.0</ele><time>2026-04-23T14:16:54.941Z</time></trkpt><trkpt lat="45.9141183" lon="4.6394133"><ele>307.0</ele><time>2026-04-23T14:16:55.942Z</time></trkpt><trkpt lat="45.91417" lon="4.6393267"><ele>307.0</ele><time>2026-04-23T14:16:56.941Z</time></trkpt><trkpt lat="45.914235" lon="4.6392333"><ele>307.0</ele><time>2026-04-23T14:16:57.941Z</time></trkpt><trkpt lat="45.91432" lon="4.6391317"><ele>307.0</ele><time>2026-04-23T14:16:58.941Z</time></trkpt><trkpt lat="45.91441" lon="4.63902"><ele>307.0</ele><time>2026-04-23T14:16:59.941Z</time></trkpt><trkpt lat="45.9145033" lon="4.6389033"><ele>308.25</ele><time>2026-04-23T14:17:00.941Z</time></trkpt><trkpt lat="45.914595" lon="4.638795"><ele>309.5</ele><time>2026-04-23T14:17:01.941Z</time></trkpt><trkpt lat="45.91468" lon="4.63869"><ele>310.75</ele><time>2026-04-23T14:17:02.941Z</time></trkpt><trkpt lat="45.9147767" lon="4.638575"><ele>312.0</ele><time>2026-04-23T14:17:03.941Z</time></trkpt><trkpt lat="45.9148733" lon="4.638455"><ele>312.0</ele><time>2026-04-23T14:17:04.941Z</time></trkpt><trkpt lat="45.9149667" lon="4.63834"><ele>312.0</ele><time>2026-04-23T14:17:05.942Z</time></trkpt><trkpt lat="45.915045" lon="4.6382367"><ele>312.0</ele><time>2026-04-23T14:17:06.942Z</time></trkpt><trkpt lat="45.9151233" lon="4.63814"><ele>312.0</ele><time>2026-04-23T14:17:08.941Z</time></trkpt><trkpt lat="45.9152133" lon="4.6380183"><ele>312.8</ele><time>2026-04-23T14:17:10.942Z</time></trkpt><trkpt lat="45.9152633" lon="4.6379617"><ele>313.6</ele><time>2026-04-23T14:17:11.942Z</time></trkpt><trkpt lat="45.9153433" lon="4.6378567"><ele>314.40000000000003</ele><time>2026-04-23T14:17:13.942Z</time></trkpt><trkpt lat="45.9153717" lon="4.6377417"><ele>315.2</ele><time>2026-04-23T14:17:15.941Z</time></trkpt><trkpt lat="45.9153367" lon="4.637555"><ele>316.0</ele><time>2026-04-23T14:17:17.942Z</time></trkpt><trkpt lat="45.91528" lon="4.6374233"><ele>316.2</ele><time>2026-04-23T14:17:18.942Z</time></trkpt><trkpt lat="45.9152183" lon="4.6372883"><ele>316.40000000000003</ele><time>2026-04-23T14:17:19.941Z</time></trkpt><trkpt lat="45.9151617" lon="4.6371667"><ele>316.6</ele><time>2026-04-23T14:17:20.941Z</time></trkpt><trkpt lat="45.915105" lon="4.637055"><ele>316.8</ele><time>2026-04-23T14:17:21.941Z</time></trkpt><trkpt lat="45.91506" lon="4.63695"><ele>317.0</ele><time>2026-04-23T14:17:22.941Z</time></trkpt><trkpt lat="45.9150117" lon="4.6368617"><ele>316.2</ele><time>2026-04-23T14:17:23.941Z</time></trkpt><trkpt lat="45.9149567" lon="4.636785"><ele>315.4</ele><time>2026-04-23T14:17:24.941Z</time></trkpt><trkpt lat="45.914885" lon="4.6367333"><ele>314.6</ele><time>2026-04-23T14:17:25.942Z</time></trkpt><trkpt lat="45.91478" lon="4.6367"><ele>313.8</ele><time>2026-04-23T14:17:26.941Z</time></trkpt><trkpt lat="45.9146533" lon="4.6366817"><ele>313.0</ele><time>2026-04-23T14:17:27.942Z</time></trkpt><trkpt lat="45.914505" lon="4.63666"><ele>313.0</ele><time>2026-04-23T14:17:28.941Z</time></trkpt><trkpt lat="45.9143517" lon="4.6366367"><ele>313.0</ele><time>2026-04-23T14:17:29.941Z</time></trkpt><trkpt lat="45.9141967" lon="4.6365983"><ele>313.0</ele><time>2026-04-23T14:17:30.942Z</time></trkpt><trkpt lat="45.9140533" lon="4.636565"><ele>313.0</ele><time>2026-04-23T14:17:31.942Z</time></trkpt><trkpt lat="45.9139183" lon="4.636535"><ele>313.0</ele><time>2026-04-23T14:17:32.941Z</time></trkpt><trkpt lat="45.913805" lon="4.636505"><ele>313.0</ele><time>2026-04-23T14:17:33.942Z</time></trkpt><trkpt lat="45.9137083" lon="4.6364767"><ele>313.0</ele><time>2026-04-23T14:17:34.941Z</time></trkpt><trkpt lat="45.9136117" lon="4.63646"><ele>313.0</ele><time>2026-04-23T14:17:35.942Z</time></trkpt><trkpt lat="45.9135017" lon="4.6364333"><ele>313.2</ele><time>2026-04-23T14:17:36.941Z</time></trkpt><trkpt lat="45.9133917" lon="4.6364017"><ele>313.4</ele><time>2026-04-23T14:17:37.941Z</time></trkpt><trkpt lat="45.913285" lon="4.6363683"><ele>313.59999999999997</ele><time>2026-04-23T14:17:38.942Z</time></trkpt><trkpt lat="45.9131833" lon="4.6363417"><ele>313.8</ele><time>2026-04-23T14:17:39.941Z</time></trkpt><trkpt lat="45.9130883" lon="4.6363117"><ele>314.0</ele><time>2026-04-23T14:17:40.942Z</time></trkpt><trkpt lat="45.9129983" lon="4.6362783"><ele>314.0</ele><time>2026-04-23T14:17:41.942Z</time></trkpt><trkpt lat="45.9129117" lon="4.6362483"><ele>314.0</ele><time>2026-04-23T14:17:42.941Z</time></trkpt><trkpt lat="45.912835" lon="4.6362267"><ele>314.0</ele><time>2026-04-23T14:17:43.941Z</time></trkpt><trkpt lat="45.9127717" lon="4.6361933"><ele>314.0</ele><time>2026-04-23T14:17:44.942Z</time></trkpt><trkpt lat="45.91269" lon="4.636105"><ele>314.0</ele><time>2026-04-23T14:17:46.941Z</time></trkpt><trkpt lat="45.9126017" lon="4.636085"><ele>314.0</ele><time>2026-04-23T14:17:48.941Z</time></trkpt><trkpt lat="45.9125417" lon="4.6361517"><ele>314.0</ele><time>2026-04-23T14:17:50.941Z</time></trkpt><trkpt lat="45.9124583" lon="4.6362883"><ele>314.0</ele><time>2026-04-23T14:17:52.942Z</time></trkpt><trkpt lat="45.9123983" lon="4.636355"><ele>314.0</ele><time>2026-04-23T14:17:53.941Z</time></trkpt><trkpt lat="45.9123133" lon="4.63645"><ele>314.0</ele><time>2026-04-23T14:17:55.942Z</time></trkpt><trkpt lat="45.912255" lon="4.636505"><ele>314.0</ele><time>2026-04-23T14:17:57.941Z</time></trkpt><trkpt lat="45.9121783" lon="4.6365567"><ele>314.0</ele><time>2026-04-23T14:17:59.942Z</time></trkpt><trkpt lat="45.9121033" lon="4.6366033"><ele>314.0</ele><time>2026-04-23T14:18:01.942Z</time></trkpt><trkpt lat="45.91201" lon="4.63663"><ele>314.0</ele><time>2026-04-23T14:18:03.941Z</time></trkpt><trkpt lat="45.9119483" lon="4.63666"><ele>314.0</ele><time>2026-04-23T14:18:04.941Z</time></trkpt><trkpt lat="45.9118717" lon="4.636685"><ele>314.0</ele><time>2026-04-23T14:18:05.942Z</time></trkpt><trkpt lat="45.9117983" lon="4.6366983"><ele>314.0</ele><time>2026-04-23T14:18:06.941Z</time></trkpt><trkpt lat="45.911725" lon="4.6367167"><ele>313.5</ele><time>2026-04-23T14:18:07.941Z</time></trkpt><trkpt lat="45.9116617" lon="4.63673"><ele>313.0</ele><time>2026-04-23T14:18:08.942Z</time></trkpt><trkpt lat="45.9115317" lon="4.63677"><ele>312.5</ele><time>2026-04-23T14:18:10.941Z</time></trkpt><trkpt lat="45.9114533" lon="4.6368"><ele>312.0</ele><time>2026-04-23T14:18:11.941Z</time></trkpt><trkpt lat="45.91138" lon="4.6368283"><ele>311.5</ele><time>2026-04-23T14:18:12.942Z</time></trkpt><trkpt lat="45.9113083" lon="4.6368617"><ele>311.0</ele><time>2026-04-23T14:18:13.942Z</time></trkpt><trkpt lat="45.9112283" lon="4.6368967"><ele>311.0</ele><time>2026-04-23T14:18:14.941Z</time></trkpt><trkpt lat="45.9111467" lon="4.6369267"><ele>311.0</ele><time>2026-04-23T14:18:15.942Z</time></trkpt><trkpt lat="45.9110817" lon="4.636955"><ele>311.0</ele><time>2026-04-23T14:18:16.941Z</time></trkpt><trkpt lat="45.9109683" lon="4.637005"><ele>311.0</ele><time>2026-04-23T14:18:18.941Z</time></trkpt><trkpt lat="45.910905" lon="4.6370417"><ele>311.0</ele><time>2026-04-23T14:18:19.941Z</time></trkpt><trkpt lat="45.91084" lon="4.637095"><ele>311.0</ele><time>2026-04-23T14:18:20.941Z</time></trkpt><trkpt lat="45.910785" lon="4.6371533"><ele>311.2857142857143</ele><time>2026-04-23T14:18:21.941Z</time></trkpt><trkpt lat="45.9107333" lon="4.637225"><ele>311.5714285714286</ele><time>2026-04-23T14:18:22.941Z</time></trkpt><trkpt lat="45.9106867" lon="4.6373"><ele>311.8571428571429</ele><time>2026-04-23T14:18:23.942Z</time></trkpt><trkpt lat="45.9106367" lon="4.637375"><ele>312.1428571428571</ele><time>2026-04-23T14:18:24.941Z</time></trkpt><trkpt lat="45.9105867" lon="4.637455"><ele>312.42857142857144</ele><time>2026-04-23T14:18:25.941Z</time></trkpt><trkpt lat="45.91054" lon="4.63752"><ele>312.7142857142857</ele><time>2026-04-23T14:18:26.942Z</time></trkpt><trkpt lat="45.9104833" lon="4.6376067"><ele>313.0</ele><time>2026-04-23T14:18:27.941Z</time></trkpt><trkpt lat="45.9104417" lon="4.6376883"><ele>313.0</ele><time>2026-04-23T14:18:28.942Z</time></trkpt><trkpt lat="45.9103867" lon="4.637785"><ele>313.0</ele><time>2026-04-23T14:18:29.942Z</time></trkpt><trkpt lat="45.9103383" lon="4.63788"><ele>313.0</ele><time>2026-04-23T14:18:30.942Z</time></trkpt><trkpt lat="45.9102917" lon="4.63795"><ele>313.0</ele><time>2026-04-23T14:18:31.941Z</time></trkpt><trkpt lat="45.9101883" lon="4.638045"><ele>313.0</ele><time>2026-04-23T14:18:33.942Z</time></trkpt><trkpt lat="45.9101233" lon="4.6380783"><ele>313.0</ele><time>2026-04-23T14:18:34.942Z</time></trkpt><trkpt lat="45.9100417" lon="4.6381133"><ele>313.0</ele><time>2026-04-23T14:18:35.942Z</time></trkpt><trkpt lat="45.9099533" lon="4.6381433"><ele>313.0</ele><time>2026-04-23T14:18:36.941Z</time></trkpt><trkpt lat="45.9098667" lon="4.638175"><ele>313.0</ele><time>2026-04-23T14:18:37.941Z</time></trkpt><trkpt lat="45.9097917" lon="4.638215"><ele>313.0</ele><time>2026-04-23T14:18:38.942Z</time></trkpt><trkpt lat="45.9097133" lon="4.6382683"><ele>313.0</ele><time>2026-04-23T14:18:39.941Z</time></trkpt><trkpt lat="45.909645" lon="4.6383183"><ele>313.0</ele><time>2026-04-23T14:18:40.942Z</time></trkpt><trkpt lat="45.909565" lon="4.638365"><ele>313.0</ele><time>2026-04-23T14:18:41.942Z</time></trkpt><trkpt lat="45.9094833" lon="4.6383983"><ele>313.0</ele><time>2026-04-23T14:18:42.942Z</time></trkpt><trkpt lat="45.9094017" lon="4.6384283"><ele>313.0</ele><time>2026-04-23T14:18:43.941Z</time></trkpt><trkpt lat="45.9093217" lon="4.6384583"><ele>313.0</ele><time>2026-04-23T14:18:44.941Z</time></trkpt><trkpt lat="45.9092367" lon="4.6384733"><ele>313.0</ele><time>2026-04-23T14:18:45.942Z</time></trkpt><trkpt lat="45.909155" lon="4.6384817"><ele>313.0</ele><time>2026-04-23T14:18:46.941Z</time></trkpt><trkpt lat="45.9090683" lon="4.6384833"><ele>313.0</ele><time>2026-04-23T14:18:47.941Z</time></trkpt><trkpt lat="45.9089867" lon="4.63849"><ele>313.0</ele><time>2026-04-23T14:18:48.942Z</time></trkpt><trkpt lat="45.9089133" lon="4.638515"><ele>313.0</ele><time>2026-04-23T14:18:49.941Z</time></trkpt><trkpt lat="45.9088" lon="4.6385767"><ele>313.0</ele><time>2026-04-23T14:18:51.941Z</time></trkpt><trkpt lat="45.9087233" lon="4.6386133"><ele>313.0</ele><time>2026-04-23T14:18:53.942Z</time></trkpt><trkpt lat="45.90865" lon="4.6386767"><ele>313.0</ele><time>2026-04-23T14:18:56.942Z</time></trkpt><trkpt lat="45.9085717" lon="4.6387667"><ele>313.0</ele><time>2026-04-23T14:18:58.941Z</time></trkpt><trkpt lat="45.90851" lon="4.6388167"><ele>313.0</ele><time>2026-04-23T14:18:59.942Z</time></trkpt><trkpt lat="45.908405" lon="4.6388733"><ele>313.0</ele><time>2026-04-23T14:19:01.941Z</time></trkpt><trkpt lat="45.9082933" lon="4.638905"><ele>313.0</ele><time>2026-04-23T14:19:03.942Z</time></trkpt><trkpt lat="45.9081883" lon="4.638915"><ele>313.0</ele><time>2026-04-23T14:19:05.941Z</time></trkpt><trkpt lat="45.9080917" lon="4.6389017"><ele>312.66666666666663</ele><time>2026-04-23T14:19:07.941Z</time></trkpt><trkpt lat="45.90798" lon="4.6388717"><ele>312.3333333333333</ele><time>2026-04-23T14:19:09.941Z</time></trkpt><trkpt lat="45.9078867" lon="4.63888"><ele>312.0</ele><time>2026-04-23T14:19:11.942Z</time></trkpt><trkpt lat="45.9078217" lon="4.6389117"><ele>311.6666666666667</ele><time>2026-04-23T14:19:13.942Z</time></trkpt><trkpt lat="45.907765" lon="4.6389783"><ele>311.33333333333337</ele><time>2026-04-23T14:19:15.941Z</time></trkpt><trkpt lat="45.9077333" lon="4.6390833"><ele>311.0</ele><time>2026-04-23T14:19:17.941Z</time></trkpt><trkpt lat="45.9076917" lon="4.6391583"><ele>311.0</ele><time>2026-04-23T14:19:19.941Z</time></trkpt><trkpt lat="45.9076167" lon="4.63927"><ele>311.0</ele><time>2026-04-23T14:19:21.941Z</time></trkpt><trkpt lat="45.9075333" lon="4.6393633"><ele>311.0</ele><time>2026-04-23T14:19:23.941Z</time></trkpt><trkpt lat="45.9074817" lon="4.6394217"><ele>311.0</ele><time>2026-04-23T14:19:24.941Z</time></trkpt><trkpt lat="45.9074267" lon="4.63948"><ele>311.0</ele><time>2026-04-23T14:19:25.941Z</time></trkpt><trkpt lat="45.9073683" lon="4.6395517"><ele>311.0</ele><time>2026-04-23T14:19:26.941Z</time></trkpt><trkpt lat="45.907295" lon="4.63965"><ele>310.5</ele><time>2026-04-23T14:19:28.942Z</time></trkpt><trkpt lat="45.9072367" lon="4.639765"><ele>310.0</ele><time>2026-04-23T14:19:30.942Z</time></trkpt><trkpt lat="45.907205" lon="4.63986"><ele>309.5</ele><time>2026-04-23T14:19:31.941Z</time></trkpt><trkpt lat="45.9071833" lon="4.6399517"><ele>309.0</ele><time>2026-04-23T14:19:32.941Z</time></trkpt><trkpt lat="45.907155" lon="4.64005"><ele>308.5</ele><time>2026-04-23T14:19:33.942Z</time></trkpt><trkpt lat="45.9071267" lon="4.6401467"><ele>308.0</ele><time>2026-04-23T14:19:34.942Z</time></trkpt><trkpt lat="45.9070917" lon="4.6402633"><ele>307.8</ele><time>2026-04-23T14:19:35.942Z</time></trkpt><trkpt lat="45.9070617" lon="4.6403717"><ele>307.6</ele><time>2026-04-23T14:19:36.942Z</time></trkpt><trkpt lat="45.9070283" lon="4.6404633"><ele>307.4</ele><time>2026-04-23T14:19:37.942Z</time></trkpt><trkpt lat="45.9069717" lon="4.6405967"><ele>307.2</ele><time>2026-04-23T14:19:39.941Z</time></trkpt><trkpt lat="45.9069067" lon="4.64073"><ele>307.0</ele><time>2026-04-23T14:19:41.941Z</time></trkpt><trkpt lat="45.9068467" lon="4.6408567"><ele>307.0</ele><time>2026-04-23T14:19:43.941Z</time></trkpt><trkpt lat="45.906785" lon="4.6409783"><ele>307.0</ele><time>2026-04-23T14:19:45.941Z</time></trkpt><trkpt lat="45.9067217" lon="4.6411117"><ele>307.0</ele><time>2026-04-23T14:19:47.942Z</time></trkpt><trkpt lat="45.9066717" lon="4.6412167"><ele>307.0</ele><time>2026-04-23T14:19:48.941Z</time></trkpt><trkpt lat="45.9066267" lon="4.64133"><ele>307.0</ele><time>2026-04-23T14:19:49.942Z</time></trkpt><trkpt lat="45.9065917" lon="4.6414383"><ele>306.66666666666663</ele><time>2026-04-23T14:19:50.941Z</time></trkpt><trkpt lat="45.90657" lon="4.6415333"><ele>306.3333333333333</ele><time>2026-04-23T14:19:51.941Z</time></trkpt><trkpt lat="45.9065367" lon="4.6416683"><ele>306.0</ele><time>2026-04-23T14:19:53.942Z</time></trkpt><trkpt lat="45.9065083" lon="4.6417517"><ele>305.6666666666667</ele><time>2026-04-23T14:19:55.942Z</time></trkpt><trkpt lat="45.9064833" lon="4.6418583"><ele>305.33333333333337</ele><time>2026-04-23T14:19:59.941Z</time></trkpt><trkpt lat="45.9064417" lon="4.6419817"><ele>305.0</ele><time>2026-04-23T14:20:02.941Z</time></trkpt><trkpt lat="45.906415" lon="4.6420917"><ele>305.0</ele><time>2026-04-23T14:20:04.942Z</time></trkpt><trkpt lat="45.9064033" lon="4.6422017"><ele>305.0</ele><time>2026-04-23T14:20:06.941Z</time></trkpt><trkpt lat="45.9064017" lon="4.64233"><ele>305.0</ele><time>2026-04-23T14:20:08.941Z</time></trkpt><trkpt lat="45.906455" lon="4.6424467"><ele>305.0</ele><time>2026-04-23T14:20:10.942Z</time></trkpt><trkpt lat="45.9065167" lon="4.642555"><ele>305.0</ele><time>2026-04-23T14:20:12.941Z</time></trkpt><trkpt lat="45.9065717" lon="4.6426967"><ele>305.0</ele><time>2026-04-23T14:20:14.941Z</time></trkpt><trkpt lat="45.9066" lon="4.6427867"><ele>305.0</ele><time>2026-04-23T14:20:15.942Z</time></trkpt><trkpt lat="45.9066517" lon="4.6429367"><ele>305.0</ele><time>2026-04-23T14:20:17.941Z</time></trkpt><trkpt lat="45.90669" lon="4.6430217"><ele>305.0</ele><time>2026-04-23T14:20:18.942Z</time></trkpt><trkpt lat="45.9067333" lon="4.6430883"><ele>305.0</ele><time>2026-04-23T14:20:19.942Z</time></trkpt><trkpt lat="45.9068017" lon="4.64322"><ele>305.0</ele><time>2026-04-23T14:20:21.941Z</time></trkpt><trkpt lat="45.906855" lon="4.64334"><ele>303.6</ele><time>2026-04-23T14:20:23.942Z</time></trkpt><trkpt lat="45.9069" lon="4.6434733"><ele>302.2</ele><time>2026-04-23T14:20:25.942Z</time></trkpt><trkpt lat="45.9069083" lon="4.6436317"><ele>300.8</ele><time>2026-04-23T14:20:27.942Z</time></trkpt><trkpt lat="45.9068717" lon="4.6437817"><ele>299.4</ele><time>2026-04-23T14:20:29.941Z</time></trkpt><trkpt lat="45.9068583" lon="4.64395"><ele>298.0</ele><time>2026-04-23T14:20:31.942Z</time></trkpt><trkpt lat="45.9068683" lon="4.6440883"><ele>297.5</ele><time>2026-04-23T14:20:33.942Z</time></trkpt><trkpt lat="45.9069033" lon="4.644255"><ele>297.0</ele><time>2026-04-23T14:20:35.942Z</time></trkpt><trkpt lat="45.906925" lon="4.6443483"><ele>296.5</ele><time>2026-04-23T14:20:36.941Z</time></trkpt><trkpt lat="45.90695" lon="4.6444317"><ele>296.0</ele><time>2026-04-23T14:20:37.942Z</time></trkpt><trkpt lat="45.9069633" lon="4.6445817"><ele>295.5</ele><time>2026-04-23T14:20:39.941Z</time></trkpt><trkpt lat="45.9069333" lon="4.644685"><ele>295.0</ele><time>2026-04-23T14:20:41.941Z</time></trkpt><trkpt lat="45.9069083" lon="4.6448067"><ele>294.16666666666663</ele><time>2026-04-23T14:20:43.941Z</time></trkpt><trkpt lat="45.906875" lon="4.6449017"><ele>293.3333333333333</ele><time>2026-04-23T14:20:45.941Z</time></trkpt><trkpt lat="45.9068367" lon="4.644995"><ele>292.5</ele><time>2026-04-23T14:20:48.941Z</time></trkpt><trkpt lat="45.9067933" lon="4.6451"><ele>291.6666666666667</ele><time>2026-04-23T14:20:51.942Z</time></trkpt><trkpt lat="45.90675" lon="4.6451717"><ele>290.83333333333337</ele><time>2026-04-23T14:20:53.942Z</time></trkpt><trkpt lat="45.9067083" lon="4.6452783"><ele>290.0</ele><time>2026-04-23T14:20:56.942Z</time></trkpt><trkpt lat="45.9067" lon="4.6453983"><ele>289.33333333333337</ele><time>2026-04-23T14:20:58.941Z</time></trkpt><trkpt lat="45.90667" lon="4.64553"><ele>288.6666666666667</ele><time>2026-04-23T14:21:00.942Z</time></trkpt><trkpt lat="45.9066283" lon="4.645635"><ele>288.0</ele><time>2026-04-23T14:21:02.942Z</time></trkpt><trkpt lat="45.9065917" lon="4.6457133"><ele>287.3333333333333</ele><time>2026-04-23T14:21:04.941Z</time></trkpt><trkpt lat="45.9065583" lon="4.6457917"><ele>286.66666666666663</ele><time>2026-04-23T14:21:06.941Z</time></trkpt><trkpt lat="45.9065233" lon="4.6458817"><ele>286.0</ele><time>2026-04-23T14:21:08.941Z</time></trkpt><trkpt lat="45.9064917" lon="4.64597"><ele>286.0</ele><time>2026-04-23T14:21:10.941Z</time></trkpt><trkpt lat="45.906455" lon="4.6460783"><ele>286.0</ele><time>2026-04-23T14:21:12.941Z</time></trkpt><trkpt lat="45.9064217" lon="4.6461817"><ele>286.0</ele><time>2026-04-23T14:21:14.941Z</time></trkpt><trkpt lat="45.9063733" lon="4.6462933"><ele>286.0</ele><time>2026-04-23T14:21:17.941Z</time></trkpt><trkpt lat="45.9063317" lon="4.6463867"><ele>286.0</ele><time>2026-04-23T14:21:20.941Z</time></trkpt><trkpt lat="45.9062817" lon="4.6464433"><ele>286.0</ele><time>2026-04-23T14:21:22.942Z</time></trkpt><trkpt lat="45.9062183" lon="4.6464883"><ele>285.5</ele><time>2026-04-23T14:21:24.942Z</time></trkpt><trkpt lat="45.90616" lon="4.646535"><ele>285.0</ele><time>2026-04-23T14:21:26.941Z</time></trkpt><trkpt lat="45.9060933" lon="4.6466083"><ele>284.5</ele><time>2026-04-23T14:21:28.942Z</time></trkpt><trkpt lat="45.9060167" lon="4.64668"><ele>284.0</ele><time>2026-04-23T14:21:30.941Z</time></trkpt><trkpt lat="45.9059433" lon="4.6467467"><ele>283.5</ele><time>2026-04-23T14:21:32.942Z</time></trkpt><trkpt lat="45.90588" lon="4.6467967"><ele>283.0</ele><time>2026-04-23T14:21:34.941Z</time></trkpt><trkpt lat="45.9057917" lon="4.6468283"><ele>282.3333333333333</ele><time>2026-04-23T14:21:37.941Z</time></trkpt><trkpt lat="45.9057267" lon="4.646855"><ele>281.66666666666663</ele><time>2026-04-23T14:21:39.941Z</time></trkpt><trkpt lat="45.9056467" lon="4.6468717"><ele>281.0</ele><time>2026-04-23T14:21:41.941Z</time></trkpt><trkpt lat="45.90557" lon="4.6469133"><ele>280.3333333333333</ele><time>2026-04-23T14:21:43.941Z</time></trkpt><trkpt lat="45.905485" lon="4.6469367"><ele>279.6666666666667</ele><time>2026-04-23T14:21:46.941Z</time></trkpt><trkpt lat="45.9053933" lon="4.6469467"><ele>279.0</ele><time>2026-04-23T14:21:48.941Z</time></trkpt><trkpt lat="45.9052817" lon="4.6469533"><ele>279.0</ele><time>2026-04-23T14:21:50.942Z</time></trkpt><trkpt lat="45.9052167" lon="4.6469617"><ele>279.0</ele><time>2026-04-23T14:21:51.941Z</time></trkpt><trkpt lat="45.905095" lon="4.64696"><ele>279.0</ele><time>2026-04-23T14:21:53.941Z</time></trkpt><trkpt lat="45.9049917" lon="4.6469683"><ele>279.0</ele><time>2026-04-23T14:21:55.941Z</time></trkpt><trkpt lat="45.9049167" lon="4.6469817"><ele>279.0</ele><time>2026-04-23T14:21:57.942Z</time></trkpt><trkpt lat="45.9048433" lon="4.646995"><ele>279.0</ele><time>2026-04-23T14:22:00.941Z</time></trkpt><trkpt lat="45.9047517" lon="4.6470633"><ele>276.8333333333333</ele><time>2026-04-23T14:22:03.941Z</time></trkpt><trkpt lat="45.90467" lon="4.64712"><ele>274.6666666666667</ele><time>2026-04-23T14:22:05.941Z</time></trkpt><trkpt lat="45.9045917" lon="4.6471617"><ele>272.5</ele><time>2026-04-23T14:22:07.942Z</time></trkpt><trkpt lat="45.904505" lon="4.6472017"><ele>270.33333333333337</ele><time>2026-04-23T14:22:09.942Z</time></trkpt><trkpt lat="45.904415" lon="4.6472517"><ele>268.1666666666667</ele><time>2026-04-23T14:22:11.941Z</time></trkpt><trkpt lat="45.9043533" lon="4.6472917"><ele>266.0</ele><time>2026-04-23T14:22:13.941Z</time></trkpt><trkpt lat="45.90428" lon="4.6473333"><ele>265.14285714285717</ele><time>2026-04-23T14:22:16.941Z</time></trkpt><trkpt lat="45.9042033" lon="4.6473767"><ele>264.2857142857143</ele><time>2026-04-23T14:22:19.941Z</time></trkpt><trkpt lat="45.904125" lon="4.6474017"><ele>263.42857142857144</ele><time>2026-04-23T14:22:22.942Z</time></trkpt><trkpt lat="45.9040633" lon="4.6474217"><ele>262.57142857142856</ele><time>2026-04-23T14:22:24.941Z</time></trkpt><trkpt lat="45.9039983" lon="4.6474617"><ele>261.7142857142857</ele><time>2026-04-23T14:22:26.942Z</time></trkpt><trkpt lat="45.9039633" lon="4.64754"><ele>260.8571428571429</ele><time>2026-04-23T14:22:28.942Z</time></trkpt><trkpt lat="45.9039533" lon="4.6476483"><ele>260.0</ele><time>2026-04-23T14:22:30.941Z</time></trkpt><trkpt lat="45.903935" lon="4.6478"><ele>259.6666666666667</ele><time>2026-04-23T14:22:32.941Z</time></trkpt><trkpt lat="45.9039333" lon="4.6479"><ele>259.33333333333337</ele><time>2026-04-23T14:22:33.941Z</time></trkpt><trkpt lat="45.903925" lon="4.64802"><ele>259.0</ele><time>2026-04-23T14:22:34.942Z</time></trkpt><trkpt lat="45.9039183" lon="4.64814"><ele>258.6666666666667</ele><time>2026-04-23T14:22:35.941Z</time></trkpt><trkpt lat="45.903915" lon="4.6482317"><ele>258.3333333333333</ele><time>2026-04-23T14:22:36.941Z</time></trkpt><trkpt lat="45.9039017" lon="4.64838"><ele>258.0</ele><time>2026-04-23T14:22:38.941Z</time></trkpt><trkpt lat="45.9038733" lon="4.6485167"><ele>259.2</ele><time>2026-04-23T14:22:40.941Z</time></trkpt><trkpt lat="45.9038183" lon="4.6486383"><ele>260.4</ele><time>2026-04-23T14:22:42.942Z</time></trkpt><trkpt lat="45.9037917" lon="4.64874"><ele>261.59999999999997</ele><time>2026-04-23T14:22:45.942Z</time></trkpt><trkpt lat="45.903695" lon="4.648825"><ele>262.8</ele><time>2026-04-23T14:22:59.941Z</time></trkpt><trkpt lat="45.9036267" lon="4.6488283"><ele>264.0</ele><time>2026-04-23T14:23:00.941Z</time></trkpt><trkpt lat="45.9035283" lon="4.6488183"><ele>262.75</ele><time>2026-04-23T14:23:01.941Z</time></trkpt><trkpt lat="45.9034133" lon="4.6487917"><ele>261.5</ele><time>2026-04-23T14:23:02.941Z</time></trkpt><trkpt lat="45.9032967" lon="4.64877"><ele>260.25</ele><time>2026-04-23T14:23:03.942Z</time></trkpt><trkpt lat="45.90318" lon="4.648745"><ele>259.0</ele><time>2026-04-23T14:23:04.942Z</time></trkpt><trkpt lat="45.9030733" lon="4.6487267"><ele>259.0</ele><time>2026-04-23T14:23:05.942Z</time></trkpt><trkpt lat="45.9029817" lon="4.64871"><ele>259.0</ele><time>2026-04-23T14:23:06.941Z</time></trkpt><trkpt lat="45.9028883" lon="4.648695"><ele>259.0</ele><time>2026-04-23T14:23:07.942Z</time></trkpt><trkpt lat="45.902795" lon="4.6486833"><ele>259.0</ele><time>2026-04-23T14:23:08.941Z</time></trkpt><trkpt lat="45.9027033" lon="4.6486717"><ele>259.0</ele><time>2026-04-23T14:23:09.942Z</time></trkpt><trkpt lat="45.90261" lon="4.64865"><ele>259.66666666666663</ele><time>2026-04-23T14:23:10.942Z</time></trkpt><trkpt lat="45.90252" lon="4.6486267"><ele>260.3333333333333</ele><time>2026-04-23T14:23:11.941Z</time></trkpt><trkpt lat="45.9024317" lon="4.648605"><ele>261.0</ele><time>2026-04-23T14:23:12.942Z</time></trkpt><trkpt lat="45.90235" lon="4.648575"><ele>261.6666666666667</ele><time>2026-04-23T14:23:13.942Z</time></trkpt><trkpt lat="45.9022733" lon="4.6485433"><ele>262.33333333333337</ele><time>2026-04-23T14:23:14.942Z</time></trkpt><trkpt lat="45.9022033" lon="4.6484983"><ele>263.0</ele><time>2026-04-23T14:23:15.942Z</time></trkpt><trkpt lat="45.902135" lon="4.648455"><ele>261.1666666666667</ele><time>2026-04-23T14:23:16.941Z</time></trkpt><trkpt lat="45.9020783" lon="4.6484067"><ele>259.33333333333337</ele><time>2026-04-23T14:23:17.942Z</time></trkpt><trkpt lat="45.9020167" lon="4.6483317"><ele>257.5</ele><time>2026-04-23T14:23:18.942Z</time></trkpt><trkpt lat="45.9019667" lon="4.6482417"><ele>255.66666666666669</ele><time>2026-04-23T14:23:19.941Z</time></trkpt><trkpt lat="45.9019267" lon="4.648135"><ele>253.83333333333334</ele><time>2026-04-23T14:23:20.942Z</time></trkpt><trkpt lat="45.9019033" lon="4.6480183"><ele>252.0</ele><time>2026-04-23T14:23:21.941Z</time></trkpt><trkpt lat="45.9018983" lon="4.6479033"><ele>251.5</ele><time>2026-04-23T14:23:22.941Z</time></trkpt><trkpt lat="45.90191" lon="4.6477933"><ele>251.0</ele><time>2026-04-23T14:23:23.941Z</time></trkpt><trkpt lat="45.9019217" lon="4.6476783"><ele>250.5</ele><time>2026-04-23T14:23:24.942Z</time></trkpt><trkpt lat="45.9019317" lon="4.6475617"><ele>250.0</ele><time>2026-04-23T14:23:25.942Z</time></trkpt><trkpt lat="45.9019467" lon="4.6474567"><ele>249.5</ele><time>2026-04-23T14:23:26.941Z</time></trkpt><trkpt lat="45.9019583" lon="4.64736"><ele>249.0</ele><time>2026-04-23T14:23:27.941Z</time></trkpt><trkpt lat="45.9019867" lon="4.6471883"><ele>249.0</ele><time>2026-04-23T14:23:29.941Z</time></trkpt><trkpt lat="45.90202" lon="4.6470433"><ele>248.99999999999997</ele><time>2026-04-23T14:23:31.941Z</time></trkpt><trkpt lat="45.9020583" lon="4.6469433"><ele>248.99999999999997</ele><time>2026-04-23T14:23:34.941Z</time></trkpt><trkpt lat="45.9021033" lon="4.6468633"><ele>249.0</ele><time>2026-04-23T14:23:49.942Z</time></trkpt><trkpt lat="45.9021733" lon="4.6467317"><ele>249.0</ele><time>2026-04-23T14:23:51.941Z</time></trkpt><trkpt lat="45.902225" lon="4.6465933"><ele>249.33333333333334</ele><time>2026-04-23T14:23:53.941Z</time></trkpt><trkpt lat="45.90227" lon="4.646475"><ele>249.66666666666669</ele><time>2026-04-23T14:23:55.941Z</time></trkpt><trkpt lat="45.9023033" lon="4.6463683"><ele>250.0</ele><time>2026-04-23T14:23:57.941Z</time></trkpt><trkpt lat="45.9023483" lon="4.6462717"><ele>250.33333333333334</ele><time>2026-04-23T14:23:59.942Z</time></trkpt><trkpt lat="45.9023967" lon="4.6461567"><ele>250.66666666666669</ele><time>2026-04-23T14:24:01.941Z</time></trkpt><trkpt lat="45.90245" lon="4.6460467"><ele>251.0</ele><time>2026-04-23T14:24:03.941Z</time></trkpt><trkpt lat="45.9024883" lon="4.6459367"><ele>252.0</ele><time>2026-04-23T14:24:05.942Z</time></trkpt><trkpt lat="45.9025317" lon="4.64581"><ele>253.00000000000003</ele><time>2026-04-23T14:24:07.941Z</time></trkpt><trkpt lat="45.9025733" lon="4.6456633"><ele>254.00000000000003</ele><time>2026-04-23T14:24:09.942Z</time></trkpt><trkpt lat="45.9025967" lon="4.6455733"><ele>255.0</ele><time>2026-04-23T14:24:10.941Z</time></trkpt><trkpt lat="45.9026433" lon="4.6454317"><ele>256.0</ele><time>2026-04-23T14:24:12.941Z</time></trkpt><trkpt lat="45.9027" lon="4.64529"><ele>257.6</ele><time>2026-04-23T14:24:14.942Z</time></trkpt><trkpt lat="45.9027433" lon="4.64517"><ele>259.20000000000005</ele><time>2026-04-23T14:24:16.941Z</time></trkpt><trkpt lat="45.9027617" lon="4.6450467"><ele>260.79999999999995</ele><time>2026-04-23T14:24:18.941Z</time></trkpt><trkpt lat="45.9027267" lon="4.6449133"><ele>262.4</ele><time>2026-04-23T14:24:20.941Z</time></trkpt><trkpt lat="45.9026517" lon="4.6447867"><ele>264.0</ele><time>2026-04-23T14:24:22.941Z</time></trkpt><trkpt lat="45.9025617" lon="4.64467"><ele>264.59999999999997</ele><time>2026-04-23T14:24:24.941Z</time></trkpt><trkpt lat="45.902475" lon="4.644555"><ele>265.2</ele><time>2026-04-23T14:24:26.942Z</time></trkpt><trkpt lat="45.9024267" lon="4.6444967"><ele>265.79999999999995</ele><time>2026-04-23T14:24:27.941Z</time></trkpt><trkpt lat="45.9023367" lon="4.6443767"><ele>266.4</ele><time>2026-04-23T14:24:29.941Z</time></trkpt><trkpt lat="45.9022867" lon="4.6443167"><ele>267.0</ele><time>2026-04-23T14:24:30.942Z</time></trkpt><trkpt lat="45.9021933" lon="4.6442217"><ele>268.6</ele><time>2026-04-23T14:24:32.941Z</time></trkpt><trkpt lat="45.90212" lon="4.6441217"><ele>270.2</ele><time>2026-04-23T14:24:34.941Z</time></trkpt><trkpt lat="45.9020467" lon="4.6440183"><ele>271.8</ele><time>2026-04-23T14:24:36.941Z</time></trkpt><trkpt lat="45.90197" lon="4.6439117"><ele>273.4</ele><time>2026-04-23T14:24:38.942Z</time></trkpt><trkpt lat="45.9018867" lon="4.6437967"><ele>275.0</ele><time>2026-04-23T14:24:40.941Z</time></trkpt><trkpt lat="45.9018367" lon="4.6437367"><ele>275.0</ele><time>2026-04-23T14:24:41.942Z</time></trkpt><trkpt lat="45.9017867" lon="4.64368"><ele>275.0</ele><time>2026-04-23T14:24:42.942Z</time></trkpt><trkpt lat="45.901735" lon="4.6436167"><ele>275.0</ele><time>2026-04-23T14:24:43.941Z</time></trkpt><trkpt lat="45.9016867" lon="4.6435517"><ele>275.0</ele><time>2026-04-23T14:24:44.942Z</time></trkpt><trkpt lat="45.9016383" lon="4.6434933"><ele>275.0</ele><time>2026-04-23T14:24:45.941Z</time></trkpt><trkpt lat="45.9015467" lon="4.6434"><ele>275.0</ele><time>2026-04-23T14:24:47.942Z</time></trkpt><trkpt lat="45.9014767" lon="4.6433183"><ele>275.8</ele><time>2026-04-23T14:24:49.942Z</time></trkpt><trkpt lat="45.901415" lon="4.6432433"><ele>276.6</ele><time>2026-04-23T14:24:51.941Z</time></trkpt><trkpt lat="45.9013467" lon="4.6431733"><ele>277.4</ele><time>2026-04-23T14:24:53.941Z</time></trkpt><trkpt lat="45.9012783" lon="4.6430883"><ele>278.2</ele><time>2026-04-23T14:24:55.942Z</time></trkpt><trkpt lat="45.90119" lon="4.642995"><ele>279.0</ele><time>2026-04-23T14:24:57.941Z</time></trkpt><trkpt lat="45.90109" lon="4.6428667"><ele>279.59999999999997</ele><time>2026-04-23T14:24:59.941Z</time></trkpt><trkpt lat="45.9010033" lon="4.6427317"><ele>280.2</ele><time>2026-04-23T14:25:01.941Z</time></trkpt><trkpt lat="45.9009533" lon="4.6426667"><ele>280.79999999999995</ele><time>2026-04-23T14:25:02.941Z</time></trkpt><trkpt lat="45.900855" lon="4.64255"><ele>281.4</ele><time>2026-04-23T14:25:04.941Z</time></trkpt><trkpt lat="45.9008033" lon="4.6424833"><ele>282.0</ele><time>2026-04-23T14:25:05.942Z</time></trkpt><trkpt lat="45.9007467" lon="4.642415"><ele>282.8</ele><time>2026-04-23T14:25:06.941Z</time></trkpt><trkpt lat="45.900695" lon="4.64236"><ele>283.6</ele><time>2026-04-23T14:25:07.941Z</time></trkpt><trkpt lat="45.9006133" lon="4.6422583"><ele>284.40000000000003</ele><time>2026-04-23T14:25:09.941Z</time></trkpt><trkpt lat="45.9005583" lon="4.6421917"><ele>285.2</ele><time>2026-04-23T14:25:10.942Z</time></trkpt><trkpt lat="45.9004817" lon="4.642095"><ele>286.0</ele><time>2026-04-23T14:25:12.941Z</time></trkpt><trkpt lat="45.9003917" lon="4.641985"><ele>286.5</ele><time>2026-04-23T14:25:14.942Z</time></trkpt><trkpt lat="45.900315" lon="4.6418817"><ele>287.0</ele><time>2026-04-23T14:25:16.941Z</time></trkpt><trkpt lat="45.9002183" lon="4.64177"><ele>287.5</ele><time>2026-04-23T14:25:18.942Z</time></trkpt><trkpt lat="45.9001683" lon="4.6417067"><ele>288.0</ele><time>2026-04-23T14:25:19.941Z</time></trkpt><trkpt lat="45.9001183" lon="4.6416417"><ele>288.5</ele><time>2026-04-23T14:25:20.941Z</time></trkpt><trkpt lat="45.900055" lon="4.6415633"><ele>289.0</ele><time>2026-04-23T14:25:21.941Z</time></trkpt><trkpt lat="45.9000033" lon="4.6415017"><ele>289.14285714285717</ele><time>2026-04-23T14:25:22.941Z</time></trkpt><trkpt lat="45.8999433" lon="4.6414283"><ele>289.2857142857143</ele><time>2026-04-23T14:25:23.942Z</time></trkpt><trkpt lat="45.8998783" lon="4.6413517"><ele>289.42857142857144</ele><time>2026-04-23T14:25:24.942Z</time></trkpt><trkpt lat="45.8998267" lon="4.641285"><ele>289.57142857142856</ele><time>2026-04-23T14:25:25.942Z</time></trkpt><trkpt lat="45.8997733" lon="4.6412283"><ele>289.7142857142857</ele><time>2026-04-23T14:25:26.941Z</time></trkpt><trkpt lat="45.899725" lon="4.6411567"><ele>289.8571428571429</ele><time>2026-04-23T14:25:27.941Z</time></trkpt><trkpt lat="45.89967" lon="4.6411017"><ele>290.0</ele><time>2026-04-23T14:25:28.941Z</time></trkpt><trkpt lat="45.8996167" lon="4.6410417"><ele>290.0</ele><time>2026-04-23T14:25:29.942Z</time></trkpt><trkpt lat="45.8995367" lon="4.6409317"><ele>290.0</ele><time>2026-04-23T14:25:31.942Z</time></trkpt><trkpt lat="45.899465" lon="4.6408233"><ele>290.0</ele><time>2026-04-23T14:25:33.941Z</time></trkpt><trkpt lat="45.8994267" lon="4.640745"><ele>290.0</ele><time>2026-04-23T14:25:36.942Z</time></trkpt><trkpt lat="45.8994067" lon="4.640655"><ele>290.0</ele><time>2026-04-23T14:25:48.941Z</time></trkpt><trkpt lat="45.89939" lon="4.6404717"><ele>290.0</ele><time>2026-04-23T14:25:50.942Z</time></trkpt><trkpt lat="45.8993767" lon="4.640335"><ele>290.0</ele><time>2026-04-23T14:25:51.941Z</time></trkpt><trkpt lat="45.8993567" lon="4.6401783"><ele>290.0</ele><time>2026-04-23T14:25:52.941Z</time></trkpt><trkpt lat="45.899335" lon="4.6400083"><ele>290.0</ele><time>2026-04-23T14:25:53.942Z</time></trkpt><trkpt lat="45.899315" lon="4.6398533"><ele>290.0</ele><time>2026-04-23T14:25:54.941Z</time></trkpt><trkpt lat="45.8992933" lon="4.6396983"><ele>291.0</ele><time>2026-04-23T14:25:55.942Z</time></trkpt><trkpt lat="45.8992767" lon="4.6395433"><ele>292.0</ele><time>2026-04-23T14:25:56.942Z</time></trkpt><trkpt lat="45.8992517" lon="4.63938"><ele>293.0</ele><time>2026-04-23T14:25:57.942Z</time></trkpt><trkpt lat="45.89923" lon="4.6392"><ele>294.0</ele><time>2026-04-23T14:25:58.942Z</time></trkpt><trkpt lat="45.89921" lon="4.639025"><ele>294.8</ele><time>2026-04-23T14:25:59.941Z</time></trkpt><trkpt lat="45.899185" lon="4.6388533"><ele>295.59999999999997</ele><time>2026-04-23T14:26:00.941Z</time></trkpt><trkpt lat="45.8991617" lon="4.6386917"><ele>296.4</ele><time>2026-04-23T14:26:01.941Z</time></trkpt><trkpt lat="45.899145" lon="4.63854"><ele>297.2</ele><time>2026-04-23T14:26:02.941Z</time></trkpt><trkpt lat="45.8991367" lon="4.6383933"><ele>298.0</ele><time>2026-04-23T14:26:03.941Z</time></trkpt><trkpt lat="45.899125" lon="4.6382467"><ele>298.0</ele><time>2026-04-23T14:26:04.942Z</time></trkpt><trkpt lat="45.899105" lon="4.63808"><ele>298.0</ele><time>2026-04-23T14:26:05.942Z</time></trkpt><trkpt lat="45.8990917" lon="4.6379117"><ele>298.0</ele><time>2026-04-23T14:26:06.941Z</time></trkpt><trkpt lat="45.8990717" lon="4.6377233"><ele>298.0</ele><time>2026-04-23T14:26:07.942Z</time></trkpt><trkpt lat="45.89905" lon="4.6375283"><ele>298.25</ele><time>2026-04-23T14:26:08.941Z</time></trkpt><trkpt lat="45.89902" lon="4.63733"><ele>298.5</ele><time>2026-04-23T14:26:09.942Z</time></trkpt><trkpt lat="45.8989967" lon="4.6371517"><ele>298.75</ele><time>2026-04-23T14:26:10.941Z</time></trkpt><trkpt lat="45.8989833" lon="4.6369783"><ele>299.0</ele><time>2026-04-23T14:26:11.941Z</time></trkpt><trkpt lat="45.8989733" lon="4.636825"><ele>299.2857142857143</ele><time>2026-04-23T14:26:12.941Z</time></trkpt><trkpt lat="45.898965" lon="4.6366867"><ele>299.57142857142856</ele><time>2026-04-23T14:26:13.942Z</time></trkpt><trkpt lat="45.898955" lon="4.6365717"><ele>299.8571428571429</ele><time>2026-04-23T14:26:14.942Z</time></trkpt><trkpt lat="45.8989467" lon="4.6364733"><ele>300.1428571428571</ele><time>2026-04-23T14:26:15.941Z</time></trkpt><trkpt lat="45.8989317" lon="4.636385"><ele>300.42857142857144</ele><time>2026-04-23T14:26:16.941Z</time></trkpt><trkpt lat="45.8989133" lon="4.63629"><ele>300.7142857142857</ele><time>2026-04-23T14:26:17.942Z</time></trkpt><trkpt lat="45.8989017" lon="4.636195"><ele>301.0</ele><time>2026-04-23T14:26:18.941Z</time></trkpt><trkpt lat="45.8988833" lon="4.6360917"><ele>301.16666666666663</ele><time>2026-04-23T14:26:19.941Z</time></trkpt><trkpt lat="45.8988767" lon="4.6360017"><ele>301.3333333333333</ele><time>2026-04-23T14:26:20.941Z</time></trkpt><trkpt lat="45.8988767" lon="4.6359067"><ele>301.5</ele><time>2026-04-23T14:26:21.942Z</time></trkpt><trkpt lat="45.8988883" lon="4.635815"><ele>301.6666666666667</ele><time>2026-04-23T14:26:22.942Z</time></trkpt><trkpt lat="45.8988983" lon="4.6356983"><ele>301.83333333333337</ele><time>2026-04-23T14:26:23.941Z</time></trkpt><trkpt lat="45.898915" lon="4.6355717"><ele>302.0</ele><time>2026-04-23T14:26:24.941Z</time></trkpt><trkpt lat="45.8989283" lon="4.6354267"><ele>302.0</ele><time>2026-04-23T14:26:25.941Z</time></trkpt><trkpt lat="45.898955" lon="4.6352867"><ele>302.0</ele><time>2026-04-23T14:26:26.942Z</time></trkpt><trkpt lat="45.8989717" lon="4.6351183"><ele>302.0</ele><time>2026-04-23T14:26:27.942Z</time></trkpt><trkpt lat="45.89899" lon="4.634935"><ele>302.0</ele><time>2026-04-23T14:26:28.941Z</time></trkpt><trkpt lat="45.8990067" lon="4.6347583"><ele>302.0</ele><time>2026-04-23T14:26:29.941Z</time></trkpt><trkpt lat="45.899025" lon="4.6346"><ele>302.0</ele><time>2026-04-23T14:26:30.941Z</time></trkpt><trkpt lat="45.899045" lon="4.6344367"><ele>302.0</ele><time>2026-04-23T14:26:31.942Z</time></trkpt><trkpt lat="45.89907" lon="4.6342717"><ele>302.0</ele><time>2026-04-23T14:26:32.941Z</time></trkpt><trkpt lat="45.8990867" lon="4.634105"><ele>302.2</ele><time>2026-04-23T14:26:33.942Z</time></trkpt><trkpt lat="45.8991033" lon="4.63395"><ele>302.4</ele><time>2026-04-23T14:26:34.942Z</time></trkpt><trkpt lat="45.89912" lon="4.6338067"><ele>302.6</ele><time>2026-04-23T14:26:35.941Z</time></trkpt><trkpt lat="45.899135" lon="4.6336583"><ele>302.8</ele><time>2026-04-23T14:26:36.942Z</time></trkpt><trkpt lat="45.8991567" lon="4.6335083"><ele>303.0</ele><time>2026-04-23T14:26:37.942Z</time></trkpt><trkpt lat="45.899175" lon="4.63335"><ele>303.2</ele><time>2026-04-23T14:26:38.941Z</time></trkpt><trkpt lat="45.8992" lon="4.6331967"><ele>303.4</ele><time>2026-04-23T14:26:39.941Z</time></trkpt><trkpt lat="45.8992183" lon="4.633055"><ele>303.59999999999997</ele><time>2026-04-23T14:26:40.941Z</time></trkpt><trkpt lat="45.8992383" lon="4.6329233"><ele>303.8</ele><time>2026-04-23T14:26:41.942Z</time></trkpt><trkpt lat="45.8992567" lon="4.6327983"><ele>304.0</ele><time>2026-04-23T14:26:42.942Z</time></trkpt><trkpt lat="45.8992717" lon="4.63268"><ele>304.0</ele><time>2026-04-23T14:26:43.941Z</time></trkpt><trkpt lat="45.89929" lon="4.6325583"><ele>304.0</ele><time>2026-04-23T14:26:44.941Z</time></trkpt><trkpt lat="45.8993033" lon="4.63243"><ele>304.0</ele><time>2026-04-23T14:26:45.941Z</time></trkpt><trkpt lat="45.8993083" lon="4.6322917"><ele>304.0</ele><time>2026-04-23T14:26:46.941Z</time></trkpt><trkpt lat="45.8993283" lon="4.632135"><ele>304.0</ele><time>2026-04-23T14:26:47.941Z</time></trkpt><trkpt lat="45.899355" lon="4.6319583"><ele>304.5</ele><time>2026-04-23T14:26:48.941Z</time></trkpt><trkpt lat="45.89938" lon="4.631775"><ele>305.0</ele><time>2026-04-23T14:26:49.942Z</time></trkpt><trkpt lat="45.899405" lon="4.6315717"><ele>305.5</ele><time>2026-04-23T14:26:50.941Z</time></trkpt><trkpt lat="45.8994267" lon="4.6313567"><ele>306.0</ele><time>2026-04-23T14:26:51.942Z</time></trkpt><trkpt lat="45.8994567" lon="4.6311367"><ele>306.5</ele><time>2026-04-23T14:26:52.942Z</time></trkpt><trkpt lat="45.8994833" lon="4.630935"><ele>307.0</ele><time>2026-04-23T14:26:53.941Z</time></trkpt><trkpt lat="45.8995033" lon="4.63076"><ele>307.5</ele><time>2026-04-23T14:26:54.941Z</time></trkpt><trkpt lat="45.8995233" lon="4.6306017"><ele>308.0</ele><time>2026-04-23T14:26:55.941Z</time></trkpt><trkpt lat="45.8995417" lon="4.63046"><ele>308.0</ele><time>2026-04-23T14:26:56.942Z</time></trkpt><trkpt lat="45.8995583" lon="4.6303433"><ele>308.0</ele><time>2026-04-23T14:26:57.941Z</time></trkpt><trkpt lat="45.899575" lon="4.6302417"><ele>308.0</ele><time>2026-04-23T14:26:58.942Z</time></trkpt><trkpt lat="45.899595" lon="4.6301533"><ele>308.0</ele><time>2026-04-23T14:26:59.942Z</time></trkpt><trkpt lat="45.89963" lon="4.630015"><ele>308.0</ele><time>2026-04-23T14:27:01.941Z</time></trkpt><trkpt lat="45.89969" lon="4.6298433"><ele>308.1666666666667</ele><time>2026-04-23T14:27:03.941Z</time></trkpt><trkpt lat="45.8997433" lon="4.6297383"><ele>308.33333333333337</ele><time>2026-04-23T14:27:04.941Z</time></trkpt><trkpt lat="45.8997933" lon="4.6296417"><ele>308.5</ele><time>2026-04-23T14:27:05.941Z</time></trkpt><trkpt lat="45.8998383" lon="4.629555"><ele>308.6666666666667</ele><time>2026-04-23T14:27:06.941Z</time></trkpt><trkpt lat="45.8998833" lon="4.6294767"><ele>308.8333333333333</ele><time>2026-04-23T14:27:07.941Z</time></trkpt><trkpt lat="45.8999517" lon="4.6293583"><ele>309.0</ele><time>2026-04-23T14:27:09.941Z</time></trkpt><trkpt lat="45.9000033" lon="4.6292783"><ele>309.4</ele><time>2026-04-23T14:27:11.941Z</time></trkpt><trkpt lat="45.9000483" lon="4.62915"><ele>309.79999999999995</ele><time>2026-04-23T14:27:32.941Z</time></trkpt><trkpt lat="45.9001317" lon="4.6290017"><ele>310.20000000000005</ele><time>2026-04-23T14:27:34.941Z</time></trkpt><trkpt lat="45.90018" lon="4.6289217"><ele>310.6</ele><time>2026-04-23T14:27:35.941Z</time></trkpt><trkpt lat="45.9002333" lon="4.6288317"><ele>311.0</ele><time>2026-04-23T14:27:36.941Z</time></trkpt><trkpt lat="45.90029" lon="4.6287317"><ele>311.0</ele><time>2026-04-23T14:27:37.941Z</time></trkpt><trkpt lat="45.90035" lon="4.6286333"><ele>311.0</ele><time>2026-04-23T14:27:38.941Z</time></trkpt><trkpt lat="45.9003983" lon="4.628535"><ele>311.0</ele><time>2026-04-23T14:27:39.941Z</time></trkpt><trkpt lat="45.90045" lon="4.628445"><ele>311.0</ele><time>2026-04-23T14:27:40.942Z</time></trkpt><trkpt lat="45.9004967" lon="4.628345"><ele>311.0</ele><time>2026-04-23T14:27:41.942Z</time></trkpt><trkpt lat="45.900555" lon="4.628235"><ele>311.0</ele><time>2026-04-23T14:27:42.941Z</time></trkpt><trkpt lat="45.90062" lon="4.628125"><ele>311.0</ele><time>2026-04-23T14:27:43.941Z</time></trkpt><trkpt lat="45.900685" lon="4.6279967"><ele>311.0</ele><time>2026-04-23T14:27:44.941Z</time></trkpt><trkpt lat="45.9007517" lon="4.6278667"><ele>311.0</ele><time>2026-04-23T14:27:45.941Z</time></trkpt><trkpt lat="45.900825" lon="4.6277483"><ele>311.0</ele><time>2026-04-23T14:27:46.941Z</time></trkpt><trkpt lat="45.900895" lon="4.6276183"><ele>311.0</ele><time>2026-04-23T14:27:47.941Z</time></trkpt><trkpt lat="45.900955" lon="4.6275017"><ele>311.1428571428571</ele><time>2026-04-23T14:27:48.941Z</time></trkpt><trkpt lat="45.901005" lon="4.6274183"><ele>311.28571428571433</ele><time>2026-04-23T14:27:49.942Z</time></trkpt><trkpt lat="45.9010467" lon="4.627345"><ele>311.42857142857144</ele><time>2026-04-23T14:27:50.941Z</time></trkpt><trkpt lat="45.9010867" lon="4.6272717"><ele>311.57142857142856</ele><time>2026-04-23T14:27:51.942Z</time></trkpt><trkpt lat="45.9011333" lon="4.62719"><ele>311.71428571428567</ele><time>2026-04-23T14:27:52.942Z</time></trkpt><trkpt lat="45.9011767" lon="4.6271033"><ele>311.8571428571429</ele><time>2026-04-23T14:27:53.942Z</time></trkpt><trkpt lat="45.9012217" lon="4.6270233"><ele>312.0</ele><time>2026-04-23T14:27:54.941Z</time></trkpt><trkpt lat="45.901265" lon="4.6269483"><ele>312.0</ele><time>2026-04-23T14:27:55.942Z</time></trkpt><trkpt lat="45.9013083" lon="4.626875"><ele>312.0</ele><time>2026-04-23T14:27:56.941Z</time></trkpt><trkpt lat="45.9013467" lon="4.6268033"><ele>312.0</ele><time>2026-04-23T14:27:57.941Z</time></trkpt><trkpt lat="45.9013883" lon="4.626735"><ele>312.0</ele><time>2026-04-23T14:27:58.942Z</time></trkpt><trkpt lat="45.90146" lon="4.62661"><ele>312.0</ele><time>2026-04-23T14:28:00.941Z</time></trkpt><trkpt lat="45.9015433" lon="4.6264783"><ele>312.0</ele><time>2026-04-23T14:28:02.941Z</time></trkpt><trkpt lat="45.9016083" lon="4.626415"><ele>312.0</ele><time>2026-04-23T14:28:03.941Z</time></trkpt><trkpt lat="45.9016817" lon="4.6263517"><ele>312.0</ele><time>2026-04-23T14:28:04.942Z</time></trkpt><trkpt lat="45.90176" lon="4.6262967"><ele>312.0</ele><time>2026-04-23T14:28:05.942Z</time></trkpt><trkpt lat="45.9018383" lon="4.6262367"><ele>312.0</ele><time>2026-04-23T14:28:06.941Z</time></trkpt><trkpt lat="45.90192" lon="4.6261767"><ele>312.0</ele><time>2026-04-23T14:28:07.942Z</time></trkpt><trkpt lat="45.9020017" lon="4.62612"><ele>312.0</ele><time>2026-04-23T14:28:08.942Z</time></trkpt><trkpt lat="45.9020883" lon="4.6260567"><ele>312.4</ele><time>2026-04-23T14:28:09.941Z</time></trkpt><trkpt lat="45.902185" lon="4.6259867"><ele>312.79999999999995</ele><time>2026-04-23T14:28:10.941Z</time></trkpt><trkpt lat="45.90228" lon="4.62592"><ele>313.2</ele><time>2026-04-23T14:28:11.942Z</time></trkpt><trkpt lat="45.9023683" lon="4.625845"><ele>313.59999999999997</ele><time>2026-04-23T14:28:12.941Z</time></trkpt><trkpt lat="45.9024467" lon="4.6257867"><ele>314.0</ele><time>2026-04-23T14:28:13.942Z</time></trkpt><trkpt lat="45.9025283" lon="4.6257333"><ele>314.0</ele><time>2026-04-23T14:28:14.941Z</time></trkpt><trkpt lat="45.90261" lon="4.6256733"><ele>314.0</ele><time>2026-04-23T14:28:15.942Z</time></trkpt><trkpt lat="45.9026933" lon="4.625605"><ele>314.0</ele><time>2026-04-23T14:28:16.941Z</time></trkpt><trkpt lat="45.9027767" lon="4.6255433"><ele>314.0</ele><time>2026-04-23T14:28:17.941Z</time></trkpt><trkpt lat="45.902865" lon="4.6254733"><ele>314.0</ele><time>2026-04-23T14:28:18.942Z</time></trkpt><trkpt lat="45.9029483" lon="4.6254067"><ele>314.0</ele><time>2026-04-23T14:28:19.941Z</time></trkpt><trkpt lat="45.9030383" lon="4.62534"><ele>314.0</ele><time>2026-04-23T14:28:20.941Z</time></trkpt><trkpt lat="45.903115" lon="4.6252783"><ele>314.0</ele><time>2026-04-23T14:28:21.942Z</time></trkpt><trkpt lat="45.90318" lon="4.6252317"><ele>314.0</ele><time>2026-04-23T14:28:22.941Z</time></trkpt><trkpt lat="45.9032317" lon="4.62518"><ele>314.0</ele><time>2026-04-23T14:28:23.941Z</time></trkpt><trkpt lat="45.903295" lon="4.6250417"><ele>314.0</ele><time>2026-04-23T14:28:25.941Z</time></trkpt><trkpt lat="45.9033033" lon="4.6249467"><ele>314.1666666666667</ele><time>2026-04-23T14:28:26.941Z</time></trkpt><trkpt lat="45.903305" lon="4.6248183"><ele>314.33333333333337</ele><time>2026-04-23T14:28:27.942Z</time></trkpt><trkpt lat="45.903295" lon="4.6246733"><ele>314.5</ele><time>2026-04-23T14:28:28.941Z</time></trkpt><trkpt lat="45.9032833" lon="4.6245383"><ele>314.6666666666667</ele><time>2026-04-23T14:28:29.941Z</time></trkpt><trkpt lat="45.9032783" lon="4.6244233"><ele>314.8333333333333</ele><time>2026-04-23T14:28:30.942Z</time></trkpt><trkpt lat="45.9032767" lon="4.624315"><ele>315.0</ele><time>2026-04-23T14:28:31.941Z</time></trkpt><trkpt lat="45.903275" lon="4.6242033"><ele>315.0</ele><time>2026-04-23T14:28:32.942Z</time></trkpt><trkpt lat="45.9032683" lon="4.624095"><ele>315.0</ele><time>2026-04-23T14:28:33.942Z</time></trkpt><trkpt lat="45.90326" lon="4.6239783"><ele>315.0</ele><time>2026-04-23T14:28:34.941Z</time></trkpt><trkpt lat="45.9032567" lon="4.62385"><ele>315.0</ele><time>2026-04-23T14:28:35.942Z</time></trkpt><trkpt lat="45.9032533" lon="4.6237317"><ele>315.0</ele><time>2026-04-23T14:28:36.941Z</time></trkpt><trkpt lat="45.9032533" lon="4.6236283"><ele>315.0</ele><time>2026-04-23T14:28:37.941Z</time></trkpt><trkpt lat="45.9032567" lon="4.623515"><ele>315.0</ele><time>2026-04-23T14:28:38.941Z</time></trkpt><trkpt lat="45.9032717" lon="4.6234083"><ele>315.0</ele><time>2026-04-23T14:28:39.942Z</time></trkpt><trkpt lat="45.9032967" lon="4.6233017"><ele>315.0</ele><time>2026-04-23T14:28:40.941Z</time></trkpt><trkpt lat="45.903325" lon="4.623195"><ele>315.0</ele><time>2026-04-23T14:28:41.942Z</time></trkpt><trkpt lat="45.9033517" lon="4.623105"><ele>315.0</ele><time>2026-04-23T14:28:42.942Z</time></trkpt><trkpt lat="45.9033667" lon="4.6230117"><ele>315.0</ele><time>2026-04-23T14:28:43.941Z</time></trkpt><trkpt lat="45.90339" lon="4.6228583"><ele>315.0</ele><time>2026-04-23T14:28:45.941Z</time></trkpt><trkpt lat="45.90338" lon="4.6227033"><ele>315.0</ele><time>2026-04-23T14:28:47.942Z</time></trkpt><trkpt lat="45.90337" lon="4.6225683"><ele>315.0</ele><time>2026-04-23T14:28:49.94Z</time></trkpt><trkpt lat="45.9033617" lon="4.6223967"><ele>315.0</ele><time>2026-04-23T14:28:51.94Z</time></trkpt><trkpt lat="45.9033533" lon="4.6223033"><ele>315.0</ele><time>2026-04-23T14:28:52.94Z</time></trkpt><trkpt lat="45.9033517" lon="4.62221"><ele>315.0</ele><time>2026-04-23T14:28:53.941Z</time></trkpt><trkpt lat="45.9033433" lon="4.622095"><ele>315.0</ele><time>2026-04-23T14:28:54.94Z</time></trkpt><trkpt lat="45.90334" lon="4.6219817"><ele>315.0</ele><time>2026-04-23T14:28:55.941Z</time></trkpt><trkpt lat="45.9033383" lon="4.621875"><ele>315.0</ele><time>2026-04-23T14:28:56.94Z</time></trkpt><trkpt lat="45.9033367" lon="4.621775"><ele>315.0</ele><time>2026-04-23T14:28:57.94Z</time></trkpt><trkpt lat="45.9033483" lon="4.62161"><ele>315.0</ele><time>2026-04-23T14:28:59.94Z</time></trkpt><trkpt lat="45.90336" lon="4.6214617"><ele>314.6</ele><time>2026-04-23T14:29:01.94Z</time></trkpt><trkpt lat="45.903335" lon="4.621285"><ele>314.2</ele><time>2026-04-23T14:29:03.94Z</time></trkpt><trkpt lat="45.9033133" lon="4.621185"><ele>313.8</ele><time>2026-04-23T14:29:04.94Z</time></trkpt><trkpt lat="45.90327" lon="4.6210017"><ele>313.4</ele><time>2026-04-23T14:29:06.94Z</time></trkpt><trkpt lat="45.9032383" lon="4.6208983"><ele>313.0</ele><time>2026-04-23T14:29:07.941Z</time></trkpt><trkpt lat="45.9032033" lon="4.6207833"><ele>312.4</ele><time>2026-04-23T14:29:08.941Z</time></trkpt><trkpt lat="45.9031633" lon="4.6206467"><ele>311.8</ele><time>2026-04-23T14:29:09.941Z</time></trkpt><trkpt lat="45.9031317" lon="4.6205133"><ele>311.2</ele><time>2026-04-23T14:29:10.941Z</time></trkpt><trkpt lat="45.9031" lon="4.6203883"><ele>310.6</ele><time>2026-04-23T14:29:11.94Z</time></trkpt><trkpt lat="45.9030683" lon="4.6202767"><ele>310.0</ele><time>2026-04-23T14:29:12.941Z</time></trkpt><trkpt lat="45.9030383" lon="4.6201583"><ele>309.8333333333333</ele><time>2026-04-23T14:29:13.941Z</time></trkpt><trkpt lat="45.903015" lon="4.6200483"><ele>309.66666666666663</ele><time>2026-04-23T14:29:14.94Z</time></trkpt><trkpt lat="45.90299" lon="4.6199517"><ele>309.5</ele><time>2026-04-23T14:29:15.94Z</time></trkpt><trkpt lat="45.9029633" lon="4.619855"><ele>309.3333333333333</ele><time>2026-04-23T14:29:16.94Z</time></trkpt><trkpt lat="45.9029483" lon="4.619735"><ele>309.1666666666667</ele><time>2026-04-23T14:29:17.94Z</time></trkpt><trkpt lat="45.9029183" lon="4.6196"><ele>309.0</ele><time>2026-04-23T14:29:18.94Z</time></trkpt><trkpt lat="45.902895" lon="4.6194733"><ele>308.6666666666667</ele><time>2026-04-23T14:29:19.94Z</time></trkpt><trkpt lat="45.90287" lon="4.6193533"><ele>308.3333333333333</ele><time>2026-04-23T14:29:20.94Z</time></trkpt><trkpt lat="45.9028483" lon="4.6192417"><ele>308.0</ele><time>2026-04-23T14:29:21.941Z</time></trkpt><trkpt lat="45.9028367" lon="4.6191467"><ele>307.66666666666663</ele><time>2026-04-23T14:29:22.941Z</time></trkpt><trkpt lat="45.90282" lon="4.619055"><ele>307.3333333333333</ele><time>2026-04-23T14:29:23.94Z</time></trkpt><trkpt lat="45.9028117" lon="4.6188983"><ele>307.0</ele><time>2026-04-23T14:29:25.941Z</time></trkpt><trkpt lat="45.9027983" lon="4.6187683"><ele>306.8333333333333</ele><time>2026-04-23T14:29:27.941Z</time></trkpt><trkpt lat="45.9028" lon="4.6186467"><ele>306.66666666666663</ele><time>2026-04-23T14:29:30.94Z</time></trkpt><trkpt lat="45.90285" lon="4.6185717"><ele>306.5</ele><time>2026-04-23T14:29:32.94Z</time></trkpt><trkpt lat="45.9029467" lon="4.6184883"><ele>306.3333333333333</ele><time>2026-04-23T14:29:34.941Z</time></trkpt><trkpt lat="45.9030083" lon="4.618445"><ele>306.1666666666667</ele><time>2026-04-23T14:29:35.94Z</time></trkpt><trkpt lat="45.9030683" lon="4.6184"><ele>306.0</ele><time>2026-04-23T14:29:36.94Z</time></trkpt><trkpt lat="45.9031283" lon="4.6183417"><ele>306.0</ele><time>2026-04-23T14:29:37.94Z</time></trkpt><trkpt lat="45.9031833" lon="4.6182883"><ele>306.0</ele><time>2026-04-23T14:29:38.94Z</time></trkpt><trkpt lat="45.9032383" lon="4.61824"><ele>306.0</ele><time>2026-04-23T14:29:39.941Z</time></trkpt><trkpt lat="45.90334" lon="4.6181383"><ele>306.0</ele><time>2026-04-23T14:29:41.941Z</time></trkpt><trkpt lat="45.9033917" lon="4.6180833"><ele>306.0</ele><time>2026-04-23T14:29:42.94Z</time></trkpt><trkpt lat="45.90348" lon="4.6179883"><ele>306.0</ele><time>2026-04-23T14:29:44.94Z</time></trkpt><trkpt lat="45.9035667" lon="4.617885"><ele>305.0</ele><time>2026-04-23T14:29:46.94Z</time></trkpt><trkpt lat="45.9036183" lon="4.6178217"><ele>304.0</ele><time>2026-04-23T14:29:47.941Z</time></trkpt><trkpt lat="45.9036783" lon="4.6177617"><ele>303.0</ele><time>2026-04-23T14:29:48.94Z</time></trkpt><trkpt lat="45.9037367" lon="4.6177"><ele>302.0</ele><time>2026-04-23T14:29:49.941Z</time></trkpt><trkpt lat="45.9038033" lon="4.6176333"><ele>301.0</ele><time>2026-04-23T14:29:50.94Z</time></trkpt><trkpt lat="45.9038667" lon="4.6175583"><ele>300.0</ele><time>2026-04-23T14:29:51.94Z</time></trkpt><trkpt lat="45.9039283" lon="4.6174833"><ele>299.85714285714283</ele><time>2026-04-23T14:29:52.941Z</time></trkpt><trkpt lat="45.9039883" lon="4.6174117"><ele>299.7142857142857</ele><time>2026-04-23T14:29:53.94Z</time></trkpt><trkpt lat="45.9040467" lon="4.6173517"><ele>299.57142857142856</ele><time>2026-04-23T14:29:54.941Z</time></trkpt><trkpt lat="45.904105" lon="4.617285"><ele>299.42857142857144</ele><time>2026-04-23T14:29:55.94Z</time></trkpt><trkpt lat="45.9041583" lon="4.6172217"><ele>299.2857142857143</ele><time>2026-04-23T14:29:56.94Z</time></trkpt><trkpt lat="45.9042167" lon="4.6171533"><ele>299.1428571428571</ele><time>2026-04-23T14:29:57.94Z</time></trkpt><trkpt lat="45.9042767" lon="4.6170917"><ele>299.0</ele><time>2026-04-23T14:29:58.941Z</time></trkpt><trkpt lat="45.9043417" lon="4.617025"><ele>297.83333333333337</ele><time>2026-04-23T14:29:59.94Z</time></trkpt><trkpt lat="45.904405" lon="4.6169633"><ele>296.6666666666667</ele><time>2026-04-23T14:30:00.94Z</time></trkpt><trkpt lat="45.90447" lon="4.6169017"><ele>295.5</ele><time>2026-04-23T14:30:01.94Z</time></trkpt><trkpt lat="45.904535" lon="4.6168417"><ele>294.3333333333333</ele><time>2026-04-23T14:30:02.94Z</time></trkpt><trkpt lat="45.904595" lon="4.61678"><ele>293.16666666666663</ele><time>2026-04-23T14:30:03.94Z</time></trkpt><trkpt lat="45.9046517" lon="4.6167117"><ele>292.0</ele><time>2026-04-23T14:30:04.941Z</time></trkpt><trkpt lat="45.90471" lon="4.6166467"><ele>292.0</ele><time>2026-04-23T14:30:05.94Z</time></trkpt><trkpt lat="45.9047633" lon="4.6165767"><ele>292.0</ele><time>2026-04-23T14:30:06.941Z</time></trkpt><trkpt lat="45.9048217" lon="4.6165117"><ele>292.0</ele><time>2026-04-23T14:30:07.94Z</time></trkpt><trkpt lat="45.90488" lon="4.6164583"><ele>292.0</ele><time>2026-04-23T14:30:08.941Z</time></trkpt><trkpt lat="45.90494" lon="4.6164"><ele>292.0</ele><time>2026-04-23T14:30:09.941Z</time></trkpt><trkpt lat="45.9050367" lon="4.6163"><ele>292.0</ele><time>2026-04-23T14:30:11.941Z</time></trkpt><trkpt lat="45.9051083" lon="4.6162267"><ele>292.0</ele><time>2026-04-23T14:30:13.94Z</time></trkpt><trkpt lat="45.9051733" lon="4.6161783"><ele>292.0</ele><time>2026-04-23T14:30:16.941Z</time></trkpt><trkpt lat="45.9051083" lon="4.6161317"><ele>292.0</ele><time>2026-04-23T14:30:24.94Z</time></trkpt><trkpt lat="45.9050333" lon="4.6161367"><ele>292.0</ele><time>2026-04-23T14:30:26.941Z</time></trkpt><trkpt lat="45.9049317" lon="4.6161317"><ele>292.0</ele><time>2026-04-23T14:30:28.94Z</time></trkpt><trkpt lat="45.9048617" lon="4.6161467"><ele>292.0</ele><time>2026-04-23T14:30:30.94Z</time></trkpt><trkpt lat="45.9047783" lon="4.6161333"><ele>291.8333333333333</ele><time>2026-04-23T14:30:33.94Z</time></trkpt><trkpt lat="45.9046867" lon="4.6161283"><ele>291.66666666666663</ele><time>2026-04-23T14:30:35.941Z</time></trkpt><trkpt lat="45.904595" lon="4.61611"><ele>291.5</ele><time>2026-04-23T14:30:38.941Z</time></trkpt><trkpt lat="45.90452" lon="4.6160933"><ele>291.3333333333333</ele><time>2026-04-23T14:30:41.94Z</time></trkpt><trkpt lat="45.90459" lon="4.61613"><ele>291.1666666666667</ele><time>2026-04-23T14:31:01.94Z</time></trkpt><trkpt lat="45.9046667" lon="4.6161283"><ele>291.0</ele><time>2026-04-23T14:31:02.941Z</time></trkpt><trkpt lat="45.9047333" lon="4.6161283"><ele>291.0</ele><time>2026-04-23T14:31:03.941Z</time></trkpt><trkpt lat="45.9048317" lon="4.6161233"><ele>291.0</ele><time>2026-04-23T14:31:05.941Z</time></trkpt><trkpt lat="45.9049367" lon="4.6161367"><ele>291.0</ele><time>2026-04-23T14:31:07.94Z</time></trkpt><trkpt lat="45.9050317" lon="4.61614"><ele>291.0</ele><time>2026-04-23T14:31:09.941Z</time></trkpt><trkpt lat="45.9051067" lon="4.61614"><ele>291.0</ele><time>2026-04-23T14:31:12.941Z</time></trkpt><trkpt lat="45.9051717" lon="4.6160867"><ele>291.0</ele><time>2026-04-23T14:31:15.94Z</time></trkpt><trkpt lat="45.905205" lon="4.6160083"><ele>291.0</ele><time>2026-04-23T14:31:16.941Z</time></trkpt><trkpt lat="45.905225" lon="4.6159217"><ele>291.0</ele><time>2026-04-23T14:31:17.941Z</time></trkpt><trkpt lat="45.9052317" lon="4.6157633"><ele>291.0</ele><time>2026-04-23T14:31:19.94Z</time></trkpt><trkpt lat="45.9052167" lon="4.6156167"><ele>291.0</ele><time>2026-04-23T14:31:21.94Z</time></trkpt><trkpt lat="45.90519" lon="4.6155033"><ele>291.0</ele><time>2026-04-23T14:31:23.941Z</time></trkpt><trkpt lat="45.9051383" lon="4.6154217"><ele>291.0</ele><time>2026-04-23T14:31:25.941Z</time></trkpt><trkpt lat="45.9050717" lon="4.615355"><ele>292.6</ele><time>2026-04-23T14:31:27.94Z</time></trkpt><trkpt lat="45.9049567" lon="4.6152867"><ele>294.20000000000005</ele><time>2026-04-23T14:31:29.941Z</time></trkpt><trkpt lat="45.9048833" lon="4.6152517"><ele>295.79999999999995</ele><time>2026-04-23T14:31:30.941Z</time></trkpt><trkpt lat="45.90482" lon="4.6152283"><ele>297.4</ele><time>2026-04-23T14:31:31.941Z</time></trkpt><trkpt lat="45.9047083" lon="4.6151567"><ele>299.0</ele><time>2026-04-23T14:31:33.941Z</time></trkpt><trkpt lat="45.9046517" lon="4.6151117"><ele>299.0</ele><time>2026-04-23T14:31:34.94Z</time></trkpt><trkpt lat="45.9046017" lon="4.6150567"><ele>299.0</ele><time>2026-04-23T14:31:35.94Z</time></trkpt><trkpt lat="45.9045217" lon="4.6149283"><ele>299.0</ele><time>2026-04-23T14:31:37.94Z</time></trkpt><trkpt lat="45.9044883" lon="4.6148317"><ele>299.0</ele><time>2026-04-23T14:31:38.94Z</time></trkpt><trkpt lat="45.90447" lon="4.6147217"><ele>299.0</ele><time>2026-04-23T14:31:39.94Z</time></trkpt><trkpt lat="45.904455" lon="4.6145917"><ele>299.0</ele><time>2026-04-23T14:31:40.941Z</time></trkpt><trkpt lat="45.90445" lon="4.614455"><ele>299.57142857142856</ele><time>2026-04-23T14:31:41.94Z</time></trkpt><trkpt lat="45.9044417" lon="4.6143383"><ele>300.14285714285717</ele><time>2026-04-23T14:31:42.94Z</time></trkpt><trkpt lat="45.904425" lon="4.614235"><ele>300.7142857142857</ele><time>2026-04-23T14:31:43.94Z</time></trkpt><trkpt lat="45.9043983" lon="4.6141217"><ele>301.2857142857143</ele><time>2026-04-23T14:31:44.941Z</time></trkpt><trkpt lat="45.904365" lon="4.6140317"><ele>301.85714285714283</ele><time>2026-04-23T14:31:45.94Z</time></trkpt><trkpt lat="45.9043333" lon="4.6139467"><ele>302.42857142857144</ele><time>2026-04-23T14:31:46.941Z</time></trkpt><trkpt lat="45.9043017" lon="4.6138633"><ele>303.0</ele><time>2026-04-23T14:31:47.94Z</time></trkpt><trkpt lat="45.9042367" lon="4.6137167"><ele>304.2</ele><time>2026-04-23T14:31:49.94Z</time></trkpt><trkpt lat="45.9041767" lon="4.61357"><ele>305.4</ele><time>2026-04-23T14:31:51.94Z</time></trkpt><trkpt lat="45.9041283" lon="4.6134383"><ele>306.59999999999997</ele><time>2026-04-23T14:31:53.941Z</time></trkpt><trkpt lat="45.9041033" lon="4.613315"><ele>307.8</ele><time>2026-04-23T14:31:55.941Z</time></trkpt><trkpt lat="45.9040917" lon="4.6131733"><ele>309.0</ele><time>2026-04-23T14:31:57.94Z</time></trkpt><trkpt lat="45.9040983" lon="4.6130133"><ele>309.0</ele><time>2026-04-23T14:31:59.941Z</time></trkpt><trkpt lat="45.9041083" lon="4.6129117"><ele>309.0</ele><time>2026-04-23T14:32:00.941Z</time></trkpt><trkpt lat="45.904125" lon="4.6127883"><ele>309.0</ele><time>2026-04-23T14:32:01.94Z</time></trkpt><trkpt lat="45.9041467" lon="4.6126367"><ele>309.0</ele><time>2026-04-23T14:32:02.941Z</time></trkpt><trkpt lat="45.90417" lon="4.6124633"><ele>309.0</ele><time>2026-04-23T14:32:03.941Z</time></trkpt><trkpt lat="45.90419" lon="4.6122883"><ele>309.8</ele><time>2026-04-23T14:32:04.941Z</time></trkpt><trkpt lat="45.9042083" lon="4.612135"><ele>310.59999999999997</ele><time>2026-04-23T14:32:05.941Z</time></trkpt><trkpt lat="45.904225" lon="4.6120017"><ele>311.4</ele><time>2026-04-23T14:32:06.94Z</time></trkpt><trkpt lat="45.9042433" lon="4.6118867"><ele>312.2</ele><time>2026-04-23T14:32:07.94Z</time></trkpt><trkpt lat="45.904255" lon="4.6117817"><ele>313.0</ele><time>2026-04-23T14:32:08.941Z</time></trkpt><trkpt lat="45.9042833" lon="4.6115933"><ele>314.2</ele><time>2026-04-23T14:32:10.94Z</time></trkpt><trkpt lat="45.9042983" lon="4.6114833"><ele>315.4</ele><time>2026-04-23T14:32:11.941Z</time></trkpt><trkpt lat="45.9043183" lon="4.611355"><ele>316.59999999999997</ele><time>2026-04-23T14:32:12.94Z</time></trkpt><trkpt lat="45.90434" lon="4.611215"><ele>317.8</ele><time>2026-04-23T14:32:13.941Z</time></trkpt><trkpt lat="45.9043567" lon="4.6110633"><ele>319.0</ele><time>2026-04-23T14:32:14.94Z</time></trkpt><trkpt lat="45.904375" lon="4.61092"><ele>319.6</ele><time>2026-04-23T14:32:15.94Z</time></trkpt><trkpt lat="45.9043933" lon="4.6107683"><ele>320.2</ele><time>2026-04-23T14:32:16.94Z</time></trkpt><trkpt lat="45.9044117" lon="4.6106067"><ele>320.8</ele><time>2026-04-23T14:32:17.94Z</time></trkpt><trkpt lat="45.9044267" lon="4.6104517"><ele>321.40000000000003</ele><time>2026-04-23T14:32:18.94Z</time></trkpt><trkpt lat="45.904445" lon="4.6103067"><ele>322.0</ele><time>2026-04-23T14:32:19.941Z</time></trkpt><trkpt lat="45.90446" lon="4.6101667"><ele>322.0</ele><time>2026-04-23T14:32:20.94Z</time></trkpt><trkpt lat="45.90447" lon="4.6100133"><ele>322.0</ele><time>2026-04-23T14:32:21.94Z</time></trkpt><trkpt lat="45.9044817" lon="4.6098583"><ele>322.0</ele><time>2026-04-23T14:32:22.941Z</time></trkpt><trkpt lat="45.90449" lon="4.6097167"><ele>322.0</ele><time>2026-04-23T14:32:23.941Z</time></trkpt><trkpt lat="45.9044967" lon="4.6095783"><ele>322.0</ele><time>2026-04-23T14:32:24.94Z</time></trkpt><trkpt lat="45.9045033" lon="4.6094533"><ele>322.0</ele><time>2026-04-23T14:32:25.94Z</time></trkpt><trkpt lat="45.9045033" lon="4.6093433"><ele>322.0</ele><time>2026-04-23T14:32:26.94Z</time></trkpt><trkpt lat="45.9045067" lon="4.609185"><ele>322.0</ele><time>2026-04-23T14:32:28.94Z</time></trkpt><trkpt lat="45.9045033" lon="4.6090783"><ele>322.0</ele><time>2026-04-23T14:32:30.94Z</time></trkpt><trkpt lat="45.9045083" lon="4.6089633"><ele>322.0</ele><time>2026-04-23T14:32:33.94Z</time></trkpt><trkpt lat="45.9045183" lon="4.6088517"><ele>322.0</ele><time>2026-04-23T14:32:35.941Z</time></trkpt><trkpt lat="45.9045183" lon="4.6086883"><ele>321.8333333333333</ele><time>2026-04-23T14:32:37.941Z</time></trkpt><trkpt lat="45.90452" lon="4.6085917"><ele>321.66666666666663</ele><time>2026-04-23T14:32:38.941Z</time></trkpt><trkpt lat="45.9045233" lon="4.60849"><ele>321.5</ele><time>2026-04-23T14:32:39.94Z</time></trkpt><trkpt lat="45.904525" lon="4.6083817"><ele>321.3333333333333</ele><time>2026-04-23T14:32:40.941Z</time></trkpt><trkpt lat="45.9045333" lon="4.6082717"><ele>321.1666666666667</ele><time>2026-04-23T14:32:41.94Z</time></trkpt><trkpt lat="45.9045367" lon="4.6081517"><ele>321.0</ele><time>2026-04-23T14:32:42.94Z</time></trkpt><trkpt lat="45.9045417" lon="4.6080267"><ele>321.0</ele><time>2026-04-23T14:32:43.941Z</time></trkpt><trkpt lat="45.9045433" lon="4.6079183"><ele>321.0</ele><time>2026-04-23T14:32:44.94Z</time></trkpt><trkpt lat="45.904545" lon="4.6078067"><ele>321.0</ele><time>2026-04-23T14:32:45.941Z</time></trkpt><trkpt lat="45.9045533" lon="4.60769"><ele>321.0</ele><time>2026-04-23T14:32:46.94Z</time></trkpt><trkpt lat="45.904555" lon="4.6075517"><ele>321.0</ele><time>2026-04-23T14:32:47.94Z</time></trkpt><trkpt lat="45.9045583" lon="4.607405"><ele>321.0</ele><time>2026-04-23T14:32:48.94Z</time></trkpt><trkpt lat="45.9045633" lon="4.6072633"><ele>320.8</ele><time>2026-04-23T14:32:49.94Z</time></trkpt><trkpt lat="45.9045783" lon="4.6071283"><ele>320.6</ele><time>2026-04-23T14:32:50.94Z</time></trkpt><trkpt lat="45.904605" lon="4.6069833"><ele>320.4</ele><time>2026-04-23T14:32:51.941Z</time></trkpt><trkpt lat="45.9046367" lon="4.606835"><ele>320.2</ele><time>2026-04-23T14:32:52.941Z</time></trkpt><trkpt lat="45.904665" lon="4.6066867"><ele>320.0</ele><time>2026-04-23T14:32:53.941Z</time></trkpt><trkpt lat="45.904695" lon="4.6065617"><ele>320.6</ele><time>2026-04-23T14:32:54.94Z</time></trkpt><trkpt lat="45.9047167" lon="4.606465"><ele>321.2</ele><time>2026-04-23T14:32:55.94Z</time></trkpt><trkpt lat="45.9047554" lon="4.6063111"><ele>321.79999999999995</ele><time>2026-04-23T14:32:57.94Z</time></trkpt><trkpt lat="45.90478" lon="4.606195"><ele>322.4</ele><time>2026-04-23T14:33:03.941Z</time></trkpt><trkpt lat="45.9047967" lon="4.606075"><ele>323.0</ele><time>2026-04-23T14:33:05.941Z</time></trkpt><trkpt lat="45.9048283" lon="4.6059"><ele>323.1666666666667</ele><time>2026-04-23T14:33:07.94Z</time></trkpt><trkpt lat="45.90485" lon="4.6058"><ele>323.33333333333337</ele><time>2026-04-23T14:33:08.94Z</time></trkpt><trkpt lat="45.9048683" lon="4.6056983"><ele>323.5</ele><time>2026-04-23T14:33:09.94Z</time></trkpt><trkpt lat="45.904885" lon="4.6056033"><ele>323.6666666666667</ele><time>2026-04-23T14:33:10.941Z</time></trkpt><trkpt lat="45.9049217" lon="4.6054417"><ele>323.8333333333333</ele><time>2026-04-23T14:33:12.94Z</time></trkpt><trkpt lat="45.9049417" lon="4.6053517"><ele>324.0</ele><time>2026-04-23T14:33:13.941Z</time></trkpt><trkpt lat="45.9049983" lon="4.6051917"><ele>324.0</ele><time>2026-04-23T14:33:15.941Z</time></trkpt><trkpt lat="45.9050383" lon="4.6050967"><ele>324.0</ele><time>2026-04-23T14:33:16.941Z</time></trkpt><trkpt lat="45.9050917" lon="4.6049883"><ele>324.0</ele><time>2026-04-23T14:33:17.94Z</time></trkpt><trkpt lat="45.9051433" lon="4.6048783"><ele>324.0</ele><time>2026-04-23T14:33:18.94Z</time></trkpt><trkpt lat="45.905195" lon="4.6047717"><ele>324.0</ele><time>2026-04-23T14:33:19.941Z</time></trkpt><trkpt lat="45.9052417" lon="4.604675"><ele>324.0</ele><time>2026-04-23T14:33:20.94Z</time></trkpt><trkpt lat="45.9052867" lon="4.60458"><ele>324.8333333333333</ele><time>2026-04-23T14:33:21.941Z</time></trkpt><trkpt lat="45.905335" lon="4.6044833"><ele>325.6666666666667</ele><time>2026-04-23T14:33:22.94Z</time></trkpt><trkpt lat="45.9053867" lon="4.6043733"><ele>326.5</ele><time>2026-04-23T14:33:23.94Z</time></trkpt><trkpt lat="45.9054367" lon="4.6042817"><ele>327.33333333333337</ele><time>2026-04-23T14:33:24.941Z</time></trkpt><trkpt lat="45.9054817" lon="4.6042017"><ele>328.1666666666667</ele><time>2026-04-23T14:33:25.94Z</time></trkpt><trkpt lat="45.9055183" lon="4.60411"><ele>329.0</ele><time>2026-04-23T14:33:26.94Z</time></trkpt><trkpt lat="45.905545" lon="4.6040133"><ele>329.0</ele><time>2026-04-23T14:33:27.941Z</time></trkpt><trkpt lat="45.90556" lon="4.603915"><ele>329.0</ele><time>2026-04-23T14:33:28.941Z</time></trkpt><trkpt lat="45.9055667" lon="4.6038083"><ele>329.0</ele><time>2026-04-23T14:33:29.94Z</time></trkpt><trkpt lat="45.90556" lon="4.6036833"><ele>329.0</ele><time>2026-04-23T14:33:30.94Z</time></trkpt><trkpt lat="45.90556" lon="4.60356"><ele>329.0</ele><time>2026-04-23T14:33:31.94Z</time></trkpt><trkpt lat="45.9055533" lon="4.6034433"><ele>329.0</ele><time>2026-04-23T14:33:32.94Z</time></trkpt><trkpt lat="45.9055483" lon="4.6033283"><ele>328.5</ele><time>2026-04-23T14:33:33.941Z</time></trkpt><trkpt lat="45.9055367" lon="4.6032267"><ele>328.0</ele><time>2026-04-23T14:33:34.94Z</time></trkpt><trkpt lat="45.9055283" lon="4.603135"><ele>327.5</ele><time>2026-04-23T14:33:35.94Z</time></trkpt><trkpt lat="45.9055183" lon="4.6030433"><ele>327.0</ele><time>2026-04-23T14:33:36.94Z</time></trkpt><trkpt lat="45.9054967" lon="4.6028733"><ele>326.5</ele><time>2026-04-23T14:33:38.94Z</time></trkpt><trkpt lat="45.90548" lon="4.6027183"><ele>326.0</ele><time>2026-04-23T14:33:40.94Z</time></trkpt><trkpt lat="45.9054733" lon="4.6025667"><ele>325.6</ele><time>2026-04-23T14:33:42.94Z</time></trkpt><trkpt lat="45.905475" lon="4.6024067"><ele>325.20000000000005</ele><time>2026-04-23T14:33:44.94Z</time></trkpt><trkpt lat="45.9054767" lon="4.60223"><ele>324.79999999999995</ele><time>2026-04-23T14:33:46.94Z</time></trkpt><trkpt lat="45.9055133" lon="4.60209"><ele>324.4</ele><time>2026-04-23T14:33:48.94Z</time></trkpt><trkpt lat="45.9055667" lon="4.6019667"><ele>324.0</ele><time>2026-04-23T14:33:50.94Z</time></trkpt><trkpt lat="45.9056367" lon="4.6018483"><ele>322.5</ele><time>2026-04-23T14:33:52.94Z</time></trkpt><trkpt lat="45.9056967" lon="4.6017983"><ele>321.0</ele><time>2026-04-23T14:33:53.941Z</time></trkpt><trkpt lat="45.9057683" lon="4.601755"><ele>319.5</ele><time>2026-04-23T14:33:54.94Z</time></trkpt><trkpt lat="45.90585" lon="4.601705"><ele>318.0</ele><time>2026-04-23T14:33:55.94Z</time></trkpt><trkpt lat="45.9059283" lon="4.6016567"><ele>316.5</ele><time>2026-04-23T14:33:56.941Z</time></trkpt><trkpt lat="45.9060033" lon="4.6015983"><ele>315.0</ele><time>2026-04-23T14:33:57.941Z</time></trkpt><trkpt lat="45.9060683" lon="4.6015267"><ele>315.0</ele><time>2026-04-23T14:33:58.94Z</time></trkpt><trkpt lat="45.906135" lon="4.6014517"><ele>315.0</ele><time>2026-04-23T14:33:59.94Z</time></trkpt><trkpt lat="45.9061983" lon="4.6013567"><ele>315.0</ele><time>2026-04-23T14:34:00.94Z</time></trkpt><trkpt lat="45.9062633" lon="4.601245"><ele>315.0</ele><time>2026-04-23T14:34:01.94Z</time></trkpt><trkpt lat="45.9063183" lon="4.6011383"><ele>315.0</ele><time>2026-04-23T14:34:02.941Z</time></trkpt><trkpt lat="45.906375" lon="4.6010233"><ele>315.0</ele><time>2026-04-23T14:34:03.941Z</time></trkpt><trkpt lat="45.9064283" lon="4.6009183"><ele>315.0</ele><time>2026-04-23T14:34:04.941Z</time></trkpt><trkpt lat="45.906485" lon="4.600815"><ele>315.0</ele><time>2026-04-23T14:34:05.94Z</time></trkpt><trkpt lat="45.906535" lon="4.600715"><ele>315.0</ele><time>2026-04-23T14:34:06.94Z</time></trkpt><trkpt lat="45.90658" lon="4.6006233"><ele>315.0</ele><time>2026-04-23T14:34:07.941Z</time></trkpt><trkpt lat="45.9066183" lon="4.6005317"><ele>315.0</ele><time>2026-04-23T14:34:08.94Z</time></trkpt><trkpt lat="45.90665" lon="4.6004317"><ele>315.0</ele><time>2026-04-23T14:34:09.94Z</time></trkpt><trkpt lat="45.9066817" lon="4.6003383"><ele>315.0</ele><time>2026-04-23T14:34:10.94Z</time></trkpt><trkpt lat="45.9067017" lon="4.600235"><ele>315.0</ele><time>2026-04-23T14:34:11.94Z</time></trkpt><trkpt lat="45.9067183" lon="4.6001333"><ele>315.0</ele><time>2026-04-23T14:34:12.94Z</time></trkpt><trkpt lat="45.90674" lon="4.6000417"><ele>315.0</ele><time>2026-04-23T14:34:13.94Z</time></trkpt><trkpt lat="45.9067917" lon="4.5998767"><ele>315.0</ele><time>2026-04-23T14:34:15.941Z</time></trkpt><trkpt lat="45.9068333" lon="4.599795"><ele>315.57142857142856</ele><time>2026-04-23T14:34:16.941Z</time></trkpt><trkpt lat="45.9068767" lon="4.5997233"><ele>316.1428571428571</ele><time>2026-04-23T14:34:17.941Z</time></trkpt><trkpt lat="45.906925" lon="4.59966"><ele>316.7142857142857</ele><time>2026-04-23T14:34:18.94Z</time></trkpt><trkpt lat="45.90697" lon="4.599595"><ele>317.2857142857143</ele><time>2026-04-23T14:34:19.94Z</time></trkpt><trkpt lat="45.9070317" lon="4.599505"><ele>317.85714285714283</ele><time>2026-04-23T14:34:21.94Z</time></trkpt><trkpt lat="45.9070817" lon="4.599445"><ele>318.42857142857144</ele><time>2026-04-23T14:34:24.94Z</time></trkpt><trkpt lat="45.9070833" lon="4.59933"><ele>319.0</ele><time>2026-04-23T14:35:03.94Z</time></trkpt><trkpt lat="45.90707" lon="4.599235"><ele>319.4</ele><time>2026-04-23T14:35:05.941Z</time></trkpt><trkpt lat="45.9070383" lon="4.5991567"><ele>319.79999999999995</ele><time>2026-04-23T14:35:07.94Z</time></trkpt><trkpt lat="45.9069733" lon="4.5990233"><ele>320.20000000000005</ele><time>2026-04-23T14:35:09.941Z</time></trkpt><trkpt lat="45.9069183" lon="4.5989233"><ele>320.6</ele><time>2026-04-23T14:35:10.941Z</time></trkpt><trkpt lat="45.9068517" lon="4.5988033"><ele>321.0</ele><time>2026-04-23T14:35:11.941Z</time></trkpt><trkpt lat="45.9067833" lon="4.59867"><ele>320.6</ele><time>2026-04-23T14:35:12.94Z</time></trkpt><trkpt lat="45.90672" lon="4.5985467"><ele>320.20000000000005</ele><time>2026-04-23T14:35:13.941Z</time></trkpt><trkpt lat="45.9066583" lon="4.59843"><ele>319.79999999999995</ele><time>2026-04-23T14:35:14.94Z</time></trkpt><trkpt lat="45.9066033" lon="4.598325"><ele>319.4</ele><time>2026-04-23T14:35:15.941Z</time></trkpt><trkpt lat="45.90655" lon="4.5982217"><ele>319.0</ele><time>2026-04-23T14:35:16.941Z</time></trkpt><trkpt lat="45.9064917" lon="4.598135"><ele>319.0</ele><time>2026-04-23T14:35:17.94Z</time></trkpt><trkpt lat="45.9064233" lon="4.5980567"><ele>319.0</ele><time>2026-04-23T14:35:18.94Z</time></trkpt><trkpt lat="45.9063517" lon="4.59797"><ele>319.0</ele><time>2026-04-23T14:35:19.94Z</time></trkpt><trkpt lat="45.9062667" lon="4.5978817"><ele>319.0</ele><time>2026-04-23T14:35:20.941Z</time></trkpt><trkpt lat="45.9061767" lon="4.5977983"><ele>319.0</ele><time>2026-04-23T14:35:21.94Z</time></trkpt><trkpt lat="45.906095" lon="4.5977183"><ele>320.4</ele><time>2026-04-23T14:35:22.941Z</time></trkpt><trkpt lat="45.906015" lon="4.5976383"><ele>321.79999999999995</ele><time>2026-04-23T14:35:23.941Z</time></trkpt><trkpt lat="45.9059233" lon="4.5975583"><ele>323.20000000000005</ele><time>2026-04-23T14:35:24.94Z</time></trkpt><trkpt lat="45.9058367" lon="4.5974783"><ele>324.6</ele><time>2026-04-23T14:35:25.941Z</time></trkpt><trkpt lat="45.9057567" lon="4.597405"><ele>326.0</ele><time>2026-04-23T14:35:26.94Z</time></trkpt><trkpt lat="45.905675" lon="4.5973433"><ele>326.0</ele><time>2026-04-23T14:35:27.94Z</time></trkpt><trkpt lat="45.9055983" lon="4.5973017"><ele>326.0</ele><time>2026-04-23T14:35:28.941Z</time></trkpt><trkpt lat="45.9055183" lon="4.5972633"><ele>326.0</ele><time>2026-04-23T14:35:29.941Z</time></trkpt><trkpt lat="45.90544" lon="4.5972283"><ele>326.0</ele><time>2026-04-23T14:35:30.941Z</time></trkpt><trkpt lat="45.905375" lon="4.5972"><ele>326.0</ele><time>2026-04-23T14:35:31.941Z</time></trkpt><trkpt lat="45.9053117" lon="4.5971783"><ele>326.0</ele><time>2026-04-23T14:35:32.941Z</time></trkpt><trkpt lat="45.9052" lon="4.597145"><ele>326.0</ele><time>2026-04-23T14:35:34.94Z</time></trkpt><trkpt lat="45.9050817" lon="4.5971283"><ele>326.0</ele><time>2026-04-23T14:35:36.941Z</time></trkpt><trkpt lat="45.90501" lon="4.5971317"><ele>326.0</ele><time>2026-04-23T14:35:37.94Z</time></trkpt><trkpt lat="45.9049367" lon="4.597125"><ele>326.0</ele><time>2026-04-23T14:35:38.941Z</time></trkpt><trkpt lat="45.9048617" lon="4.5971217"><ele>326.0</ele><time>2026-04-23T14:35:39.94Z</time></trkpt><trkpt lat="45.9047883" lon="4.5971233"><ele>326.0</ele><time>2026-04-23T14:35:40.94Z</time></trkpt><trkpt lat="45.9047167" lon="4.5971267"><ele>326.1666666666667</ele><time>2026-04-23T14:35:41.94Z</time></trkpt><trkpt lat="45.9046367" lon="4.597135"><ele>326.33333333333337</ele><time>2026-04-23T14:35:42.94Z</time></trkpt><trkpt lat="45.9045467" lon="4.5971433"><ele>326.5</ele><time>2026-04-23T14:35:43.94Z</time></trkpt><trkpt lat="45.904455" lon="4.5971533"><ele>326.6666666666667</ele><time>2026-04-23T14:35:44.94Z</time></trkpt><trkpt lat="45.9043733" lon="4.59717"><ele>326.8333333333333</ele><time>2026-04-23T14:35:45.94Z</time></trkpt><trkpt lat="45.9042983" lon="4.5971867"><ele>327.0</ele><time>2026-04-23T14:35:46.941Z</time></trkpt><trkpt lat="45.9042283" lon="4.5972"><ele>327.6666666666667</ele><time>2026-04-23T14:35:47.941Z</time></trkpt><trkpt lat="45.90416" lon="4.597215"><ele>328.3333333333333</ele><time>2026-04-23T14:35:48.941Z</time></trkpt><trkpt lat="45.904085" lon="4.5972267"><ele>329.0</ele><time>2026-04-23T14:35:49.94Z</time></trkpt><trkpt lat="45.9040117" lon="4.5972283"><ele>329.66666666666663</ele><time>2026-04-23T14:35:50.94Z</time></trkpt><trkpt lat="45.90394" lon="4.597215"><ele>330.3333333333333</ele><time>2026-04-23T14:35:51.94Z</time></trkpt><trkpt lat="45.9038733" lon="4.5971917"><ele>331.0</ele><time>2026-04-23T14:35:52.94Z</time></trkpt><trkpt lat="45.9037733" lon="4.5971267"><ele>331.0</ele><time>2026-04-23T14:35:54.94Z</time></trkpt><trkpt lat="45.903695" lon="4.597065"><ele>331.0</ele><time>2026-04-23T14:35:56.941Z</time></trkpt><trkpt lat="45.9036267" lon="4.5970183"><ele>331.0</ele><time>2026-04-23T14:36:23.94Z</time></trkpt><trkpt lat="45.9035233" lon="4.59699"><ele>331.0</ele><time>2026-04-23T14:36:26.941Z</time></trkpt><trkpt lat="45.9034233" lon="4.596925"><ele>331.0</ele><time>2026-04-23T14:36:28.941Z</time></trkpt><trkpt lat="45.9033383" lon="4.596885"><ele>331.5</ele><time>2026-04-23T14:36:30.94Z</time></trkpt><trkpt lat="45.903255" lon="4.5968367"><ele>332.0</ele><time>2026-04-23T14:36:32.94Z</time></trkpt><trkpt lat="45.9031717" lon="4.596775"><ele>332.5</ele><time>2026-04-23T14:36:34.94Z</time></trkpt><trkpt lat="45.9030983" lon="4.596725"><ele>333.0</ele><time>2026-04-23T14:36:36.94Z</time></trkpt><trkpt lat="45.9030417" lon="4.5966667"><ele>333.5</ele><time>2026-04-23T14:36:38.94Z</time></trkpt><trkpt lat="45.9029667" lon="4.5965617"><ele>334.0</ele><time>2026-04-23T14:36:41.94Z</time></trkpt><trkpt lat="45.9029" lon="4.5964533"><ele>334.0</ele><time>2026-04-23T14:36:43.941Z</time></trkpt><trkpt lat="45.9028317" lon="4.596325"><ele>334.0</ele><time>2026-04-23T14:36:45.941Z</time></trkpt><trkpt lat="45.9027633" lon="4.5962117"><ele>334.0</ele><time>2026-04-23T14:36:47.94Z</time></trkpt><trkpt lat="45.902695" lon="4.5961167"><ele>334.0</ele><time>2026-04-23T14:36:49.941Z</time></trkpt><trkpt lat="45.9026217" lon="4.5960233"><ele>334.0</ele><time>2026-04-23T14:36:51.94Z</time></trkpt><trkpt lat="45.9025517" lon="4.5959533"><ele>332.0</ele><time>2026-04-23T14:36:53.94Z</time></trkpt><trkpt lat="45.90249" lon="4.5958983"><ele>330.0</ele><time>2026-04-23T14:36:55.94Z</time></trkpt><trkpt lat="45.9023933" lon="4.5958183"><ele>328.0</ele><time>2026-04-23T14:36:57.94Z</time></trkpt><trkpt lat="45.90234" lon="4.5957633"><ele>326.0</ele><time>2026-04-23T14:36:58.94Z</time></trkpt><trkpt lat="45.90224" lon="4.5956517"><ele>324.0</ele><time>2026-04-23T14:37:00.94Z</time></trkpt><trkpt lat="45.9021833" lon="4.5956"><ele>322.0</ele><time>2026-04-23T14:37:01.941Z</time></trkpt><trkpt lat="45.902125" lon="4.595545"><ele>322.0</ele><time>2026-04-23T14:37:02.94Z</time></trkpt><trkpt lat="45.9020667" lon="4.59549"><ele>322.0</ele><time>2026-04-23T14:37:03.941Z</time></trkpt><trkpt lat="45.9020083" lon="4.5954333"><ele>322.0</ele><time>2026-04-23T14:37:04.941Z</time></trkpt><trkpt lat="45.90195" lon="4.59537"><ele>322.0</ele><time>2026-04-23T14:37:05.94Z</time></trkpt><trkpt lat="45.9018933" lon="4.59531"><ele>322.0</ele><time>2026-04-23T14:37:06.94Z</time></trkpt><trkpt lat="45.9018017" lon="4.5951967"><ele>322.0</ele><time>2026-04-23T14:37:08.94Z</time></trkpt><trkpt lat="45.9017083" lon="4.59509"><ele>319.8333333333333</ele><time>2026-04-23T14:37:10.941Z</time></trkpt><trkpt lat="45.9016183" lon="4.5949833"><ele>317.66666666666663</ele><time>2026-04-23T14:37:12.941Z</time></trkpt><trkpt lat="45.9015617" lon="4.5948667"><ele>315.5</ele><time>2026-04-23T14:37:14.94Z</time></trkpt><trkpt lat="45.9015333" lon="4.594745"><ele>313.3333333333333</ele><time>2026-04-23T14:37:16.941Z</time></trkpt><trkpt lat="45.9015083" lon="4.5946583"><ele>311.1666666666667</ele><time>2026-04-23T14:37:18.941Z</time></trkpt><trkpt lat="45.901465" lon="4.5945917"><ele>309.0</ele><time>2026-04-23T14:37:21.941Z</time></trkpt><trkpt lat="45.9014017" lon="4.5945733"><ele>309.0</ele><time>2026-04-23T14:37:24.94Z</time></trkpt><trkpt lat="45.9014767" lon="4.5946133"><ele>309.0</ele><time>2026-04-23T14:37:45.941Z</time></trkpt><trkpt lat="45.9015233" lon="4.5946867"><ele>309.0</ele><time>2026-04-23T14:37:47.94Z</time></trkpt><trkpt lat="45.90156" lon="4.5947683"><ele>309.0</ele><time>2026-04-23T14:37:49.941Z</time></trkpt><trkpt lat="45.90158" lon="4.5948767"><ele>309.0</ele><time>2026-04-23T14:37:51.94Z</time></trkpt><trkpt lat="45.901625" lon="4.59499"><ele>309.0</ele><time>2026-04-23T14:37:53.941Z</time></trkpt><trkpt lat="45.9016817" lon="4.59506"><ele>310.3333333333333</ele><time>2026-04-23T14:37:55.94Z</time></trkpt><trkpt lat="45.9017633" lon="4.5951567"><ele>311.6666666666667</ele><time>2026-04-23T14:37:57.941Z</time></trkpt><trkpt lat="45.9018167" lon="4.5952183"><ele>313.0</ele><time>2026-04-23T14:37:58.94Z</time></trkpt><trkpt lat="45.9019067" lon="4.59532"><ele>314.33333333333337</ele><time>2026-04-23T14:38:00.941Z</time></trkpt><trkpt lat="45.901965" lon="4.5953783"><ele>315.6666666666667</ele><time>2026-04-23T14:38:01.941Z</time></trkpt><trkpt lat="45.90203" lon="4.595445"><ele>317.0</ele><time>2026-04-23T14:38:02.94Z</time></trkpt><trkpt lat="45.9020967" lon="4.59551"><ele>317.83333333333337</ele><time>2026-04-23T14:38:03.94Z</time></trkpt><trkpt lat="45.9021533" lon="4.5955717"><ele>318.6666666666667</ele><time>2026-04-23T14:38:04.941Z</time></trkpt><trkpt lat="45.9022133" lon="4.5956333"><ele>319.5</ele><time>2026-04-23T14:38:05.94Z</time></trkpt><trkpt lat="45.9022783" lon="4.5956967"><ele>320.3333333333333</ele><time>2026-04-23T14:38:06.94Z</time></trkpt><trkpt lat="45.9023383" lon="4.5957567"><ele>321.16666666666663</ele><time>2026-04-23T14:38:07.941Z</time></trkpt><trkpt lat="45.9023967" lon="4.5958067"><ele>322.0</ele><time>2026-04-23T14:38:08.941Z</time></trkpt><trkpt lat="45.90248" lon="4.5958917"><ele>322.0</ele><time>2026-04-23T14:38:10.94Z</time></trkpt><trkpt lat="45.9025367" lon="4.5959433"><ele>322.0</ele><time>2026-04-23T14:38:12.94Z</time></trkpt><trkpt lat="45.9026067" lon="4.5958217"><ele>322.0</ele><time>2026-04-23T14:38:23.94Z</time></trkpt><trkpt lat="45.9026683" lon="4.5956783"><ele>322.0</ele><time>2026-04-23T14:38:25.94Z</time></trkpt><trkpt lat="45.9027383" lon="4.59554"><ele>322.0</ele><time>2026-04-23T14:38:27.941Z</time></trkpt><trkpt lat="45.9027833" lon="4.59546"><ele>322.66666666666663</ele><time>2026-04-23T14:38:28.94Z</time></trkpt><trkpt lat="45.9028317" lon="4.595375"><ele>323.3333333333333</ele><time>2026-04-23T14:38:29.94Z</time></trkpt><trkpt lat="45.90288" lon="4.5952917"><ele>324.0</ele><time>2026-04-23T14:38:30.94Z</time></trkpt><trkpt lat="45.9029333" lon="4.5952017"><ele>324.6666666666667</ele><time>2026-04-23T14:38:31.94Z</time></trkpt><trkpt lat="45.9029867" lon="4.5951133"><ele>325.33333333333337</ele><time>2026-04-23T14:38:32.941Z</time></trkpt><trkpt lat="45.9030433" lon="4.5950217"><ele>326.0</ele><time>2026-04-23T14:38:33.94Z</time></trkpt><trkpt lat="45.9031017" lon="4.5949217"><ele>326.0</ele><time>2026-04-23T14:38:34.941Z</time></trkpt><trkpt lat="45.9031567" lon="4.5948417"><ele>326.0</ele><time>2026-04-23T14:38:35.94Z</time></trkpt><trkpt lat="45.9032033" lon="4.5947667"><ele>326.0</ele><time>2026-04-23T14:38:36.94Z</time></trkpt><trkpt lat="45.9032517" lon="4.594695"><ele>326.0</ele><time>2026-04-23T14:38:37.94Z</time></trkpt><trkpt lat="45.9033017" lon="4.5946283"><ele>326.0</ele><time>2026-04-23T14:38:38.94Z</time></trkpt><trkpt lat="45.903355" lon="4.594565"><ele>326.0</ele><time>2026-04-23T14:38:39.94Z</time></trkpt><trkpt lat="45.903405" lon="4.5944983"><ele>326.0</ele><time>2026-04-23T14:38:40.941Z</time></trkpt><trkpt lat="45.903455" lon="4.5944317"><ele>326.5</ele><time>2026-04-23T14:38:41.941Z</time></trkpt><trkpt lat="45.9035067" lon="4.59437"><ele>327.0</ele><time>2026-04-23T14:38:42.94Z</time></trkpt><trkpt lat="45.903555" lon="4.5943083"><ele>327.5</ele><time>2026-04-23T14:38:43.941Z</time></trkpt><trkpt lat="45.9036" lon="4.594245"><ele>328.0</ele><time>2026-04-23T14:38:44.94Z</time></trkpt><trkpt lat="45.90367" lon="4.594135"><ele>328.5</ele><time>2026-04-23T14:38:46.941Z</time></trkpt><trkpt lat="45.9037617" lon="4.5940283"><ele>329.0</ele><time>2026-04-23T14:38:48.941Z</time></trkpt><trkpt lat="45.9038117" lon="4.59397"><ele>329.0</ele><time>2026-04-23T14:38:49.94Z</time></trkpt><trkpt lat="45.903895" lon="4.59387"><ele>329.0</ele><time>2026-04-23T14:38:51.94Z</time></trkpt><trkpt lat="45.9039683" lon="4.5937983"><ele>329.0</ele><time>2026-04-23T14:38:54.94Z</time></trkpt><trkpt lat="45.9039617" lon="4.593695"><ele>329.0</ele><time>2026-04-23T14:39:05.94Z</time></trkpt><trkpt lat="45.9039117" lon="4.5936"><ele>329.0</ele><time>2026-04-23T14:39:08.941Z</time></trkpt><trkpt lat="45.903855" lon="4.5935067"><ele>329.0</ele><time>2026-04-23T14:39:14.941Z</time></trkpt><trkpt lat="45.9037933" lon="4.5933867"><ele>328.33333333333337</ele><time>2026-04-23T14:39:16.941Z</time></trkpt><trkpt lat="45.9037267" lon="4.59325"><ele>327.6666666666667</ele><time>2026-04-23T14:39:18.94Z</time></trkpt><trkpt lat="45.903655" lon="4.5931083"><ele>327.0</ele><time>2026-04-23T14:39:20.94Z</time></trkpt><trkpt lat="45.9036233" lon="4.5930283"><ele>326.3333333333333</ele><time>2026-04-23T14:39:21.94Z</time></trkpt><trkpt lat="45.90359" lon="4.5929483"><ele>325.66666666666663</ele><time>2026-04-23T14:39:22.94Z</time></trkpt><trkpt lat="45.9035517" lon="4.5928733"><ele>325.0</ele><time>2026-04-23T14:39:23.94Z</time></trkpt><trkpt lat="45.9034917" lon="4.59275"><ele>324.0</ele><time>2026-04-23T14:39:25.941Z</time></trkpt><trkpt lat="45.903435" lon="4.5926317"><ele>323.0</ele><time>2026-04-23T14:39:27.941Z</time></trkpt><trkpt lat="45.9033867" lon="4.5925233"><ele>322.0</ele><time>2026-04-23T14:39:29.94Z</time></trkpt><trkpt lat="45.9033633" lon="4.5924367"><ele>321.0</ele><time>2026-04-23T14:39:32.94Z</time></trkpt><trkpt lat="45.9032917" lon="4.5924333"><ele>320.0</ele><time>2026-04-23T14:39:39.94Z</time></trkpt><trkpt lat="45.9032183" lon="4.592415"><ele>319.0</ele><time>2026-04-23T14:39:42.941Z</time></trkpt><trkpt lat="45.9031533" lon="4.5923467"><ele>317.8333333333333</ele><time>2026-04-23T14:39:44.94Z</time></trkpt><trkpt lat="45.9030933" lon="4.5922683"><ele>316.66666666666663</ele><time>2026-04-23T14:39:46.941Z</time></trkpt><trkpt lat="45.9030233" lon="4.59219"><ele>315.5</ele><time>2026-04-23T14:39:48.941Z</time></trkpt><trkpt lat="45.9029717" lon="4.592125"><ele>314.3333333333333</ele><time>2026-04-23T14:39:50.94Z</time></trkpt><trkpt lat="45.90292" lon="4.59206"><ele>313.1666666666667</ele><time>2026-04-23T14:39:53.94Z</time></trkpt><trkpt lat="45.9028833" lon="4.59196"><ele>312.0</ele><time>2026-04-23T14:39:56.941Z</time></trkpt><trkpt lat="45.9028383" lon="4.5918383"><ele>311.1666666666667</ele><time>2026-04-23T14:39:59.941Z</time></trkpt><trkpt lat="45.902795" lon="4.5917317"><ele>310.3333333333333</ele><time>2026-04-23T14:40:01.94Z</time></trkpt><trkpt lat="45.9027567" lon="4.59162"><ele>309.5</ele><time>2026-04-23T14:40:03.94Z</time></trkpt><trkpt lat="45.902715" lon="4.5915217"><ele>308.66666666666663</ele><time>2026-04-23T14:40:05.94Z</time></trkpt><trkpt lat="45.90267" lon="4.59141"><ele>307.8333333333333</ele><time>2026-04-23T14:40:07.941Z</time></trkpt><trkpt lat="45.9026383" lon="4.5913267"><ele>307.0</ele><time>2026-04-23T14:40:09.941Z</time></trkpt><trkpt lat="45.9025967" lon="4.591255"><ele>305.85714285714283</ele><time>2026-04-23T14:40:11.941Z</time></trkpt><trkpt lat="45.9025517" lon="4.5911767"><ele>304.7142857142857</ele><time>2026-04-23T14:40:13.94Z</time></trkpt><trkpt lat="45.9025" lon="4.5911"><ele>303.57142857142856</ele><time>2026-04-23T14:40:15.94Z</time></trkpt><trkpt lat="45.90244" lon="4.5910233"><ele>302.42857142857144</ele><time>2026-04-23T14:40:17.941Z</time></trkpt><trkpt lat="45.9023933" lon="4.5909567"><ele>301.2857142857143</ele><time>2026-04-23T14:40:19.94Z</time></trkpt><trkpt lat="45.9023567" lon="4.59087"><ele>300.1428571428571</ele><time>2026-04-23T14:40:22.94Z</time></trkpt><trkpt lat="45.90232" lon="4.590765"><ele>299.0</ele><time>2026-04-23T14:40:27.94Z</time></trkpt><trkpt lat="45.9022633" lon="4.5906633"><ele>298.33333333333337</ele><time>2026-04-23T14:40:30.94Z</time></trkpt><trkpt lat="45.9022233" lon="4.5905817"><ele>297.6666666666667</ele><time>2026-04-23T14:40:32.94Z</time></trkpt><trkpt lat="45.9021733" lon="4.5904967"><ele>297.0</ele><time>2026-04-23T14:40:34.941Z</time></trkpt><trkpt lat="45.9021217" lon="4.5904067"><ele>296.3333333333333</ele><time>2026-04-23T14:40:36.94Z</time></trkpt><trkpt lat="45.9020667" lon="4.59032"><ele>295.66666666666663</ele><time>2026-04-23T14:40:38.94Z</time></trkpt><trkpt lat="45.9020067" lon="4.5902283"><ele>295.0</ele><time>2026-04-23T14:40:40.941Z</time></trkpt><trkpt lat="45.9019467" lon="4.5901417"><ele>293.8</ele><time>2026-04-23T14:40:42.941Z</time></trkpt><trkpt lat="45.90189" lon="4.5900467"><ele>292.6</ele><time>2026-04-23T14:40:44.94Z</time></trkpt><trkpt lat="45.9018267" lon="4.58993"><ele>291.4</ele><time>2026-04-23T14:40:46.941Z</time></trkpt><trkpt lat="45.9017767" lon="4.589825"><ele>290.2</ele><time>2026-04-23T14:40:48.941Z</time></trkpt><trkpt lat="45.9017267" lon="4.589725"><ele>289.0</ele><time>2026-04-23T14:40:50.941Z</time></trkpt><trkpt lat="45.9016617" lon="4.58962"><ele>287.4</ele><time>2026-04-23T14:40:52.941Z</time></trkpt><trkpt lat="45.9015783" lon="4.5894933"><ele>285.79999999999995</ele><time>2026-04-23T14:40:54.94Z</time></trkpt><trkpt lat="45.901535" lon="4.5894267"><ele>284.20000000000005</ele><time>2026-04-23T14:40:55.941Z</time></trkpt><trkpt lat="45.9014883" lon="4.589365"><ele>282.6</ele><time>2026-04-23T14:40:56.941Z</time></trkpt><trkpt lat="45.9014083" lon="4.5892533"><ele>281.0</ele><time>2026-04-23T14:40:58.941Z</time></trkpt><trkpt lat="45.9013267" lon="4.5891333"><ele>281.0</ele><time>2026-04-23T14:41:00.941Z</time></trkpt><trkpt lat="45.9012567" lon="4.58901"><ele>281.0</ele><time>2026-04-23T14:41:02.94Z</time></trkpt><trkpt lat="45.90118" lon="4.5889067"><ele>281.0</ele><time>2026-04-23T14:41:04.941Z</time></trkpt><trkpt lat="45.9010967" lon="4.5888033"><ele>281.0</ele><time>2026-04-23T14:41:06.94Z</time></trkpt><trkpt lat="45.9010217" lon="4.5887067"><ele>281.0</ele><time>2026-04-23T14:41:08.941Z</time></trkpt><trkpt lat="45.900965" lon="4.588605"><ele>277.75</ele><time>2026-04-23T14:41:10.94Z</time></trkpt><trkpt lat="45.90087" lon="4.5885133"><ele>274.5</ele><time>2026-04-23T14:41:12.94Z</time></trkpt><trkpt lat="45.900755" lon="4.5884517"><ele>271.25</ele><time>2026-04-23T14:41:14.94Z</time></trkpt><trkpt lat="45.9006467" lon="4.5884233"><ele>268.0</ele><time>2026-04-23T14:41:16.94Z</time></trkpt><trkpt lat="45.9005333" lon="4.5884017"><ele>268.0</ele><time>2026-04-23T14:41:18.941Z</time></trkpt><trkpt lat="45.900405" lon="4.5883883"><ele>268.0</ele><time>2026-04-23T14:41:20.94Z</time></trkpt><trkpt lat="45.9003317" lon="4.58838"><ele>268.0</ele><time>2026-04-23T14:41:21.941Z</time></trkpt><trkpt lat="45.9002633" lon="4.5883817"><ele>268.0</ele><time>2026-04-23T14:41:22.94Z</time></trkpt><trkpt lat="45.9001567" lon="4.58839"><ele>268.0</ele><time>2026-04-23T14:41:24.941Z</time></trkpt><trkpt lat="45.900055" lon="4.5884167"><ele>267.3333333333333</ele><time>2026-04-23T14:41:26.941Z</time></trkpt><trkpt lat="45.899955" lon="4.5884317"><ele>266.66666666666663</ele><time>2026-04-23T14:41:28.941Z</time></trkpt><trkpt lat="45.8998667" lon="4.588445"><ele>266.0</ele><time>2026-04-23T14:41:30.941Z</time></trkpt><trkpt lat="45.8998067" lon="4.588485"><ele>265.3333333333333</ele><time>2026-04-23T14:41:32.94Z</time></trkpt><trkpt lat="45.899745" lon="4.5885533"><ele>264.6666666666667</ele><time>2026-04-23T14:41:34.94Z</time></trkpt><trkpt lat="45.89966" lon="4.5886417"><ele>264.0</ele><time>2026-04-23T14:41:36.941Z</time></trkpt><trkpt lat="45.8995883" lon="4.58872"><ele>264.0</ele><time>2026-04-23T14:41:38.941Z</time></trkpt><trkpt lat="45.899515" lon="4.5887983"><ele>264.0</ele><time>2026-04-23T14:41:40.941Z</time></trkpt><trkpt lat="45.8994433" lon="4.588895"><ele>264.0</ele><time>2026-04-23T14:41:42.94Z</time></trkpt><trkpt lat="45.89939" lon="4.58895"><ele>264.0</ele><time>2026-04-23T14:41:44.941Z</time></trkpt><trkpt lat="45.8992717" lon="4.5890933"><ele>264.0</ele><time>2026-04-23T14:42:07.941Z</time></trkpt><trkpt lat="45.8991733" lon="4.58916"><ele>261.8333333333333</ele><time>2026-04-23T14:42:09.94Z</time></trkpt><trkpt lat="45.8991133" lon="4.5892217"><ele>259.6666666666667</ele><time>2026-04-23T14:42:11.941Z</time></trkpt><trkpt lat="45.899055" lon="4.589265"><ele>257.5</ele><time>2026-04-23T14:42:13.94Z</time></trkpt><trkpt lat="45.8989617" lon="4.5893117"><ele>255.33333333333334</ele><time>2026-04-23T14:42:16.941Z</time></trkpt><trkpt lat="45.89888" lon="4.5893517"><ele>253.16666666666669</ele><time>2026-04-23T14:42:18.94Z</time></trkpt><trkpt lat="45.8987917" lon="4.58938"><ele>251.0</ele><time>2026-04-23T14:42:20.94Z</time></trkpt><trkpt lat="45.898695" lon="4.5893717"><ele>251.0</ele><time>2026-04-23T14:42:22.94Z</time></trkpt><trkpt lat="45.8986" lon="4.5893617"><ele>251.00000000000003</ele><time>2026-04-23T14:42:24.94Z</time></trkpt><trkpt lat="45.8984983" lon="4.5893583"><ele>251.00000000000003</ele><time>2026-04-23T14:42:26.941Z</time></trkpt><trkpt lat="45.8984133" lon="4.5893583"><ele>251.0</ele><time>2026-04-23T14:42:28.941Z</time></trkpt><trkpt lat="45.898315" lon="4.589365"><ele>251.0</ele><time>2026-04-23T14:42:30.94Z</time></trkpt><trkpt lat="45.8982133" lon="4.58938"><ele>249.16666666666669</ele><time>2026-04-23T14:42:32.94Z</time></trkpt><trkpt lat="45.8981217" lon="4.589375"><ele>247.33333333333334</ele><time>2026-04-23T14:42:34.941Z</time></trkpt><trkpt lat="45.8980383" lon="4.5893817"><ele>245.5</ele><time>2026-04-23T14:42:36.941Z</time></trkpt><trkpt lat="45.8979683" lon="4.5893833"><ele>243.66666666666669</ele><time>2026-04-23T14:42:38.94Z</time></trkpt><trkpt lat="45.897895" lon="4.5893683"><ele>241.83333333333334</ele><time>2026-04-23T14:42:41.94Z</time></trkpt><trkpt lat="45.8978117" lon="4.589335"><ele>240.0</ele><time>2026-04-23T14:42:56.94Z</time></trkpt><trkpt lat="45.8977117" lon="4.5894083"><ele>240.0</ele><time>2026-04-23T14:42:58.941Z</time></trkpt><trkpt lat="45.8976567" lon="4.589495"><ele>240.0</ele><time>2026-04-23T14:42:59.94Z</time></trkpt><trkpt lat="45.8976" lon="4.589575"><ele>240.0</ele><time>2026-04-23T14:43:00.94Z</time></trkpt><trkpt lat="45.8975533" lon="4.5896517"><ele>240.0</ele><time>2026-04-23T14:43:01.94Z</time></trkpt><trkpt lat="45.8975117" lon="4.589725"><ele>240.0</ele><time>2026-04-23T14:43:02.94Z</time></trkpt><trkpt lat="45.897475" lon="4.5898017"><ele>240.0</ele><time>2026-04-23T14:43:03.941Z</time></trkpt><trkpt lat="45.897405" lon="4.589925"><ele>238.6</ele><time>2026-04-23T14:43:05.941Z</time></trkpt><trkpt lat="45.8973233" lon="4.5900533"><ele>237.2</ele><time>2026-04-23T14:43:07.941Z</time></trkpt><trkpt lat="45.8972433" lon="4.59021"><ele>235.8</ele><time>2026-04-23T14:43:09.941Z</time></trkpt><trkpt lat="45.8971883" lon="4.5902917"><ele>234.4</ele><time>2026-04-23T14:43:10.94Z</time></trkpt><trkpt lat="45.897135" lon="4.590385"><ele>233.0</ele><time>2026-04-23T14:43:11.94Z</time></trkpt><trkpt lat="45.89709" lon="4.590465"><ele>233.00000000000003</ele><time>2026-04-23T14:43:12.94Z</time></trkpt><trkpt lat="45.8970417" lon="4.5905467"><ele>233.0</ele><time>2026-04-23T14:43:13.94Z</time></trkpt><trkpt lat="45.8969883" lon="4.59064"><ele>233.0</ele><time>2026-04-23T14:43:14.94Z</time></trkpt><trkpt lat="45.8969333" lon="4.5907383"><ele>233.0</ele><time>2026-04-23T14:43:15.94Z</time></trkpt><trkpt lat="45.8968883" lon="4.5908383"><ele>233.00000000000003</ele><time>2026-04-23T14:43:16.941Z</time></trkpt><trkpt lat="45.8968333" lon="4.5909183"><ele>233.0</ele><time>2026-04-23T14:43:17.94Z</time></trkpt><trkpt lat="45.8967883" lon="4.5909817"><ele>233.0</ele><time>2026-04-23T14:43:18.941Z</time></trkpt><trkpt lat="45.896725" lon="4.5910817"><ele>233.0</ele><time>2026-04-23T14:43:20.94Z</time></trkpt><trkpt lat="45.89669" lon="4.5911617"><ele>233.0</ele><time>2026-04-23T14:43:24.94Z</time></trkpt><trkpt lat="45.8966367" lon="4.5912417"><ele>233.0</ele><time>2026-04-23T14:43:26.94Z</time></trkpt><trkpt lat="45.8965433" lon="4.59132"><ele>233.0</ele><time>2026-04-23T14:43:28.94Z</time></trkpt><trkpt lat="45.8964167" lon="4.5913517"><ele>233.0</ele><time>2026-04-23T14:43:30.941Z</time></trkpt><trkpt lat="45.8963167" lon="4.5914617"><ele>233.0</ele><time>2026-04-23T14:43:32.94Z</time></trkpt><trkpt lat="45.8962183" lon="4.5914983"><ele>233.0</ele><time>2026-04-23T14:43:34.94Z</time></trkpt><trkpt lat="45.8961017" lon="4.5914267"><ele>233.0</ele><time>2026-04-23T14:43:36.94Z</time></trkpt><trkpt lat="45.89604" lon="4.5913783"><ele>233.0</ele><time>2026-04-23T14:43:37.941Z</time></trkpt><trkpt lat="45.8959733" lon="4.591335"><ele>233.2</ele><time>2026-04-23T14:43:38.94Z</time></trkpt><trkpt lat="45.8959017" lon="4.591305"><ele>233.4</ele><time>2026-04-23T14:43:39.94Z</time></trkpt><trkpt lat="45.89576" lon="4.5912933"><ele>233.59999999999997</ele><time>2026-04-23T14:43:41.941Z</time></trkpt><trkpt lat="45.8956733" lon="4.5913017"><ele>233.79999999999998</ele><time>2026-04-23T14:43:42.941Z</time></trkpt><trkpt lat="45.8955967" lon="4.5912967"><ele>234.0</ele><time>2026-04-23T14:43:43.941Z</time></trkpt><trkpt lat="45.8955233" lon="4.5912767"><ele>234.0</ele><time>2026-04-23T14:43:44.941Z</time></trkpt><trkpt lat="45.8954633" lon="4.5912467"><ele>234.0</ele><time>2026-04-23T14:43:45.94Z</time></trkpt><trkpt lat="45.8954067" lon="4.5912033"><ele>234.0</ele><time>2026-04-23T14:43:46.94Z</time></trkpt><trkpt lat="45.8952983" lon="4.5911067"><ele>234.0</ele><time>2026-04-23T14:43:48.94Z</time></trkpt><trkpt lat="45.8952467" lon="4.59105"><ele>234.0</ele><time>2026-04-23T14:43:49.941Z</time></trkpt><trkpt lat="45.8951967" lon="4.590965"><ele>234.0</ele><time>2026-04-23T14:43:50.941Z</time></trkpt><trkpt lat="45.89514" lon="4.590855"><ele>234.0</ele><time>2026-04-23T14:43:51.94Z</time></trkpt><trkpt lat="45.8950817" lon="4.5907183"><ele>234.0</ele><time>2026-04-23T14:43:52.94Z</time></trkpt><trkpt lat="45.895015" lon="4.5905717"><ele>234.0</ele><time>2026-04-23T14:43:53.941Z</time></trkpt><trkpt lat="45.894945" lon="4.590415"><ele>234.0</ele><time>2026-04-23T14:43:54.94Z</time></trkpt><trkpt lat="45.8948767" lon="4.5902633"><ele>234.0</ele><time>2026-04-23T14:43:55.94Z</time></trkpt><trkpt lat="45.894815" lon="4.5901167"><ele>233.99999999999997</ele><time>2026-04-23T14:43:56.941Z</time></trkpt><trkpt lat="45.8947583" lon="4.5899733"><ele>233.99999999999997</ele><time>2026-04-23T14:43:57.941Z</time></trkpt><trkpt lat="45.8947083" lon="4.5898333"><ele>234.0</ele><time>2026-04-23T14:43:58.941Z</time></trkpt><trkpt lat="45.894665" lon="4.589695"><ele>234.0</ele><time>2026-04-23T14:43:59.941Z</time></trkpt><trkpt lat="45.8946167" lon="4.5895417"><ele>233.79999999999998</ele><time>2026-04-23T14:44:00.94Z</time></trkpt><trkpt lat="45.89456" lon="4.5893817"><ele>233.59999999999997</ele><time>2026-04-23T14:44:01.941Z</time></trkpt><trkpt lat="45.894505" lon="4.5892333"><ele>233.4</ele><time>2026-04-23T14:44:02.94Z</time></trkpt><trkpt lat="45.8944583" lon="4.5891017"><ele>233.2</ele><time>2026-04-23T14:44:03.941Z</time></trkpt><trkpt lat="45.8944183" lon="4.5889883"><ele>233.0</ele><time>2026-04-23T14:44:04.941Z</time></trkpt><trkpt lat="45.8943833" lon="4.5888917"><ele>233.00000000000003</ele><time>2026-04-23T14:44:05.94Z</time></trkpt><trkpt lat="45.8943483" lon="4.5888083"><ele>233.0</ele><time>2026-04-23T14:44:06.941Z</time></trkpt><trkpt lat="45.89432" lon="4.5886933"><ele>233.0</ele><time>2026-04-23T14:44:08.941Z</time></trkpt><trkpt lat="45.8943383" lon="4.58858"><ele>233.0</ele><time>2026-04-23T14:44:10.941Z</time></trkpt><trkpt lat="45.8943667" lon="4.5884933"><ele>233.00000000000003</ele><time>2026-04-23T14:44:11.94Z</time></trkpt><trkpt lat="45.8944183" lon="4.5883867"><ele>233.0</ele><time>2026-04-23T14:44:12.941Z</time></trkpt><trkpt lat="45.89449" lon="4.588285"><ele>233.50000000000003</ele><time>2026-04-23T14:44:13.94Z</time></trkpt><trkpt lat="45.8945617" lon="4.588195"><ele>234.0</ele><time>2026-04-23T14:44:14.941Z</time></trkpt><trkpt lat="45.8946183" lon="4.5881233"><ele>234.5</ele><time>2026-04-23T14:44:15.941Z</time></trkpt><trkpt lat="45.8946933" lon="4.58801"><ele>235.0</ele><time>2026-04-23T14:44:17.941Z</time></trkpt><trkpt lat="45.8947317" lon="4.5879233"><ele>235.50000000000003</ele><time>2026-04-23T14:44:18.94Z</time></trkpt><trkpt lat="45.8947633" lon="4.58781"><ele>236.0</ele><time>2026-04-23T14:44:19.94Z</time></trkpt><trkpt lat="45.8947883" lon="4.5876983"><ele>236.66666666666669</ele><time>2026-04-23T14:44:20.94Z</time></trkpt><trkpt lat="45.8948017" lon="4.587585"><ele>237.33333333333334</ele><time>2026-04-23T14:44:21.941Z</time></trkpt><trkpt lat="45.8948067" lon="4.587475"><ele>238.0</ele><time>2026-04-23T14:44:22.941Z</time></trkpt><trkpt lat="45.8947967" lon="4.58737"><ele>238.66666666666669</ele><time>2026-04-23T14:44:23.94Z</time></trkpt><trkpt lat="45.8947783" lon="4.5872533"><ele>239.33333333333334</ele><time>2026-04-23T14:44:24.94Z</time></trkpt><trkpt lat="45.894755" lon="4.5871233"><ele>240.0</ele><time>2026-04-23T14:44:25.94Z</time></trkpt><trkpt lat="45.8947333" lon="4.586995"><ele>240.8</ele><time>2026-04-23T14:44:26.94Z</time></trkpt><trkpt lat="45.8947133" lon="4.5868733"><ele>241.6</ele><time>2026-04-23T14:44:27.94Z</time></trkpt><trkpt lat="45.894685" lon="4.5867733"><ele>242.39999999999998</ele><time>2026-04-23T14:44:28.94Z</time></trkpt><trkpt lat="45.8946667" lon="4.5866733"><ele>243.2</ele><time>2026-04-23T14:44:29.941Z</time></trkpt><trkpt lat="45.89465" lon="4.5865033"><ele>244.0</ele><time>2026-04-23T14:44:31.941Z</time></trkpt><trkpt lat="45.8946317" lon="4.5863467"><ele>244.0</ele><time>2026-04-23T14:44:33.94Z</time></trkpt><trkpt lat="45.89459" lon="4.5862167"><ele>243.99999999999997</ele><time>2026-04-23T14:44:35.941Z</time></trkpt><trkpt lat="45.8945517" lon="4.5860683"><ele>243.99999999999997</ele><time>2026-04-23T14:44:37.94Z</time></trkpt><trkpt lat="45.894535" lon="4.58587"><ele>244.0</ele><time>2026-04-23T14:44:39.94Z</time></trkpt><trkpt lat="45.894535" lon="4.5857283"><ele>244.0</ele><time>2026-04-23T14:44:40.941Z</time></trkpt><trkpt lat="45.8945333" lon="4.5855717"><ele>244.39999999999998</ele><time>2026-04-23T14:44:41.941Z</time></trkpt><trkpt lat="45.8945367" lon="4.585405"><ele>244.79999999999998</ele><time>2026-04-23T14:44:42.94Z</time></trkpt><trkpt lat="45.894545" lon="4.585225"><ele>245.20000000000002</ele><time>2026-04-23T14:44:43.941Z</time></trkpt><trkpt lat="45.8945517" lon="4.5850683"><ele>245.60000000000002</ele><time>2026-04-23T14:44:44.941Z</time></trkpt><trkpt lat="45.8945533" lon="4.5849383"><ele>246.0</ele><time>2026-04-23T14:44:45.941Z</time></trkpt><trkpt lat="45.8945517" lon="4.5848233"><ele>246.20000000000002</ele><time>2026-04-23T14:44:46.941Z</time></trkpt><trkpt lat="45.8945467" lon="4.5846967"><ele>246.40000000000003</ele><time>2026-04-23T14:44:47.94Z</time></trkpt><trkpt lat="45.8945367" lon="4.584555"><ele>246.6</ele><time>2026-04-23T14:44:48.94Z</time></trkpt><trkpt lat="45.8945283" lon="4.5844033"><ele>246.8</ele><time>2026-04-23T14:44:49.94Z</time></trkpt><trkpt lat="45.8945183" lon="4.5842533"><ele>247.0</ele><time>2026-04-23T14:44:50.94Z</time></trkpt><trkpt lat="45.894505" lon="4.5841167"><ele>247.8</ele><time>2026-04-23T14:44:51.94Z</time></trkpt><trkpt lat="45.8944883" lon="4.583985"><ele>248.6</ele><time>2026-04-23T14:44:52.94Z</time></trkpt><trkpt lat="45.89448" lon="4.5838467"><ele>249.40000000000003</ele><time>2026-04-23T14:44:53.94Z</time></trkpt><trkpt lat="45.8944683" lon="4.58369"><ele>250.20000000000002</ele><time>2026-04-23T14:44:54.94Z</time></trkpt><trkpt lat="45.89445" lon="4.5835233"><ele>251.0</ele><time>2026-04-23T14:44:55.94Z</time></trkpt><trkpt lat="45.8944317" lon="4.5833567"><ele>251.60000000000002</ele><time>2026-04-23T14:44:56.94Z</time></trkpt><trkpt lat="45.8944117" lon="4.5831933"><ele>252.20000000000002</ele><time>2026-04-23T14:44:57.941Z</time></trkpt><trkpt lat="45.8943983" lon="4.58303"><ele>252.79999999999998</ele><time>2026-04-23T14:44:58.941Z</time></trkpt><trkpt lat="45.8943633" lon="4.5828733"><ele>253.39999999999998</ele><time>2026-04-23T14:44:59.941Z</time></trkpt><trkpt lat="45.8943333" lon="4.58273"><ele>254.0</ele><time>2026-04-23T14:45:00.94Z</time></trkpt><trkpt lat="45.89431" lon="4.58261"><ele>254.6</ele><time>2026-04-23T14:45:01.94Z</time></trkpt><trkpt lat="45.894285" lon="4.582485"><ele>255.2</ele><time>2026-04-23T14:45:02.941Z</time></trkpt><trkpt lat="45.8942517" lon="4.5823533"><ele>255.79999999999998</ele><time>2026-04-23T14:45:03.941Z</time></trkpt><trkpt lat="45.8942067" lon="4.5822233"><ele>256.4</ele><time>2026-04-23T14:45:04.94Z</time></trkpt><trkpt lat="45.8941367" lon="4.5820867"><ele>257.0</ele><time>2026-04-23T14:45:05.94Z</time></trkpt><trkpt lat="45.8940583" lon="4.5819567"><ele>260.0</ele><time>2026-04-23T14:45:06.94Z</time></trkpt><trkpt lat="45.89397" lon="4.5818167"><ele>263.0</ele><time>2026-04-23T14:45:07.94Z</time></trkpt><trkpt lat="45.8938967" lon="4.5816817"><ele>266.0</ele><time>2026-04-23T14:45:08.941Z</time></trkpt><trkpt lat="45.89383" lon="4.581565"><ele>269.0</ele><time>2026-04-23T14:45:09.94Z</time></trkpt><trkpt lat="45.8937633" lon="4.5814333"><ele>269.0</ele><time>2026-04-23T14:45:10.94Z</time></trkpt><trkpt lat="45.8937017" lon="4.5812917"><ele>269.0</ele><time>2026-04-23T14:45:11.94Z</time></trkpt><trkpt lat="45.89364" lon="4.5811467"><ele>269.0</ele><time>2026-04-23T14:45:12.94Z</time></trkpt><trkpt lat="45.8935733" lon="4.5810133"><ele>269.0</ele><time>2026-04-23T14:45:13.941Z</time></trkpt><trkpt lat="45.89351" lon="4.580895"><ele>268.59999999999997</ele><time>2026-04-23T14:45:14.94Z</time></trkpt><trkpt lat="45.893445" lon="4.580785"><ele>268.2</ele><time>2026-04-23T14:45:15.94Z</time></trkpt><trkpt lat="45.8933767" lon="4.58068"><ele>267.79999999999995</ele><time>2026-04-23T14:45:16.941Z</time></trkpt><trkpt lat="45.8933067" lon="4.5805767"><ele>267.4</ele><time>2026-04-23T14:45:17.941Z</time></trkpt><trkpt lat="45.89323" lon="4.580475"><ele>267.0</ele><time>2026-04-23T14:45:18.94Z</time></trkpt><trkpt lat="45.8931483" lon="4.5803633"><ele>267.0</ele><time>2026-04-23T14:45:19.94Z</time></trkpt><trkpt lat="45.8930683" lon="4.58026"><ele>267.0</ele><time>2026-04-23T14:45:20.941Z</time></trkpt><trkpt lat="45.892985" lon="4.5801617"><ele>267.0</ele><time>2026-04-23T14:45:21.94Z</time></trkpt><trkpt lat="45.8928983" lon="4.5800633"><ele>267.0</ele><time>2026-04-23T14:45:22.94Z</time></trkpt><trkpt lat="45.8928067" lon="4.5799583"><ele>267.0</ele><time>2026-04-23T14:45:23.94Z</time></trkpt><trkpt lat="45.8927083" lon="4.57985"><ele>267.0</ele><time>2026-04-23T14:45:24.941Z</time></trkpt><trkpt lat="45.8926117" lon="4.5797283"><ele>267.0</ele><time>2026-04-23T14:45:25.941Z</time></trkpt><trkpt lat="45.8925217" lon="4.5796183"><ele>267.0</ele><time>2026-04-23T14:45:26.941Z</time></trkpt><trkpt lat="45.8924333" lon="4.57951"><ele>267.0</ele><time>2026-04-23T14:45:27.941Z</time></trkpt><trkpt lat="45.892345" lon="4.5794017"><ele>267.8</ele><time>2026-04-23T14:45:28.94Z</time></trkpt><trkpt lat="45.89225" lon="4.5792967"><ele>268.6</ele><time>2026-04-23T14:45:29.94Z</time></trkpt><trkpt lat="45.8921583" lon="4.579195"><ele>269.40000000000003</ele><time>2026-04-23T14:45:30.941Z</time></trkpt><trkpt lat="45.892075" lon="4.5791017"><ele>270.2</ele><time>2026-04-23T14:45:31.941Z</time></trkpt><trkpt lat="45.8920017" lon="4.579015"><ele>271.0</ele><time>2026-04-23T14:45:32.941Z</time></trkpt><trkpt lat="45.891935" lon="4.5789417"><ele>271.0</ele><time>2026-04-23T14:45:33.941Z</time></trkpt><trkpt lat="45.8918667" lon="4.5788583"><ele>271.0</ele><time>2026-04-23T14:45:34.941Z</time></trkpt><trkpt lat="45.8917833" lon="4.5787683"><ele>271.0</ele><time>2026-04-23T14:45:35.941Z</time></trkpt><trkpt lat="45.8916967" lon="4.578675"><ele>271.0</ele><time>2026-04-23T14:45:36.94Z</time></trkpt><trkpt lat="45.8916033" lon="4.57859"><ele>271.0</ele><time>2026-04-23T14:45:37.94Z</time></trkpt><trkpt lat="45.8915167" lon="4.578515"><ele>271.8</ele><time>2026-04-23T14:45:38.94Z</time></trkpt><trkpt lat="45.8914267" lon="4.5784517"><ele>272.6</ele><time>2026-04-23T14:45:39.94Z</time></trkpt><trkpt lat="45.8913317" lon="4.5783917"><ele>273.4</ele><time>2026-04-23T14:45:40.941Z</time></trkpt><trkpt lat="45.89124" lon="4.5783483"><ele>274.2</ele><time>2026-04-23T14:45:41.941Z</time></trkpt><trkpt lat="45.8911483" lon="4.5783067"><ele>275.0</ele><time>2026-04-23T14:45:42.94Z</time></trkpt><trkpt lat="45.8910633" lon="4.5782667"><ele>275.0</ele><time>2026-04-23T14:45:43.94Z</time></trkpt><trkpt lat="45.8909917" lon="4.5782317"><ele>275.0</ele><time>2026-04-23T14:45:44.94Z</time></trkpt><trkpt lat="45.8908767" lon="4.57817"><ele>275.0</ele><time>2026-04-23T14:45:46.94Z</time></trkpt><trkpt lat="45.8908283" lon="4.5781117"><ele>275.0</ele><time>2026-04-23T14:45:47.94Z</time></trkpt><trkpt lat="45.8907833" lon="4.57804"><ele>275.0</ele><time>2026-04-23T14:45:48.941Z</time></trkpt><trkpt lat="45.890735" lon="4.57796"><ele>275.0</ele><time>2026-04-23T14:45:49.941Z</time></trkpt><trkpt lat="45.890695" lon="4.5778833"><ele>275.6</ele><time>2026-04-23T14:45:50.94Z</time></trkpt><trkpt lat="45.890655" lon="4.5778067"><ele>276.2</ele><time>2026-04-23T14:45:51.94Z</time></trkpt><trkpt lat="45.8905717" lon="4.5777533"><ele>276.8</ele><time>2026-04-23T14:45:53.94Z</time></trkpt><trkpt lat="45.8904633" lon="4.5777317"><ele>277.4</ele><time>2026-04-23T14:45:55.941Z</time></trkpt><trkpt lat="45.8903517" lon="4.5777433"><ele>278.0</ele><time>2026-04-23T14:45:57.94Z</time></trkpt><trkpt lat="45.8902283" lon="4.5777467"><ele>278.0</ele><time>2026-04-23T14:45:59.94Z</time></trkpt><trkpt lat="45.8901533" lon="4.577745"><ele>278.0</ele><time>2026-04-23T14:46:00.94Z</time></trkpt><trkpt lat="45.8900833" lon="4.5777433"><ele>278.0</ele><time>2026-04-23T14:46:01.941Z</time></trkpt><trkpt lat="45.89001" lon="4.5777467"><ele>278.0</ele><time>2026-04-23T14:46:02.941Z</time></trkpt><trkpt lat="45.8899317" lon="4.5777433"><ele>278.0</ele><time>2026-04-23T14:46:03.941Z</time></trkpt><trkpt lat="45.889865" lon="4.577745"><ele>278.0</ele><time>2026-04-23T14:46:04.941Z</time></trkpt><trkpt lat="45.88977" lon="4.5777667"><ele>279.6666666666667</ele><time>2026-04-23T14:46:06.941Z</time></trkpt><trkpt lat="45.8896733" lon="4.5778167"><ele>281.33333333333337</ele><time>2026-04-23T14:46:08.941Z</time></trkpt><trkpt lat="45.889575" lon="4.5779367"><ele>283.0</ele><time>2026-04-23T14:46:10.941Z</time></trkpt><trkpt lat="45.889525" lon="4.57801"><ele>284.6666666666667</ele><time>2026-04-23T14:46:11.941Z</time></trkpt><trkpt lat="45.8894767" lon="4.5780833"><ele>286.3333333333333</ele><time>2026-04-23T14:46:12.94Z</time></trkpt><trkpt lat="45.8894267" lon="4.5781517"><ele>288.0</ele><time>2026-04-23T14:46:13.941Z</time></trkpt><trkpt lat="45.8893717" lon="4.5782317"><ele>288.5</ele><time>2026-04-23T14:46:14.94Z</time></trkpt><trkpt lat="45.8893133" lon="4.57831"><ele>289.0</ele><time>2026-04-23T14:46:15.941Z</time></trkpt><trkpt lat="45.8892533" lon="4.5783783"><ele>289.5</ele><time>2026-04-23T14:46:16.94Z</time></trkpt><trkpt lat="45.8891983" lon="4.5784317"><ele>290.0</ele><time>2026-04-23T14:46:17.941Z</time></trkpt><trkpt lat="45.8891283" lon="4.5784933"><ele>290.5</ele><time>2026-04-23T14:46:18.94Z</time></trkpt><trkpt lat="45.8890617" lon="4.57856"><ele>291.0</ele><time>2026-04-23T14:46:19.94Z</time></trkpt><trkpt lat="45.888995" lon="4.5786217"><ele>291.1666666666667</ele><time>2026-04-23T14:46:20.94Z</time></trkpt><trkpt lat="45.88893" lon="4.5786817"><ele>291.3333333333333</ele><time>2026-04-23T14:46:21.94Z</time></trkpt><trkpt lat="45.88886" lon="4.57874"><ele>291.5</ele><time>2026-04-23T14:46:22.941Z</time></trkpt><trkpt lat="45.88879" lon="4.5787917"><ele>291.66666666666663</ele><time>2026-04-23T14:46:23.94Z</time></trkpt><trkpt lat="45.8887267" lon="4.5788233"><ele>291.8333333333333</ele><time>2026-04-23T14:46:24.941Z</time></trkpt><trkpt lat="45.8886233" lon="4.57884"><ele>292.0</ele><time>2026-04-23T14:46:26.94Z</time></trkpt><trkpt lat="45.8885283" lon="4.578755"><ele>292.0</ele><time>2026-04-23T14:46:28.941Z</time></trkpt><trkpt lat="45.8884833" lon="4.5786767"><ele>292.0</ele><time>2026-04-23T14:46:29.94Z</time></trkpt><trkpt lat="45.8884383" lon="4.5785967"><ele>292.0</ele><time>2026-04-23T14:46:30.94Z</time></trkpt><trkpt lat="45.8883983" lon="4.5785033"><ele>292.0</ele><time>2026-04-23T14:46:31.94Z</time></trkpt><trkpt lat="45.888355" lon="4.57842"><ele>292.0</ele><time>2026-04-23T14:46:32.941Z</time></trkpt><trkpt lat="45.8883117" lon="4.5783533"><ele>292.0</ele><time>2026-04-23T14:46:33.941Z</time></trkpt><trkpt lat="45.88823" lon="4.578225"><ele>291.8</ele><time>2026-04-23T14:46:35.94Z</time></trkpt><trkpt lat="45.8881717" lon="4.5781567"><ele>291.6</ele><time>2026-04-23T14:46:36.941Z</time></trkpt><trkpt lat="45.8881083" lon="4.57809"><ele>291.40000000000003</ele><time>2026-04-23T14:46:37.94Z</time></trkpt><trkpt lat="45.8880433" lon="4.5780183"><ele>291.2</ele><time>2026-04-23T14:46:38.94Z</time></trkpt><trkpt lat="45.8879483" lon="4.5779167"><ele>291.0</ele><time>2026-04-23T14:46:40.941Z</time></trkpt><trkpt lat="45.8878533" lon="4.57781"><ele>291.0</ele><time>2026-04-23T14:46:42.941Z</time></trkpt><trkpt lat="45.8877817" lon="4.577725"><ele>291.0</ele><time>2026-04-23T14:46:44.94Z</time></trkpt><trkpt lat="45.88771" lon="4.5776017"><ele>291.0</ele><time>2026-04-23T14:46:46.941Z</time></trkpt><trkpt lat="45.887665" lon="4.5775317"><ele>291.0</ele><time>2026-04-23T14:46:47.941Z</time></trkpt><trkpt lat="45.8876183" lon="4.5774517"><ele>291.0</ele><time>2026-04-23T14:46:48.94Z</time></trkpt><trkpt lat="45.8875333" lon="4.57734"><ele>291.0</ele><time>2026-04-23T14:46:50.94Z</time></trkpt><trkpt lat="45.8874333" lon="4.5772417"><ele>291.0</ele><time>2026-04-23T14:46:52.94Z</time></trkpt><trkpt lat="45.8873467" lon="4.5771583"><ele>291.0</ele><time>2026-04-23T14:46:54.94Z</time></trkpt><trkpt lat="45.88726" lon="4.5770817"><ele>291.0</ele><time>2026-04-23T14:46:56.941Z</time></trkpt><trkpt lat="45.88715" lon="4.5770033"><ele>291.8333333333333</ele><time>2026-04-23T14:46:58.94Z</time></trkpt><trkpt lat="45.8870367" lon="4.5769183"><ele>292.6666666666667</ele><time>2026-04-23T14:47:00.94Z</time></trkpt><trkpt lat="45.8869767" lon="4.5768567"><ele>293.5</ele><time>2026-04-23T14:47:01.94Z</time></trkpt><trkpt lat="45.8869117" lon="4.5767983"><ele>294.33333333333337</ele><time>2026-04-23T14:47:02.94Z</time></trkpt><trkpt lat="45.8868483" lon="4.57674"><ele>295.1666666666667</ele><time>2026-04-23T14:47:03.941Z</time></trkpt><trkpt lat="45.8867833" lon="4.57668"><ele>296.0</ele><time>2026-04-23T14:47:04.94Z</time></trkpt><trkpt lat="45.886715" lon="4.5766233"><ele>296.0</ele><time>2026-04-23T14:47:05.94Z</time></trkpt><trkpt lat="45.886645" lon="4.5765717"><ele>296.0</ele><time>2026-04-23T14:47:06.941Z</time></trkpt><trkpt lat="45.8865917" lon="4.57652"><ele>296.0</ele><time>2026-04-23T14:47:07.94Z</time></trkpt><trkpt lat="45.88651" lon="4.5763917"><ele>296.0</ele><time>2026-04-23T14:47:09.941Z</time></trkpt><trkpt lat="45.8864667" lon="4.5763"><ele>296.0</ele><time>2026-04-23T14:47:10.94Z</time></trkpt><trkpt lat="45.8864217" lon="4.57622"><ele>296.0</ele><time>2026-04-23T14:47:11.94Z</time></trkpt><trkpt lat="45.8863367" lon="4.5761083"><ele>296.33333333333337</ele><time>2026-04-23T14:47:13.941Z</time></trkpt><trkpt lat="45.8862683" lon="4.576045"><ele>296.6666666666667</ele><time>2026-04-23T14:47:14.94Z</time></trkpt><trkpt lat="45.8861917" lon="4.5759783"><ele>297.0</ele><time>2026-04-23T14:47:15.94Z</time></trkpt><trkpt lat="45.8861283" lon="4.5759217"><ele>297.3333333333333</ele><time>2026-04-23T14:47:16.941Z</time></trkpt><trkpt lat="45.88605" lon="4.5758433"><ele>297.66666666666663</ele><time>2026-04-23T14:47:18.94Z</time></trkpt><trkpt lat="45.88599" lon="4.575765"><ele>298.0</ele><time>2026-04-23T14:47:20.941Z</time></trkpt><trkpt lat="45.8859283" lon="4.57568"><ele>298.0</ele><time>2026-04-23T14:47:22.94Z</time></trkpt><trkpt lat="45.8858733" lon="4.5756033"><ele>298.0</ele><time>2026-04-23T14:47:23.941Z</time></trkpt><trkpt lat="45.8858067" lon="4.5755067"><ele>298.0</ele><time>2026-04-23T14:47:24.94Z</time></trkpt><trkpt lat="45.8857267" lon="4.5753883"><ele>298.0</ele><time>2026-04-23T14:47:25.941Z</time></trkpt><trkpt lat="45.885645" lon="4.57525"><ele>298.0</ele><time>2026-04-23T14:47:26.94Z</time></trkpt><trkpt lat="45.8855667" lon="4.5751167"><ele>298.8</ele><time>2026-04-23T14:47:27.94Z</time></trkpt><trkpt lat="45.88549" lon="4.574995"><ele>299.6</ele><time>2026-04-23T14:47:28.94Z</time></trkpt><trkpt lat="45.8854083" lon="4.574865"><ele>300.4</ele><time>2026-04-23T14:47:29.941Z</time></trkpt><trkpt lat="45.885345" lon="4.574745"><ele>301.2</ele><time>2026-04-23T14:47:30.941Z</time></trkpt><trkpt lat="45.8852717" lon="4.5746317"><ele>302.0</ele><time>2026-04-23T14:47:31.94Z</time></trkpt><trkpt lat="45.8851983" lon="4.5745217"><ele>303.8</ele><time>2026-04-23T14:47:32.94Z</time></trkpt><trkpt lat="45.8851267" lon="4.574405"><ele>305.6</ele><time>2026-04-23T14:47:33.941Z</time></trkpt><trkpt lat="45.8850567" lon="4.5742933"><ele>307.40000000000003</ele><time>2026-04-23T14:47:34.941Z</time></trkpt><trkpt lat="45.88499" lon="4.5741817"><ele>309.2</ele><time>2026-04-23T14:47:35.94Z</time></trkpt><trkpt lat="45.884925" lon="4.5740733"><ele>311.0</ele><time>2026-04-23T14:47:36.94Z</time></trkpt><trkpt lat="45.8848633" lon="4.5739667"><ele>311.8</ele><time>2026-04-23T14:47:37.941Z</time></trkpt><trkpt lat="45.884805" lon="4.573855"><ele>312.6</ele><time>2026-04-23T14:47:38.94Z</time></trkpt><trkpt lat="45.884745" lon="4.5737533"><ele>313.4</ele><time>2026-04-23T14:47:39.941Z</time></trkpt><trkpt lat="45.884685" lon="4.5736417"><ele>314.2</ele><time>2026-04-23T14:47:40.941Z</time></trkpt><trkpt lat="45.88463" lon="4.5735383"><ele>315.0</ele><time>2026-04-23T14:47:41.941Z</time></trkpt><trkpt lat="45.8845733" lon="4.5734333"><ele>315.8333333333333</ele><time>2026-04-23T14:47:42.941Z</time></trkpt><trkpt lat="45.8845267" lon="4.5733383"><ele>316.6666666666667</ele><time>2026-04-23T14:47:43.941Z</time></trkpt><trkpt lat="45.88449" lon="4.573235"><ele>317.5</ele><time>2026-04-23T14:47:44.94Z</time></trkpt><trkpt lat="45.884455" lon="4.573125"><ele>318.33333333333337</ele><time>2026-04-23T14:47:45.941Z</time></trkpt><trkpt lat="45.88443" lon="4.5730017"><ele>319.1666666666667</ele><time>2026-04-23T14:47:46.94Z</time></trkpt><trkpt lat="45.88441" lon="4.5728733"><ele>320.0</ele><time>2026-04-23T14:47:47.94Z</time></trkpt><trkpt lat="45.8843917" lon="4.572755"><ele>321.4</ele><time>2026-04-23T14:47:48.94Z</time></trkpt><trkpt lat="45.88437" lon="4.5726267"><ele>322.8</ele><time>2026-04-23T14:47:49.94Z</time></trkpt><trkpt lat="45.884345" lon="4.5724967"><ele>324.20000000000005</ele><time>2026-04-23T14:47:50.94Z</time></trkpt><trkpt lat="45.884315" lon="4.572365"><ele>325.6</ele><time>2026-04-23T14:47:51.941Z</time></trkpt><trkpt lat="45.8842867" lon="4.57224"><ele>327.0</ele><time>2026-04-23T14:47:52.94Z</time></trkpt><trkpt lat="45.8842617" lon="4.5721133"><ele>328.20000000000005</ele><time>2026-04-23T14:47:53.94Z</time></trkpt><trkpt lat="45.884235" lon="4.571985"><ele>329.4</ele><time>2026-04-23T14:47:54.94Z</time></trkpt><trkpt lat="45.8842017" lon="4.5718533"><ele>330.6</ele><time>2026-04-23T14:47:55.941Z</time></trkpt><trkpt lat="45.884155" lon="4.57173"><ele>331.79999999999995</ele><time>2026-04-23T14:47:56.941Z</time></trkpt><trkpt lat="45.8841067" lon="4.571615"><ele>333.0</ele><time>2026-04-23T14:47:57.941Z</time></trkpt><trkpt lat="45.88404" lon="4.57149"><ele>333.0</ele><time>2026-04-23T14:47:58.94Z</time></trkpt><trkpt lat="45.8839717" lon="4.5713667"><ele>333.0</ele><time>2026-04-23T14:47:59.94Z</time></trkpt><trkpt lat="45.8839083" lon="4.5712467"><ele>333.0</ele><time>2026-04-23T14:48:00.941Z</time></trkpt><trkpt lat="45.8838383" lon="4.5711283"><ele>333.0</ele><time>2026-04-23T14:48:01.94Z</time></trkpt><trkpt lat="45.8837767" lon="4.5710033"><ele>333.0</ele><time>2026-04-23T14:48:02.94Z</time></trkpt><trkpt lat="45.8837267" lon="4.5708933"><ele>332.79999999999995</ele><time>2026-04-23T14:48:03.94Z</time></trkpt><trkpt lat="45.883685" lon="4.5707917"><ele>332.6</ele><time>2026-04-23T14:48:04.94Z</time></trkpt><trkpt lat="45.8836367" lon="4.5706933"><ele>332.4</ele><time>2026-04-23T14:48:05.94Z</time></trkpt><trkpt lat="45.8835683" lon="4.57058"><ele>332.20000000000005</ele><time>2026-04-23T14:48:06.94Z</time></trkpt><trkpt lat="45.8834883" lon="4.5704517"><ele>332.0</ele><time>2026-04-23T14:48:07.941Z</time></trkpt><trkpt lat="45.8834" lon="4.5703133"><ele>333.5</ele><time>2026-04-23T14:48:08.941Z</time></trkpt><trkpt lat="45.88331" lon="4.5701917"><ele>335.0</ele><time>2026-04-23T14:48:09.94Z</time></trkpt><trkpt lat="45.8832183" lon="4.5700733"><ele>336.5</ele><time>2026-04-23T14:48:10.941Z</time></trkpt><trkpt lat="45.8831267" lon="4.569955"><ele>338.0</ele><time>2026-04-23T14:48:11.94Z</time></trkpt><trkpt lat="45.88305" lon="4.5698483"><ele>338.0</ele><time>2026-04-23T14:48:12.94Z</time></trkpt><trkpt lat="45.8829867" lon="4.56975"><ele>338.0</ele><time>2026-04-23T14:48:13.94Z</time></trkpt><trkpt lat="45.882925" lon="4.569665"><ele>338.0</ele><time>2026-04-23T14:48:14.94Z</time></trkpt><trkpt lat="45.8828583" lon="4.569575"><ele>338.0</ele><time>2026-04-23T14:48:15.94Z</time></trkpt><trkpt lat="45.882785" lon="4.5694667"><ele>338.0</ele><time>2026-04-23T14:48:16.94Z</time></trkpt><trkpt lat="45.8827083" lon="4.5693633"><ele>338.2</ele><time>2026-04-23T14:48:17.941Z</time></trkpt><trkpt lat="45.8826367" lon="4.569275"><ele>338.4</ele><time>2026-04-23T14:48:18.941Z</time></trkpt><trkpt lat="45.8825683" lon="4.5691767"><ele>338.59999999999997</ele><time>2026-04-23T14:48:19.941Z</time></trkpt><trkpt lat="45.8825033" lon="4.569055"><ele>338.79999999999995</ele><time>2026-04-23T14:48:20.94Z</time></trkpt><trkpt lat="45.8824383" lon="4.568925"><ele>339.0</ele><time>2026-04-23T14:48:21.941Z</time></trkpt><trkpt lat="45.8823717" lon="4.5687967"><ele>338.3333333333333</ele><time>2026-04-23T14:48:22.941Z</time></trkpt><trkpt lat="45.8823133" lon="4.5686817"><ele>337.6666666666667</ele><time>2026-04-23T14:48:23.94Z</time></trkpt><trkpt lat="45.8822633" lon="4.5685783"><ele>337.0</ele><time>2026-04-23T14:48:24.94Z</time></trkpt><trkpt lat="45.8822133" lon="4.5684717"><ele>336.33333333333337</ele><time>2026-04-23T14:48:25.94Z</time></trkpt><trkpt lat="45.8821667" lon="4.568365"><ele>335.6666666666667</ele><time>2026-04-23T14:48:26.94Z</time></trkpt><trkpt lat="45.8821183" lon="4.5682717"><ele>335.0</ele><time>2026-04-23T14:48:27.94Z</time></trkpt><trkpt lat="45.882075" lon="4.568175"><ele>335.0</ele><time>2026-04-23T14:48:28.94Z</time></trkpt><trkpt lat="45.88204" lon="4.5680817"><ele>335.0</ele><time>2026-04-23T14:48:29.941Z</time></trkpt><trkpt lat="45.8820283" lon="4.5679667"><ele>335.0</ele><time>2026-04-23T14:48:30.94Z</time></trkpt><trkpt lat="45.8820433" lon="4.567825"><ele>335.0</ele><time>2026-04-23T14:48:31.94Z</time></trkpt><trkpt lat="45.8820833" lon="4.5676567"><ele>335.0</ele><time>2026-04-23T14:48:32.941Z</time></trkpt><trkpt lat="45.88212" lon="4.567495"><ele>334.6</ele><time>2026-04-23T14:48:33.94Z</time></trkpt><trkpt lat="45.88214" lon="4.5673367"><ele>334.2</ele><time>2026-04-23T14:48:34.94Z</time></trkpt><trkpt lat="45.8821633" lon="4.5671917"><ele>333.79999999999995</ele><time>2026-04-23T14:48:35.941Z</time></trkpt><trkpt lat="45.8821767" lon="4.56705"><ele>333.4</ele><time>2026-04-23T14:48:36.94Z</time></trkpt><trkpt lat="45.8822017" lon="4.5669283"><ele>333.0</ele><time>2026-04-23T14:48:37.94Z</time></trkpt><trkpt lat="45.88223" lon="4.5668033"><ele>333.59999999999997</ele><time>2026-04-23T14:48:38.941Z</time></trkpt><trkpt lat="45.88228" lon="4.5666933"><ele>334.2</ele><time>2026-04-23T14:48:39.941Z</time></trkpt><trkpt lat="45.8823533" lon="4.56659"><ele>334.8</ele><time>2026-04-23T14:48:40.94Z</time></trkpt><trkpt lat="45.882435" lon="4.5664917"><ele>335.4</ele><time>2026-04-23T14:48:41.941Z</time></trkpt><trkpt lat="45.88253" lon="4.5663883"><ele>336.0</ele><time>2026-04-23T14:48:42.941Z</time></trkpt><trkpt lat="45.8826217" lon="4.566285"><ele>336.0</ele><time>2026-04-23T14:48:43.94Z</time></trkpt><trkpt lat="45.8827033" lon="4.566195"><ele>336.0</ele><time>2026-04-23T14:48:44.94Z</time></trkpt><trkpt lat="45.8827717" lon="4.566095"><ele>336.0</ele><time>2026-04-23T14:48:45.94Z</time></trkpt><trkpt lat="45.8828317" lon="4.5659883"><ele>336.0</ele><time>2026-04-23T14:48:46.941Z</time></trkpt><trkpt lat="45.8828783" lon="4.565885"><ele>336.0</ele><time>2026-04-23T14:48:47.94Z</time></trkpt><trkpt lat="45.882915" lon="4.56577"><ele>337.1666666666667</ele><time>2026-04-23T14:48:48.94Z</time></trkpt><trkpt lat="45.8829383" lon="4.5656667"><ele>338.3333333333333</ele><time>2026-04-23T14:48:49.94Z</time></trkpt><trkpt lat="45.8829567" lon="4.5655733"><ele>339.5</ele><time>2026-04-23T14:48:50.94Z</time></trkpt><trkpt lat="45.8830033" lon="4.5654083"><ele>340.66666666666663</ele><time>2026-04-23T14:48:52.94Z</time></trkpt><trkpt lat="45.8830867" lon="4.5653117"><ele>341.8333333333333</ele><time>2026-04-23T14:48:54.94Z</time></trkpt><trkpt lat="45.8831533" lon="4.5653183"><ele>343.0</ele><time>2026-04-23T14:48:55.94Z</time></trkpt><trkpt lat="45.8832483" lon="4.5653517"><ele>343.0</ele><time>2026-04-23T14:48:56.94Z</time></trkpt><trkpt lat="45.8833583" lon="4.5654017"><ele>343.0</ele><time>2026-04-23T14:48:57.941Z</time></trkpt><trkpt lat="45.88348" lon="4.5654433"><ele>343.0</ele><time>2026-04-23T14:48:58.94Z</time></trkpt><trkpt lat="45.8836083" lon="4.5654917"><ele>343.0</ele><time>2026-04-23T14:48:59.941Z</time></trkpt><trkpt lat="45.8837283" lon="4.5655317"><ele>344.16666666666663</ele><time>2026-04-23T14:49:00.94Z</time></trkpt><trkpt lat="45.883825" lon="4.5655533"><ele>345.3333333333333</ele><time>2026-04-23T14:49:01.941Z</time></trkpt><trkpt lat="45.8838933" lon="4.565575"><ele>346.5</ele><time>2026-04-23T14:49:02.94Z</time></trkpt><trkpt lat="45.8839583" lon="4.5655833"><ele>347.6666666666667</ele><time>2026-04-23T14:49:03.94Z</time></trkpt><trkpt lat="45.8840867" lon="4.5655967"><ele>348.83333333333337</ele><time>2026-04-23T14:49:05.941Z</time></trkpt><trkpt lat="45.8841517" lon="4.5655533"><ele>350.0</ele><time>2026-04-23T14:49:06.94Z</time></trkpt><trkpt lat="45.8842067" lon="4.5654867"><ele>350.0</ele><time>2026-04-23T14:49:07.94Z</time></trkpt><trkpt lat="45.8842533" lon="4.5653883"><ele>350.0</ele><time>2026-04-23T14:49:08.941Z</time></trkpt><trkpt lat="45.884285" lon="4.5653067"><ele>350.0</ele><time>2026-04-23T14:49:09.94Z</time></trkpt><trkpt lat="45.8843017" lon="4.5651967"><ele>350.0</ele><time>2026-04-23T14:49:10.94Z</time></trkpt><trkpt lat="45.8842933" lon="4.5650917"><ele>350.0</ele><time>2026-04-23T14:49:11.94Z</time></trkpt><trkpt lat="45.88427" lon="4.56498"><ele>350.0</ele><time>2026-04-23T14:49:12.941Z</time></trkpt><trkpt lat="45.8842383" lon="4.5648533"><ele>350.1666666666667</ele><time>2026-04-23T14:49:13.941Z</time></trkpt><trkpt lat="45.8842017" lon="4.5647267"><ele>350.33333333333337</ele><time>2026-04-23T14:49:14.941Z</time></trkpt><trkpt lat="45.8841717" lon="4.5645983"><ele>350.5</ele><time>2026-04-23T14:49:15.941Z</time></trkpt><trkpt lat="45.884145" lon="4.5644833"><ele>350.6666666666667</ele><time>2026-04-23T14:49:16.94Z</time></trkpt><trkpt lat="45.8841217" lon="4.5643767"><ele>350.8333333333333</ele><time>2026-04-23T14:49:17.941Z</time></trkpt><trkpt lat="45.8840917" lon="4.5642733"><ele>351.0</ele><time>2026-04-23T14:49:18.94Z</time></trkpt><trkpt lat="45.8840583" lon="4.56416"><ele>351.0</ele><time>2026-04-23T14:49:19.941Z</time></trkpt><trkpt lat="45.88402" lon="4.5640283"><ele>351.0</ele><time>2026-04-23T14:49:20.94Z</time></trkpt><trkpt lat="45.8839933" lon="4.5638867"><ele>351.0</ele><time>2026-04-23T14:49:21.941Z</time></trkpt><trkpt lat="45.8839683" lon="4.5637233"><ele>351.0</ele><time>2026-04-23T14:49:22.941Z</time></trkpt><trkpt lat="45.8839417" lon="4.5635567"><ele>351.0</ele><time>2026-04-23T14:49:23.94Z</time></trkpt><trkpt lat="45.8839183" lon="4.5634183"><ele>352.0</ele><time>2026-04-23T14:49:24.941Z</time></trkpt><trkpt lat="45.8838983" lon="4.5633033"><ele>353.0</ele><time>2026-04-23T14:49:25.94Z</time></trkpt><trkpt lat="45.8838783" lon="4.5631833"><ele>354.0</ele><time>2026-04-23T14:49:26.941Z</time></trkpt><trkpt lat="45.8838533" lon="4.56306"><ele>355.0</ele><time>2026-04-23T14:49:27.941Z</time></trkpt><trkpt lat="45.8838317" lon="4.56294"><ele>356.0</ele><time>2026-04-23T14:49:28.94Z</time></trkpt><trkpt lat="45.88381" lon="4.5628467"><ele>357.0</ele><time>2026-04-23T14:49:29.94Z</time></trkpt><trkpt lat="45.8837733" lon="4.5627617"><ele>357.3333333333333</ele><time>2026-04-23T14:49:30.94Z</time></trkpt><trkpt lat="45.88372" lon="4.5626867"><ele>357.6666666666667</ele><time>2026-04-23T14:49:31.94Z</time></trkpt><trkpt lat="45.88365" lon="4.562625"><ele>358.0</ele><time>2026-04-23T14:49:32.94Z</time></trkpt><trkpt lat="45.8835733" lon="4.5625733"><ele>358.33333333333337</ele><time>2026-04-23T14:49:33.94Z</time></trkpt><trkpt lat="45.8834917" lon="4.5625267"><ele>358.6666666666667</ele><time>2026-04-23T14:49:34.94Z</time></trkpt><trkpt lat="45.8834083" lon="4.5624917"><ele>359.0</ele><time>2026-04-23T14:49:35.94Z</time></trkpt><trkpt lat="45.8833333" lon="4.5624733"><ele>359.6666666666667</ele><time>2026-04-23T14:49:36.941Z</time></trkpt><trkpt lat="45.8832617" lon="4.5624467"><ele>360.33333333333337</ele><time>2026-04-23T14:49:37.941Z</time></trkpt><trkpt lat="45.8831883" lon="4.5624117"><ele>361.0</ele><time>2026-04-23T14:49:38.941Z</time></trkpt><trkpt lat="45.8831267" lon="4.5623783"><ele>361.6666666666667</ele><time>2026-04-23T14:49:39.94Z</time></trkpt><trkpt lat="45.8830617" lon="4.5623533"><ele>362.3333333333333</ele><time>2026-04-23T14:49:40.941Z</time></trkpt><trkpt lat="45.8829517" lon="4.5622467"><ele>363.0</ele><time>2026-04-23T14:49:42.94Z</time></trkpt><trkpt lat="45.882905" lon="4.562185"><ele>363.0</ele><time>2026-04-23T14:49:43.941Z</time></trkpt><trkpt lat="45.88288" lon="4.562095"><ele>363.0</ele><time>2026-04-23T14:50:15.941Z</time></trkpt></trkseg></trk></gpx>